GFSCGP_sfc_wetblb_000.txt.gz
Wetbulb
51.99 47.56 44.90 47.41 48.42 48.82 48.51 46.44 45.62 48.20 51.06 48.03 46.38 46.72 48.70 51.08 50.07 48.85 49.22 50.25 50.58 50.92 52.12 50.92 48.84 47.10 46.23 46.48 45.78 45.87 46.54 45.86 45.46 44.98 43.82 43.49 43.32 43.91 45.17 45.88 46.87 46.85 47.53 48.10
49.40 44.50 49.97 51.83 51.41 49.00 48.08 45.61 44.70 48.01 49.84 47.96 46.95 46.42 48.99 50.17 50.15 49.55 49.28 49.63 50.63 51.05 51.22 50.45 48.04 46.03 45.72 45.49 45.56 45.37 45.86 46.28 45.41 45.28 44.33 43.61 42.89 43.99 45.04 46.52 46.31 47.01 46.72 46.98
46.84 49.82 51.46 49.98 49.28 47.44 46.91 44.89 44.72 44.78 48.32 48.03 45.65 43.06 45.32 48.65 50.23 51.56 51.28 51.08 51.45 51.26 50.76 49.80 47.02 45.52 45.11 44.57 45.20 45.57 45.58 45.71 45.85 45.28 44.85 44.59 44.35 44.57 44.26 44.22 44.95 46.16 46.29 46.40
48.87 51.07 48.56 47.69 46.48 47.47 43.25 48.66 47.55 46.67 43.44 37.92 45.62 35.96 43.68 46.77 47.65 48.86 50.64 50.64 50.70 51.02 51.76 50.95 47.90 45.94 44.57 44.83 45.89 46.10 46.04 45.16 45.94 45.49 43.95 42.59 41.54 40.82 42.08 42.86 44.13 44.69 45.68 45.33
47.04 46.77 46.14 45.76 46.39 48.33 45.72 49.34 47.61 46.50 42.93 41.32 42.31 37.82 41.01 47.13 45.32 47.66 49.06 50.21 50.97 51.29 51.07 50.67 49.08 47.55 46.11 45.63 45.39 45.31 45.31 45.14 45.31 44.16 44.24 43.19 42.21 42.47 43.19 42.79 42.82 43.09 44.05 45.08
48.02 50.28 49.01 47.82 49.71 49.40 49.07 46.82 46.61 45.10 41.78 34.56 40.61 40.63 40.08 44.20 46.58 47.77 49.13 49.94 50.46 50.81 50.77 50.60 49.88 48.93 46.30 45.71 46.46 45.97 45.21 44.62 44.86 44.55 44.08 43.19 42.16 41.87 41.17 41.57 41.33 42.04 42.89 43.57
46.31 46.69 48.85 49.82 45.99 48.41 46.75 42.30 35.51 34.42 34.25 33.61 43.37 40.56 42.63 46.79 47.03 46.58 47.68 48.61 49.51 49.83 49.69 49.12 47.98 47.90 46.06 45.15 45.76 45.96 45.35 44.64 44.61 44.13 43.42 42.60 42.61 42.42 41.59 41.23 40.89 41.08 41.15 41.78
41.52 39.67 45.79 48.19 46.22 43.70 43.12 42.56 36.73 30.85 33.03 37.41 41.87 35.71 41.53 48.12 47.87 47.62 49.30 49.20 49.49 48.71 48.77 48.06 47.82 47.65 46.62 46.18 45.58 45.24 44.68 44.26 44.34 43.52 42.88 42.66 42.43 42.76 42.37 41.86 41.63 41.04 41.27 41.80
41.94 42.15 49.62 48.31 48.38 47.64 44.21 39.64 44.93 39.47 40.63 35.94 39.07 42.77 46.27 47.15 45.20 46.48 46.88 47.33 47.83 47.99 48.14 47.78 47.73 48.09 47.48 46.29 45.67 45.70 44.99 44.56 44.40 43.58 42.63 41.30 41.09 41.33 41.70 42.06 41.90 41.66 42.23 44.54
46.23 40.81 47.93 47.76 48.40 47.89 45.61 47.36 38.50 38.39 30.45 29.06 36.32 38.09 39.78 43.41 44.47 44.49 44.34 44.72 46.95 48.32 47.97 47.58 47.60 47.65 48.10 47.03 47.07 46.56 45.50 44.30 44.19 43.57 42.12 41.75 40.97 41.28 41.56 41.71 41.38 41.57 42.30 43.08
47.70 44.43 44.08 44.24 42.56 41.94 41.86 40.93 42.63 41.79 38.54 31.59 31.88 36.17 44.46 43.53 44.56 45.11 44.30 44.99 46.50 47.47 47.93 47.54 47.13 47.13 47.23 46.67 45.88 44.95 44.51 43.65 42.80 42.72 41.82 41.05 40.94 41.39 41.05 40.60 41.24 41.72 42.44 42.49
48.89 45.30 40.25 41.22 47.00 47.74 45.79 43.00 43.23 37.01 35.04 38.76 38.10 38.12 47.76 45.33 45.69 46.18 45.47 46.57 46.69 47.73 47.70 47.37 46.72 46.02 45.87 45.30 44.39 43.56 43.04 42.50 42.74 42.82 41.47 41.06 41.10 41.07 40.28 40.34 40.84 41.95 41.40 42.15
48.33 43.29 37.30 39.92 42.79 44.82 42.61 44.54 44.36 43.43 41.48 37.74 35.38 38.17 45.96 44.56 45.58 45.58 45.13 45.84 46.62 47.11 47.07 46.51 45.87 45.73 45.42 44.91 44.10 42.87 42.58 42.17 42.78 41.57 40.64 40.50 40.41 39.97 39.76 40.39 41.14 41.52 41.45 41.90
51.23 44.68 41.27 36.26 40.50 43.48 39.54 42.60 44.22 42.81 37.75 38.02 38.70 41.09 44.30 43.47 43.84 44.52 44.68 45.90 46.01 46.71 47.16 46.16 44.94 44.82 44.52 44.31 43.65 42.85 42.18 42.62 42.04 41.27 40.27 39.59 39.62 39.82 40.32 40.89 40.94 41.28 41.68 41.56
47.57 40.61 42.88 43.99 45.40 46.02 45.13 43.13 42.72 41.15 41.88 38.35 41.21 41.94 45.52 47.25 46.90 45.14 46.35 46.25 45.77 46.15 46.33 46.12 45.50 44.77 43.87 43.22 42.63 42.70 41.86 41.45 40.74 40.18 39.79 39.67 40.23 40.64 40.61 40.44 40.90 41.37 41.20 41.36
44.11 39.50 42.35 40.54 44.38 44.62 42.91 45.04 45.41 43.05 43.07 42.80 43.18 42.33 48.29 48.11 47.28 46.54 46.76 46.94 46.36 46.20 46.79 46.82 46.48 46.02 45.02 43.65 42.41 41.80 41.23 40.64 40.57 39.67 39.57 40.34 40.75 40.33 40.07 40.51 40.67 40.29 40.34 40.40
36.36 36.87 37.48 35.52 42.28 42.48 38.74 43.12 44.75 45.33 45.45 43.78 39.88 44.15 46.55 47.08 47.90 48.58 47.48 46.79 46.17 46.14 46.73 46.58 46.35 46.02 45.27 43.40 43.77 41.03 40.58 40.50 39.49 39.22 39.28 39.69 39.86 39.86 40.08 40.54 40.09 39.34 38.95 39.37
36.53 35.99 35.03 33.33 38.65 31.42 42.77 48.18 47.88 46.04 46.92 46.66 46.28 47.05 47.98 48.25 49.15 48.98 47.47 46.53 45.20 46.22 46.13 45.92 45.79 44.93 44.12 43.80 42.16 41.24 40.42 39.28 39.08 38.57 38.76 39.19 39.33 39.48 39.89 39.39 38.81 38.48 38.97 38.94
42.06 38.76 34.56 32.75 33.62 38.93 43.41 45.97 45.52 43.38 42.70 48.12 46.57 47.70 48.54 49.49 48.02 46.74 48.43 46.94 46.55 45.56 45.44 44.93 44.65 44.20 43.65 42.11 41.52 40.51 39.46 39.30 38.88 38.51 38.34 39.04 39.37 38.77 39.01 38.36 37.94 38.39 38.56 38.49
43.01 43.00 37.89 34.85 31.76 31.32 41.01 47.47 48.58 46.07 37.28 46.88 47.66 47.86 47.85 48.03 42.37 45.78 47.61 46.64 45.56 45.79 45.47 44.82 44.42 44.18 41.63 40.86 40.71 39.53 38.70 38.36 38.02 38.98 39.40 39.60 39.38 39.02 38.51 38.19 37.95 38.40 38.27 39.47
34.31 35.03 31.37 30.66 28.36 35.71 44.45 48.17 48.07 36.71 38.87 46.21 47.06 47.79 47.23 45.37 46.97 47.06 47.04 45.99 45.44 45.17 44.96 44.79 42.99 41.20 40.41 40.92 40.52 38.86 38.28 37.59 39.64 40.38 40.18 39.97 39.54 38.96 38.82 38.34 38.19 37.74 37.44 38.59
32.48 30.58 30.23 32.64 29.41 28.50 43.61 43.03 38.40 40.69 43.62 44.52 45.80 46.68 44.95 46.15 44.82 44.46 44.37 44.19 44.56 43.83 43.27 42.35 40.29 39.51 39.91 40.59 39.58 38.21 37.33 39.68 40.40 40.09 39.93 39.24 38.70 40.23 41.15 37.57 37.27 37.24 37.22 36.94
29.72 36.35 33.28 34.91 35.51 40.70 42.75 43.89 44.05 44.20 44.55 43.88 44.19 45.17 45.79 44.02 43.36 43.42 42.72 43.08 43.61 42.78 41.61 41.36 39.68 39.44 39.80 40.06 39.29 37.45 38.63 39.99 39.99 38.86 37.96 38.27 38.98 38.78 38.61 36.93 36.24 36.24 36.91 37.10
35.26 39.20 35.67 34.75 38.69 39.67 42.78 43.85 44.55 45.36 44.34 45.29 44.99 45.38 45.62 44.38 43.61 42.56 42.48 42.06 42.35 42.17 41.20 40.67 39.89 39.17 38.82 39.46 40.03 39.07 39.65 40.44 39.26 37.37 37.05 37.42 37.15 37.72 37.62 38.28 37.65 36.53 36.38 36.12
35.11 37.04 34.82 34.56 37.85 40.42 41.87 43.10 44.19 45.40 46.75 45.81 46.09 45.56 45.02 44.32 43.79 42.86 42.42 42.58 42.70 41.87 41.47 40.30 39.53 39.48 39.22 39.77 39.45 39.97 40.51 39.91 38.01 37.02 37.28 37.09 37.66 36.96 36.48 37.27 36.69 37.42 36.64 37.99
36.09 35.19 34.04 33.57 40.33 39.87 40.66 43.29 45.99 45.06 45.63 46.74 45.44 45.50 45.51 45.76 44.83 43.89 43.04 42.47 42.22 41.54 40.60 39.60 40.83 40.27 39.32 39.18 39.05 40.13 40.33 39.65 38.06 36.99 36.84 36.72 36.79 36.51 36.79 36.32 36.65 43.65 43.68 44.28

GFSCGP_sfc_wetblb_003.txt.gz
Wetbulb
46.99 41.38 38.60 41.28 42.95 43.59 42.62 41.51 40.91 43.15 47.69 44.72 43.68 44.04 45.16 47.53 46.94 45.83 45.31 45.79 47.29 47.94 49.78 48.22 47.03 45.75 44.92 44.12 43.07 42.68 43.44 42.34 42.98 42.00 41.28 40.86 40.83 41.16 42.38 43.28 44.93 44.60 45.16 46.11
43.20 39.56 44.95 47.52 46.66 45.20 43.79 41.02 40.41 43.87 47.65 45.08 42.93 43.30 46.15 46.18 47.55 48.03 47.24 46.92 47.65 47.91 46.96 47.41 45.71 44.14 43.62 43.31 42.98 42.20 43.33 43.15 42.72 42.54 41.75 41.27 40.45 41.38 42.42 43.66 44.07 44.75 44.94 44.94
40.18 44.85 49.03 47.22 45.72 44.24 43.39 41.15 40.55 40.83 44.71 44.56 42.24 39.26 42.16 46.23 47.29 49.11 49.32 49.25 49.00 48.61 47.59 46.76 44.62 43.48 42.68 41.83 42.40 42.10 42.55 43.31 43.22 42.93 42.65 42.07 41.69 41.45 41.46 41.62 42.28 44.08 44.76 44.51
43.51 48.28 47.05 44.98 43.98 44.87 39.82 45.62 45.47 43.93 39.58 33.84 41.30 33.81 38.94 43.81 44.55 45.28 48.02 47.57 47.69 48.74 49.53 47.68 45.32 43.17 42.78 42.56 42.29 42.91 43.07 42.66 43.50 43.01 41.78 40.67 39.77 38.84 39.99 40.36 41.81 42.30 43.43 43.32
42.50 43.85 43.68 43.20 44.12 45.18 41.68 46.32 44.28 43.64 38.77 36.14 37.36 33.59 35.89 41.70 41.55 43.95 45.21 47.81 48.03 48.99 48.99 47.46 46.12 45.21 43.88 43.43 42.15 42.48 42.84 42.87 43.29 42.08 42.04 41.01 39.83 40.30 40.89 40.85 40.66 40.78 41.79 42.87
43.73 47.69 46.15 45.64 47.17 47.01 47.00 44.02 42.85 40.99 37.23 30.15 36.13 35.89 38.51 38.95 43.29 43.66 44.42 46.45 48.73 48.63 48.96 48.35 47.24 45.86 43.89 43.76 43.26 42.26 42.28 42.07 42.33 41.92 41.87 41.36 40.20 40.09 39.64 39.53 39.39 39.94 40.64 41.55
41.94 44.08 45.54 47.60 43.06 45.19 43.74 38.10 30.39 29.55 29.24 29.15 38.58 35.79 40.02 42.19 44.55 45.16 46.04 45.01 47.53 48.89 47.95 46.54 45.08 44.76 43.42 42.51 43.31 43.33 42.64 41.77 41.84 42.05 41.85 41.12 40.57 40.02 39.77 39.59 38.94 38.91 39.41 39.81
34.60 33.98 43.08 45.48 44.15 40.34 39.93 38.65 31.01 25.76 27.59 32.86 39.30 32.98 39.65 45.27 48.45 46.54 46.74 46.65 45.98 46.97 48.06 47.39 46.48 45.50 43.98 43.39 43.71 44.44 42.63 42.20 41.97 41.88 41.72 40.89 40.89 40.38 40.44 40.20 39.67 39.39 39.45 39.89
36.45 37.11 45.43 45.60 46.04 45.63 39.36 37.06 41.68 33.88 33.60 29.72 34.15 37.74 42.27 43.52 43.10 44.06 44.78 45.32 45.47 46.46 46.52 46.66 46.27 46.18 44.50 43.58 43.87 43.89 43.35 43.09 42.78 41.92 40.96 40.28 39.97 39.36 40.11 40.35 40.02 39.72 39.93 42.48
40.98 36.86 43.94 45.33 45.50 44.81 41.67 42.92 34.70 33.83 27.04 24.31 31.46 32.89 35.49 40.74 44.27 43.03 42.24 43.91 44.88 45.84 45.00 45.56 45.94 45.79 45.16 44.65 44.25 44.01 44.19 43.50 43.12 42.09 40.75 40.75 39.06 39.29 39.64 39.51 39.45 39.62 40.24 40.73
44.47 39.23 40.23 41.55 39.47 39.95 38.99 39.28 38.59 37.11 32.83 26.72 27.29 30.24 39.97 42.94 43.62 41.81 44.49 43.18 45.04 45.48 45.71 45.64 45.07 45.37 45.39 44.93 44.48 44.39 44.06 43.67 42.82 42.61 41.11 39.63 39.02 39.66 39.50 38.81 39.06 39.55 39.98 40.53
45.74 41.54 37.55 40.23 43.29 45.10 43.76 41.39 41.58 34.97 30.10 34.10 35.91 35.91 42.13 41.93 43.51 43.61 42.81 44.32 44.02 46.47 45.71 45.21 44.18 43.99 44.76 44.41 44.30 44.68 44.26 43.53 43.25 42.37 40.40 39.19 39.64 39.53 38.46 38.35 38.69 39.39 39.48 40.39
46.14 41.03 35.33 37.60 38.71 40.63 38.74 41.59 41.29 41.95 35.86 35.36 33.27 36.49 44.62 46.58 45.36 42.99 43.32 43.00 44.63 46.10 45.49 44.36 42.92 43.69 44.52 44.19 43.79 43.49 43.18 42.72 42.03 40.97 39.33 38.89 38.92 38.28 37.64 37.94 38.90 39.58 39.38 39.75
47.43 42.65 39.38 34.41 38.39 40.17 36.80 39.83 41.84 39.68 35.47 36.76 37.03 39.06 41.04 40.86 41.65 41.85 41.84 43.13 44.09 46.05 46.62 44.89 44.10 44.09 43.86 44.16 43.14 42.24 41.19 41.76 41.06 40.02 38.38 37.87 37.55 38.02 38.19 38.69 38.93 39.22 39.56 39.28
41.18 37.86 39.66 37.97 37.96 39.92 40.96 41.54 41.11 39.00 40.01 36.32 39.51 39.52 42.96 44.46 43.07 42.25 42.89 43.25 42.57 43.76 44.80 45.08 44.23 43.48 42.79 42.37 42.96 41.93 41.53 41.15 40.63 39.12 38.15 37.87 38.41 38.65 38.60 38.55 38.83 39.11 39.16 39.94
40.39 32.87 34.05 30.80 36.18 36.90 35.07 38.67 40.24 41.72 42.03 41.29 41.54 41.12 44.36 46.19 44.73 43.83 42.47 43.85 43.26 44.47 45.24 45.79 45.83 44.26 42.85 43.04 41.80 42.02 41.05 40.76 40.28 38.36 37.99 38.66 38.79 38.58 38.18 38.08 38.45 38.24 38.40 38.01
36.05 34.46 31.28 26.78 34.12 33.13 28.89 36.68 40.81 42.72 43.85 42.74 38.41 43.18 45.39 46.23 46.91 47.61 45.71 42.73 44.04 44.73 45.16 45.48 45.56 44.91 44.25 43.25 42.28 40.85 40.78 39.83 38.65 37.97 38.16 38.44 38.49 38.36 38.04 38.40 38.01 37.40 36.90 36.93
35.27 33.01 33.82 28.38 31.16 23.73 35.18 45.01 45.07 43.67 45.35 45.95 45.27 45.94 45.09 46.81 48.24 47.32 46.74 44.71 44.70 45.77 45.09 45.72 45.58 44.89 44.42 42.10 41.75 40.62 40.30 39.33 38.33 37.27 37.30 37.44 37.53 37.54 37.67 37.19 36.56 36.18 36.38 36.62
37.12 34.55 32.04 29.16 28.90 33.06 36.58 41.68 40.43 39.17 38.17 44.84 44.94 46.93 45.31 46.51 46.05 46.56 47.97 45.88 45.42 44.60 44.42 45.57 45.56 44.04 42.68 41.50 41.07 40.48 38.33 37.91 37.03 36.46 36.48 37.27 37.57 36.88 36.89 36.47 35.86 36.13 36.10 36.12
37.41 36.34 33.10 31.01 27.34 24.01 34.90 41.21 45.16 42.41 36.17 42.27 41.89 41.38 40.97 44.57 40.14 45.79 46.83 46.31 44.57 44.23 43.42 43.22 43.09 42.90 41.90 39.97 40.21 38.94 37.42 36.95 36.40 37.10 37.75 37.88 37.41 36.83 36.73 36.36 35.96 36.04 36.10 36.82
27.82 29.11 28.27 29.06 27.97 31.06 38.81 41.63 43.59 32.77 34.33 41.35 41.33 41.33 41.11 38.95 44.90 48.66 48.70 44.21 43.84 43.67 42.94 43.27 43.38 41.95 40.28 39.48 39.57 37.77 36.51 35.98 37.77 38.78 38.80 37.99 37.53 37.27 37.09 36.32 35.61 35.66 35.37 35.84
28.30 26.55 25.96 26.85 26.41 23.11 42.09 42.22 37.31 40.68 40.96 41.40 40.98 41.04 40.94 42.90 42.73 43.60 44.48 43.36 43.10 42.45 42.74 41.97 40.32 39.58 39.29 39.45 39.32 37.07 35.91 37.81 38.81 38.67 38.06 37.45 36.86 38.45 39.55 35.69 34.97 34.96 34.44 33.67
25.46 31.19 27.33 29.79 29.49 37.57 39.11 39.21 45.07 44.67 42.14 41.80 41.81 42.79 43.94 42.98 42.51 41.59 40.66 41.51 42.17 41.10 40.57 40.86 39.53 38.21 38.28 38.56 38.85 36.19 36.82 38.17 38.28 37.16 36.72 36.49 37.40 36.82 36.52 34.72 34.43 33.73 34.19 34.32
32.37 33.78 30.85 30.60 34.71 36.43 38.81 41.20 42.46 43.52 43.08 43.77 45.74 45.46 46.93 43.69 43.84 41.23 40.77 40.94 40.77 40.16 38.75 39.41 38.86 37.82 36.66 37.22 37.83 37.65 37.61 38.55 37.46 35.84 35.25 35.45 35.02 35.59 35.34 35.98 35.49 34.10 34.11 33.92
32.39 32.00 30.80 29.88 33.98 35.47 38.07 40.93 42.43 42.90 43.76 45.31 46.77 47.50 47.16 45.78 45.02 42.97 41.61 40.67 40.05 39.45 39.37 40.09 39.29 38.56 38.09 37.91 37.90 37.82 38.36 38.64 36.79 35.56 35.22 35.11 35.68 34.94 34.43 35.01 34.84 35.16 34.79 36.15
33.85 31.75 28.13 27.97 34.82 34.47 36.62 40.20 41.83 41.14 41.98 43.77 44.20 45.37 47.99 48.59 46.94 45.67 41.24 41.05 40.20 39.76 40.13 39.56 39.52 39.51 39.41 38.50 37.89 38.20 39.37 38.82 37.57 36.28 35.12 34.71 34.90 34.69 34.59 34.30 34.97 41.04 43.24 44.41

GFSCGP_sfc_wetblb_006.txt.gz
Wetbulb
45.28 40.04 37.66 40.23 41.70 40.59 39.41 38.25 38.32 41.16 45.34 43.47 42.51 43.42 45.12 45.87 45.65 46.17 45.09 45.50 45.69 47.27 50.00 48.46 47.33 45.71 44.01 42.34 41.36 41.86 42.01 41.25 41.58 40.47 40.00 39.62 39.92 40.17 41.23 41.92 43.72 43.42 43.87 44.74
41.29 37.95 43.15 44.77 44.31 42.69 41.15 38.47 37.72 41.70 45.28 43.29 41.59 41.96 45.39 44.28 45.26 46.62 46.92 45.86 45.90 47.20 47.02 46.98 47.48 45.42 44.82 42.88 42.20 41.01 42.51 41.63 41.77 41.23 40.38 40.14 39.61 39.99 41.09 42.22 43.17 43.27 43.46 43.92
37.84 42.67 46.92 45.06 43.37 42.19 41.38 39.65 38.20 39.73 42.55 42.42 40.57 39.61 41.00 44.44 46.17 48.21 48.64 48.56 48.07 47.47 47.61 47.06 46.81 45.42 44.31 43.31 42.33 42.10 41.96 42.38 42.13 42.00 41.35 40.45 40.57 40.14 40.39 40.70 40.82 42.41 43.55 43.52
41.42 46.41 45.39 43.23 42.33 43.17 38.84 43.70 43.56 42.60 38.72 33.50 40.46 34.25 37.21 40.76 42.38 43.47 46.90 48.43 48.08 48.18 49.08 48.44 47.20 45.60 43.84 44.55 43.65 42.61 42.56 42.23 42.38 41.69 40.93 39.90 39.20 38.14 38.97 39.46 40.52 41.39 42.02 41.78
40.22 42.63 42.03 42.44 43.77 43.84 41.28 45.09 43.17 42.14 37.17 34.11 36.20 32.37 34.35 39.15 39.69 42.85 43.63 46.13 48.08 49.43 48.92 47.78 47.30 46.17 45.09 44.44 43.28 43.15 42.20 42.42 42.27 41.45 41.25 39.89 38.69 39.18 39.70 39.41 39.51 39.35 40.30 41.43
42.29 45.97 44.37 43.57 45.78 45.16 45.15 42.06 40.48 38.27 35.07 29.04 36.23 34.84 38.38 38.33 41.91 44.35 45.83 44.85 46.00 47.97 48.14 48.64 48.19 46.43 44.40 43.72 43.13 41.96 41.86 42.22 41.68 41.42 40.58 40.19 39.46 39.11 38.71 38.66 38.38 39.08 39.44 40.34
38.64 41.21 44.68 46.49 41.98 43.92 42.45 36.86 29.35 27.93 27.50 29.45 36.88 34.14 39.47 39.88 41.26 42.51 44.54 45.68 43.92 46.97 47.14 46.98 45.32 44.44 43.12 42.22 42.35 42.52 42.02 41.23 41.37 41.20 41.00 40.44 40.02 39.28 39.06 38.84 38.35 38.00 38.43 38.83
33.52 33.71 41.19 44.62 43.97 40.62 38.95 37.91 30.71 25.05 26.15 32.13 35.74 31.16 38.03 42.54 46.59 47.44 46.24 45.45 43.85 45.12 46.90 45.87 46.01 44.91 43.35 43.10 42.52 43.02 41.91 41.85 41.02 41.16 41.09 40.63 40.45 39.69 39.29 39.17 38.90 38.42 38.56 38.96
33.79 34.96 43.35 44.21 45.99 44.56 39.38 35.33 40.22 33.30 30.53 27.51 31.66 35.98 40.52 42.21 42.67 42.92 42.92 43.37 44.29 45.10 46.14 46.06 45.84 44.98 44.03 43.44 43.07 43.17 42.10 42.38 41.45 41.41 41.56 39.65 39.51 39.15 39.15 39.50 38.95 38.72 38.68 40.79
38.32 34.68 42.34 44.14 43.64 42.87 41.47 41.75 33.26 31.75 26.72 25.00 30.78 30.13 34.71 37.63 42.97 43.91 42.01 42.62 44.45 44.59 44.64 45.52 44.79 44.72 44.29 44.03 43.83 43.62 43.23 42.59 42.08 41.82 41.49 40.78 39.13 38.67 38.83 38.69 38.58 38.69 39.12 39.62
40.90 37.26 38.61 40.40 38.40 37.93 37.51 37.89 36.84 35.06 32.76 29.65 29.30 33.49 38.57 42.05 42.99 41.91 42.25 43.74 45.06 44.43 45.22 45.32 45.24 45.25 44.23 43.44 43.21 43.16 42.93 42.77 42.27 42.16 41.22 39.61 38.79 38.15 38.08 38.06 38.43 38.44 38.69 38.77
44.83 41.58 35.25 38.25 43.80 44.69 43.25 40.84 40.58 35.02 32.37 30.09 34.62 35.50 40.27 40.55 41.47 42.08 44.32 43.36 42.92 44.70 44.37 44.47 43.78 43.26 43.03 42.54 42.29 42.33 42.80 42.70 43.06 42.85 41.55 40.26 38.89 38.28 37.56 37.54 37.71 38.11 38.12 38.96
44.15 39.69 34.86 36.24 39.65 39.80 37.20 39.70 40.54 39.55 39.06 34.94 32.42 35.89 43.48 44.50 44.95 42.59 41.93 42.18 43.06 44.95 43.65 42.81 41.35 42.82 43.66 43.25 42.58 42.74 42.79 42.93 43.08 42.54 41.35 39.67 38.41 37.59 37.15 37.18 37.39 37.88 37.97 38.19
44.59 39.46 37.99 33.28 35.46 35.36 33.75 33.73 38.21 35.68 34.20 35.56 36.04 38.21 42.67 41.55 40.45 42.20 42.04 41.75 42.18 44.09 45.47 44.17 42.64 43.22 44.02 44.16 43.47 43.29 42.96 43.39 42.77 42.21 40.52 39.06 37.87 37.58 37.18 37.45 37.61 37.92 38.12 37.63
41.50 34.08 35.43 35.50 36.16 36.07 34.25 33.54 32.80 33.02 33.35 30.05 34.31 37.66 42.96 45.10 45.37 46.06 45.23 41.47 40.81 41.88 43.75 44.07 43.59 43.06 43.22 43.29 43.20 43.55 43.01 42.61 42.17 41.13 39.49 38.72 38.25 37.48 37.50 37.52 37.70 37.81 37.48 37.74
38.32 30.32 34.28 31.64 34.49 33.59 30.92 33.17 34.98 34.57 34.04 35.15 38.87 38.27 46.03 47.07 45.06 45.07 45.71 42.50 41.90 42.20 44.36 45.70 45.48 44.07 42.82 43.18 42.89 42.94 41.69 41.53 41.73 40.75 39.40 38.61 38.02 37.43 37.21 37.30 37.18 36.68 36.55 36.53
33.15 31.88 27.61 24.86 31.45 31.62 26.84 32.03 33.83 35.41 37.65 37.18 33.44 39.59 41.64 39.06 41.69 45.37 44.41 44.69 44.29 44.48 43.97 44.85 45.39 44.70 44.18 43.62 43.96 41.73 40.94 41.14 40.64 39.50 38.80 38.37 38.07 37.49 37.24 37.32 36.73 36.02 35.44 35.46
32.73 31.40 29.77 25.13 27.72 19.74 32.64 39.20 39.10 36.94 38.13 40.68 40.48 40.68 39.90 39.56 40.73 42.08 46.36 48.07 46.61 44.14 44.66 45.24 46.13 45.90 44.77 43.82 43.08 42.17 40.93 40.17 39.66 38.41 37.87 37.84 37.35 37.17 36.92 35.98 35.31 34.80 35.09 35.10
34.82 34.32 30.56 26.55 23.28 29.14 32.66 37.35 38.96 37.12 36.38 39.52 38.19 38.93 39.27 39.13 39.82 40.94 46.22 45.06 46.53 45.87 45.64 46.53 47.12 46.10 42.89 42.38 41.65 40.75 39.60 39.31 38.46 37.50 37.34 37.20 36.96 35.97 35.59 34.98 34.61 34.63 34.67 34.80
33.87 35.64 30.11 24.18 15.37 16.53 29.69 37.56 42.32 41.33 30.07 40.37 40.77 39.23 38.22 38.06 32.40 37.09 43.96 45.25 45.59 44.85 47.07 44.98 44.36 42.44 41.72 40.93 40.61 39.49 38.36 37.95 37.58 37.26 37.32 37.13 36.51 35.82 35.14 35.16 34.73 34.93 34.83 35.56
26.87 28.33 26.46 26.69 24.39 28.35 36.44 39.20 41.28 27.07 31.23 40.62 41.21 40.25 39.63 37.15 38.99 42.72 45.64 45.96 45.32 45.33 43.33 42.83 42.70 42.36 41.23 39.99 40.10 38.33 37.30 37.34 37.90 37.87 37.77 36.74 36.03 35.64 35.87 35.16 34.62 34.61 34.45 34.49
26.53 25.46 24.18 26.29 23.43 17.75 39.89 36.83 30.63 34.83 39.81 41.31 41.20 41.11 41.29 42.53 43.72 44.74 46.04 45.18 41.48 41.35 42.07 41.93 39.82 38.29 38.56 39.75 39.72 36.99 36.95 36.95 38.34 38.17 37.38 36.32 35.41 37.74 37.78 34.89 34.27 33.82 33.19 32.18
23.89 29.01 26.87 28.00 25.70 33.94 36.97 37.45 39.88 39.94 37.30 39.67 40.40 41.63 43.96 42.99 44.31 45.52 44.37 45.42 39.54 40.78 40.65 40.19 38.38 36.78 37.25 38.47 38.99 36.71 35.71 38.19 37.93 36.66 35.60 35.31 35.53 35.55 35.69 33.98 33.38 32.66 32.58 32.26
29.72 33.58 31.01 30.80 33.31 35.23 37.55 38.96 38.85 38.73 38.61 41.08 42.20 41.87 44.78 43.65 45.00 44.82 44.23 45.51 41.50 39.38 38.61 38.95 38.22 37.53 36.46 36.97 38.24 38.12 37.82 38.77 37.93 35.83 35.21 34.59 34.36 34.56 34.46 35.19 34.30 32.97 32.79 32.29
31.59 31.98 30.99 30.55 33.54 35.40 36.71 37.22 36.69 38.05 39.65 40.15 41.20 41.37 43.16 45.10 45.44 44.89 44.79 44.85 45.71 39.50 39.08 39.66 39.00 38.25 36.71 37.77 38.12 38.67 38.96 38.96 37.59 35.42 34.94 34.68 35.19 36.65 35.38 34.35 33.85 34.09 33.42 34.46
33.98 32.18 29.83 28.27 34.43 33.79 34.35 37.63 38.90 38.26 38.65 39.50 39.22 40.07 42.88 45.58 45.52 46.19 45.58 46.56 46.41 39.50 38.66 37.53 38.27 38.00 37.66 38.97 38.62 38.97 39.84 39.20 37.61 35.92 34.61 35.07 35.06 34.95 34.17 33.55 34.10 39.84 41.91 42.95

GFSCGP_sfc_wetblb_009.txt.gz
Wetbulb
43.61 38.80 36.65 39.31 40.73 38.59 37.50 35.90 35.35 38.38 43.03 42.09 40.72 42.13 44.56 45.34 44.59 45.54 45.55 45.93 46.18 46.90 50.21 49.18 48.04 46.83 44.17 42.44 41.57 42.45 42.10 41.25 41.49 39.16 38.91 38.53 39.01 39.47 40.25 41.16 43.04 42.46 42.77 43.73
39.85 36.15 41.29 42.92 42.75 41.29 39.22 36.55 36.13 39.33 42.59 41.89 40.50 41.15 44.25 45.64 43.22 46.22 46.33 46.48 46.72 47.91 48.85 47.33 47.43 45.56 45.29 43.41 43.11 42.45 43.07 41.90 41.99 41.99 39.48 39.45 38.91 39.16 40.30 41.45 42.06 42.44 42.40 42.94
36.94 40.86 45.29 43.10 40.78 39.65 39.57 37.92 36.72 37.42 41.14 40.90 38.69 39.65 39.52 43.14 45.26 45.90 46.66 48.36 48.64 47.72 47.65 47.99 47.09 46.24 45.91 43.93 42.87 42.91 42.99 42.45 42.74 41.77 40.18 38.99 39.54 39.40 39.76 40.33 40.60 41.37 42.14 42.70
39.35 44.56 43.29 41.15 40.44 41.10 36.77 42.10 41.97 40.59 36.95 34.23 38.66 33.25 36.55 39.84 42.08 43.03 45.67 46.40 46.88 47.58 48.51 49.01 47.72 47.33 46.13 45.10 44.60 44.01 43.33 42.62 43.06 41.72 40.61 39.31 38.82 37.85 38.74 39.50 39.83 40.57 41.55 41.20
39.26 40.95 40.90 40.16 41.51 42.62 39.47 43.64 41.51 40.56 36.21 33.33 34.97 32.31 33.37 37.31 38.17 41.08 43.43 44.50 46.64 48.29 48.39 48.09 48.43 48.48 47.69 46.50 43.81 43.86 43.23 42.83 43.40 41.86 42.02 40.46 38.09 38.46 38.63 38.65 39.02 38.85 39.46 40.36
41.29 44.51 43.38 42.77 44.32 44.35 43.98 40.53 39.22 36.88 33.75 29.22 35.69 33.97 37.49 39.20 40.47 42.16 44.19 44.56 44.43 46.34 47.11 48.85 49.58 48.63 47.50 46.06 44.04 43.02 42.26 42.17 42.35 41.63 40.92 40.29 39.10 38.34 38.07 37.73 37.86 38.24 38.76 39.49
36.82 39.35 42.60 44.57 40.43 42.36 40.87 35.80 28.84 27.28 26.58 30.52 35.48 33.39 38.70 38.70 40.42 41.29 43.84 45.34 45.31 42.85 44.08 47.18 46.56 46.43 45.37 44.36 43.66 43.12 42.15 41.48 41.37 41.23 40.91 40.16 39.83 39.00 38.84 38.40 38.00 37.76 37.82 38.19
32.08 32.91 39.09 42.31 41.41 38.72 38.29 38.23 32.27 24.60 25.46 31.87 33.65 29.98 37.87 41.69 44.01 45.10 44.76 45.02 45.61 45.03 44.50 45.43 46.53 46.45 44.57 43.65 43.11 43.30 41.86 41.61 41.48 41.24 40.66 40.51 40.44 40.11 39.60 39.15 38.47 38.09 38.28 38.55
32.76 32.70 41.83 43.18 43.55 42.56 37.17 33.69 40.71 33.36 36.65 27.21 34.41 35.57 39.89 41.33 41.13 42.86 42.35 42.96 44.01 46.51 43.41 44.70 44.84 45.55 44.35 42.59 42.97 43.52 42.11 42.03 41.48 41.56 41.15 40.28 40.60 39.61 39.47 38.94 38.44 38.50 38.34 40.19
37.54 32.73 40.68 42.61 42.44 41.68 39.76 40.46 32.51 30.29 26.23 26.18 31.92 28.83 33.70 37.09 39.21 41.92 41.96 42.56 43.06 44.17 43.26 43.47 44.32 44.84 43.78 43.13 43.34 43.74 43.03 42.03 41.56 41.51 41.47 41.19 40.66 40.26 39.88 38.47 38.18 38.23 38.56 38.74
42.37 36.98 38.02 40.13 38.16 38.89 39.13 35.34 35.35 34.78 32.49 29.47 28.28 32.80 39.59 41.18 43.34 43.24 41.92 41.42 42.56 43.70 43.52 43.10 43.21 43.48 43.40 43.26 43.11 42.89 42.07 42.15 41.20 41.45 41.42 41.26 40.20 39.52 38.43 38.15 38.20 38.44 38.24 38.46
43.63 40.98 35.44 37.84 43.90 45.41 42.86 38.66 36.44 32.87 31.52 31.52 33.24 34.27 40.14 38.96 40.88 41.10 41.25 42.47 43.00 42.39 43.76 43.42 42.65 41.68 41.61 41.86 42.43 42.38 42.20 42.03 41.72 41.50 41.13 40.57 40.31 38.98 37.31 37.16 37.32 37.79 37.64 38.11
41.66 37.53 29.68 31.25 36.50 37.41 34.80 35.93 36.45 34.66 33.96 30.97 28.89 32.93 42.81 41.58 40.67 44.08 44.06 43.86 44.13 42.87 42.94 42.47 41.25 41.85 41.83 41.60 41.86 42.22 42.21 42.14 42.07 41.60 40.82 40.28 39.36 38.19 37.16 37.11 36.92 36.95 37.07 37.38
42.51 36.60 32.82 27.69 32.19 35.39 32.42 34.97 35.93 33.81 27.87 27.67 28.71 30.36 35.11 37.67 38.03 41.50 42.64 45.31 44.98 41.96 42.46 42.53 40.84 41.58 42.32 41.98 41.59 41.86 41.88 42.55 42.08 41.81 40.95 40.02 38.74 38.55 38.01 37.62 36.73 36.80 37.08 37.02
37.36 29.54 31.34 32.05 33.04 33.30 32.33 33.58 34.08 31.25 31.58 27.59 29.26 30.78 34.51 37.71 40.32 40.21 41.46 42.26 41.80 44.14 45.22 42.79 42.84 42.42 42.44 42.24 41.48 41.85 41.78 41.94 42.04 41.68 40.85 40.33 39.79 38.92 37.67 36.99 36.71 36.98 36.87 37.08
35.11 28.97 30.84 27.57 31.13 31.12 29.16 31.77 32.52 32.78 32.65 32.16 33.03 32.00 38.38 40.15 42.03 40.36 40.34 41.15 41.94 43.08 44.75 45.40 44.86 44.26 42.38 42.77 42.40 42.26 41.78 41.78 42.14 41.54 40.61 40.14 38.74 38.05 37.51 37.11 36.47 36.28 36.26 35.51
30.74 28.39 25.75 23.14 28.67 28.29 24.55 28.75 30.25 31.81 33.94 33.95 30.65 36.21 39.95 39.24 39.03 38.54 38.06 40.54 41.88 42.27 44.37 44.50 45.28 45.10 44.46 43.98 44.16 42.56 42.26 42.35 41.55 41.08 40.41 39.19 38.65 37.98 37.30 37.14 36.17 35.38 34.55 34.57
29.76 28.55 28.78 25.03 27.00 18.87 29.20 35.25 35.35 33.70 35.55 37.86 39.16 39.21 39.56 38.43 39.63 40.05 40.89 42.48 41.76 43.07 44.67 45.72 45.95 45.81 45.27 44.52 44.13 43.52 42.06 41.42 41.20 40.49 39.29 39.06 38.62 38.00 37.04 35.79 35.02 34.06 34.02 34.35
32.45 28.87 26.17 20.27 21.23 26.40 29.44 33.42 32.87 31.91 32.57 38.96 32.64 37.11 40.29 40.94 39.52 38.86 43.06 43.15 43.16 44.96 46.37 46.62 47.07 46.71 45.86 43.21 43.67 42.17 40.51 40.55 40.30 38.97 38.37 38.44 38.52 37.26 36.13 34.61 33.70 33.55 34.02 33.75
32.13 31.80 26.00 23.94 20.18 17.24 28.27 33.97 37.05 36.05 26.69 37.76 36.63 37.38 37.66 38.63 32.23 35.64 42.66 43.75 44.84 45.66 45.86 45.39 43.47 44.34 44.92 43.08 42.37 40.48 39.50 39.37 38.80 38.34 38.44 38.41 38.13 37.07 35.67 34.50 33.68 33.86 33.96 34.90
24.29 24.36 22.57 21.47 18.46 24.50 31.84 35.66 37.77 24.87 26.41 36.13 37.94 38.64 38.46 36.64 38.40 41.40 44.17 44.81 46.27 44.90 45.53 45.19 42.52 43.70 44.38 41.58 41.18 39.29 38.49 38.42 39.51 38.93 37.93 37.21 36.96 36.29 35.75 34.21 33.68 33.94 33.95 34.01
22.83 18.79 20.38 19.86 16.74 16.87 36.00 35.26 29.78 34.19 37.99 38.59 37.74 37.46 38.20 39.94 41.27 42.63 44.34 45.29 45.24 43.99 45.16 43.08 40.11 40.61 40.32 40.98 40.69 37.90 37.57 37.67 37.55 37.60 37.12 36.39 35.42 37.71 36.70 34.10 33.73 33.50 33.01 32.07
23.26 27.91 25.14 25.26 25.88 33.36 36.65 35.91 38.14 38.47 37.36 37.09 37.16 38.87 39.10 38.47 38.90 42.09 42.98 44.22 44.36 44.33 45.06 41.25 36.93 37.08 38.11 39.83 39.75 37.42 34.85 37.18 37.40 37.06 35.96 35.53 35.43 35.95 35.23 33.92 33.61 32.57 32.02 31.62
27.80 32.69 29.54 29.61 31.78 34.00 35.81 37.50 38.16 38.51 37.00 37.70 38.92 38.71 39.57 37.85 39.37 39.03 41.25 44.75 44.82 45.26 45.78 39.56 38.07 36.50 36.54 37.17 38.00 36.57 37.50 38.55 38.15 36.42 35.18 34.79 35.39 34.53 34.72 35.50 34.49 32.85 32.23 31.63
31.62 32.60 31.06 30.64 32.71 34.29 35.35 35.51 35.83 37.41 38.21 38.27 38.99 39.34 38.96 38.19 38.09 40.11 42.61 44.91 45.55 46.08 46.38 39.66 38.51 37.53 36.91 37.10 36.83 38.74 39.26 39.03 37.14 36.42 35.47 35.48 36.71 36.29 34.96 34.76 34.17 33.53 33.68 34.26
33.78 31.81 29.53 27.77 33.99 33.63 34.26 37.33 38.34 36.92 37.06 37.97 37.56 37.33 38.69 39.40 39.48 40.58 41.32 45.56 46.38 46.50 46.73 42.86 39.02 38.55 37.91 38.37 38.39 38.80 39.44 39.26 37.86 36.55 36.32 36.46 35.89 36.17 35.30 34.49 34.30 40.68 41.44 43.10

GFSCGP_sfc_wetblb_012.txt.gz
Wetbulb
42.24 37.89 34.31 37.04 38.97 38.33 35.41 33.95 34.03 36.55 40.91 39.80 38.85 40.40 42.96 45.43 42.73 43.48 44.01 44.29 44.54 46.17 49.64 49.34 47.78 47.63 46.52 44.54 43.18 43.42 43.55 42.75 42.32 39.96 39.37 37.81 38.32 38.53 39.06 40.25 42.07 41.68 42.57 43.14
38.58 34.86 39.69 41.23 40.73 40.03 38.46 35.76 35.98 37.92 40.82 40.15 38.47 39.47 42.84 44.61 43.06 45.16 45.52 45.63 46.31 47.29 48.10 46.55 47.18 46.63 46.05 45.27 45.03 43.87 44.42 42.82 43.00 43.46 38.81 39.11 38.06 38.24 39.73 40.74 41.24 41.86 41.75 42.44
35.47 38.21 43.93 41.64 39.04 38.01 37.42 35.50 36.41 36.66 38.97 39.22 37.80 38.50 40.09 41.80 44.17 43.51 45.33 47.47 48.10 47.49 47.90 48.56 46.86 46.41 47.07 46.05 44.68 44.20 44.11 43.47 43.52 42.69 39.79 37.87 38.89 38.57 38.85 39.22 40.02 41.03 41.47 41.85
37.85 41.99 41.31 39.03 38.70 39.15 34.46 39.78 39.93 38.63 34.93 32.72 37.27 32.47 35.53 38.71 41.43 41.20 43.22 44.72 46.07 47.03 48.03 48.98 48.15 46.95 46.61 47.10 46.14 45.67 44.75 43.45 43.24 41.96 41.61 39.15 39.07 37.35 38.43 39.35 39.77 40.49 40.84 41.10
37.67 38.87 39.10 39.00 39.88 40.84 37.48 42.15 39.92 38.89 34.54 32.46 33.96 31.28 38.74 37.07 36.63 39.82 41.81 42.66 45.05 46.76 47.23 47.51 48.10 48.78 48.42 48.48 45.73 45.53 44.38 43.46 43.69 42.21 42.78 41.50 37.87 38.40 37.96 38.21 38.86 38.66 39.24 39.75
40.57 42.37 42.01 41.38 43.41 42.58 42.22 38.86 37.77 35.37 32.83 27.81 34.79 32.95 36.82 37.55 38.26 40.17 41.75 43.15 44.13 44.73 45.02 46.57 48.52 49.03 48.54 48.29 46.20 44.67 43.35 43.30 43.43 42.68 42.30 41.79 40.43 38.12 37.33 36.98 37.69 37.64 37.88 38.52
35.49 37.92 41.31 42.70 38.05 40.18 39.59 34.54 27.92 26.43 25.96 28.81 35.36 32.74 38.30 38.44 37.76 40.14 41.86 43.82 45.63 43.92 41.96 42.80 44.79 46.40 47.10 45.83 44.94 44.04 43.39 42.40 42.54 42.28 41.70 41.63 41.00 39.59 39.10 38.58 38.58 37.29 37.20 37.38
30.22 30.71 37.27 41.10 38.07 35.64 35.19 34.79 28.23 24.16 23.13 27.53 32.29 29.12 37.02 38.95 41.24 41.46 42.87 43.26 42.89 43.49 43.90 42.12 43.98 45.37 45.91 44.99 43.69 43.77 42.58 42.23 41.77 42.05 41.49 41.63 40.64 40.62 40.07 39.37 38.29 38.60 38.52 38.35
32.15 31.26 42.01 45.06 43.85 40.56 35.00 32.08 37.30 32.28 34.92 29.56 33.56 35.51 41.12 41.88 40.82 41.05 41.65 42.07 42.88 44.69 44.91 42.92 43.96 43.87 44.01 43.95 43.20 43.07 42.13 42.80 41.86 41.94 41.73 40.95 40.35 39.82 39.68 38.67 38.90 38.53 38.27 39.89
38.84 34.43 41.20 41.97 44.04 42.02 38.16 38.66 32.04 30.82 25.37 25.13 30.44 29.52 33.63 38.68 40.84 41.61 40.10 41.75 43.35 44.69 45.47 44.23 43.05 43.32 43.77 43.39 43.07 43.04 43.00 42.83 41.96 41.75 41.84 41.26 40.86 40.56 40.07 39.07 38.31 38.12 38.28 38.85
40.28 37.67 36.50 39.92 37.81 37.16 38.06 36.88 35.13 34.43 34.89 28.79 26.72 30.68 36.61 33.70 36.60 38.11 40.03 42.33 44.04 44.79 45.57 44.28 44.76 42.35 42.43 41.19 41.97 42.37 42.56 42.58 41.33 41.66 41.61 41.16 40.32 40.02 39.46 39.20 38.94 38.76 38.08 38.07
39.98 37.45 30.40 32.37 38.97 42.03 39.99 37.87 37.73 30.72 29.04 28.85 27.67 28.62 38.03 38.30 39.10 39.69 39.79 42.08 44.47 45.34 45.54 45.26 42.89 41.39 40.20 40.35 40.75 41.45 42.02 41.86 41.62 41.99 41.19 40.45 40.51 40.00 38.84 38.59 38.42 38.24 38.05 37.92
37.22 31.31 23.63 25.26 29.35 34.59 33.03 36.18 36.40 34.01 32.13 27.04 24.80 27.85 40.17 39.22 38.72 39.57 39.38 42.04 43.15 43.88 44.61 45.45 44.02 41.20 39.68 39.73 39.81 40.90 41.33 41.70 41.52 41.21 40.81 40.29 39.88 39.17 39.06 38.51 37.65 37.44 36.95 37.08
40.13 32.19 28.58 23.04 26.83 31.53 28.22 30.47 31.70 29.73 23.94 24.16 26.59 29.70 33.86 35.71 36.27 38.37 39.44 41.58 41.72 42.15 43.38 44.60 43.93 43.32 40.50 39.87 39.92 40.64 40.86 41.59 40.83 40.77 40.42 39.51 39.13 39.40 39.17 38.39 37.24 37.09 36.77 36.29
33.18 26.66 28.64 29.51 30.65 30.74 29.53 29.04 29.59 27.22 27.82 23.97 27.34 28.29 32.60 36.55 37.64 38.76 40.77 40.76 40.55 40.39 42.23 43.69 44.42 44.79 44.25 40.36 39.51 40.71 41.10 41.11 40.81 40.28 39.96 39.77 39.68 39.82 38.82 37.38 37.02 36.99 36.27 36.51
32.49 27.68 29.07 26.11 29.38 28.88 26.52 29.14 29.57 29.54 29.55 28.89 29.40 29.34 36.64 39.92 40.50 40.67 40.26 40.55 39.48 39.48 42.18 43.65 44.63 45.74 45.46 43.22 41.72 40.68 40.82 40.99 41.08 40.53 40.05 40.25 39.34 38.83 38.02 37.57 36.78 36.36 35.74 35.46
29.48 26.63 22.67 21.42 27.07 26.90 22.38 27.82 29.57 31.01 32.35 31.85 27.41 32.47 34.51 34.25 35.20 37.79 40.05 40.33 39.83 40.08 42.10 43.16 44.65 45.93 46.11 46.10 44.66 41.64 41.21 42.01 40.69 40.96 40.74 39.92 39.47 38.62 37.99 37.63 36.59 35.65 34.83 34.02
28.78 27.44 27.44 22.30 23.03 12.75 26.38 33.27 33.62 32.27 33.15 35.32 34.17 34.59 36.01 35.45 36.87 39.08 41.93 41.09 40.12 41.77 42.93 44.05 45.29 45.36 46.19 46.10 45.90 44.06 42.05 40.86 40.69 40.73 40.06 39.80 39.24 38.65 37.91 36.89 36.39 34.09 33.78 33.83
31.21 26.84 22.19 18.18 16.26 23.27 26.95 31.36 30.83 28.91 28.74 36.05 34.38 35.14 36.54 38.35 38.94 37.89 41.85 40.89 41.64 42.93 44.25 45.47 46.03 45.52 46.35 44.35 43.70 43.44 41.28 40.84 40.57 40.39 39.78 39.51 39.30 38.09 36.99 36.32 35.07 33.51 33.53 33.03
30.76 29.95 25.57 21.39 17.83 14.61 25.96 32.38 35.12 35.89 24.62 35.44 35.06 34.65 35.59 36.46 29.35 33.77 40.43 42.00 42.58 43.68 45.15 45.96 45.92 45.83 45.87 42.73 43.96 43.21 41.08 40.27 40.08 40.41 40.15 39.99 39.54 38.23 36.95 36.23 34.49 33.02 33.48 34.24
22.93 22.68 21.94 21.44 17.45 21.34 30.26 32.97 36.81 22.00 24.74 35.07 35.82 35.59 35.75 33.05 35.15 38.68 40.81 40.54 41.97 43.69 45.24 45.96 45.54 45.21 42.91 41.18 43.21 42.95 41.45 39.71 41.68 41.48 39.94 39.06 38.95 37.95 37.39 35.43 34.31 34.10 33.58 33.99
20.51 18.17 18.05 18.56 18.71 15.81 33.25 34.06 28.37 32.88 36.04 36.10 35.87 36.22 35.45 36.72 37.81 38.44 39.42 39.60 40.74 40.78 43.47 45.64 45.90 43.65 39.51 39.19 41.59 42.24 40.09 41.72 40.89 39.30 38.23 37.55 37.15 38.44 36.57 35.35 33.84 33.56 33.37 33.18
21.38 26.01 22.38 25.68 24.19 32.13 35.25 34.86 37.16 37.37 35.93 35.66 35.36 36.62 36.76 36.44 36.67 37.94 38.41 38.72 39.18 40.69 44.79 46.35 45.83 40.86 37.17 37.57 40.15 39.42 38.78 38.53 38.11 37.58 36.52 35.89 36.60 35.94 35.62 34.77 33.43 32.93 32.69 32.71
27.77 32.28 28.16 27.92 30.89 32.01 34.77 37.16 38.07 37.68 36.76 37.44 37.72 37.27 37.32 36.01 37.31 37.51 37.86 38.57 39.71 41.45 45.22 46.52 45.70 41.28 36.29 36.36 37.39 38.23 38.23 38.04 37.31 35.61 35.57 36.12 35.50 35.15 36.17 36.21 35.71 34.57 33.03 31.86
29.70 30.51 29.74 29.68 31.96 33.58 34.04 35.97 37.41 37.73 38.23 37.77 38.18 37.70 37.08 36.87 36.68 37.37 37.93 38.83 41.03 42.35 46.49 46.41 45.43 42.21 38.14 36.96 36.90 37.33 37.28 37.30 35.99 35.23 35.57 35.91 37.63 36.20 35.54 36.05 35.87 35.53 33.96 35.17
33.21 30.78 28.62 27.14 33.64 33.87 34.18 37.07 38.04 36.22 35.86 36.76 36.38 36.68 38.03 38.19 37.46 38.34 38.39 39.65 40.94 41.99 46.32 45.09 44.90 42.81 39.50 37.75 36.74 37.45 38.25 38.00 36.43 35.36 36.19 37.11 37.02 36.44 36.27 35.61 35.70 40.11 39.45 41.81

GFSCGP_sfc_wetblb_015.txt.gz
Wetbulb
45.41 42.05 38.66 40.80 43.07 41.66 39.78 38.28 38.03 41.52 43.76 42.31 42.59 42.90 45.00 47.51 46.80 47.32 48.48 49.16 49.29 50.04 53.04 53.83 54.01 54.07 54.21 54.61 54.14 52.84 52.26 51.59 50.19 48.26 46.95 47.10 46.78 46.83 47.56 48.48 49.12 50.09 50.00 49.66
41.87 38.84 42.04 42.01 41.91 41.57 40.79 38.97 38.74 41.86 43.52 41.87 41.47 41.33 44.72 46.05 46.65 48.17 48.10 49.05 49.83 50.97 51.48 52.30 52.58 52.76 52.40 53.32 53.07 52.01 51.61 51.02 49.96 50.25 49.52 49.33 48.38 47.31 48.27 48.20 48.34 48.73 49.09 49.56
38.19 40.61 43.36 42.41 41.05 39.36 39.36 38.11 38.41 38.77 41.67 42.60 40.35 40.62 43.41 45.38 46.97 47.96 48.05 49.70 50.55 50.87 50.93 52.01 51.68 51.66 51.83 52.12 51.78 51.98 51.39 51.04 50.44 50.19 48.15 45.44 46.71 45.92 46.00 46.37 47.10 47.19 48.27 49.01
40.28 43.14 42.34 40.98 39.74 40.79 36.36 41.72 41.11 39.77 38.18 35.46 42.27 34.99 42.22 44.44 45.70 45.36 47.09 48.22 49.35 50.67 51.30 51.61 52.23 51.32 51.27 51.40 52.42 52.30 51.51 51.08 50.20 49.61 47.16 46.39 47.30 46.43 47.29 47.60 47.20 47.27 47.71 48.01
40.21 41.51 41.60 40.49 41.57 42.01 40.84 42.78 40.92 40.38 38.31 37.44 39.17 36.70 42.01 44.39 43.39 45.50 48.20 48.77 47.88 49.48 50.71 50.88 51.32 52.55 52.46 53.10 52.30 51.41 51.03 50.50 50.01 47.61 48.79 47.86 48.47 49.32 47.08 46.33 46.45 47.19 47.22 47.62
41.55 44.00 43.94 42.99 44.09 43.65 44.59 42.36 40.59 38.23 37.98 32.58 38.70 37.49 39.01 42.08 42.69 44.69 46.84 47.79 48.27 48.60 48.64 49.00 50.74 51.85 52.63 53.14 52.78 51.24 50.04 49.42 49.40 47.72 48.38 47.88 48.15 46.49 45.46 45.89 46.19 46.19 46.42 46.42
37.50 39.13 43.02 44.50 41.21 42.63 42.43 37.98 31.78 31.09 30.77 31.57 37.76 36.96 40.22 43.61 45.94 45.52 45.61 46.27 45.87 48.13 48.84 48.46 47.80 49.21 50.93 52.02 51.54 50.22 49.40 48.53 48.60 47.29 47.74 47.86 48.43 47.55 47.06 46.00 46.39 45.04 44.98 44.97
32.41 33.53 40.26 44.00 42.69 40.77 39.53 38.96 33.35 27.06 29.24 32.78 37.81 33.74 39.72 44.24 44.76 44.33 44.86 45.21 46.57 47.72 48.90 49.21 49.53 49.85 49.45 50.32 51.18 49.82 48.56 48.14 47.93 47.14 47.41 47.97 48.31 47.46 47.86 46.81 46.60 45.80 45.90 46.17
36.86 34.32 43.45 44.97 44.79 42.80 39.00 36.49 40.23 34.33 36.99 32.20 35.78 39.51 43.65 46.21 43.14 42.00 42.25 43.12 43.64 45.84 47.38 48.29 49.28 49.86 50.12 48.81 49.60 48.84 48.14 47.82 47.32 46.54 47.30 47.20 47.16 47.31 46.56 46.37 46.51 46.64 46.30 45.99
40.19 32.19 41.23 43.11 44.34 43.10 41.12 41.69 33.48 35.05 27.13 25.86 32.89 35.03 36.39 41.61 38.00 40.55 41.02 41.85 42.17 45.03 46.97 47.67 48.80 49.53 50.24 48.55 48.56 47.97 47.97 46.89 46.51 46.73 47.34 46.81 46.52 46.85 47.00 46.46 45.13 45.38 45.76 46.31
39.90 37.58 35.27 38.18 36.42 35.21 35.67 33.35 34.36 35.48 33.60 27.09 26.00 31.79 37.51 37.92 39.72 38.46 39.13 41.83 42.33 44.50 45.62 46.95 48.24 49.46 49.43 47.48 46.41 46.47 46.51 46.11 46.05 46.16 46.75 46.62 45.90 46.15 46.20 45.58 45.70 45.69 45.80 45.69
38.20 36.57 28.29 30.18 36.73 38.67 37.22 35.35 32.74 25.31 23.80 26.42 23.77 22.65 38.47 40.04 38.65 38.72 40.38 41.77 43.26 44.35 45.67 47.17 47.77 47.84 48.75 48.68 45.98 44.87 45.78 45.54 45.91 45.90 45.83 45.94 45.69 45.73 45.60 45.56 45.50 45.73 44.97 45.15
36.14 30.37 23.26 25.79 30.35 34.00 31.39 32.78 32.40 31.64 29.49 22.85 19.71 23.18 37.04 37.38 37.64 39.94 39.96 42.21 43.45 44.41 45.37 45.33 45.42 46.90 47.87 48.95 47.86 45.57 44.84 45.33 45.78 45.09 44.92 45.38 44.80 44.82 45.29 45.33 45.27 44.91 44.96 44.53
39.48 32.93 28.55 21.66 25.61 31.20 27.38 29.70 31.39 30.00 23.43 24.33 25.00 27.09 32.44 35.05 36.03 37.94 39.91 41.63 42.60 44.01 44.44 44.61 45.09 46.56 47.24 48.83 48.88 46.70 45.14 45.04 45.18 44.60 44.49 44.37 44.29 44.99 45.32 45.41 44.78 44.33 44.48 43.93
34.64 27.61 29.45 29.77 30.52 30.58 29.61 28.99 29.39 27.48 28.31 24.11 27.07 28.08 32.39 34.96 35.16 36.90 38.87 40.43 41.26 42.45 43.51 44.12 44.70 46.10 47.01 48.09 48.99 48.77 44.99 44.49 44.71 43.65 43.65 44.23 44.74 45.15 45.12 44.59 44.21 44.04 43.65 43.67
34.27 26.84 29.39 26.17 29.57 29.35 26.97 29.22 29.80 29.89 30.11 30.10 30.63 30.07 36.77 36.82 38.16 37.65 38.37 39.45 39.87 41.55 43.14 43.95 44.82 45.56 46.60 47.51 47.85 48.43 48.36 44.66 44.14 43.34 43.16 44.56 44.04 44.05 43.94 43.77 43.48 43.09 42.83 42.70
30.20 28.25 26.08 21.47 27.54 26.86 22.93 28.23 29.08 29.58 31.11 30.78 26.89 32.20 36.61 35.37 36.48 37.72 38.56 39.61 40.05 41.70 42.79 43.33 43.84 45.13 46.14 47.58 47.85 47.84 48.03 47.71 43.84 43.21 43.32 43.65 43.26 43.04 42.90 43.13 42.85 42.51 42.18 42.00
29.78 28.28 27.52 22.64 23.99 16.07 28.38 33.86 32.87 30.59 32.73 34.00 33.82 35.52 36.34 36.20 37.64 39.55 40.89 39.84 40.94 41.00 41.71 42.60 43.57 44.80 46.91 48.60 48.14 48.71 48.39 45.37 44.66 42.73 43.01 43.23 42.83 42.65 42.64 42.37 42.15 42.41 42.11 41.46
32.82 29.18 24.42 20.52 19.90 24.97 27.80 31.01 30.52 28.87 28.88 35.07 33.48 34.72 35.94 37.34 37.66 37.30 40.52 41.45 40.88 41.64 42.32 43.03 44.40 45.62 47.64 48.16 48.38 48.18 45.41 43.84 44.25 42.35 42.90 43.02 42.92 42.47 41.98 41.65 41.74 41.88 41.26 41.11
30.40 30.94 26.83 24.29 18.48 15.63 27.39 32.82 35.72 35.25 24.38 34.85 35.16 34.77 35.15 36.27 30.21 33.66 39.60 40.46 40.93 42.04 42.71 42.91 44.27 44.92 47.00 47.75 48.35 44.30 41.91 42.26 43.65 43.27 43.10 43.47 43.13 42.74 41.68 42.26 41.61 41.48 41.49 40.63
25.31 25.06 21.85 22.44 20.95 24.11 31.02 33.62 37.51 22.96 26.26 35.61 36.30 36.17 35.97 33.70 36.05 38.48 40.21 40.08 41.35 41.97 42.25 43.26 43.44 44.83 47.31 48.01 45.78 41.39 39.54 39.60 44.09 44.73 43.89 43.36 43.26 42.63 42.83 42.25 41.67 40.69 41.03 40.49
23.79 21.60 20.96 22.58 19.13 16.53 34.00 34.24 27.74 33.05 36.34 36.84 37.20 37.34 36.35 37.30 38.08 38.66 39.47 39.68 40.41 40.68 41.43 42.75 43.47 46.35 47.51 46.97 43.44 39.23 38.06 40.77 45.29 44.23 43.47 42.50 42.42 42.02 41.64 41.08 40.50 40.69 40.35 39.95
23.24 27.93 25.22 26.19 25.27 33.06 35.60 35.12 37.31 37.85 36.65 37.21 37.25 38.07 38.13 37.33 37.40 38.48 38.45 39.32 39.84 40.54 41.54 43.18 44.43 46.96 46.92 45.71 41.34 37.50 38.40 42.80 44.25 43.43 41.85 41.15 41.59 41.59 40.75 40.02 39.18 39.03 40.04 39.52
28.57 32.29 28.69 28.05 31.50 32.98 34.91 37.03 38.08 38.28 37.63 38.68 39.00 38.38 38.42 37.14 37.89 37.92 38.56 39.25 39.68 40.68 41.02 42.76 44.53 45.82 44.96 42.92 39.92 38.51 38.97 41.58 41.91 40.92 39.89 39.45 39.92 38.77 39.84 40.04 40.03 38.92 38.94 38.90
30.62 32.12 30.04 29.34 32.04 33.95 35.32 36.89 37.91 38.27 38.62 37.97 38.32 38.24 37.91 38.04 38.02 38.44 38.45 38.80 39.50 40.10 40.78 42.42 44.14 45.39 44.15 41.25 39.43 39.09 38.80 39.63 39.47 38.96 38.46 38.24 39.31 38.81 38.78 39.41 39.52 39.82 40.41 40.56
32.53 30.54 28.97 28.11 34.17 34.50 35.00 37.77 38.83 36.98 36.26 37.06 36.66 36.92 38.65 39.09 37.69 38.11 37.96 38.94 38.98 38.87 40.54 41.49 43.90 45.41 42.74 40.52 39.81 40.19 39.44 38.81 37.84 37.47 38.11 38.91 38.23 38.71 38.47 38.72 39.18 41.47 41.31 42.16

GFSCGP_sfc_wetblb_018.txt.gz
Wetbulb
49.87 46.31 44.68 45.91 47.05 46.20 44.71 43.34 42.94 45.82 48.27 46.70 45.99 46.37 48.24 50.54 50.86 50.95 51.81 52.25 52.56 52.90 55.09 56.46 58.38 59.28 59.73 60.75 61.50 62.83 64.62 64.19 63.77 60.93 58.17 56.94 55.52 55.62 55.77 55.46 55.47 55.45 55.13 54.51
47.10 44.69 47.12 45.59 45.45 44.98 44.91 43.19 43.28 45.91 47.23 46.30 46.18 45.85 48.98 50.43 50.97 51.81 51.84 52.18 53.07 54.24 54.99 55.97 56.58 58.04 58.44 58.95 60.25 60.74 62.02 63.65 63.33 61.12 60.07 58.60 57.14 56.50 55.81 55.14 54.55 55.11 54.78 54.05
44.10 45.64 46.24 44.86 44.64 43.47 44.64 43.24 43.83 43.54 46.44 47.71 47.03 46.09 49.40 51.21 51.15 52.14 52.70 53.60 53.89 54.14 54.58 55.95 56.92 57.67 58.41 58.15 58.78 59.49 60.36 61.23 62.72 60.08 59.70 58.03 57.45 55.86 53.69 53.28 53.05 53.46 54.07 53.60
45.64 46.96 44.87 44.75 44.20 45.44 42.57 46.49 44.97 44.15 43.47 41.26 46.65 39.38 47.10 49.60 49.61 50.25 51.86 53.05 53.30 53.56 53.52 53.69 54.08 54.98 56.24 57.86 58.89 58.96 59.59 59.65 60.75 59.99 58.36 55.84 54.69 51.90 53.00 53.36 53.39 52.87 53.02 52.93
45.08 44.78 44.61 44.02 45.02 45.75 44.13 46.90 45.33 44.79 43.52 43.47 43.87 40.72 45.12 48.78 47.69 48.70 50.70 50.65 51.65 52.79 53.15 52.83 53.68 54.82 56.19 56.48 57.07 58.18 58.51 58.59 59.02 58.77 58.40 56.27 55.18 56.03 55.39 54.03 53.07 52.55 52.08 52.56
45.83 48.74 46.21 46.03 46.50 46.42 47.22 45.57 46.05 45.17 43.14 37.34 42.97 42.33 43.12 45.53 46.29 48.71 49.63 49.67 49.60 49.33 50.83 51.41 52.88 53.72 54.39 56.65 56.80 57.21 57.35 57.14 58.46 58.41 57.58 56.59 56.11 56.06 55.65 54.02 52.40 51.83 51.82 51.71
44.52 44.56 45.90 47.40 44.99 47.26 47.01 44.48 38.38 37.30 37.22 37.47 42.79 40.79 43.45 47.60 48.03 46.90 46.38 47.24 47.34 47.79 48.15 49.47 50.55 51.44 53.07 54.77 55.91 55.25 56.07 56.04 56.82 56.66 56.13 55.77 56.97 57.38 55.58 53.28 53.01 52.03 51.61 50.90
40.11 38.90 43.54 47.27 44.84 42.65 43.89 42.71 37.65 30.92 33.66 36.27 42.09 37.20 42.68 48.82 50.25 49.05 48.78 48.10 46.51 45.89 47.31 48.27 49.81 50.92 51.99 53.51 54.84 54.53 54.51 55.41 55.49 55.41 54.81 54.83 55.86 56.65 55.75 54.29 53.76 53.02 52.57 52.09
39.40 39.01 46.28 44.96 46.55 45.71 42.61 39.89 43.44 37.97 39.22 34.88 38.19 42.20 46.08 47.84 47.52 44.20 45.02 45.60 43.59 45.38 46.84 47.46 48.98 50.76 52.11 52.96 53.90 54.02 53.16 54.35 54.81 54.71 54.35 53.54 54.51 55.18 54.82 54.57 53.91 54.03 52.93 52.31
41.18 33.06 40.71 44.07 44.68 45.57 40.93 41.85 33.24 35.65 27.11 27.82 34.52 35.28 36.44 40.30 38.92 40.70 41.00 41.95 43.62 45.31 46.47 47.85 49.58 50.44 51.28 52.57 53.83 54.80 53.50 52.42 53.56 53.62 53.71 52.99 53.42 53.86 54.18 54.54 53.18 52.84 52.50 52.06
39.61 37.09 37.58 39.19 36.38 35.22 35.40 34.88 35.99 35.83 34.04 27.36 25.49 30.93 40.25 37.17 38.07 38.20 40.39 42.50 43.70 45.19 46.66 48.08 49.12 50.05 51.22 52.29 53.07 54.16 53.85 51.90 51.86 52.43 52.72 52.15 52.44 53.00 53.21 53.00 52.93 52.47 52.19 51.32
38.07 34.69 29.84 33.08 37.90 38.74 37.47 35.35 34.21 27.82 26.00 29.21 27.63 26.56 38.52 38.27 39.06 40.70 41.39 43.07 44.38 45.50 46.46 47.44 48.61 49.38 49.83 50.87 51.86 53.14 53.77 52.70 51.49 51.52 51.60 51.12 51.85 52.08 52.01 51.95 52.24 51.97 51.20 51.01
37.53 33.12 26.77 31.49 35.48 38.31 34.02 34.85 34.36 33.38 32.35 25.80 23.46 26.58 39.40 39.37 39.57 41.58 41.79 42.93 43.84 44.68 45.34 46.10 47.07 48.00 48.84 49.12 50.42 51.77 53.17 53.01 51.95 50.81 50.54 50.42 50.66 50.81 50.89 51.42 51.72 51.32 50.93 50.24
39.77 34.35 30.81 26.37 29.49 33.70 30.22 31.81 33.44 32.24 26.29 27.33 27.81 29.91 34.69 37.17 38.52 40.72 41.55 42.51 43.23 43.89 44.61 45.59 46.75 47.00 47.30 47.28 48.38 50.50 50.96 52.32 52.77 50.48 49.83 49.45 49.83 50.17 50.47 51.25 51.25 50.79 50.57 49.52
37.23 30.05 32.59 32.83 33.09 32.71 31.58 30.92 31.79 30.30 31.19 27.19 30.06 30.21 34.44 37.16 38.95 40.27 41.95 41.97 42.00 42.82 43.77 45.07 45.11 45.46 45.65 46.12 47.56 49.31 50.50 51.03 52.29 50.20 48.96 48.64 49.69 50.18 49.99 50.33 50.53 50.45 49.92 49.38
36.76 28.16 31.24 27.98 31.48 31.67 29.34 31.79 32.31 32.45 32.63 32.19 32.10 31.50 38.55 39.90 41.56 40.34 40.65 40.75 40.64 42.08 43.41 44.33 44.17 45.02 45.75 46.71 46.92 48.31 49.46 50.18 51.08 50.61 48.87 48.76 48.57 49.09 49.18 49.65 49.83 49.70 49.46 48.91
33.25 30.62 27.59 23.73 30.55 30.11 25.96 31.39 32.23 32.74 34.04 33.31 29.18 34.27 38.51 38.16 38.25 39.33 40.15 40.66 40.80 41.94 42.30 43.02 43.88 45.19 46.16 46.92 48.22 48.51 50.26 51.15 49.98 49.30 47.87 48.31 48.14 47.96 48.28 48.96 49.07 49.67 49.04 48.39
32.32 31.17 28.93 24.49 28.03 18.81 31.81 36.71 35.56 33.17 34.10 35.71 35.73 37.04 38.19 37.55 39.95 41.09 42.35 41.75 41.35 42.01 42.62 43.69 44.64 45.66 46.73 47.73 48.00 49.42 50.27 49.89 49.30 47.36 47.47 47.69 47.56 47.41 47.75 48.17 48.55 48.13 48.37 48.10
36.82 33.22 27.13 24.22 24.40 28.73 31.19 34.21 33.51 31.44 30.90 37.03 36.20 37.15 38.34 39.61 40.26 39.63 42.75 43.26 42.55 43.19 44.09 44.80 45.95 46.15 46.16 46.86 48.20 49.73 49.33 49.30 47.85 46.55 45.77 46.01 47.48 46.45 46.87 47.47 48.10 48.28 47.97 47.67
35.78 35.63 29.94 27.54 21.58 19.04 30.25 35.97 38.26 37.23 27.06 37.59 37.47 36.81 37.24 38.14 31.10 37.37 42.37 43.18 43.36 44.02 44.55 44.97 45.84 45.97 45.69 46.32 48.05 49.43 48.43 48.11 46.23 44.44 43.59 45.32 47.26 46.67 47.05 47.57 48.10 48.51 48.60 47.27
30.04 30.46 26.48 26.41 23.87 27.41 35.37 37.02 38.12 25.13 28.87 37.99 38.32 38.03 37.47 35.43 37.65 40.91 42.85 42.94 43.95 43.74 43.81 45.05 45.10 44.60 45.37 46.59 48.46 47.84 47.87 46.63 46.50 45.01 43.29 44.35 46.19 46.34 47.20 47.08 48.02 48.12 47.45 46.96
27.47 26.21 25.64 27.14 23.21 20.48 37.69 36.00 29.15 35.13 39.44 38.63 38.82 39.73 38.17 39.25 39.95 40.46 41.25 41.53 42.22 42.34 43.02 44.08 43.90 44.21 45.37 46.68 47.71 46.18 44.99 46.58 43.90 42.06 42.14 44.11 46.20 45.24 46.27 46.47 47.60 46.86 46.65 45.57
26.65 31.12 28.45 29.20 29.18 37.31 39.37 37.89 40.50 40.81 37.81 38.73 38.96 40.54 39.50 38.67 38.87 39.86 40.62 41.09 41.73 42.10 42.66 43.70 43.38 43.16 44.91 46.52 45.84 41.41 43.93 43.66 41.88 41.23 43.86 46.22 45.28 44.81 45.12 45.43 45.88 45.80 45.34 44.48
34.24 36.78 31.85 30.33 34.03 36.05 38.20 39.83 40.40 40.60 39.61 40.17 40.81 40.22 39.91 38.33 39.28 39.23 40.45 41.02 40.97 41.44 41.76 42.78 42.29 41.90 42.67 45.74 42.62 41.68 43.52 42.70 41.29 41.85 44.79 44.89 44.81 44.65 45.35 46.20 45.81 45.33 44.59 43.55
34.18 34.59 32.06 31.92 35.23 37.09 38.52 39.10 39.51 40.08 40.43 40.20 40.48 39.51 39.10 39.32 38.64 39.19 40.43 40.39 40.84 40.94 41.61 42.19 41.23 41.30 42.21 44.58 42.07 41.97 43.04 41.33 40.80 43.19 43.30 42.95 45.09 44.58 44.12 44.69 44.98 44.62 44.62 44.56
35.87 33.68 30.69 30.57 36.87 35.83 36.43 38.92 39.81 38.84 38.62 39.27 38.83 39.05 39.62 39.21 38.79 39.15 40.34 40.38 40.47 40.39 41.48 41.61 40.76 40.80 41.45 43.75 42.64 42.80 42.31 41.14 39.44 39.99 39.95 40.76 42.93 42.62 42.16 42.75 43.07 46.30 45.89 46.01

GFSCGP_sfc_wetblb_021.txt.gz
Wetbulb
51.81 47.26 46.25 47.74 48.46 47.34 46.17 44.54 43.95 46.86 49.70 48.21 47.32 47.97 50.11 52.57 53.02 53.08 53.62 53.73 53.97 54.31 56.35 57.22 58.03 58.02 58.15 59.64 60.45 62.05 63.33 66.00 67.45 65.50 63.02 61.54 60.08 60.30 59.84 59.81 58.61 58.23 57.40 57.08
48.80 47.23 48.81 47.88 47.58 46.18 45.96 45.13 45.80 48.92 50.39 49.03 48.26 47.88 50.78 52.58 53.52 53.89 53.29 53.11 53.85 54.91 55.73 56.27 56.85 57.75 58.03 58.82 59.70 60.26 61.39 63.56 66.52 65.94 64.42 62.84 60.96 60.70 60.09 60.34 59.31 58.93 57.84 56.99
46.76 49.33 48.53 46.49 46.75 46.21 46.95 45.80 46.01 45.42 47.73 49.25 48.62 47.25 49.67 52.18 53.76 53.35 53.67 54.04 54.07 53.92 53.78 54.28 55.36 56.08 57.53 57.49 58.14 59.20 59.97 61.28 63.79 66.54 65.17 63.34 62.11 61.30 59.38 58.60 57.83 57.67 57.49 56.90
48.30 49.41 46.53 47.24 46.41 47.57 44.46 47.89 46.86 45.67 44.77 41.63 48.22 39.75 47.12 49.75 50.55 50.92 51.62 51.70 50.58 50.67 51.97 52.51 53.24 53.89 54.80 55.96 57.71 58.74 58.51 59.48 61.26 64.71 64.85 62.74 60.37 58.53 58.53 58.08 57.53 56.62 56.92 56.21
46.52 46.97 46.15 45.27 46.18 47.38 44.66 47.89 46.33 46.14 44.64 44.41 45.02 42.52 46.79 49.48 47.99 49.13 49.41 48.93 48.62 48.68 49.21 49.89 50.92 52.73 53.74 54.89 55.75 57.24 58.04 57.89 59.88 60.37 64.03 62.77 60.61 60.52 59.89 58.26 56.33 56.19 56.07 56.08
47.64 50.81 48.02 46.94 47.99 47.90 48.54 47.41 47.58 47.40 45.84 38.98 44.58 43.59 44.34 46.44 47.47 47.77 48.88 49.63 49.77 48.03 47.99 49.75 50.93 51.55 51.91 54.36 55.77 57.44 56.48 56.86 58.35 60.41 61.33 62.86 60.69 59.85 58.49 56.85 55.77 55.50 54.96 54.82
46.69 46.34 48.07 49.83 46.66 49.32 47.88 43.97 38.13 38.38 38.63 39.26 45.26 41.63 44.35 48.46 48.18 47.13 45.59 46.61 46.70 46.87 47.36 48.19 48.96 50.57 51.64 53.59 54.65 55.44 56.36 56.76 56.46 57.36 59.33 60.70 60.96 60.14 59.29 58.24 56.22 55.02 53.88 53.35
42.28 40.74 45.28 47.53 44.98 43.56 44.23 43.10 37.66 31.97 35.30 37.71 42.69 37.64 43.09 49.53 48.79 47.48 45.70 44.91 44.90 45.98 47.47 48.45 48.96 50.99 51.40 52.12 53.17 53.87 54.36 55.21 55.81 55.65 57.10 58.53 60.35 59.51 58.81 59.25 57.72 55.61 54.44 53.58
39.82 40.74 46.58 45.14 46.51 45.54 43.07 39.53 42.99 38.13 39.31 35.26 38.77 42.36 46.08 47.49 44.33 42.72 41.99 42.58 43.18 45.01 46.42 47.35 48.73 49.77 50.56 51.18 51.89 53.04 53.87 55.12 55.67 54.82 55.37 56.34 57.29 58.47 57.77 58.53 59.65 56.37 55.68 54.85
41.57 33.45 41.46 44.04 43.66 45.47 43.39 41.50 34.06 37.04 28.89 29.23 35.46 36.21 36.89 39.81 38.67 39.97 40.29 41.35 43.17 45.45 46.14 47.27 48.11 48.97 50.15 51.24 51.82 52.61 53.44 54.30 55.47 54.99 54.18 54.50 55.66 56.66 57.25 57.80 58.25 56.45 56.15 55.41
40.46 37.02 38.03 42.67 38.83 37.51 37.89 36.34 37.36 37.24 35.35 29.54 27.84 32.42 41.56 38.37 38.84 39.03 40.41 41.43 42.73 44.92 45.47 46.31 47.30 48.35 49.70 50.77 51.41 51.10 51.30 53.24 54.48 54.85 53.92 53.14 53.95 54.78 54.94 56.20 57.03 56.84 56.33 55.11
39.06 35.57 31.58 35.09 40.35 40.28 38.33 36.83 35.98 30.32 28.72 31.84 29.76 28.83 40.40 40.16 40.33 40.78 40.54 42.06 44.29 45.33 45.59 46.48 47.08 47.72 48.36 49.69 49.46 48.61 49.44 51.48 53.17 54.05 54.14 52.62 52.89 53.33 53.42 54.31 55.64 56.51 55.45 54.87
38.50 35.07 29.56 34.59 37.50 39.48 36.70 38.04 37.03 36.08 34.66 27.88 24.11 27.60 40.54 40.55 40.20 40.61 40.52 42.09 43.72 44.44 44.93 45.54 46.59 46.73 47.68 47.52 48.06 48.24 48.70 50.42 51.94 52.39 53.10 52.46 51.82 51.73 52.11 52.93 54.74 55.27 54.83 53.98
39.67 34.62 31.88 28.58 32.63 36.22 32.88 34.95 35.87 33.75 28.61 28.80 29.35 30.95 35.73 37.74 38.07 39.63 41.27 42.46 43.32 43.85 44.21 44.91 46.40 46.42 46.84 47.16 47.17 48.01 48.57 49.85 50.86 51.57 51.66 52.38 50.90 51.19 51.76 52.59 53.57 54.09 54.22 53.13
38.09 31.74 34.79 35.14 35.35 34.87 33.47 32.73 33.18 31.48 32.17 27.95 31.05 31.32 35.16 37.32 38.45 40.09 41.72 42.40 42.23 42.62 43.20 43.77 44.40 45.23 45.79 46.32 47.31 48.45 49.37 49.41 50.43 50.72 51.19 51.17 51.60 50.75 50.95 51.56 52.30 53.17 53.43 52.79
38.55 30.92 33.19 29.93 33.41 33.19 30.81 33.32 33.84 33.60 33.63 33.32 33.52 32.57 38.53 39.99 40.70 40.70 41.10 41.03 40.83 41.70 43.02 43.43 43.82 44.99 45.48 45.85 47.13 48.05 48.80 49.00 50.73 49.83 50.03 50.29 50.32 49.84 49.99 50.98 50.74 52.12 52.76 52.30
35.20 33.32 30.50 25.55 32.22 31.53 27.32 33.02 33.90 34.25 35.11 34.14 30.12 34.62 38.52 38.23 39.34 39.76 40.20 41.22 41.33 42.32 43.11 43.19 44.03 45.37 46.24 46.78 47.31 47.01 47.44 48.95 49.20 49.56 49.99 49.51 48.70 48.95 49.12 49.74 50.18 51.01 52.03 51.80
34.44 33.50 32.34 26.85 29.32 20.92 33.60 38.29 37.33 34.80 35.48 36.87 36.44 37.11 38.70 39.22 40.41 41.39 42.28 41.61 42.02 42.65 43.05 43.96 45.20 45.94 46.84 47.40 47.77 47.88 47.30 47.18 49.50 48.81 48.99 48.91 48.10 47.41 48.29 48.77 48.76 50.04 51.46 50.84
38.32 34.47 29.41 25.29 25.45 30.01 32.94 35.60 34.60 32.74 32.22 37.53 36.60 38.07 38.85 39.72 39.97 39.65 42.36 43.06 42.43 42.93 44.04 44.54 45.40 45.87 46.57 46.81 47.25 47.33 46.85 47.17 48.52 48.62 48.13 47.89 47.06 45.38 46.06 47.14 48.26 49.02 50.38 50.28
37.23 36.88 31.47 28.45 23.08 19.48 31.81 36.69 39.44 38.05 27.50 38.17 37.60 36.95 37.12 38.30 32.31 37.23 42.12 42.84 42.88 43.58 44.32 44.62 45.24 45.54 45.71 46.59 46.94 46.22 46.06 47.00 47.63 48.18 47.37 47.20 46.78 44.80 44.55 46.71 48.66 49.05 49.74 49.60
31.97 32.52 28.89 29.03 26.78 29.22 36.43 38.21 39.43 25.28 29.08 38.81 39.17 38.49 38.13 35.81 38.20 41.51 42.53 42.46 43.36 43.90 44.23 45.25 45.18 44.76 45.48 46.34 46.19 45.24 45.95 46.36 47.69 47.60 47.19 45.82 44.71 43.94 44.37 46.42 48.37 49.06 49.38 49.10
29.25 27.65 27.57 29.07 25.63 22.06 38.98 37.66 30.73 36.37 39.57 39.54 39.59 39.80 38.70 39.59 40.87 41.36 42.38 42.33 42.73 42.81 43.69 44.44 44.07 44.37 45.11 45.53 45.14 44.38 44.98 46.74 47.17 46.20 45.68 45.02 44.15 43.80 44.49 46.14 47.17 48.63 48.56 48.02
28.83 33.09 30.48 30.90 30.49 38.24 40.06 38.63 41.46 42.00 39.67 40.20 39.45 40.10 39.91 39.74 39.68 40.43 40.77 41.87 42.11 42.60 43.06 44.30 43.82 43.60 44.76 44.84 44.34 43.29 45.34 46.30 44.75 44.50 44.66 43.49 43.83 45.49 46.02 45.31 45.29 46.26 47.76 46.87
35.66 38.13 33.38 33.53 35.81 36.92 38.42 40.30 41.72 42.08 40.29 40.61 40.89 40.51 40.67 39.27 39.98 40.13 40.98 41.06 41.64 42.45 42.42 43.51 43.11 42.27 42.75 44.36 44.19 44.39 43.93 45.76 43.85 43.28 43.47 42.85 44.68 46.98 45.73 45.91 45.52 46.04 46.69 46.03
35.38 36.22 33.63 33.42 36.20 37.99 39.40 40.54 40.69 40.57 40.86 40.19 40.71 40.58 39.96 39.58 39.22 39.71 40.22 41.06 40.98 41.72 42.67 43.35 42.54 42.05 42.56 43.87 43.81 44.13 43.21 44.49 41.73 42.21 42.20 42.91 45.17 44.95 43.52 44.14 44.31 46.19 47.46 47.17
37.24 35.05 32.73 32.35 37.48 37.41 37.97 40.02 40.26 38.85 38.95 39.26 38.97 39.66 40.96 40.61 39.57 40.20 39.80 40.73 40.87 41.27 42.18 41.72 42.35 42.05 42.29 43.04 43.15 43.43 42.93 43.39 40.63 40.54 39.93 41.90 42.20 42.86 43.25 42.88 43.82 47.47 48.03 47.80

GFSCGP_sfc_wetblb_024.txt.gz
Wetbulb
53.61 46.67 44.26 46.09 46.85 45.92 44.21 42.61 42.00 45.50 49.54 48.02 46.72 46.74 48.34 50.52 50.67 50.30 50.68 50.78 50.71 51.26 52.57 53.34 53.73 53.99 55.13 55.78 55.95 55.71 56.78 58.07 62.94 64.31 62.89 58.22 55.59 55.01 54.73 54.29 54.00 52.96 52.91 52.92
48.26 44.95 48.45 48.62 48.22 46.63 45.66 43.88 43.62 47.10 49.70 46.74 45.52 45.13 48.19 50.24 50.47 50.16 49.40 48.16 48.37 48.66 49.29 50.29 51.63 51.96 52.70 52.93 53.88 54.67 56.04 56.26 56.75 62.66 63.37 62.25 57.99 55.78 55.25 54.71 54.12 53.78 53.34 53.04
45.95 48.65 49.85 47.14 46.72 45.51 45.46 43.92 44.02 43.34 46.38 47.15 45.51 43.68 46.79 48.94 49.67 48.92 47.44 46.82 46.29 45.68 46.20 47.70 48.37 49.61 50.75 51.29 52.31 53.24 54.30 55.41 55.82 56.18 61.38 59.34 57.61 55.70 54.23 54.62 54.98 54.12 53.38 53.13
47.17 49.61 47.21 46.94 45.44 46.45 41.64 47.23 45.51 44.50 42.08 37.04 45.09 34.56 42.87 46.36 45.92 45.90 45.16 45.19 45.19 45.00 45.98 47.25 47.78 48.25 48.70 49.56 51.55 52.47 53.54 54.28 55.64 55.40 54.84 58.71 59.04 56.23 56.12 55.16 55.01 53.26 53.20 52.73
45.44 46.65 46.02 44.30 45.05 46.83 43.18 47.55 45.24 44.72 42.05 40.81 42.09 38.00 42.20 46.33 43.50 44.16 45.42 45.65 43.65 44.46 45.72 46.16 47.07 48.23 49.33 50.16 50.65 51.71 52.34 52.50 53.91 54.37 54.22 53.90 57.67 59.07 57.13 56.03 53.60 53.95 53.15 52.86
46.64 50.45 48.67 46.37 48.35 48.44 48.29 46.09 44.33 42.99 40.95 34.86 41.12 40.60 40.14 42.30 42.70 41.61 42.07 42.27 42.22 43.22 44.65 45.85 47.23 48.29 48.51 49.60 50.12 49.96 50.80 51.41 52.93 52.82 52.57 52.78 53.32 57.68 57.54 55.33 54.07 53.05 52.35 52.57
45.96 46.68 48.30 48.85 43.96 48.91 46.24 40.71 33.53 33.38 33.60 34.42 41.87 38.06 39.38 42.47 41.84 40.04 39.61 40.30 41.54 42.24 43.56 44.45 45.00 46.20 47.31 48.19 49.19 49.92 50.05 50.23 52.07 52.52 51.82 51.89 52.37 54.29 57.97 57.25 55.05 51.79 51.78 51.40
39.82 39.03 45.02 46.59 43.79 41.14 40.68 39.94 33.87 27.64 30.11 33.23 40.16 33.76 39.57 42.69 41.15 41.10 41.45 41.33 41.31 41.52 42.81 43.68 44.60 45.50 46.47 47.43 48.21 49.15 48.72 48.82 50.87 52.18 51.69 51.35 51.77 53.34 55.36 57.96 56.87 53.62 52.60 51.85
37.15 39.78 45.68 44.56 45.67 44.13 40.89 36.66 38.91 34.44 36.48 31.88 35.09 39.17 42.71 40.74 39.19 39.57 39.88 40.52 40.21 41.25 42.68 43.46 44.16 44.80 45.43 46.37 47.15 48.30 48.69 48.23 48.96 50.49 52.65 51.32 51.85 51.53 52.45 56.20 57.39 55.89 53.84 53.13
39.25 31.08 39.95 43.56 44.48 43.64 41.42 41.67 32.26 32.91 25.09 24.06 31.00 31.72 32.77 34.32 35.80 38.16 38.32 38.93 39.79 41.56 42.89 43.60 44.37 45.00 45.62 46.56 46.99 48.97 46.67 46.22 47.55 48.94 52.29 52.38 51.96 51.16 51.31 52.59 55.46 55.53 54.29 52.75
39.40 35.19 36.87 39.39 38.23 35.76 36.44 34.49 35.49 34.39 31.78 24.33 23.60 28.59 37.14 35.56 36.94 37.15 38.53 39.20 39.71 40.68 42.14 43.04 43.67 44.28 45.12 46.24 46.83 46.02 46.18 46.27 45.99 48.03 50.87 50.96 51.36 51.50 50.74 50.89 51.93 54.32 54.57 53.30
38.34 33.69 28.77 33.36 39.65 40.59 37.85 34.65 34.84 28.28 26.52 28.13 24.57 25.53 38.83 37.87 38.70 39.43 39.15 39.53 40.22 41.85 42.44 43.26 43.52 43.51 43.86 44.76 45.00 45.13 45.74 46.28 46.36 47.43 48.59 49.81 50.99 51.78 50.57 49.40 49.59 50.27 52.95 54.09
37.12 32.46 25.76 32.07 35.91 38.83 36.37 37.67 37.47 34.61 31.69 26.05 22.45 25.03 39.14 38.94 38.49 39.52 38.78 38.85 40.47 41.78 42.12 42.72 43.29 42.96 42.22 43.31 44.39 45.20 45.66 46.38 47.41 46.61 46.59 48.58 49.99 50.83 50.26 49.47 49.39 50.31 51.85 53.81
38.72 32.58 29.49 24.96 29.57 33.96 31.17 33.80 34.93 32.60 25.41 25.99 26.54 28.72 33.76 35.95 36.59 38.18 37.97 39.16 40.10 40.83 41.46 41.95 42.24 42.32 42.02 43.23 44.01 44.86 45.28 46.60 47.08 47.67 47.20 46.55 49.06 49.64 49.65 49.74 48.95 49.74 51.35 53.03
37.49 29.96 32.80 33.74 34.35 33.74 32.20 31.72 32.23 30.01 30.38 25.53 28.40 29.57 33.47 35.86 35.98 37.03 38.56 39.72 39.88 40.29 41.34 42.06 42.13 42.64 42.84 43.19 43.75 44.98 45.47 46.00 46.20 46.04 47.19 47.22 48.13 49.31 48.98 48.53 48.81 49.00 50.18 51.37
37.82 29.35 32.23 29.28 33.05 33.04 30.60 32.62 32.59 32.55 32.64 32.03 32.06 30.66 36.83 37.84 38.02 37.70 38.52 38.92 38.87 39.60 41.10 42.30 42.44 42.75 42.95 43.45 43.31 44.23 44.57 45.28 45.99 45.18 45.11 47.55 47.72 48.48 47.91 48.09 47.95 48.03 48.55 49.45
33.85 31.79 29.09 23.74 31.28 30.37 25.09 31.90 32.90 33.19 34.28 32.97 27.49 32.28 36.91 36.27 37.28 37.31 37.77 38.92 38.65 39.44 40.85 40.80 41.40 42.14 42.49 42.63 43.66 43.14 44.28 45.15 44.66 44.71 45.02 46.69 48.30 47.53 47.11 47.83 47.60 47.27 47.18 48.40
32.92 31.95 30.18 25.12 27.65 17.47 32.28 36.91 36.19 33.21 34.16 35.08 34.89 35.71 37.01 36.89 38.06 39.03 39.87 39.08 39.52 40.46 40.21 40.78 41.50 41.85 42.43 43.22 43.43 43.84 44.21 44.08 43.92 44.31 44.47 46.16 47.03 46.12 46.63 46.12 46.18 46.43 46.93 47.31
36.52 32.11 27.03 22.65 23.26 27.80 31.33 34.75 33.17 31.16 30.23 35.87 34.65 36.49 37.17 38.27 38.01 36.85 40.60 41.73 40.94 41.21 41.40 41.76 41.81 42.00 42.58 42.81 43.37 43.30 43.13 43.41 42.98 43.54 44.50 46.25 45.79 44.77 45.40 44.61 45.01 46.03 46.54 46.96
36.84 35.38 29.21 26.19 19.48 16.92 30.59 36.13 38.88 36.58 24.21 36.59 36.47 35.58 35.75 36.77 29.54 33.11 39.66 41.13 41.00 42.47 42.52 41.28 41.81 42.18 41.99 42.72 43.17 42.29 41.91 41.95 41.99 43.58 45.22 45.82 45.39 44.32 43.86 43.55 43.02 45.54 46.96 47.04
29.25 29.54 25.71 26.35 23.57 27.60 35.71 36.93 38.12 22.71 25.25 36.27 36.49 36.71 36.28 33.95 35.80 38.48 40.77 40.88 42.15 41.86 41.04 42.04 41.65 40.85 41.35 42.79 42.77 41.08 41.26 40.83 42.08 44.20 44.94 44.48 43.98 43.28 44.10 43.46 42.26 45.86 46.70 46.77
27.53 25.38 24.90 26.30 22.24 19.71 37.94 35.99 28.91 33.72 37.21 37.56 37.96 37.96 37.11 37.81 38.41 39.01 39.81 39.87 40.04 39.70 40.43 41.62 40.69 40.36 41.56 42.20 41.75 40.59 40.03 42.06 42.53 43.07 44.20 43.51 43.14 43.67 44.37 41.77 41.43 45.44 46.19 45.97
26.38 30.86 27.84 28.17 27.72 36.23 38.39 36.76 38.84 38.78 37.94 37.95 37.54 38.08 38.21 37.49 37.41 38.42 38.25 38.80 39.24 39.55 39.88 40.94 40.58 39.64 40.80 41.48 41.40 39.55 40.77 42.00 41.93 40.94 41.41 42.35 42.71 42.96 42.71 41.40 40.68 43.51 45.46 45.31
33.80 36.02 30.37 30.53 33.18 35.00 37.10 38.83 39.88 39.84 38.58 38.80 39.09 38.78 38.73 36.77 37.43 37.26 37.98 38.10 38.50 39.21 39.22 40.12 39.32 38.65 39.09 40.79 41.03 40.54 40.95 42.09 41.09 39.66 40.30 42.47 42.03 41.49 41.48 44.50 43.19 44.46 44.74 44.86
33.38 34.42 31.34 30.86 34.35 36.23 37.33 38.26 39.04 38.62 39.21 38.87 39.31 38.92 37.40 37.02 36.30 36.48 36.25 36.63 37.05 37.57 38.14 38.55 38.11 37.65 38.24 39.09 39.87 40.25 40.54 40.24 39.74 39.29 40.99 41.18 40.53 39.04 42.13 43.35 44.38 45.06 46.01 46.17
34.60 32.25 29.78 28.87 35.20 34.37 35.42 38.66 39.16 37.47 37.09 37.43 36.93 36.35 36.44 36.29 34.91 35.54 34.96 35.87 35.86 35.91 36.67 36.77 36.81 37.31 37.13 37.53 37.95 38.26 38.94 39.66 39.19 39.51 40.61 40.17 38.95 38.57 41.61 42.18 43.00 47.65 47.06 47.83

GFSCGP_sfc_wetblb_027.txt.gz
Wetbulb
47.36 41.10 37.40 39.78 41.88 42.25 40.64 38.47 38.12 41.54 46.13 43.48 41.94 42.49 45.30 47.58 45.68 43.27 42.75 42.40 42.86 44.11 46.33 48.15 48.74 48.96 49.52 51.04 51.30 51.21 52.07 52.91 54.10 54.19 54.50 56.58 56.58 56.26 53.31 52.97 53.67 52.83 52.28 51.82
41.94 38.64 44.51 47.25 46.14 43.92 42.13 39.58 38.44 42.60 46.63 44.06 41.82 42.03 44.18 43.80 42.99 42.66 41.80 41.47 42.30 43.66 44.75 46.00 47.35 48.02 48.44 48.89 50.57 50.57 50.80 51.77 51.81 52.77 53.13 54.85 57.87 55.48 57.01 54.89 53.16 53.26 52.74 52.21
39.41 44.41 48.48 46.35 44.19 42.78 41.26 39.33 39.07 39.31 43.01 43.13 40.83 38.35 41.63 43.05 43.45 44.03 42.78 42.24 42.90 42.86 43.31 44.46 45.38 46.43 47.63 47.62 48.47 49.79 50.05 50.61 52.00 51.72 51.68 53.77 54.34 56.06 53.61 52.07 51.83 52.07 52.61 52.26
42.21 46.90 46.19 43.81 42.83 42.74 37.23 44.27 43.55 42.00 38.33 32.60 41.21 30.41 37.98 39.91 40.63 41.68 39.37 38.62 40.10 41.76 43.43 44.56 45.15 45.54 46.18 47.39 48.69 48.76 48.97 49.84 52.33 52.26 51.47 48.59 48.60 50.28 54.64 54.55 55.26 53.40 52.42 52.23
40.63 42.68 42.57 42.07 43.28 44.87 40.40 45.03 42.54 41.77 37.44 35.32 37.47 33.13 34.58 40.29 36.28 35.88 36.98 38.62 38.64 41.00 42.29 42.42 43.25 44.60 45.48 46.22 47.32 48.55 48.04 48.92 49.65 50.08 50.67 50.21 47.98 48.99 52.15 55.51 53.93 53.70 50.97 52.03
42.80 46.97 45.25 43.71 45.87 45.50 46.12 42.80 39.70 37.72 35.32 29.18 35.89 36.04 33.79 34.81 33.74 34.96 36.07 37.73 38.47 39.36 41.27 42.05 43.11 44.25 44.32 45.18 45.73 46.62 47.08 47.94 48.60 48.47 48.84 49.89 49.69 48.54 48.38 50.44 52.80 52.39 53.36 51.14
41.21 42.77 45.77 45.39 41.15 44.12 40.57 34.02 27.38 27.98 28.23 28.81 37.50 34.00 31.12 33.95 35.94 36.52 36.57 37.01 38.10 38.66 39.59 41.14 41.66 42.19 43.37 43.50 44.62 45.87 46.00 45.90 47.04 46.55 47.02 48.60 49.77 47.56 48.34 49.22 51.12 52.04 51.54 51.94
32.14 33.32 42.33 42.46 40.79 37.23 36.45 34.73 28.50 23.67 24.44 28.55 36.46 29.59 32.22 36.50 37.56 37.54 37.98 37.62 38.11 38.35 39.75 40.45 41.26 41.84 41.87 42.90 43.60 44.32 45.95 44.64 45.33 45.32 45.52 46.68 48.68 49.65 50.26 49.90 49.63 50.86 53.39 52.78
31.36 34.76 40.26 43.42 42.97 40.45 36.37 31.17 35.07 29.33 30.50 25.67 30.16 32.99 34.23 36.32 35.65 36.49 36.56 37.37 36.85 37.86 39.32 39.58 40.77 40.98 41.17 41.19 42.27 43.06 44.08 43.84 45.17 43.76 44.28 45.29 47.74 47.97 49.31 50.04 50.25 50.08 52.22 53.81
33.55 27.15 36.43 41.57 41.72 40.62 36.64 38.26 29.26 27.25 20.56 18.41 24.93 27.55 29.45 31.00 32.76 36.12 36.82 37.41 36.88 37.59 38.60 39.62 40.30 41.03 42.10 43.22 43.43 43.05 42.82 42.66 43.28 44.43 45.05 46.78 46.76 47.30 48.46 50.09 49.84 49.42 50.08 52.18
33.78 30.18 30.92 34.96 33.54 31.27 32.20 30.14 30.92 29.50 26.55 19.54 17.74 23.41 31.64 30.67 34.81 35.73 37.42 38.57 38.45 38.17 39.23 39.78 40.59 40.72 41.18 41.07 41.41 41.77 42.21 42.49 43.45 45.39 44.27 45.28 45.48 46.69 47.91 49.31 50.21 49.52 48.83 51.11
33.77 28.98 23.54 28.52 35.64 38.46 34.69 30.68 30.43 21.02 22.69 23.46 18.25 22.76 34.38 35.61 37.32 37.86 37.64 38.66 37.89 38.93 39.46 39.53 39.60 40.02 39.43 39.59 40.36 41.08 41.72 42.77 43.23 43.73 44.43 45.40 46.45 46.98 46.72 47.81 48.73 49.33 48.92 49.90
33.66 26.45 18.80 26.19 31.78 35.41 32.03 33.79 33.15 30.61 25.95 19.78 16.45 24.23 37.71 37.12 36.90 38.13 37.70 36.54 37.21 38.78 39.19 39.37 39.47 38.99 38.83 39.20 39.91 41.16 41.40 41.79 43.26 44.59 44.10 44.44 44.79 45.61 46.69 46.97 48.03 48.88 48.84 49.08
37.04 28.34 24.23 19.18 24.69 30.04 27.42 30.67 31.82 28.31 15.78 22.87 24.54 26.92 32.00 34.20 35.34 36.74 34.34 35.00 36.45 37.85 38.99 39.20 39.21 38.66 38.95 39.39 40.12 41.93 41.05 42.87 43.62 44.53 43.27 44.05 44.37 45.98 46.64 46.51 47.26 48.44 48.30 48.41
33.60 26.05 28.57 30.40 31.83 31.85 30.59 30.18 30.67 28.05 28.37 22.29 26.98 27.77 31.88 33.75 32.31 33.43 35.81 37.45 37.84 38.44 39.17 39.70 40.22 39.66 38.94 40.78 41.03 39.89 41.89 43.14 43.57 43.42 43.66 43.62 42.71 44.91 47.22 46.34 47.46 48.03 47.70 47.92
32.84 25.14 28.40 26.60 30.97 31.04 28.70 30.70 30.57 30.32 30.32 29.73 30.09 28.55 33.49 35.59 35.76 35.94 35.85 36.91 37.13 38.02 39.21 39.96 40.70 40.46 40.49 40.48 39.39 41.66 41.99 42.44 43.00 42.70 42.69 43.84 43.45 43.20 44.72 47.52 47.89 47.47 47.22 47.21
29.60 26.75 23.75 17.55 28.46 28.05 21.83 28.59 30.20 30.46 31.29 30.15 25.41 30.30 34.29 34.51 35.63 35.57 36.50 37.18 37.33 38.40 38.70 39.57 40.21 40.59 40.68 39.48 41.20 40.75 41.60 42.60 41.26 42.09 42.68 42.64 43.19 43.47 45.47 46.79 46.03 46.52 46.08 46.79
28.88 27.24 24.59 18.43 22.88 12.05 27.96 34.40 33.60 31.73 32.95 33.10 32.82 33.34 35.47 35.20 36.57 37.41 38.61 37.46 37.28 38.87 39.81 40.17 40.60 41.13 39.57 41.11 41.35 41.71 42.06 40.52 41.60 41.48 41.38 42.53 42.73 43.36 45.19 42.78 43.23 44.72 45.91 45.58
32.15 27.70 20.38 15.42 16.20 23.90 28.32 32.45 31.11 28.96 27.92 34.28 32.52 34.08 34.94 36.22 35.84 35.67 39.05 39.42 38.83 39.45 40.34 41.05 41.99 42.01 40.60 40.81 41.54 40.75 40.87 41.03 40.49 40.53 41.09 41.65 42.78 43.31 42.55 42.05 42.37 43.28 44.07 44.80
32.68 30.64 24.37 21.65 10.17 9.79 25.94 33.60 36.22 33.94 23.19 33.78 34.10 33.92 33.75 34.85 28.83 32.63 38.80 39.89 39.70 40.42 41.10 41.21 41.16 41.06 40.78 41.01 41.60 39.93 39.93 40.15 39.64 40.68 40.61 41.75 42.08 42.42 41.66 42.05 42.27 43.08 43.73 43.97
24.48 23.53 22.89 22.96 15.40 22.48 31.85 35.22 35.70 18.70 23.11 34.62 35.17 34.91 34.85 32.37 34.36 36.99 39.20 39.23 40.19 40.30 40.41 41.31 41.00 39.94 40.13 41.03 41.11 38.95 39.03 38.99 40.67 40.87 41.47 41.29 41.57 41.52 41.68 42.03 42.84 42.70 42.61 42.60
23.61 18.26 18.71 20.74 15.32 16.92 34.73 33.08 26.08 30.86 34.61 35.17 35.28 35.34 34.95 35.74 36.69 37.52 38.09 38.22 38.52 38.18 38.99 39.93 39.03 39.06 40.21 40.79 41.03 38.29 38.13 40.44 40.44 40.34 40.26 41.22 40.06 41.16 42.16 41.82 42.25 41.94 41.17 41.21
23.37 27.25 22.54 23.87 23.06 31.56 33.92 33.56 35.42 35.81 34.68 34.84 35.21 36.01 36.15 35.71 35.76 36.39 35.86 36.05 36.37 36.57 36.88 37.99 37.41 37.36 38.32 39.45 38.96 37.97 39.17 40.20 39.79 39.15 38.63 38.57 39.67 40.04 41.19 42.21 40.96 40.12 40.76 41.79
29.23 31.95 26.41 26.07 28.79 30.99 34.33 37.06 36.48 37.05 35.60 36.47 36.99 36.49 36.26 34.30 34.54 33.42 33.66 34.01 34.30 35.10 35.16 36.42 36.10 35.45 35.85 37.34 38.01 38.05 38.57 39.48 38.55 37.10 36.72 37.18 38.09 39.37 41.81 41.86 39.97 41.19 42.69 42.47
29.29 29.62 27.76 26.56 31.01 32.27 34.26 34.40 35.78 36.42 36.91 36.33 36.36 34.87 33.61 33.13 32.50 33.05 33.27 33.88 34.50 34.89 35.55 35.99 35.71 35.77 36.14 37.14 36.90 38.19 38.01 37.36 35.52 35.67 36.32 37.44 38.81 40.38 40.84 39.70 39.33 41.95 44.33 44.80
32.14 29.57 24.12 25.95 30.99 30.06 30.90 35.27 36.97 35.36 34.43 33.55 33.03 33.06 34.04 33.96 33.29 33.79 33.01 33.80 34.13 34.33 35.82 35.41 35.31 35.62 36.23 37.02 37.07 37.51 39.20 38.60 36.78 35.21 36.45 36.84 38.27 41.13 40.17 38.04 39.02 44.07 47.53 48.16

GFSCGP_sfc_wetblb_030.txt.gz
Wetbulb
45.93 40.21 36.38 39.06 40.62 40.78 38.80 36.83 36.70 39.50 44.53 42.10 40.08 38.94 39.59 40.97 40.56 39.45 38.45 38.90 40.08 41.41 43.60 44.92 46.01 46.39 46.90 47.61 46.99 46.53 48.85 48.75 51.27 52.26 51.95 52.14 52.14 56.72 56.17 54.18 53.23 52.25 51.71 52.31
40.60 37.13 43.25 44.86 44.65 42.67 40.61 37.43 36.67 40.79 44.70 41.95 39.86 37.25 39.64 40.25 39.65 39.70 39.00 38.57 39.60 40.58 41.39 42.77 44.10 44.74 45.44 44.99 45.92 46.91 46.77 48.36 48.80 49.48 49.15 49.04 49.28 52.95 54.85 55.50 53.17 53.36 52.47 51.21
38.07 42.80 46.85 45.05 42.49 40.81 38.94 37.33 36.97 37.91 41.35 40.68 38.79 35.41 37.36 40.42 39.71 39.73 39.20 39.70 40.17 40.13 40.63 40.95 41.35 42.75 43.80 43.83 44.31 46.17 46.60 47.68 48.18 48.48 48.82 49.71 50.06 50.52 50.72 52.19 54.03 53.60 51.74 52.66
40.32 45.37 44.74 42.26 41.18 41.20 35.70 42.55 42.06 40.62 37.34 31.20 39.65 27.86 35.03 37.02 34.93 35.74 35.27 35.52 37.79 39.28 40.59 41.57 42.00 42.27 42.04 43.38 44.52 45.29 46.14 46.57 48.93 47.56 46.95 46.18 46.17 46.25 47.49 48.88 51.90 53.67 52.55 50.98
39.08 41.07 40.95 40.57 41.70 43.52 39.73 43.50 41.39 40.37 36.21 33.70 34.75 31.25 32.13 35.02 32.20 33.46 34.87 36.23 36.28 38.32 39.18 40.07 41.24 42.41 42.78 43.25 43.06 43.82 44.85 45.83 46.68 45.71 45.42 44.92 44.07 46.30 47.12 47.30 47.59 48.99 52.20 52.08
41.98 45.48 43.75 42.34 44.09 44.02 43.67 39.61 36.87 35.89 33.69 27.02 32.80 33.31 31.25 29.89 31.24 32.73 34.54 36.34 37.27 37.17 38.91 39.60 41.07 42.15 42.13 42.53 42.60 43.15 43.66 44.21 45.68 44.86 44.75 43.99 43.19 44.95 45.19 45.60 45.81 47.60 49.01 51.17
38.47 41.37 43.27 43.77 39.57 41.82 38.74 32.76 26.33 26.89 26.33 26.94 35.25 31.07 27.87 32.23 33.72 34.04 34.88 36.04 36.81 36.91 38.63 39.67 39.90 40.37 41.42 41.69 42.10 43.46 42.58 42.79 43.65 42.61 42.92 43.17 43.29 44.81 45.95 45.90 45.69 45.32 47.46 48.89
30.08 31.42 37.90 41.57 38.86 35.00 34.83 32.96 26.67 22.51 22.84 26.23 33.82 26.75 28.52 34.79 36.26 35.46 36.18 36.80 36.99 36.60 37.94 39.16 40.22 40.06 40.08 41.37 41.04 41.30 41.91 41.43 42.12 41.98 42.24 42.68 42.65 45.13 46.23 46.26 45.73 46.08 46.54 48.14
28.25 31.29 38.47 41.53 40.83 38.10 33.93 29.70 34.02 28.09 26.83 23.86 27.53 27.99 32.72 34.23 33.83 33.87 35.11 36.10 36.09 36.54 38.16 38.75 39.73 39.84 39.71 40.09 40.19 40.86 41.77 41.52 41.77 41.97 43.01 41.48 41.44 45.04 45.47 45.73 46.19 47.04 47.42 49.19
31.20 25.56 34.16 38.09 39.94 37.90 34.62 36.60 28.98 26.36 20.69 19.03 22.86 24.28 26.47 29.29 30.88 33.57 34.69 34.14 35.53 36.85 37.70 38.47 39.02 39.46 39.47 39.46 39.75 40.31 40.66 40.50 41.05 41.68 41.74 44.44 43.18 44.88 45.28 45.78 45.86 46.88 47.36 46.38
31.43 28.71 29.64 33.01 31.49 29.87 31.25 29.27 29.70 28.27 24.73 19.64 16.67 22.60 30.37 30.36 31.59 33.36 34.99 36.98 37.55 34.93 36.99 37.44 38.11 39.32 39.78 39.64 39.28 40.08 40.59 41.27 42.07 41.79 41.80 41.98 44.08 44.66 44.11 44.96 46.38 47.26 46.77 46.66
32.04 27.73 23.10 27.13 33.37 36.40 32.63 29.22 28.08 20.94 21.04 21.71 17.21 20.64 34.24 32.15 35.59 36.34 36.07 36.82 35.96 37.10 37.97 38.37 38.64 38.25 38.09 38.59 38.88 39.01 39.77 39.97 40.36 41.34 41.58 42.07 43.79 44.26 42.64 44.09 45.70 47.18 46.11 46.62
31.57 25.05 19.11 23.81 30.66 33.24 30.29 31.73 31.44 28.86 24.09 18.78 16.75 23.68 34.21 36.59 36.28 36.77 33.29 34.15 35.50 37.19 37.72 38.19 38.15 37.73 38.03 38.26 38.30 39.27 40.46 40.21 40.58 41.01 41.21 41.41 41.81 41.92 42.90 43.70 45.75 46.93 46.35 45.93
36.17 26.39 23.32 20.50 23.94 28.02 26.27 29.33 30.03 27.35 15.81 21.61 24.03 27.57 32.27 33.54 34.07 33.27 33.65 34.76 35.05 36.35 37.52 38.36 38.82 37.63 37.89 37.78 38.16 39.01 39.22 39.70 40.30 41.10 41.63 40.44 41.50 42.08 42.66 43.99 44.73 45.92 46.67 45.37
32.17 24.91 26.82 28.44 29.94 30.19 29.50 29.05 29.45 26.55 27.18 21.66 26.53 26.45 31.02 33.56 31.68 32.62 35.02 35.77 36.47 37.26 38.44 39.05 39.17 37.68 37.84 37.18 37.73 38.22 38.34 38.85 40.24 40.57 40.40 41.21 40.92 42.25 42.21 42.48 44.57 45.02 45.95 46.92
31.36 24.22 26.39 24.42 29.27 29.17 27.33 29.63 29.86 29.57 29.51 28.77 29.24 28.06 34.02 33.28 33.81 34.06 34.32 35.33 35.95 36.86 38.14 39.06 39.74 40.52 40.57 40.80 40.78 39.72 38.60 39.11 40.45 40.05 40.42 40.93 41.65 41.45 40.65 42.16 42.28 45.04 47.03 46.39
28.63 26.09 22.77 17.65 25.93 25.73 21.05 26.86 28.65 29.41 30.66 29.35 24.43 30.05 31.98 32.63 33.82 33.91 35.06 35.58 35.61 37.00 37.93 38.66 39.53 40.13 40.61 40.92 41.72 38.81 39.29 39.97 40.22 39.89 40.44 41.02 40.99 40.48 41.14 41.75 44.49 44.28 44.01 43.27
27.54 26.21 23.84 17.59 21.69 12.42 26.83 32.13 32.13 30.15 31.76 32.30 31.98 32.34 33.40 33.57 35.39 35.82 36.67 36.26 36.66 37.56 38.44 39.12 39.77 40.13 40.90 41.88 42.04 40.59 40.20 40.39 40.28 39.81 40.02 40.36 40.04 40.48 40.49 40.96 41.64 40.47 41.08 41.61
30.72 26.64 19.76 14.38 15.36 22.79 27.21 30.67 30.26 27.52 27.88 32.95 31.58 32.65 33.90 34.80 35.31 34.79 37.54 38.01 37.52 37.90 39.02 39.70 40.36 40.60 40.93 40.90 40.98 41.01 40.22 39.79 39.68 39.40 39.10 39.76 40.31 38.83 39.35 39.17 40.13 40.66 41.13 41.47
30.29 28.84 22.82 20.62 10.11 10.30 24.96 32.01 34.61 32.31 22.33 32.36 32.02 31.97 32.03 33.70 26.94 30.71 36.22 37.49 37.64 38.55 39.00 38.87 39.50 39.68 39.40 39.86 40.72 39.85 39.06 39.03 38.69 39.47 38.96 40.14 39.79 38.59 38.26 39.04 39.34 40.58 41.14 41.60
23.95 23.31 21.99 21.02 13.31 21.45 30.26 33.26 34.19 19.73 21.94 31.99 32.67 33.05 32.86 30.07 31.76 34.67 36.89 36.53 37.39 37.27 36.77 37.22 37.07 36.41 37.10 38.47 38.99 37.89 38.16 37.57 39.27 40.20 39.90 39.81 40.23 38.36 38.71 37.70 39.18 39.85 40.07 41.07
23.35 19.09 18.67 20.57 14.94 16.24 33.37 31.81 26.47 29.05 31.31 33.41 33.63 33.66 32.76 33.62 34.66 35.09 34.93 34.12 34.10 33.96 34.97 35.85 35.14 35.29 36.43 37.19 37.16 36.15 35.70 38.76 39.07 39.00 38.84 38.52 37.71 37.93 39.62 37.71 38.13 39.21 39.92 40.56
23.37 26.99 22.08 23.64 23.35 31.37 32.82 31.97 33.92 34.53 33.43 33.48 33.09 33.94 33.97 33.13 32.11 32.63 32.28 32.87 33.72 34.08 34.24 35.20 34.69 34.78 35.80 36.87 37.23 35.69 36.61 38.12 37.96 37.45 36.90 37.06 36.77 36.98 37.05 36.25 36.90 38.47 40.39 39.09
29.89 31.01 26.51 26.43 29.11 31.16 33.37 33.60 34.86 35.50 34.35 35.06 34.72 33.43 32.49 30.98 32.05 31.66 32.37 32.73 32.87 33.76 33.92 34.86 34.87 34.35 34.98 36.65 37.40 37.60 38.15 38.57 37.20 36.20 36.10 35.17 34.46 35.74 36.61 38.42 39.46 39.64 39.44 38.31
30.65 29.29 26.84 26.29 30.17 31.29 32.01 32.68 34.31 35.23 35.65 34.06 33.00 32.62 32.38 32.07 31.38 32.30 32.09 32.68 33.36 34.01 34.65 35.42 35.06 35.30 35.68 36.92 37.27 38.11 38.53 38.38 37.14 36.25 35.29 34.90 35.30 35.08 36.50 37.51 39.26 40.58 40.24 40.36
32.42 29.88 25.10 26.56 30.65 29.87 29.20 33.09 35.74 33.84 31.78 31.80 31.70 31.48 32.48 32.37 32.25 33.15 32.75 32.75 33.51 34.06 35.17 35.07 35.92 36.05 35.99 36.97 37.19 37.91 38.11 37.34 37.19 36.63 35.73 35.76 36.05 36.98 36.11 36.97 39.73 42.36 42.94 43.88

GFSCGP_sfc_wetblb_033.txt.gz
Wetbulb
44.16 39.65 35.44 37.97 39.70 39.53 37.32 35.40 34.96 37.91 42.64 40.16 36.08 35.49 37.00 38.55 38.05 37.19 36.97 37.39 38.58 39.89 41.78 42.89 43.71 43.84 43.90 44.31 43.93 44.78 47.16 46.88 48.02 49.16 48.00 48.38 47.97 50.49 52.17 52.92 52.73 52.00 50.73 52.27
39.61 36.03 41.51 43.24 43.02 41.16 39.05 36.03 35.14 39.08 42.95 40.17 35.60 34.62 36.91 38.02 37.52 37.67 37.46 37.12 38.19 38.90 39.67 40.93 42.25 42.62 42.82 42.06 42.69 43.33 44.63 45.99 46.87 46.90 46.80 46.88 46.76 49.17 51.97 53.40 54.43 54.37 53.08 50.53
36.90 41.20 45.40 43.55 40.73 39.67 37.57 35.67 35.32 36.55 39.71 39.38 35.95 32.85 34.07 36.49 36.54 37.37 37.30 37.80 38.23 37.93 38.65 39.11 39.25 40.73 41.55 41.27 41.35 43.26 43.68 44.66 46.15 45.72 46.45 46.38 46.19 46.80 47.40 48.17 51.01 51.93 53.72 53.14
38.97 43.92 43.31 40.81 39.67 39.81 34.30 40.94 40.57 39.28 36.21 30.55 37.25 27.06 31.51 33.04 32.87 34.04 33.36 33.82 36.34 37.50 38.81 40.00 40.30 40.12 40.19 41.37 41.76 42.38 43.31 43.74 46.63 44.53 43.89 43.10 42.98 43.08 45.38 45.71 47.16 47.96 49.94 51.02
37.43 39.64 39.79 39.22 40.19 42.04 38.74 42.37 39.85 38.64 34.47 31.83 32.49 30.01 29.53 32.04 30.55 31.52 33.50 35.29 35.35 37.44 39.29 39.82 40.35 40.85 41.17 41.64 41.10 41.52 42.51 43.19 44.04 43.09 42.12 41.52 40.93 42.89 45.16 45.52 45.56 46.18 47.17 48.71
40.32 44.35 42.03 40.89 42.64 42.07 41.29 37.57 35.52 34.31 32.02 26.18 29.97 31.39 28.68 29.73 30.91 31.36 32.76 35.78 36.03 36.12 37.56 39.66 40.45 40.69 40.97 41.38 41.08 41.36 41.83 42.44 42.66 42.45 41.81 40.77 39.72 40.05 41.84 43.93 44.03 45.04 45.67 46.57
36.21 39.36 41.65 42.17 37.99 39.93 38.01 30.82 24.99 25.28 25.37 25.77 32.80 30.05 27.13 31.36 32.79 33.73 33.20 34.79 35.75 36.18 35.31 38.35 38.71 39.02 39.87 40.65 40.94 41.39 41.44 41.07 41.39 40.86 40.83 40.70 40.58 39.85 40.45 44.13 44.27 43.64 43.97 45.13
29.04 29.90 36.54 41.12 37.41 33.20 33.47 31.31 25.17 22.57 21.89 24.05 31.32 25.66 27.81 33.25 35.00 34.97 35.27 35.19 35.53 36.24 35.67 37.41 38.86 38.80 38.67 39.54 39.71 39.59 40.17 40.07 40.78 40.36 40.46 40.47 40.64 40.63 43.24 44.59 44.20 43.56 44.44 45.48
27.23 28.90 36.52 39.22 38.47 36.56 31.93 28.45 32.22 26.96 24.43 21.72 25.46 28.25 29.68 32.58 32.47 32.63 33.88 34.55 34.95 35.81 35.72 37.82 38.51 38.47 38.38 38.62 39.19 39.36 39.57 40.37 40.77 40.80 40.36 40.00 40.00 39.89 42.41 43.31 43.74 43.79 44.76 47.36
29.55 25.32 32.31 36.48 37.86 36.38 33.09 35.32 27.68 25.04 20.97 19.22 21.36 22.64 26.09 28.29 29.64 32.27 32.08 32.79 34.22 35.44 35.55 36.96 37.65 38.19 38.71 38.29 38.42 38.52 39.17 39.38 40.01 40.03 39.80 41.36 39.95 40.45 41.42 41.43 41.90 43.33 44.59 46.01
29.88 27.36 28.37 31.26 30.04 28.29 29.90 27.94 28.20 27.33 23.75 19.91 16.64 21.99 29.31 29.60 31.57 30.87 32.10 33.81 34.49 34.15 35.52 36.36 36.65 37.45 38.66 39.37 39.39 39.50 39.22 39.47 40.07 40.31 39.80 39.65 40.41 41.70 40.95 41.70 42.71 43.22 43.55 45.44
30.72 26.80 22.59 27.31 31.89 33.37 31.10 27.70 27.08 21.54 20.79 20.21 16.49 19.96 32.29 32.05 32.85 33.31 33.06 34.12 34.84 36.22 37.04 37.43 37.90 38.56 38.67 39.87 39.40 39.53 40.06 39.35 40.61 40.47 39.63 40.25 41.29 41.71 40.29 41.28 41.77 42.66 42.79 45.57
30.50 24.56 20.10 23.84 29.05 31.70 28.75 30.01 29.75 26.25 23.05 17.67 16.41 21.54 31.43 30.84 32.86 35.18 32.49 33.14 35.12 36.63 37.02 37.97 38.08 37.90 38.68 39.32 39.21 39.44 39.81 40.19 41.07 40.22 38.96 39.23 38.80 38.79 39.49 40.33 41.83 42.13 43.21 44.49
35.19 24.51 23.67 22.12 24.65 26.86 24.93 27.78 28.80 26.13 16.01 19.50 23.02 27.42 32.45 33.77 32.32 34.79 34.58 33.23 35.04 36.14 36.74 37.75 37.87 37.73 37.34 39.04 38.61 39.26 40.29 40.79 40.96 40.44 38.80 37.74 37.80 38.55 39.43 40.19 41.06 41.71 42.87 43.32
30.73 23.92 25.15 26.69 27.68 27.83 27.54 28.06 28.27 25.68 24.79 21.52 25.62 24.76 30.19 32.65 33.57 33.92 32.94 34.81 35.44 35.89 36.99 37.81 38.11 39.13 39.88 39.35 40.05 40.78 40.12 41.12 40.93 39.34 38.56 38.66 39.39 39.46 38.98 39.44 40.50 41.35 41.74 42.43
30.15 23.60 25.14 23.78 27.79 27.62 25.97 28.39 28.40 28.73 28.64 27.80 28.28 27.20 34.58 35.34 31.23 32.38 33.28 34.23 34.53 35.81 37.17 37.91 38.76 38.97 39.14 39.57 40.13 40.96 41.18 41.60 41.74 39.14 38.32 38.87 39.69 39.91 39.47 39.58 39.61 39.69 40.57 44.02
27.56 25.40 21.81 16.55 24.45 24.44 21.27 26.29 27.75 27.89 28.99 28.98 24.43 30.00 31.11 30.66 31.87 32.05 33.20 34.26 35.47 36.22 36.44 36.60 36.90 37.81 38.89 39.62 40.31 39.99 40.91 41.86 41.35 40.28 39.00 40.13 40.10 39.67 39.74 39.66 39.47 39.80 40.83 40.80
26.08 25.28 23.54 17.07 20.79 13.73 27.33 30.41 30.79 29.40 30.52 31.11 31.14 31.45 32.16 31.99 33.67 33.41 35.81 35.52 34.96 35.35 35.51 36.31 37.02 37.64 38.37 39.27 39.35 39.57 39.87 39.83 39.88 39.65 40.02 39.87 39.87 39.56 39.32 38.66 38.59 38.02 38.10 38.96
29.69 26.22 19.04 13.99 14.67 22.32 27.51 28.93 28.46 26.96 26.88 32.27 31.09 31.08 32.00 32.67 33.81 32.71 35.63 35.12 34.98 35.63 36.32 36.28 36.90 36.65 36.59 36.58 37.37 37.43 37.29 37.59 37.92 38.41 38.81 39.35 39.87 39.03 38.14 37.53 37.37 36.95 37.61 38.72
29.09 27.64 22.46 19.68 9.58 10.82 25.58 30.61 33.30 31.22 21.81 30.86 31.15 30.50 30.25 31.82 25.03 29.64 34.13 35.62 35.41 35.37 35.12 34.52 35.20 35.85 35.58 35.91 36.63 35.75 35.34 35.49 35.48 37.05 37.91 39.07 39.21 38.21 38.37 38.28 36.70 37.33 37.40 38.97
23.14 22.86 20.85 20.07 12.51 21.00 29.77 32.21 33.16 19.92 22.37 31.39 31.55 32.09 31.43 27.94 29.51 33.12 35.10 33.91 34.38 34.27 34.35 35.46 34.97 34.43 35.33 36.11 36.17 34.81 34.85 34.40 36.44 37.87 38.06 38.60 39.49 38.82 38.73 39.07 37.00 35.42 36.27 36.98
23.22 19.63 18.94 20.26 14.47 16.43 32.60 31.03 26.45 29.15 30.04 32.35 32.28 32.87 31.74 32.08 32.87 32.36 32.49 32.55 32.82 32.99 33.68 34.64 34.63 34.92 36.06 36.74 36.27 35.30 35.14 36.80 37.58 37.67 37.53 37.20 37.67 38.37 38.55 36.42 34.33 35.24 35.40 34.96
23.68 28.38 22.16 24.38 23.98 31.22 31.99 30.59 32.28 32.83 32.38 32.40 32.34 32.89 32.42 30.64 30.46 31.45 31.26 31.53 32.35 32.68 33.53 34.24 34.71 35.15 36.50 37.02 37.00 36.16 37.13 38.41 38.36 38.35 37.72 37.07 36.81 36.50 36.55 34.11 33.80 34.32 35.01 36.02
28.60 31.65 25.61 28.90 29.01 30.86 31.99 32.85 32.44 34.89 33.92 34.12 33.59 31.65 31.11 29.95 30.81 30.59 31.09 31.55 31.84 32.90 33.20 34.40 35.13 34.76 35.30 37.10 37.44 38.05 38.44 38.73 38.29 37.20 37.43 36.61 36.11 34.82 34.24 35.14 35.68 35.33 37.00 37.09
30.27 30.25 28.84 27.13 30.34 31.11 31.45 31.42 32.75 34.70 34.32 31.97 31.57 31.52 31.34 30.79 30.51 30.83 30.79 31.17 32.72 33.08 34.14 35.14 34.95 35.78 36.10 37.44 37.65 38.74 38.98 38.19 36.74 36.34 36.18 36.16 36.76 35.54 34.55 35.35 35.17 36.11 37.10 39.61
30.74 28.85 28.36 28.20 31.80 29.87 28.84 32.06 35.19 33.70 31.21 30.60 30.39 30.52 31.37 31.37 30.64 31.25 30.94 32.62 32.92 33.31 34.20 34.92 35.48 36.48 37.06 38.04 38.51 39.39 39.69 38.04 36.52 35.83 35.39 36.49 36.49 36.09 36.20 36.35 35.59 40.45 41.90 44.03

GFSCGP_sfc_wetblb_036.txt.gz
Wetbulb
42.32 38.93 34.54 36.61 38.10 38.10 36.25 34.20 33.51 36.62 41.04 36.31 33.48 33.47 35.07 36.94 36.10 35.79 35.47 35.94 37.09 38.42 40.44 41.29 42.10 41.96 41.67 41.67 41.59 41.56 44.32 44.53 45.05 45.28 44.96 45.37 46.02 47.88 49.26 50.48 52.22 51.94 51.02 50.64
38.80 34.77 39.87 42.03 41.63 39.82 37.65 34.49 33.55 37.60 41.45 36.57 33.51 32.41 35.16 36.24 36.07 36.24 35.85 35.12 36.34 37.53 38.71 39.69 40.72 41.01 40.76 40.07 40.43 41.27 42.48 44.45 44.23 44.56 44.41 44.23 44.01 46.26 47.87 48.26 49.61 50.94 52.85 53.05
35.87 39.82 44.15 42.20 39.51 38.47 36.23 33.91 33.69 35.28 38.46 36.17 33.54 30.53 32.33 34.79 35.31 36.60 36.21 36.75 37.79 37.53 38.13 38.69 38.61 39.74 40.30 39.86 39.46 41.20 42.16 43.57 43.99 43.43 43.93 44.04 43.51 43.67 44.61 45.48 46.67 47.49 48.61 49.89
37.85 42.47 41.94 39.54 38.34 38.60 33.38 39.35 39.36 37.99 34.67 28.79 35.09 26.46 29.46 31.61 31.79 32.74 33.21 33.12 34.72 37.27 38.39 39.31 39.56 39.49 39.58 40.55 40.33 40.91 41.81 42.25 44.47 42.47 41.60 40.05 40.04 39.64 42.39 43.39 45.26 45.72 47.00 47.09
35.85 38.19 38.93 38.14 38.84 40.69 37.75 39.73 37.50 37.01 33.39 29.69 30.78 29.52 29.45 30.63 29.48 30.68 32.48 34.04 34.42 35.10 36.27 38.64 39.25 39.69 40.51 40.62 39.99 39.96 40.84 41.64 41.90 41.17 40.34 39.73 38.90 39.45 41.23 42.54 43.22 44.67 45.20 45.83
38.47 42.59 40.27 39.44 41.44 40.74 40.00 36.14 33.98 32.85 30.68 25.43 27.85 29.58 27.85 27.13 29.80 30.79 31.77 34.38 35.01 35.63 35.91 36.25 39.28 39.44 39.44 39.91 40.11 40.25 39.96 40.97 41.16 40.40 40.03 39.16 38.26 38.55 39.16 40.45 42.84 44.06 44.06 44.65
35.24 37.57 39.29 40.98 36.39 38.27 36.62 28.96 24.73 25.20 24.98 25.49 31.04 28.81 29.37 31.35 31.74 33.13 32.32 32.62 35.19 35.22 35.30 35.24 36.89 38.04 38.66 38.99 39.38 40.19 40.23 39.62 40.44 39.70 39.67 39.69 39.17 38.44 38.36 40.35 42.40 42.47 42.35 42.86
28.73 30.52 35.51 39.23 35.57 31.85 32.25 30.10 25.04 22.86 21.61 22.88 29.45 25.47 29.15 32.21 33.65 34.43 33.82 33.42 34.38 34.90 35.15 34.90 36.38 37.52 37.49 38.34 38.61 39.02 39.07 38.52 39.88 39.66 39.69 39.62 39.10 39.02 39.47 40.98 41.94 41.35 41.77 42.70
26.10 27.92 35.07 36.73 36.36 35.13 30.35 27.65 31.17 25.75 22.85 20.75 23.90 27.91 29.48 30.82 31.45 32.50 31.86 33.16 33.54 34.55 34.86 35.24 37.16 37.31 37.36 37.79 38.29 38.56 39.02 39.40 39.58 40.26 40.12 39.16 38.87 38.70 39.06 40.03 40.75 41.09 41.69 44.22
28.24 25.07 30.89 35.07 36.22 35.13 32.03 34.19 26.59 24.16 20.73 19.43 20.52 21.97 25.65 27.29 28.94 31.10 30.86 31.55 33.03 34.42 34.73 35.37 36.35 37.30 38.03 38.32 38.91 38.08 38.73 38.58 39.83 40.06 39.81 40.51 39.15 39.18 39.62 39.80 39.24 40.08 41.64 42.62
28.74 26.42 27.09 30.13 29.03 27.50 29.23 27.47 27.37 26.33 23.30 20.12 16.89 22.34 28.11 30.81 31.17 30.47 31.23 32.50 33.58 33.77 34.74 35.71 36.30 37.29 38.57 38.50 38.30 40.20 40.20 39.76 40.31 40.37 40.58 39.93 40.05 39.84 39.49 38.68 39.35 39.71 40.83 41.11
29.19 25.66 22.82 25.71 29.80 31.81 29.69 26.85 27.08 21.76 20.84 18.91 16.00 20.34 30.96 30.39 32.04 32.50 32.25 33.50 33.47 34.65 36.14 36.37 37.49 38.83 38.44 39.14 39.93 40.31 40.71 40.08 40.76 41.13 40.55 41.18 41.07 40.79 38.89 38.20 38.91 39.24 39.23 40.34
29.63 24.19 21.01 24.97 27.77 30.58 27.40 29.19 28.07 24.73 22.64 17.15 16.47 22.22 31.15 29.16 30.14 31.47 31.99 32.65 32.75 35.04 35.99 37.13 37.20 36.86 37.56 38.70 39.43 40.04 40.53 40.08 41.68 41.31 41.33 40.78 40.11 39.81 39.07 38.44 39.12 39.60 39.55 40.34
34.55 24.04 24.02 23.15 24.38 26.21 25.38 26.64 27.48 25.27 16.34 19.95 22.29 26.96 30.46 30.33 30.49 31.53 33.15 32.00 32.87 34.68 35.76 35.90 36.17 37.48 38.25 38.96 39.12 39.54 39.77 41.15 40.56 40.93 40.81 39.83 39.73 39.44 38.94 39.08 39.21 39.41 40.02 39.59
29.74 23.78 22.92 25.13 26.61 25.93 25.68 26.54 27.06 24.67 24.07 22.11 27.75 24.45 30.06 30.26 30.26 32.05 31.73 33.02 33.43 33.68 35.64 36.98 37.28 37.39 37.02 37.19 38.08 39.02 39.80 40.51 40.79 40.49 40.74 40.83 41.13 40.11 40.52 39.24 38.95 39.62 39.96 40.31
28.94 23.25 24.37 22.85 25.94 25.86 25.25 27.72 27.83 28.12 28.27 26.60 27.81 26.90 34.11 33.88 29.12 30.53 31.25 31.79 32.63 34.75 35.94 36.73 36.29 36.04 36.50 36.77 37.00 37.87 38.08 38.67 39.67 39.00 38.95 40.16 40.84 40.99 39.37 38.32 38.56 38.92 39.37 39.63
26.70 24.79 21.31 16.86 23.00 23.74 21.49 25.59 26.69 26.91 28.03 27.97 23.79 29.19 29.52 28.76 30.89 30.69 30.86 32.56 33.93 34.63 35.11 34.48 35.00 35.75 35.82 35.71 36.24 35.33 36.08 37.11 36.76 36.90 37.65 38.38 39.03 39.21 39.60 39.96 39.15 38.66 38.48 38.77
25.12 24.61 23.43 16.82 19.99 14.33 27.24 29.39 29.99 28.58 29.54 30.72 30.41 30.77 30.96 30.86 31.39 31.99 33.80 33.44 33.42 33.71 33.75 34.49 34.69 34.34 34.66 35.49 35.67 35.94 36.09 35.85 35.68 35.54 35.96 36.76 37.47 37.89 39.18 39.10 38.80 38.11 38.26 38.02
28.60 25.69 19.06 13.89 14.24 22.18 27.41 27.63 27.69 26.47 27.28 31.99 30.87 31.42 30.99 31.64 31.70 30.33 34.25 32.90 32.86 33.82 34.10 33.75 34.20 34.48 34.86 34.79 35.67 36.47 36.11 36.18 35.46 35.02 35.52 36.23 36.98 37.07 37.43 37.61 37.43 37.31 37.38 36.91
27.95 26.58 22.10 18.93 9.12 12.10 25.89 29.94 32.22 30.55 22.62 30.19 31.12 29.64 29.38 30.76 24.34 29.45 31.20 34.06 33.17 33.18 33.66 33.20 34.05 34.49 34.31 35.48 36.88 36.21 35.70 35.80 35.18 35.99 36.74 37.33 37.51 37.01 36.75 37.03 38.38 39.32 38.91 38.18
22.50 22.45 20.39 18.67 12.63 20.62 28.86 31.34 32.26 20.55 26.44 30.12 30.87 29.69 30.32 28.25 29.50 32.09 34.03 32.32 33.15 33.01 32.95 34.17 33.86 33.28 34.42 36.66 37.19 35.90 36.29 35.80 37.23 38.53 38.78 37.78 38.62 37.77 37.74 37.63 37.52 38.20 38.03 36.98
22.90 19.86 18.60 19.19 14.70 16.50 32.14 29.80 26.27 29.69 28.83 30.79 30.77 31.91 31.55 31.63 32.30 31.96 31.56 31.45 31.77 31.76 32.41 33.49 33.22 34.36 35.60 37.26 37.06 36.68 36.71 38.58 39.01 39.21 38.28 37.60 38.45 38.46 38.15 36.88 35.79 34.84 34.07 32.31
21.53 27.26 22.29 23.42 23.20 31.27 33.87 31.73 31.97 31.84 30.89 31.48 31.82 32.50 31.97 30.65 29.67 30.43 30.18 30.50 31.11 31.42 32.40 34.64 34.55 34.44 35.68 37.31 37.34 35.88 37.74 39.51 39.49 39.02 37.85 37.47 37.64 37.65 37.36 35.67 34.39 33.29 33.42 32.88
26.35 30.00 25.77 25.21 28.35 32.33 34.01 33.91 32.48 33.18 33.03 33.68 33.16 31.96 30.49 28.94 29.80 29.49 29.97 30.35 30.55 31.77 32.81 34.86 34.43 34.26 34.64 36.64 37.03 37.70 39.01 40.04 39.03 37.87 36.70 35.62 35.20 36.37 36.98 34.90 34.44 33.43 33.23 33.09
28.56 28.67 26.60 25.63 31.18 32.53 32.85 31.55 31.94 33.17 34.48 33.32 31.26 30.85 30.61 29.97 29.49 29.65 29.81 30.14 31.41 31.63 33.66 34.43 34.33 34.93 35.30 36.69 37.12 37.97 39.39 39.21 37.89 37.62 36.97 36.17 35.85 35.89 36.17 37.06 35.97 35.47 36.02 35.53
28.48 27.69 25.23 29.76 35.75 31.93 29.72 31.04 33.14 33.54 33.12 31.22 30.03 29.63 30.65 30.26 29.78 30.39 29.78 31.10 32.22 32.60 33.14 33.77 34.69 35.61 36.08 36.75 37.07 38.22 39.35 38.84 37.88 36.51 36.54 36.10 36.43 36.42 37.28 35.62 35.62 40.10 40.84 41.73

GFSCGP_sfc_wetblb_039.txt.gz
Wetbulb
45.47 43.23 40.70 41.94 42.81 42.11 41.12 39.70 38.92 40.77 43.05 40.20 37.32 37.16 38.69 40.29 39.92 40.11 40.78 41.41 42.18 42.94 44.66 45.68 46.51 46.76 46.58 46.71 47.37 48.39 49.97 50.12 50.52 50.84 50.68 50.86 50.66 51.55 53.17 53.79 54.53 54.86 54.91 55.11
42.97 41.22 44.06 44.36 43.91 43.22 41.67 39.64 39.01 40.91 42.50 40.82 36.45 36.36 38.68 39.79 39.83 40.70 40.93 41.27 42.10 42.94 43.92 44.95 45.60 46.53 46.43 46.00 46.44 47.38 48.65 49.36 49.54 50.10 50.43 50.71 50.04 51.66 51.65 52.78 52.70 54.02 53.66 53.83
40.96 43.68 45.38 44.22 42.93 41.53 40.44 39.02 38.42 39.34 40.39 38.23 36.42 35.61 36.11 39.00 40.23 40.76 41.57 41.93 42.44 42.70 43.26 44.63 45.33 45.65 46.48 46.53 46.06 46.12 47.26 47.96 48.98 48.66 49.30 49.69 50.08 49.98 50.38 50.75 51.38 52.23 52.66 52.96
42.64 44.61 43.67 42.88 41.65 41.72 38.39 41.78 41.46 40.27 38.90 35.66 38.13 33.30 34.11 35.55 36.47 37.65 39.25 39.05 39.63 40.46 42.56 44.21 44.93 45.54 45.91 46.52 46.61 46.51 46.71 47.22 48.18 48.27 47.82 46.94 46.20 45.92 48.32 48.54 50.06 50.62 52.44 51.98
41.29 41.58 41.83 41.88 41.85 43.68 40.64 41.17 39.65 39.97 38.02 36.25 35.22 34.52 37.17 34.64 33.37 35.84 38.07 38.98 39.76 40.70 40.69 40.96 42.14 44.69 45.87 45.70 45.73 45.84 46.18 46.86 47.77 47.44 46.88 46.11 45.86 46.77 47.21 47.57 48.60 50.87 52.13 51.95
41.52 44.29 43.21 42.67 43.21 42.71 41.33 38.63 36.96 36.50 35.32 31.34 33.51 34.79 36.73 32.15 34.46 35.71 38.22 38.97 39.85 40.57 41.24 41.86 42.61 42.91 44.93 45.85 46.04 46.49 46.21 46.46 47.45 47.23 47.00 46.28 45.68 45.81 45.58 46.67 46.85 48.92 49.92 49.76
38.68 40.24 41.25 42.77 40.33 40.78 39.12 34.25 31.99 31.34 30.90 31.88 34.58 33.18 37.84 36.09 35.58 37.86 37.84 38.93 40.10 40.40 40.79 41.23 41.75 42.28 44.21 44.74 45.41 45.88 46.50 45.73 46.62 46.33 46.21 46.49 46.35 46.16 45.46 45.64 46.03 46.90 47.72 47.63
33.10 33.95 38.41 40.02 39.31 36.79 36.17 34.69 32.01 28.67 28.37 29.33 31.72 31.76 36.80 36.78 37.61 38.73 39.12 39.10 39.05 39.72 40.59 41.15 41.60 42.16 43.13 43.87 44.80 45.51 45.45 44.88 45.62 45.46 45.46 46.13 46.20 46.60 46.33 46.35 46.44 46.63 47.14 47.27
31.05 32.25 36.90 37.57 38.54 38.66 35.12 33.05 35.83 29.67 28.17 27.84 30.47 33.24 36.22 35.09 35.07 35.97 37.53 37.85 38.47 39.17 40.34 40.62 41.41 42.65 43.35 44.11 44.58 44.60 44.10 44.34 44.70 45.04 45.22 45.23 45.64 45.37 45.56 45.89 46.23 46.44 46.94 46.71
32.24 30.46 33.83 36.95 38.70 37.21 36.47 36.69 31.09 30.42 27.33 25.14 28.40 27.98 32.47 31.71 33.52 35.17 36.05 37.14 38.00 38.97 39.51 40.79 41.91 42.69 43.64 43.80 43.98 44.23 44.04 43.48 44.15 44.73 44.81 44.92 45.09 45.07 45.20 45.53 44.86 45.33 46.02 46.23
33.14 30.82 32.27 34.35 33.22 32.78 33.35 32.15 30.35 31.14 29.70 27.44 25.01 30.03 34.46 34.72 35.83 35.44 36.31 37.55 37.96 38.64 38.96 40.35 41.96 42.75 42.80 43.08 43.25 43.49 43.67 43.60 44.04 44.62 44.91 44.66 45.25 44.71 45.23 44.50 45.04 45.43 45.39 45.37
33.08 29.32 28.45 30.96 33.24 34.38 33.90 32.09 32.10 30.50 26.79 25.01 24.51 27.23 35.60 35.29 35.75 36.18 36.93 37.20 38.18 38.35 39.40 40.71 41.38 41.55 41.82 42.14 42.47 42.60 42.67 42.37 43.42 44.18 43.89 44.38 45.07 44.52 44.33 44.22 44.59 45.13 43.82 44.78
33.24 29.05 28.40 31.03 32.26 33.99 31.60 31.76 29.57 28.44 27.76 24.51 26.17 31.11 34.94 34.36 34.14 36.01 36.30 36.85 37.78 38.07 38.78 40.00 40.32 40.36 40.57 41.02 41.19 41.14 41.38 41.63 42.69 43.25 43.05 43.22 43.34 43.52 43.73 43.59 44.28 44.11 43.60 43.46
35.74 27.71 29.28 29.69 30.63 30.77 29.52 29.92 29.81 30.24 25.92 26.83 28.38 33.22 36.18 34.71 34.84 36.30 36.54 37.18 37.15 37.48 38.06 38.63 39.42 40.17 40.11 39.82 39.65 40.08 40.34 40.96 41.74 41.77 41.57 41.47 42.07 42.72 43.48 43.93 44.15 43.68 43.48 42.94
32.95 28.35 26.57 27.45 28.01 28.21 28.62 29.18 28.84 27.90 30.05 28.63 32.73 29.74 34.02 34.90 34.98 35.99 36.49 36.08 36.37 36.78 37.90 38.74 38.72 38.37 38.05 38.46 38.87 38.90 38.91 39.30 39.42 39.00 39.12 39.46 40.56 41.50 42.08 42.62 43.20 43.27 43.11 42.95
31.02 28.14 27.57 25.95 28.10 28.12 26.88 29.39 29.12 29.43 30.47 28.10 30.29 30.06 36.98 37.54 35.82 34.70 35.73 35.34 35.32 36.65 37.46 37.66 36.86 36.84 37.00 37.00 37.15 37.60 37.63 38.06 38.61 38.00 37.98 39.14 39.35 39.65 40.05 40.90 41.35 42.18 42.15 41.92
29.86 27.97 24.90 23.51 24.78 25.71 24.75 27.66 29.96 29.33 30.12 31.12 27.59 33.68 34.28 32.91 33.95 34.76 35.09 35.49 35.68 36.25 35.99 35.34 35.68 35.83 35.88 36.22 36.93 36.75 37.54 38.61 38.25 37.87 38.00 38.31 38.83 38.67 39.11 39.75 39.99 40.47 41.46 42.00
27.33 27.52 26.53 22.76 24.68 21.29 32.90 33.10 32.08 31.00 31.60 32.68 32.50 34.13 34.60 34.42 34.96 35.50 36.66 35.87 35.47 35.05 34.89 35.03 35.15 35.30 36.00 36.80 36.94 37.41 38.24 38.59 38.39 38.01 37.99 38.48 38.49 37.53 38.58 38.98 38.85 39.54 40.56 41.19
30.52 28.74 25.12 21.61 19.49 26.11 31.22 30.15 29.97 28.89 30.97 34.43 33.18 34.74 34.80 34.11 34.49 34.56 36.87 35.89 35.49 35.32 35.18 35.03 35.70 35.57 36.12 36.12 37.14 37.37 37.37 38.17 37.70 37.12 37.63 38.23 38.61 37.89 38.45 37.69 37.71 38.72 39.59 39.36
29.33 28.32 26.62 21.35 17.35 18.23 30.77 32.48 34.49 33.51 27.36 34.28 34.26 33.76 33.02 33.58 30.13 34.35 35.44 36.19 35.32 35.10 35.08 34.59 35.22 35.73 35.76 36.94 37.21 36.64 36.84 37.04 36.80 37.27 38.63 39.47 39.30 39.18 37.96 36.52 37.43 38.56 39.48 39.74
24.60 25.43 23.50 23.06 19.78 23.85 30.92 33.61 34.55 26.07 31.60 33.13 33.85 33.71 33.42 32.97 35.17 35.83 36.33 35.09 34.83 34.55 34.30 35.28 35.19 35.08 36.02 36.80 37.24 36.27 36.72 36.16 37.74 38.60 39.63 39.91 40.26 39.13 38.14 38.09 37.64 38.27 38.98 38.63
24.87 22.33 21.59 22.95 20.04 19.43 33.22 32.36 29.95 34.85 33.35 34.10 34.48 34.90 34.62 35.32 35.27 34.84 34.00 33.03 33.23 32.94 33.53 34.44 34.29 34.92 36.70 37.39 36.99 36.09 36.03 37.99 38.47 39.42 38.99 38.99 39.76 39.19 38.62 37.65 37.94 37.68 37.59 36.75
24.86 29.04 25.93 26.00 25.80 33.92 34.25 35.23 36.29 34.80 34.63 34.51 34.88 35.75 35.19 33.90 32.49 32.28 31.88 32.22 32.48 32.67 33.22 34.42 34.17 34.23 36.36 37.48 37.41 35.71 36.83 38.53 38.71 38.92 37.48 38.64 39.08 37.95 37.48 36.84 36.89 36.72 37.38 36.41
28.24 30.61 28.46 27.66 31.23 32.89 34.81 36.61 35.90 35.06 34.85 35.95 36.32 35.50 33.97 31.78 31.89 31.35 31.60 31.90 31.93 32.69 32.77 34.04 33.53 34.19 34.76 36.74 36.89 37.35 38.12 38.80 38.77 37.82 37.64 38.25 38.20 37.79 37.97 37.12 37.71 37.09 36.33 35.87
30.11 29.52 28.67 27.70 31.70 34.05 34.94 35.27 36.21 34.87 35.29 35.70 35.04 33.89 32.93 32.04 31.45 31.31 31.38 31.63 32.04 32.39 33.63 33.74 33.76 34.29 34.64 36.80 36.83 37.95 38.41 39.10 37.48 37.19 37.60 37.64 37.85 37.16 37.10 37.91 38.26 38.15 38.62 37.93
29.91 31.73 29.04 32.24 36.42 34.40 35.02 35.33 35.11 33.53 34.59 35.53 33.14 31.98 32.75 32.40 31.42 31.83 31.47 32.09 31.96 32.57 32.89 33.23 34.29 34.99 35.24 36.21 36.43 37.70 38.03 38.55 37.42 36.78 37.41 37.59 37.45 37.77 38.02 37.55 37.26 40.44 41.15 41.74

GFSCGP_sfc_wetblb_042.txt.gz
Wetbulb
50.59 48.42 46.10 46.88 47.43 46.60 46.03 45.03 44.29 45.86 46.67 45.65 44.50 44.60 44.82 45.07 45.24 45.39 45.94 45.90 45.97 46.14 47.88 49.12 49.74 49.88 49.95 50.37 50.54 51.14 51.35 52.02 52.30 52.10 51.62 51.58 51.27 52.13 52.45 53.45 53.85 54.06 55.31 55.72
48.27 45.99 47.70 47.72 47.36 46.50 45.92 44.62 44.64 45.05 45.88 45.74 45.49 44.68 45.31 44.79 44.87 45.73 45.75 45.81 45.82 46.24 46.86 48.22 49.06 50.03 49.05 49.63 50.27 50.35 50.90 51.41 51.94 52.43 52.15 51.95 51.30 52.02 52.61 53.66 53.50 53.83 54.10 54.82
46.03 47.09 47.90 47.00 46.21 45.35 45.49 44.12 43.60 43.20 44.98 44.30 43.41 43.81 42.75 44.07 44.87 45.10 45.68 46.41 46.22 46.50 46.47 47.51 48.55 49.20 49.95 49.95 50.54 50.31 50.54 50.90 51.35 52.07 52.17 51.94 51.85 51.76 51.05 51.50 51.84 52.61 53.28 53.90
46.84 47.56 46.54 46.24 45.07 45.83 43.08 45.05 44.36 43.29 42.95 41.04 43.28 38.84 42.19 43.43 42.13 43.40 44.57 45.17 45.71 45.99 46.62 47.18 47.77 48.94 50.15 50.38 51.03 50.76 50.59 50.70 51.07 51.80 50.90 50.31 49.32 48.53 50.12 50.80 51.59 52.02 52.64 53.01
45.12 45.10 45.18 44.84 45.07 46.30 44.32 44.75 43.48 43.11 42.39 41.22 40.97 39.15 43.73 42.97 40.23 42.17 43.80 44.42 45.10 45.71 45.82 46.01 46.74 47.92 48.66 50.64 50.68 51.13 51.08 50.67 51.06 50.55 50.66 50.12 49.58 49.89 50.60 50.92 50.66 51.08 51.88 52.34
45.72 47.89 46.17 46.08 46.03 45.36 44.56 42.89 42.28 42.90 41.93 37.63 40.72 40.12 43.81 40.69 42.00 43.11 43.86 43.90 44.68 45.14 45.74 46.54 47.42 48.15 48.70 50.53 51.23 51.30 50.55 49.67 50.22 50.03 49.49 49.37 48.39 48.70 49.12 49.62 49.88 49.78 50.54 51.15
43.85 44.25 44.79 45.58 43.55 44.69 43.85 41.55 38.75 37.35 37.43 38.33 40.55 39.16 43.31 44.48 42.93 44.41 42.94 43.46 44.81 45.33 45.25 45.52 46.19 47.14 47.94 49.19 49.54 49.25 48.77 47.84 48.25 48.27 48.32 48.43 48.66 48.45 48.16 48.61 48.82 49.16 49.14 49.72
40.55 38.99 42.47 42.97 42.95 41.45 41.21 40.56 38.25 33.38 35.94 37.74 38.26 36.76 42.94 41.95 43.59 44.59 44.61 44.75 44.73 44.67 45.25 45.48 46.25 46.97 47.53 47.84 47.99 48.01 47.32 46.75 47.44 47.61 47.53 47.82 47.97 48.00 48.28 48.70 49.06 48.60 48.65 49.26
38.98 37.68 40.66 40.85 42.18 42.25 40.33 39.33 41.26 36.81 35.92 34.71 39.67 40.04 42.62 40.71 41.26 42.20 42.67 43.49 43.78 43.85 44.76 45.49 46.32 46.97 47.22 47.24 47.04 46.98 46.66 46.62 46.93 46.94 46.94 46.67 46.93 46.96 47.62 47.78 48.22 48.83 48.57 48.72
38.24 36.10 38.18 39.82 41.46 41.69 40.82 41.88 37.33 38.72 32.99 32.28 37.09 36.68 39.44 38.65 39.71 41.01 41.72 42.70 43.91 43.74 44.30 45.34 45.98 46.74 47.00 47.13 47.06 46.93 46.42 45.79 46.13 46.23 46.01 45.82 46.26 46.70 47.00 47.16 46.88 47.52 47.96 48.26
38.85 36.39 36.11 38.26 38.56 39.27 38.70 38.71 38.05 38.02 37.15 34.54 33.79 38.23 42.60 41.71 42.52 42.35 43.10 44.06 44.37 43.96 44.06 44.73 45.64 46.22 46.50 46.66 46.38 45.76 45.34 45.12 44.71 45.08 45.49 45.46 45.69 46.12 46.72 46.48 46.87 47.29 47.24 46.80
37.99 37.34 36.00 36.60 37.63 38.65 38.59 37.88 39.22 36.24 35.20 35.75 33.86 35.70 41.91 41.87 42.17 42.61 43.84 44.50 44.79 44.22 44.40 44.89 45.20 45.44 45.43 45.30 44.88 44.25 44.12 43.83 44.62 45.04 44.71 44.65 45.09 45.36 45.25 45.45 45.96 46.54 46.25 46.84
38.65 36.96 36.35 35.82 37.06 38.05 36.66 37.67 37.31 36.32 36.67 34.73 33.68 37.69 40.92 41.28 41.84 42.54 42.53 43.61 44.06 43.69 44.12 44.39 44.43 44.27 44.43 43.70 43.08 42.99 43.51 43.74 43.89 43.75 43.43 43.14 43.20 43.18 43.24 43.94 44.67 45.23 45.13 46.10
39.39 36.66 36.39 36.30 36.35 37.48 35.74 35.93 36.41 37.08 34.38 36.39 35.94 38.67 42.04 42.30 41.93 42.29 42.46 42.85 43.26 43.53 43.11 43.40 43.70 43.75 42.92 42.27 42.22 42.24 42.79 43.30 43.06 42.89 42.53 41.88 42.16 42.44 42.57 43.10 43.44 43.62 44.18 43.76
38.92 35.40 34.68 36.56 35.82 34.41 34.58 35.10 35.60 34.30 36.72 34.19 38.15 38.23 40.85 42.41 42.56 42.93 42.91 41.82 41.56 41.93 42.13 42.62 42.36 41.61 41.27 41.28 41.51 41.99 42.32 42.49 42.74 41.86 41.77 41.90 42.51 42.28 42.00 41.70 42.13 42.93 42.98 43.10
37.90 35.69 34.09 33.69 33.08 33.01 32.05 35.49 36.00 35.42 35.71 35.83 36.73 35.65 42.14 42.91 42.02 41.08 40.91 41.15 40.58 41.15 41.69 41.53 41.07 40.29 39.99 40.20 40.69 41.14 41.17 41.52 42.24 41.64 41.17 42.14 41.89 42.47 41.63 41.54 41.29 41.58 41.22 41.57
36.50 35.58 33.17 32.41 31.71 32.31 32.06 36.12 36.96 37.13 37.39 36.81 34.46 40.72 41.53 40.08 40.03 40.84 41.30 40.90 40.42 40.79 40.48 40.20 39.37 39.44 39.48 40.07 40.54 39.94 40.64 41.37 40.52 39.51 39.96 39.86 40.51 40.87 40.46 40.10 40.14 40.38 40.68 41.14
35.12 34.55 34.60 31.24 32.64 28.69 37.23 39.26 37.52 36.70 38.17 38.87 38.27 39.65 41.67 41.52 41.52 41.58 42.13 41.14 40.65 40.36 39.98 39.27 39.12 39.19 39.73 40.39 40.46 40.44 38.66 39.16 39.04 39.14 39.50 40.57 40.60 39.35 39.88 39.74 39.48 40.18 40.12 40.44
37.22 36.06 32.32 29.35 30.07 35.15 38.26 36.61 35.43 34.08 36.58 40.90 39.40 40.81 41.71 41.39 39.80 41.13 41.52 40.70 40.50 40.39 39.44 39.04 39.61 39.43 39.73 39.76 40.04 38.23 37.98 38.46 38.15 37.52 39.62 39.31 38.99 38.64 39.44 39.29 39.58 39.41 40.35 38.57
34.72 35.93 33.38 30.03 26.07 27.44 37.68 36.22 38.14 37.39 33.44 41.12 40.32 40.50 40.70 39.00 35.78 39.83 40.62 41.16 40.66 39.84 39.24 38.46 38.88 39.35 39.17 39.73 39.75 38.15 37.03 36.82 37.65 38.35 38.26 39.21 39.20 39.88 38.70 39.27 39.48 39.61 39.17 39.16
31.61 32.09 29.91 31.25 28.09 32.70 38.89 37.97 38.45 30.91 36.73 40.97 40.22 40.57 39.43 37.90 40.32 41.66 41.68 40.54 39.92 38.82 38.42 38.66 38.58 37.98 38.59 38.42 37.94 36.86 36.61 36.69 38.77 39.47 39.84 39.54 39.69 39.39 39.61 39.71 39.48 39.48 38.68 39.13
33.43 32.15 30.60 31.25 27.49 26.56 39.56 36.99 34.36 41.88 41.81 40.41 40.60 40.77 39.72 40.66 41.11 40.51 39.49 38.51 37.80 37.18 37.26 37.88 37.36 37.48 37.37 37.87 37.28 36.36 36.11 39.03 40.10 39.67 39.07 38.68 39.37 39.58 40.06 39.25 38.62 38.11 38.30 37.93
31.78 37.33 36.68 35.14 35.34 40.77 40.56 41.58 43.86 42.32 40.67 41.61 41.12 41.55 40.75 39.94 39.58 38.66 37.50 37.23 36.92 36.86 36.82 37.71 37.48 36.54 36.94 38.29 37.34 36.52 38.23 38.77 38.73 38.03 37.85 38.10 39.12 39.53 39.76 38.89 38.62 38.21 37.98 37.67
36.28 38.43 34.42 35.40 39.65 40.25 42.26 43.41 43.26 43.14 42.02 42.26 42.32 41.39 40.85 39.26 38.70 37.43 36.88 36.51 36.29 36.64 36.30 37.30 36.67 36.02 35.90 38.01 37.43 37.86 37.89 39.23 37.66 37.19 37.27 38.12 38.26 39.38 39.37 39.35 39.45 39.22 37.87 37.58
37.49 36.19 37.83 38.10 40.70 41.12 42.04 43.89 43.68 43.14 42.92 40.67 41.03 40.85 40.13 38.74 37.71 36.65 35.89 35.77 35.94 35.84 36.72 36.60 36.15 35.98 35.54 36.66 37.05 38.64 38.49 38.68 36.41 36.95 36.84 37.36 38.21 38.29 38.55 38.93 39.04 38.85 39.75 39.67
39.05 37.83 36.14 36.01 42.17 41.26 40.98 42.88 43.40 40.70 40.65 41.55 40.42 39.23 38.42 37.82 36.85 36.30 35.81 36.14 35.53 35.82 36.26 35.71 36.27 35.92 35.12 36.32 36.90 37.62 38.62 37.38 36.41 36.17 36.58 37.35 37.93 37.93 38.16 38.73 38.81 41.72 42.48 42.62

GFSCGP_sfc_wetblb_045.txt.gz
Wetbulb
52.12 49.26 47.06 48.68 49.59 49.09 47.51 46.49 46.00 48.56 49.59 47.05 47.27 47.99 48.82 48.83 48.58 48.79 48.81 48.81 48.80 48.85 49.88 50.32 50.67 51.18 51.19 50.92 51.45 51.81 51.72 52.08 52.35 52.38 51.68 51.37 51.21 51.86 52.69 53.53 53.88 53.66 53.98 54.06
49.08 46.79 50.26 49.60 49.12 48.25 47.94 46.88 47.00 48.50 48.22 47.10 48.12 48.04 50.06 49.15 47.80 48.86 48.66 48.53 48.55 48.77 48.80 49.86 50.27 50.65 50.41 51.07 51.39 51.42 51.37 51.62 51.72 52.10 51.96 51.75 51.28 51.62 52.59 54.46 53.49 53.56 53.21 53.15
47.60 49.33 49.82 48.76 47.98 47.10 47.90 46.47 46.09 45.25 47.77 49.12 47.02 46.12 47.82 49.03 48.21 48.58 49.10 49.60 49.19 48.69 48.57 49.41 50.15 50.71 51.23 51.18 51.57 51.40 51.38 51.33 51.87 51.92 51.96 51.64 52.04 52.46 52.35 52.62 53.00 53.61 52.75 52.92
49.07 50.32 48.05 47.79 47.20 47.79 44.95 47.60 46.04 45.44 44.99 42.38 46.48 39.51 46.81 47.00 45.47 46.36 47.16 47.89 48.33 48.64 49.21 49.34 49.43 49.65 50.34 51.29 52.30 51.75 51.60 51.36 51.71 51.76 51.04 50.01 49.61 48.92 50.64 51.43 52.73 52.46 52.40 52.17
47.00 47.15 46.83 46.61 47.27 47.94 46.06 47.23 46.16 46.16 44.53 43.66 44.24 40.78 45.91 47.22 43.77 45.01 46.41 47.57 48.17 48.76 48.55 48.16 48.35 49.01 49.71 50.63 51.40 51.83 51.84 51.48 51.06 50.42 50.70 50.73 48.92 50.13 51.02 50.84 50.37 51.34 52.23 52.66
48.59 50.02 48.33 48.27 48.16 47.80 47.63 45.79 45.76 45.18 43.63 38.33 43.94 42.45 44.82 44.35 45.43 46.61 47.50 47.65 47.93 47.66 47.99 48.31 49.20 49.64 49.89 50.88 51.61 51.86 50.67 49.79 50.25 50.19 49.22 50.16 49.81 48.27 48.35 48.88 48.85 50.21 51.44 52.32
46.25 46.58 47.10 47.59 45.62 47.45 46.17 44.34 39.65 39.02 38.63 39.89 43.52 41.10 44.12 47.79 46.52 47.39 47.38 47.30 47.26 47.60 47.48 47.80 48.17 48.49 49.04 49.69 50.13 49.97 49.52 48.74 49.01 48.72 48.43 48.40 49.77 48.80 47.81 47.86 48.67 48.45 49.51 50.18
42.42 41.40 45.26 45.95 45.70 44.29 44.28 43.70 39.60 34.60 37.10 39.56 41.94 38.79 43.82 45.60 46.83 47.13 48.18 47.51 47.24 47.16 47.75 47.78 48.28 48.50 48.85 49.15 49.40 49.24 48.54 47.90 48.20 47.74 47.58 47.87 48.45 48.74 48.40 48.41 47.92 48.16 48.76 49.71
41.47 41.19 43.82 43.66 44.73 44.41 43.36 40.22 44.17 39.59 41.34 37.58 41.37 43.44 44.39 44.02 44.10 45.34 45.76 46.32 46.40 46.91 47.52 47.56 48.25 48.38 48.78 48.95 48.67 48.38 47.99 47.61 47.26 46.88 46.95 46.63 46.79 47.24 47.52 47.87 48.53 48.63 48.87 49.17
42.07 38.01 41.81 42.44 43.50 44.06 42.73 44.30 39.71 40.53 34.61 34.81 39.96 40.90 41.09 41.75 42.53 43.93 44.36 45.12 46.15 47.26 47.02 47.35 47.67 47.94 48.57 48.55 48.39 48.25 47.81 46.52 46.31 46.20 46.10 46.23 46.35 46.63 47.44 47.92 47.57 48.06 48.66 49.06
41.74 39.85 38.79 40.34 40.50 41.79 40.86 40.59 40.16 40.30 39.91 35.66 34.94 39.54 44.39 43.73 44.60 44.45 44.95 46.04 46.56 47.09 47.06 47.08 47.30 48.03 48.19 48.06 47.77 47.29 46.25 45.27 44.99 45.54 45.86 45.75 45.76 45.85 46.04 46.13 46.50 46.97 47.61 48.00
41.52 40.68 38.16 39.59 40.84 41.68 41.62 41.16 41.63 37.93 37.88 39.43 37.48 37.69 46.24 44.65 44.34 44.50 44.97 46.08 47.01 47.53 47.52 47.02 47.25 47.43 46.99 46.90 46.99 45.55 44.89 44.57 45.00 45.34 45.17 44.97 45.16 45.13 44.67 44.54 44.75 45.12 45.36 46.40
41.87 40.08 37.42 37.74 39.37 40.48 38.11 40.99 40.74 40.91 39.30 35.87 34.89 38.32 44.65 44.13 43.85 44.76 44.21 45.37 45.72 46.14 46.52 46.47 46.59 46.18 46.16 46.06 44.99 44.04 44.16 44.00 44.54 44.76 44.50 44.33 44.17 44.14 43.90 44.08 44.28 44.20 44.23 44.33
40.95 40.36 38.74 36.87 38.55 39.50 38.60 39.70 40.12 39.20 36.10 37.72 38.84 40.94 44.49 45.68 44.36 45.45 45.58 45.74 45.42 45.31 45.51 45.60 45.49 45.63 45.58 44.76 43.47 43.15 43.19 43.93 44.20 44.12 43.77 43.37 43.53 44.14 44.52 44.48 44.47 43.67 43.28 42.39
41.29 37.93 39.82 40.00 39.92 39.27 38.00 37.64 38.86 37.52 38.44 36.04 38.89 39.16 42.20 43.78 43.96 43.92 44.26 44.20 43.71 43.93 44.37 44.57 44.42 44.28 44.01 42.78 42.59 42.73 42.98 43.32 43.69 43.07 42.85 42.82 43.18 43.81 43.45 41.83 41.96 42.53 43.24 42.33
41.49 37.86 38.30 36.40 38.75 37.04 35.30 37.89 38.67 38.79 38.84 38.55 38.94 38.60 44.68 43.70 44.35 43.55 44.23 44.36 43.37 43.40 43.66 43.82 43.73 43.28 41.83 41.55 41.65 42.00 42.13 42.49 43.05 41.67 41.36 42.68 42.23 41.10 40.51 41.15 41.53 41.64 41.81 42.19
39.38 38.08 36.19 34.49 36.51 36.97 34.73 39.69 40.50 40.68 41.07 40.16 36.59 41.60 43.89 42.55 42.77 43.63 43.94 43.54 42.84 43.01 42.90 42.88 42.55 41.45 41.20 41.26 41.62 41.02 41.65 42.32 41.28 40.74 40.38 40.09 40.05 39.60 40.20 40.18 40.47 39.66 40.22 40.74
38.89 37.55 37.10 33.18 35.94 30.34 40.72 44.82 42.80 38.80 39.86 41.38 41.46 42.08 43.03 43.17 44.25 44.26 44.79 43.44 42.96 42.65 42.47 42.29 41.35 40.97 41.28 41.58 41.58 41.83 41.76 41.18 40.37 39.37 39.24 39.24 39.31 39.02 39.71 39.69 39.11 39.69 40.00 40.16
40.18 38.53 34.93 32.28 34.02 38.01 40.31 38.22 38.68 36.74 37.74 42.99 42.29 42.04 43.20 44.17 43.93 44.02 44.49 43.33 42.54 42.91 42.67 41.66 41.46 41.07 40.96 40.93 41.51 40.77 40.10 39.46 38.64 37.70 38.92 39.38 39.76 39.08 39.23 38.46 38.92 39.90 39.57 39.91
38.09 39.17 36.14 36.04 29.15 28.90 38.72 39.05 40.79 40.00 35.04 42.50 42.19 42.30 42.16 42.74 37.23 41.62 43.61 43.64 43.31 43.21 42.15 40.75 40.81 40.55 40.56 40.86 40.74 39.20 38.37 37.48 37.42 38.41 38.89 39.72 39.81 38.59 38.73 38.92 39.41 39.94 40.17 39.65
34.67 35.61 32.75 34.38 32.42 35.46 42.93 40.99 40.96 33.03 37.12 43.97 43.65 42.97 42.12 40.10 42.18 44.08 44.42 43.53 43.23 42.05 40.87 40.86 40.22 39.56 40.10 40.71 39.86 37.67 37.44 36.48 38.34 39.49 39.93 38.96 38.65 39.02 39.14 39.48 39.90 39.85 39.45 39.72
36.95 35.77 34.97 35.67 32.42 29.36 43.21 39.78 36.56 42.20 44.17 43.95 43.83 43.74 42.43 43.07 43.38 43.27 43.36 42.18 41.49 40.28 39.82 39.98 39.07 39.08 40.12 40.28 39.23 37.47 36.69 39.01 39.71 38.59 38.60 38.25 38.31 39.03 39.36 38.79 39.45 39.94 39.27 38.93
35.12 39.34 37.72 39.21 38.04 45.18 44.72 42.59 44.93 45.18 43.62 43.77 43.70 44.00 43.63 42.61 42.44 42.78 41.86 41.14 40.58 39.52 39.22 39.64 38.82 38.45 39.33 39.99 39.32 36.77 37.55 38.71 38.20 37.87 37.61 37.53 38.24 38.20 38.78 39.06 38.97 38.73 38.87 38.07
41.41 43.19 38.09 38.78 41.38 42.93 44.48 45.97 46.18 46.03 44.34 44.25 44.28 43.72 43.50 41.94 42.54 41.83 41.07 40.50 39.40 39.06 38.41 38.86 38.42 37.39 37.62 39.27 38.44 37.55 38.57 38.48 37.47 37.42 37.19 37.43 37.30 38.34 39.23 39.22 39.18 38.53 38.43 37.82
41.48 40.46 39.02 38.91 41.32 42.83 43.74 44.41 44.26 44.17 44.73 44.14 44.62 44.08 42.75 42.52 41.72 41.10 40.06 39.44 38.76 38.29 38.40 38.61 37.29 36.94 37.30 37.95 37.50 37.98 38.07 38.41 37.07 37.27 37.26 37.35 37.65 38.11 37.87 38.47 38.67 39.15 40.03 40.53
41.96 39.85 37.63 36.96 41.14 40.85 41.15 43.46 44.58 43.68 42.89 43.48 42.59 42.57 43.43 41.97 40.75 40.79 39.35 39.27 38.25 37.57 37.93 37.18 37.00 36.62 36.87 36.60 36.56 37.60 38.62 38.70 37.74 36.78 36.86 37.21 37.90 37.56 37.68 37.49 37.79 41.96 43.26 43.53

GFSCGP_sfc_wetblb_048.txt.gz
Wetbulb
53.25 47.52 44.66 47.77 49.60 48.43 46.23 44.40 43.84 46.46 49.33 47.71 45.97 45.98 47.68 47.91 46.90 46.08 46.16 45.44 45.47 45.68 46.89 47.48 46.91 45.31 44.79 47.10 46.89 46.68 47.35 46.95 46.91 46.80 45.82 45.57 45.50 46.43 47.07 48.06 49.25 49.27 49.34 49.67
48.97 43.97 49.85 50.78 49.84 48.09 46.82 44.72 44.28 48.09 48.77 46.31 44.96 44.76 48.07 47.55 46.23 46.61 46.51 45.31 45.42 45.60 45.31 45.83 47.13 46.05 47.09 47.06 46.99 46.86 46.85 47.25 46.92 46.99 46.38 45.87 45.32 46.11 46.94 48.23 48.77 49.45 49.04 49.00
45.76 49.14 50.32 48.74 48.87 46.30 46.39 44.80 44.68 43.63 47.45 47.57 45.24 43.14 45.69 48.12 47.34 47.23 47.24 47.01 46.46 45.62 44.83 45.04 45.20 46.14 47.36 46.74 46.72 47.32 47.25 47.29 47.28 47.42 46.93 46.62 46.11 46.13 45.50 46.29 46.93 47.86 48.76 48.65
48.46 50.11 48.24 48.37 46.16 47.52 43.54 47.41 46.63 45.43 43.04 38.05 44.81 34.73 42.35 44.82 43.74 44.74 44.95 44.93 45.18 45.23 45.75 45.48 44.66 43.64 46.63 45.91 47.52 47.49 47.30 47.13 48.25 46.56 45.43 44.03 43.05 42.30 43.65 44.47 45.49 46.53 47.06 47.17
47.32 48.29 47.76 46.15 46.99 48.43 45.06 48.29 46.12 45.48 42.03 39.93 40.64 36.24 39.90 44.40 41.33 42.34 43.60 44.63 44.99 45.31 45.55 45.57 45.62 44.51 43.98 45.99 46.09 47.43 47.76 47.71 46.58 45.85 45.23 44.08 43.01 43.54 43.94 44.22 44.22 44.86 45.86 46.42
47.99 50.74 48.98 47.56 48.62 48.23 48.12 45.36 45.08 43.95 40.34 32.59 39.13 38.72 38.77 40.61 42.99 43.38 44.33 44.88 45.50 45.59 45.11 44.76 44.49 44.85 45.08 46.57 47.13 47.44 46.72 46.24 46.11 45.62 44.76 43.48 42.38 42.35 42.80 42.72 43.42 43.83 44.17 44.95
46.45 46.32 47.32 47.79 45.22 47.51 46.05 41.40 34.78 33.17 32.99 33.91 42.22 38.84 38.52 42.87 43.44 43.60 44.65 44.33 45.01 44.91 44.07 43.96 43.54 44.46 44.70 44.66 46.31 47.08 45.99 45.08 45.08 44.11 43.78 43.13 42.65 42.28 41.54 41.87 42.43 41.94 43.32 43.51
40.39 39.25 45.10 47.15 45.47 42.17 44.10 41.20 34.68 29.34 30.87 33.79 41.17 34.60 39.17 43.58 44.37 43.52 45.09 45.16 44.85 44.05 43.84 43.98 44.51 44.64 44.40 45.29 45.79 45.80 44.78 43.96 44.39 43.63 42.74 42.50 42.09 41.64 41.94 41.85 42.91 43.32 43.52 44.24
39.41 39.16 44.18 44.67 45.13 44.40 42.21 37.13 41.75 35.78 37.02 32.82 36.84 39.57 40.83 41.70 41.30 41.53 42.08 43.28 42.95 43.45 43.87 43.98 44.47 44.84 44.55 44.80 45.09 44.46 43.84 43.69 43.54 42.47 41.46 40.77 41.20 41.39 42.02 42.43 43.37 43.75 43.96 45.40
41.12 35.81 42.58 42.15 44.05 44.10 41.09 42.98 35.70 35.52 29.13 27.55 34.74 35.82 35.04 37.10 38.72 40.36 40.47 40.69 42.57 43.60 43.32 43.60 43.96 44.45 44.50 44.12 44.31 44.15 43.86 42.79 41.70 41.14 40.83 42.10 41.06 41.69 42.46 42.73 42.12 42.53 43.04 43.32
40.97 38.54 37.69 40.74 38.97 40.05 38.68 37.09 37.85 36.80 34.78 28.74 27.60 32.63 38.34 40.59 41.20 40.67 41.04 42.55 43.31 43.62 43.97 43.72 43.64 43.60 44.38 44.48 43.56 43.19 42.41 41.10 40.55 40.95 40.85 40.50 41.09 41.95 42.42 42.17 42.08 42.25 42.48 42.52
40.28 37.68 34.90 38.39 40.61 41.89 40.48 39.09 38.90 32.64 32.04 34.26 30.60 32.12 41.47 40.93 41.59 42.02 41.51 43.26 43.13 43.55 44.12 44.11 43.46 43.25 43.32 42.56 42.73 41.82 40.89 39.94 40.19 40.54 40.54 40.99 41.80 41.87 41.25 41.59 42.07 42.48 41.93 42.56
40.60 36.98 32.37 33.43 37.42 39.65 36.67 39.46 39.27 37.49 34.72 30.63 26.19 31.39 41.34 40.97 40.63 41.44 39.67 40.13 42.38 42.09 43.01 43.21 42.71 41.61 41.63 41.87 41.53 40.62 39.61 39.16 40.03 40.57 40.66 40.91 40.72 40.85 40.98 41.16 41.43 41.92 40.96 40.74
41.26 38.21 35.73 31.70 34.61 38.25 35.61 38.75 39.09 36.17 28.86 31.07 32.72 36.61 40.06 40.82 40.67 40.49 40.23 40.21 40.41 41.74 42.65 41.90 41.41 41.02 40.94 40.96 40.05 38.92 38.66 39.42 40.20 40.60 39.98 39.54 39.88 40.38 40.56 40.43 40.22 40.41 41.21 40.83
39.69 34.78 37.44 38.24 39.22 38.94 37.47 37.12 37.30 35.20 36.05 30.96 34.81 35.54 38.82 39.20 38.12 38.82 39.66 40.99 40.16 41.10 42.04 41.71 40.99 40.00 39.92 39.02 37.95 38.27 38.66 39.60 39.81 39.53 38.85 38.93 39.71 39.51 39.31 39.54 40.29 40.59 40.97 40.62
40.56 34.86 36.74 34.05 39.20 37.06 35.03 36.93 37.04 37.04 37.26 36.63 36.86 36.07 40.37 40.35 40.48 39.86 39.86 41.41 41.18 40.76 41.48 41.57 41.34 40.76 39.23 37.40 37.09 38.06 38.44 38.97 39.36 38.65 38.53 39.03 38.81 38.76 38.52 39.51 39.73 39.70 39.67 40.01
38.56 35.50 33.27 30.20 36.74 36.40 31.90 37.49 38.10 37.46 39.00 37.84 32.86 37.60 40.32 39.38 40.66 40.00 40.24 41.06 40.61 40.33 40.14 40.05 39.77 38.59 37.50 37.13 38.24 37.31 38.12 38.71 38.39 37.75 37.75 37.91 38.37 38.11 38.87 39.42 39.45 39.13 38.97 39.57
37.89 35.71 33.73 29.78 32.42 25.20 37.61 41.06 40.46 39.16 39.02 39.37 39.56 39.94 40.74 39.94 40.91 40.37 41.63 41.13 39.13 40.05 39.83 39.29 38.20 37.23 37.15 37.50 37.82 38.20 37.72 37.53 37.46 36.54 36.57 37.39 38.45 38.11 38.54 38.64 37.99 38.34 39.17 39.03
38.57 35.75 31.49 28.19 28.27 34.79 37.58 37.66 36.98 34.69 34.76 40.84 39.02 40.26 41.04 41.72 40.60 39.54 41.20 40.93 38.78 39.05 39.40 38.35 37.59 37.21 36.64 36.89 37.64 36.95 36.70 36.69 36.41 35.88 36.12 37.92 38.35 37.43 37.85 36.91 37.33 38.42 38.65 39.14
38.18 36.62 31.72 30.30 24.52 22.95 36.05 38.29 40.61 38.91 28.53 41.27 41.06 39.85 39.79 39.47 31.32 35.82 41.25 40.83 39.72 40.03 39.57 37.87 37.32 37.05 36.31 36.72 36.92 36.03 35.65 35.56 35.34 36.09 37.55 38.58 37.97 37.50 37.36 37.53 37.64 38.61 39.13 39.02
31.38 31.18 27.94 29.15 28.54 32.48 40.21 39.58 40.30 27.24 31.19 40.51 40.78 39.76 38.74 35.65 37.23 40.39 42.33 41.17 40.83 39.99 39.16 38.29 36.92 35.44 35.88 36.82 36.73 35.07 35.13 34.49 36.08 37.19 38.07 37.81 37.99 37.87 37.92 37.87 38.37 38.28 38.33 39.05
32.85 31.48 30.41 30.27 28.17 25.32 40.66 38.15 32.90 38.08 40.37 41.01 40.38 40.11 39.48 40.12 41.26 41.71 41.67 40.54 39.97 38.72 38.04 37.49 35.46 35.11 35.92 36.25 35.84 34.60 34.17 36.17 37.15 37.62 37.28 37.14 37.91 38.15 38.33 37.91 38.21 39.00 39.18 38.16
31.75 36.21 32.91 34.53 34.32 41.61 41.78 40.19 42.76 42.44 39.70 39.35 39.38 40.46 40.86 40.35 39.89 40.69 39.74 38.16 38.28 37.66 36.69 36.79 35.04 35.09 35.18 35.43 35.46 33.84 34.96 36.98 37.08 36.90 36.72 37.18 37.76 38.27 38.36 38.22 38.25 38.06 38.30 37.77
38.89 40.76 34.67 34.87 37.57 39.45 41.25 42.10 42.14 42.04 40.70 41.58 41.76 41.31 41.19 39.58 39.73 39.07 39.24 38.23 37.50 36.94 35.89 36.07 35.56 34.11 33.68 34.95 35.30 34.95 36.10 37.42 37.08 36.35 36.77 37.19 37.21 37.81 38.37 38.72 38.55 37.95 37.36 37.38
37.93 38.92 36.08 35.31 38.11 38.90 40.12 40.56 41.23 41.87 42.37 42.01 42.29 41.64 40.28 39.97 39.04 39.03 38.03 37.59 37.34 36.18 35.82 35.95 34.33 33.36 33.52 34.69 34.22 34.97 37.07 37.38 36.42 36.45 36.51 36.40 37.32 37.75 37.50 38.15 38.18 38.70 40.11 42.67
38.77 36.72 33.55 32.32 37.64 35.99 37.00 40.29 41.85 40.69 40.76 40.69 40.43 40.21 40.76 40.20 38.65 38.47 37.52 38.06 36.62 35.23 35.49 34.86 34.34 33.50 33.62 34.15 34.26 35.24 37.44 37.67 36.81 35.99 35.82 37.02 37.71 37.14 37.29 36.94 36.87 41.47 44.09 45.26

GFSCGP_sfc_wetblb_051.txt.gz
Wetbulb
48.81 42.89 39.22 41.57 44.40 44.34 41.94 39.83 38.68 41.49 47.18 44.11 42.03 42.35 44.18 44.72 43.83 42.90 42.66 41.29 41.68 42.75 43.79 44.83 45.35 44.95 44.29 44.16 44.02 43.72 45.14 43.67 44.24 43.62 42.70 42.13 42.51 43.21 44.37 45.23 47.00 47.07 47.12 47.34
43.32 38.86 45.19 48.07 47.19 45.40 43.46 40.45 39.80 43.65 46.91 43.28 42.13 42.35 44.14 45.05 44.66 44.79 43.63 41.64 41.88 41.74 42.04 43.03 44.97 44.92 45.62 45.02 44.27 43.48 44.75 44.83 43.96 44.08 43.47 42.89 41.95 43.01 44.04 45.29 45.87 46.89 46.59 46.61
40.45 45.82 49.45 48.09 45.57 44.49 42.47 40.28 40.36 39.98 44.19 44.04 41.35 39.42 41.38 43.54 43.52 44.74 44.68 44.03 43.01 42.19 41.98 42.01 42.27 43.65 43.91 44.66 43.96 44.67 44.96 44.93 44.71 44.32 44.02 43.47 42.63 42.37 42.39 42.82 44.06 45.22 45.80 46.00
43.26 47.77 47.02 44.94 44.15 44.58 39.05 45.23 44.97 43.55 39.18 33.53 40.64 30.38 36.92 39.45 40.13 42.40 42.76 41.94 42.92 41.84 41.90 42.40 41.80 42.08 42.96 43.48 44.58 44.61 45.12 45.20 46.46 43.88 42.50 40.89 40.01 39.64 40.79 41.45 42.62 43.27 44.43 44.57
41.02 43.91 43.75 43.65 44.73 45.68 42.30 45.99 43.23 42.40 37.17 33.99 35.51 32.19 34.46 39.29 37.57 39.44 40.68 42.06 42.51 42.42 43.33 43.52 43.76 43.52 43.71 43.49 43.99 44.83 45.28 45.45 44.54 43.41 42.52 41.11 40.16 40.54 41.16 41.21 40.96 41.20 42.30 43.35
44.03 47.36 45.18 44.25 46.62 45.89 46.16 42.13 40.64 39.16 35.52 28.27 33.88 34.26 33.23 36.79 39.47 39.67 40.15 41.97 43.23 42.79 43.09 43.35 42.98 43.72 43.55 44.18 44.76 45.05 44.54 44.60 44.28 43.15 42.20 40.98 39.31 39.00 39.16 39.09 38.68 39.78 40.47 41.62
41.90 42.79 43.96 45.97 41.64 44.15 42.27 35.77 29.11 28.54 28.11 28.50 37.75 34.50 35.41 39.56 40.12 41.44 41.58 41.17 42.36 42.68 42.18 41.60 41.91 42.09 42.65 43.32 44.27 45.02 44.35 43.40 43.15 42.15 41.57 40.95 39.61 38.21 37.79 38.14 38.30 38.54 39.14 39.80
35.32 34.49 41.00 44.35 40.99 38.10 39.37 36.49 29.75 25.63 26.37 29.25 37.28 31.20 34.79 38.28 40.36 40.95 42.46 42.02 42.06 41.64 40.79 41.18 42.22 42.19 42.95 43.94 43.82 43.77 43.05 41.95 42.46 41.73 40.83 39.46 38.71 38.40 38.69 38.80 38.94 38.85 39.19 40.24
32.70 34.54 41.49 41.98 42.01 40.90 37.35 32.94 36.72 31.37 30.02 26.80 31.11 33.67 37.09 38.69 38.77 39.82 39.72 40.12 39.92 40.69 40.94 42.06 42.58 42.63 42.40 42.45 42.89 42.83 42.11 41.54 41.28 39.95 38.58 37.99 38.23 38.57 38.48 38.69 38.76 39.15 39.66 42.35
34.92 30.58 39.24 40.56 40.93 40.70 37.01 39.09 32.02 30.65 24.68 23.11 28.90 29.47 32.26 34.43 35.73 37.79 38.12 38.84 40.22 41.47 41.56 41.97 42.40 42.56 42.12 41.70 42.13 41.68 41.13 40.33 39.31 38.65 38.13 39.32 37.86 38.46 38.95 38.77 38.57 38.86 39.34 40.82
35.17 32.75 32.90 36.33 35.00 35.15 34.97 32.64 33.54 32.35 29.81 24.53 22.54 28.36 35.90 35.84 36.73 36.72 36.02 38.86 40.76 41.56 41.62 41.52 41.57 41.27 41.90 41.98 40.87 40.53 39.71 38.82 38.13 38.21 37.94 37.58 37.90 38.69 38.62 38.23 38.47 39.90 40.08 39.40
35.29 32.48 29.18 32.71 36.25 38.39 36.32 34.38 34.16 28.07 27.74 27.94 24.43 27.69 36.54 37.43 38.40 39.12 38.53 40.25 39.93 41.54 41.96 41.99 40.78 40.98 40.39 39.73 39.52 38.78 38.09 37.07 37.42 37.85 37.84 37.90 38.10 38.00 37.16 37.61 39.28 38.81 39.50 40.17
36.13 30.74 26.17 29.37 33.99 36.28 32.51 35.18 35.63 33.04 29.22 26.21 22.09 27.91 37.79 37.26 37.46 38.28 37.30 39.00 39.45 40.22 40.06 40.56 40.09 38.81 38.54 38.40 38.34 37.51 36.71 36.65 37.45 37.64 37.26 36.99 37.05 36.97 37.81 36.74 38.31 39.13 39.05 39.30
39.14 32.39 30.51 26.99 29.82 33.77 31.05 35.45 35.49 32.71 22.60 25.77 27.81 30.04 36.07 36.29 36.43 36.94 36.51 36.73 37.04 39.07 40.55 39.71 38.67 37.37 37.50 37.69 36.65 36.18 36.25 36.83 37.39 37.40 36.71 36.08 35.98 36.56 36.23 38.06 38.28 38.50 39.03 38.89
35.67 30.69 32.45 34.21 35.88 35.76 34.82 34.83 34.81 32.27 31.42 26.98 30.91 32.39 34.99 35.74 34.62 35.59 36.84 39.01 38.64 39.45 40.22 39.52 38.28 37.20 36.70 35.50 35.19 35.60 35.86 36.46 36.50 36.07 35.85 35.79 36.18 37.40 37.82 37.53 37.88 38.80 39.93 39.70
35.40 29.78 31.78 30.56 35.89 34.66 32.99 34.76 34.44 34.10 34.26 33.03 33.20 32.31 36.46 36.95 36.01 37.51 36.89 38.53 38.95 39.17 38.95 38.82 38.80 37.88 36.10 35.05 34.53 35.04 35.25 35.47 35.81 35.22 36.51 36.40 36.95 37.03 37.08 37.63 38.05 38.94 39.25 39.39
33.79 30.68 27.41 24.32 33.00 32.60 28.16 33.86 34.84 34.88 35.18 34.11 29.10 33.89 37.20 36.67 38.05 37.29 37.83 38.43 38.45 37.99 37.81 37.62 37.10 35.90 35.43 35.07 35.69 34.47 34.51 35.00 34.52 34.85 35.78 35.82 36.18 36.42 36.97 38.78 38.14 37.66 38.01 38.04
33.06 31.15 28.57 22.02 27.73 20.60 32.40 37.11 37.30 36.03 36.38 36.48 36.45 36.84 37.62 37.03 37.90 37.82 36.77 35.85 35.71 37.50 37.35 36.43 35.30 34.98 35.17 35.24 35.28 34.97 35.21 34.45 34.33 34.01 34.59 35.15 36.14 36.17 37.29 37.45 37.04 37.42 37.99 37.87
34.19 30.56 25.11 21.37 20.28 29.12 33.23 34.36 34.00 32.12 31.73 37.50 35.83 37.38 38.06 39.04 36.67 35.89 39.13 38.87 37.83 36.47 36.55 35.86 35.21 35.34 34.83 34.63 35.02 34.63 34.21 33.90 33.40 33.60 34.11 35.52 36.16 36.80 36.64 36.26 36.84 37.71 37.74 37.85
34.56 31.75 26.84 24.31 17.02 17.11 31.48 35.48 37.98 36.25 24.61 37.58 37.96 36.92 36.78 36.61 30.51 31.98 39.33 39.99 38.95 38.03 37.63 36.16 35.66 35.51 33.96 34.27 34.44 33.63 33.12 32.32 32.18 34.40 35.27 36.44 37.21 36.48 36.33 37.01 37.32 37.94 38.15 38.06
26.29 25.32 22.12 20.96 18.48 26.67 36.02 36.95 37.81 24.97 27.30 38.17 38.14 36.86 36.33 33.36 34.76 37.67 40.28 39.80 38.65 37.70 36.63 35.96 34.60 33.46 33.59 34.59 34.21 32.44 31.92 31.91 34.51 35.76 36.17 37.23 37.24 37.26 37.66 37.77 38.18 38.12 38.23 38.84
27.45 22.87 23.35 23.40 20.56 21.78 38.11 35.54 30.62 34.37 36.80 37.53 37.01 37.02 37.10 37.57 38.58 39.37 39.61 39.06 37.57 36.09 35.81 35.66 33.71 33.31 34.41 34.52 32.88 31.48 30.92 34.12 35.30 35.58 36.74 36.87 37.14 37.81 38.03 37.45 38.01 38.40 38.37 37.96
27.63 32.73 28.75 29.79 28.78 37.18 37.62 36.94 38.10 38.42 36.92 36.98 36.87 38.08 38.20 37.81 37.93 38.35 37.87 36.66 36.21 35.02 34.80 35.34 33.60 33.01 33.62 33.23 32.74 30.86 32.99 34.32 34.82 35.34 36.23 36.53 37.24 37.35 37.80 38.08 37.61 37.38 37.96 37.35
34.28 35.74 29.71 31.10 33.93 35.47 36.84 37.94 38.28 37.88 37.07 38.56 38.65 38.43 38.41 36.98 37.51 37.20 37.04 36.07 35.33 34.83 34.51 34.40 33.47 32.08 31.59 33.02 32.81 32.34 33.47 34.21 35.05 35.65 35.94 36.69 36.26 37.55 38.36 38.43 38.09 37.32 36.84 37.29
34.78 34.18 32.29 31.09 33.81 35.48 36.08 36.58 37.07 38.15 38.65 38.63 38.77 38.50 38.05 37.61 37.09 37.30 36.18 35.63 34.81 34.06 33.96 33.89 32.35 31.72 31.88 32.46 32.25 32.68 33.50 34.89 34.84 36.09 36.20 35.96 36.51 37.66 37.02 37.52 37.60 38.04 39.86 42.22
36.87 33.75 29.78 28.52 33.90 32.88 33.03 36.53 38.00 37.36 37.24 37.85 37.38 37.30 38.15 37.78 36.83 36.57 35.42 35.02 33.92 33.05 33.46 32.75 32.44 32.08 32.02 31.97 31.54 32.49 34.51 35.04 34.85 35.49 35.36 36.10 37.25 36.84 36.77 36.44 36.19 40.95 44.27 44.85

GFSCGP_sfc_wetblb_054.txt.gz
Wetbulb
47.69 42.52 38.48 40.63 43.35 42.45 40.86 38.93 38.08 40.31 45.57 43.24 41.09 41.21 42.80 43.93 42.02 41.61 40.09 39.75 40.15 40.91 42.68 43.08 43.86 44.13 42.93 42.22 41.77 42.40 43.72 42.81 43.05 42.44 41.40 40.79 41.11 41.57 42.53 43.60 45.07 45.02 45.65 45.55
42.28 38.83 43.21 46.57 46.15 44.14 42.15 39.07 37.89 42.58 45.77 42.93 41.51 41.55 43.87 43.62 43.80 44.10 42.57 40.75 40.65 40.23 40.22 41.38 43.18 43.13 43.67 43.26 42.32 42.08 43.31 43.36 42.63 42.27 41.64 41.32 40.39 41.16 42.02 43.23 43.78 44.80 44.67 44.70
39.02 44.02 47.97 46.29 44.19 43.19 41.28 38.92 38.37 39.16 42.51 42.16 40.20 38.45 39.97 42.55 42.57 43.36 42.80 42.55 41.54 41.07 40.94 40.50 40.90 42.26 42.48 42.43 42.12 42.73 43.13 43.75 43.41 42.85 42.23 41.76 41.00 40.98 41.28 41.39 42.10 43.25 43.49 43.66
41.79 46.34 45.66 43.58 42.70 42.81 37.38 43.81 43.63 42.33 37.72 33.07 39.41 29.56 36.51 37.94 38.23 40.81 41.58 40.67 40.67 40.26 41.61 41.59 41.17 41.13 41.41 42.46 42.78 43.18 43.82 44.07 44.70 42.53 41.34 39.49 39.01 38.55 39.45 39.39 40.70 41.03 41.86 41.88
40.51 42.96 42.59 42.10 43.04 44.35 40.81 44.54 41.84 40.64 35.33 33.08 33.47 31.01 34.48 36.73 36.25 38.51 40.23 41.03 40.92 40.16 41.22 41.02 41.14 42.11 42.28 42.29 42.75 43.33 43.91 44.59 43.91 42.32 41.08 40.12 39.07 38.81 39.09 39.07 38.67 39.08 40.10 41.24
41.97 46.12 44.07 43.54 45.02 44.29 45.01 40.52 38.70 36.50 33.50 27.45 32.09 32.11 31.69 35.02 38.02 37.55 38.98 40.86 41.67 40.91 40.88 41.67 41.55 41.72 41.67 41.49 42.74 43.40 43.70 43.90 43.31 42.44 41.40 39.63 38.03 37.40 37.14 37.04 36.82 38.01 38.62 39.66
39.96 41.14 42.55 44.65 40.27 42.85 40.48 33.95 27.51 27.23 27.42 27.84 34.67 31.83 32.77 36.89 37.82 39.50 40.91 40.53 41.21 41.25 40.84 40.88 40.40 40.58 41.20 42.02 42.94 43.73 43.19 42.74 42.36 41.17 40.19 39.33 37.85 36.40 36.07 36.53 36.61 36.80 37.40 38.07
33.98 33.50 39.51 42.60 39.55 37.49 37.46 34.99 28.51 25.64 25.67 28.76 33.68 29.81 34.50 37.21 39.39 38.86 40.43 40.95 41.02 40.74 40.43 40.42 40.58 40.51 40.99 42.23 42.16 42.54 42.12 41.67 41.02 39.99 39.15 37.73 37.15 36.97 37.19 37.09 37.25 37.02 37.34 38.25
31.63 33.96 40.00 40.87 40.55 39.90 35.84 32.47 34.94 30.31 27.65 25.20 28.81 33.10 37.11 37.00 37.87 38.21 38.02 39.54 40.26 40.56 39.89 39.95 40.48 40.85 40.78 41.34 41.91 41.87 41.33 40.05 39.60 38.01 36.95 36.56 36.59 36.74 36.82 37.27 37.23 37.54 37.97 40.44
33.14 29.62 37.58 39.34 39.81 39.23 35.82 37.80 31.07 28.94 23.78 22.53 26.80 27.91 30.72 33.89 33.81 35.76 35.99 36.56 38.65 39.89 39.55 39.94 40.53 41.10 40.67 39.77 40.38 39.87 39.62 38.42 37.44 37.04 36.60 37.77 36.45 36.93 37.23 36.82 36.54 37.07 37.69 38.02
33.56 31.54 31.31 35.00 33.42 33.45 33.80 31.84 31.90 30.97 28.37 23.84 22.17 26.88 33.26 33.60 35.63 35.24 35.44 38.24 39.12 39.62 39.17 39.23 39.26 39.61 40.26 39.66 38.98 38.58 37.57 36.81 36.57 36.82 36.72 36.33 36.34 36.68 36.40 36.39 36.97 37.13 37.48 37.70
33.51 31.15 28.27 31.39 35.16 36.94 35.24 32.62 32.01 26.92 26.13 24.98 22.25 26.90 36.05 34.17 37.79 38.43 37.52 38.91 38.80 39.43 40.46 40.68 39.77 39.12 38.32 37.91 37.67 36.45 35.72 35.77 36.23 36.80 36.33 36.11 36.12 36.39 35.70 35.45 35.91 36.82 37.37 38.49
34.54 29.16 25.15 28.80 32.99 34.91 31.22 33.49 33.81 31.27 27.17 25.10 21.40 26.68 36.26 34.44 36.01 36.53 35.62 35.82 38.36 38.26 38.82 39.76 38.41 37.37 37.09 36.49 35.55 35.02 35.31 35.44 36.27 36.08 35.33 35.38 35.65 35.21 34.72 35.09 36.26 37.58 37.52 37.66
38.43 30.40 29.36 26.49 29.26 32.07 30.70 33.64 33.96 30.85 21.32 24.58 26.30 28.58 34.02 35.29 34.74 35.33 35.78 36.48 37.53 38.75 39.23 38.44 37.17 35.64 35.37 34.53 34.11 34.48 34.79 35.38 35.49 35.32 34.91 34.48 34.39 34.66 35.02 35.63 36.96 37.11 37.52 37.01
34.49 28.89 30.13 31.94 34.05 33.83 33.76 33.85 33.59 30.69 29.79 26.68 28.76 30.44 33.49 34.21 32.74 34.60 35.44 37.89 38.10 38.53 39.19 38.29 36.31 34.99 33.64 33.51 33.76 34.37 34.81 34.95 34.52 34.82 34.47 34.73 35.14 35.17 35.64 36.29 36.69 37.17 38.16 38.76
33.62 28.59 29.82 28.95 34.07 33.38 31.93 33.66 33.69 32.63 32.36 31.30 31.19 30.19 35.07 35.78 35.34 36.19 36.11 36.90 36.83 36.52 36.78 37.11 36.74 35.29 34.81 33.71 33.43 34.03 33.98 34.13 34.46 33.68 34.25 35.49 35.77 35.32 35.72 36.07 36.54 37.10 38.03 38.38
32.45 29.82 26.34 24.36 30.39 31.01 26.30 31.84 33.77 33.18 32.93 32.15 27.92 30.83 34.59 35.13 36.61 35.93 36.15 35.35 35.69 35.79 36.96 37.15 36.51 34.92 34.29 34.22 34.66 33.25 33.31 33.66 33.14 33.09 33.89 34.25 34.45 35.03 35.52 36.71 37.38 36.17 36.94 37.75
31.39 29.56 27.09 21.34 26.04 19.88 30.10 34.82 35.09 33.72 34.39 34.58 34.68 34.98 36.07 35.98 37.40 36.98 36.80 35.62 36.71 37.22 37.43 36.39 34.57 34.13 34.31 34.24 33.99 33.52 33.86 32.98 32.54 32.11 32.92 33.27 34.62 34.83 36.21 36.64 36.37 36.82 37.42 37.35
32.69 29.44 24.12 20.10 18.90 27.00 30.86 32.74 32.65 30.80 31.22 35.87 34.19 35.91 36.70 37.41 35.19 34.02 38.26 38.21 37.52 37.00 36.63 34.98 34.44 34.60 33.75 33.48 33.82 33.15 32.42 32.02 32.13 32.78 32.50 34.18 34.72 34.66 36.28 35.87 36.31 37.07 37.41 37.62
32.35 30.03 26.07 22.72 16.10 16.50 29.02 34.62 36.40 34.67 24.23 36.08 36.23 35.48 35.24 35.32 29.26 31.70 37.70 38.80 38.57 38.18 36.58 35.21 34.43 34.12 32.79 33.34 32.87 31.53 31.35 31.16 30.92 33.04 33.76 34.75 34.97 35.64 36.07 36.42 36.84 37.58 37.75 37.77
25.92 24.66 22.58 20.94 17.85 24.86 33.67 36.58 36.83 24.27 26.15 35.75 36.03 35.36 34.94 32.32 33.79 36.76 38.69 38.59 38.55 37.05 36.26 34.86 33.03 32.44 32.54 32.73 31.81 31.00 30.75 30.15 32.80 33.97 34.71 34.76 35.66 36.72 37.11 37.16 37.42 37.63 38.43 38.46
26.73 21.99 21.36 21.50 19.13 20.86 37.08 34.38 30.79 33.12 34.68 35.74 35.07 35.94 35.74 36.22 37.19 37.93 38.42 37.80 37.52 35.78 34.66 34.00 32.54 32.20 32.30 31.88 31.03 30.06 29.39 32.74 33.17 33.71 33.97 34.65 36.02 37.29 37.48 36.94 38.34 38.40 38.00 37.42
27.29 31.22 27.69 28.12 27.78 35.35 35.67 35.04 37.22 36.85 35.47 34.88 34.95 36.49 36.44 36.25 36.07 36.78 36.46 36.24 35.42 33.90 33.82 34.04 32.31 31.71 31.40 31.62 31.25 29.32 31.32 32.44 33.11 33.32 33.82 34.85 36.26 36.84 37.60 37.80 37.29 36.78 37.38 37.05
34.09 34.51 29.67 30.23 32.76 33.97 35.60 36.71 37.23 36.69 35.32 36.96 36.85 36.90 36.68 35.20 36.13 35.67 35.72 35.24 34.35 33.62 33.01 33.29 32.03 30.79 30.49 31.51 31.65 30.74 31.14 33.06 33.02 32.60 33.71 35.22 35.49 37.30 37.77 38.22 37.86 37.04 37.00 37.53
34.50 33.24 31.21 29.83 31.79 33.74 34.62 34.83 35.83 36.28 36.87 36.42 36.51 36.32 36.47 35.95 35.67 35.42 35.24 34.51 33.67 33.00 33.12 32.57 31.17 30.82 30.87 31.44 31.05 30.93 32.18 32.91 32.29 32.96 35.39 35.16 36.20 36.84 37.08 37.57 37.47 38.21 39.56 42.38
34.63 33.18 30.04 29.11 33.66 32.76 32.22 34.25 36.78 36.53 36.14 36.64 35.82 35.81 36.58 36.14 35.53 35.81 34.43 34.11 33.10 32.43 32.37 31.83 31.57 31.14 31.09 30.99 30.50 30.82 32.83 32.63 32.32 34.53 35.04 35.65 36.35 36.82 36.99 36.56 36.42 40.88 43.35 43.38

GFSCGP_sfc_wetblb_057.txt.gz
Wetbulb
46.27 41.54 37.77 41.15 41.65 40.84 39.97 38.02 37.30 38.93 43.33 42.15 40.20 40.97 42.39 43.07 41.37 40.70 39.82 39.15 39.29 39.72 41.14 41.39 42.17 41.95 41.72 41.41 40.88 41.22 42.34 41.90 41.81 41.38 40.89 39.95 40.35 40.25 41.14 42.15 43.47 43.32 43.60 43.63
42.16 38.78 42.41 44.47 44.96 43.24 41.35 38.08 37.29 40.85 44.57 42.29 40.07 40.55 42.91 42.42 42.28 43.04 42.20 39.89 40.01 39.14 40.04 40.56 41.51 40.90 41.31 41.33 41.11 40.77 41.76 41.95 41.82 41.43 40.76 40.27 39.44 40.06 40.52 41.79 42.04 42.87 42.70 42.65
38.81 42.63 46.51 45.07 42.89 41.64 40.13 37.91 37.51 38.49 41.65 40.97 39.48 37.75 38.96 41.44 41.61 43.02 42.67 42.25 41.42 40.44 40.03 39.53 39.62 40.76 40.93 40.43 40.66 41.41 41.62 42.27 42.38 42.11 41.15 40.35 39.41 39.37 40.08 40.04 40.53 41.62 41.48 41.61
40.74 44.74 44.39 42.35 41.35 41.55 36.36 42.39 42.38 41.24 37.43 32.79 38.50 30.13 36.11 36.62 38.58 39.24 39.59 39.19 40.01 39.60 39.92 40.45 39.82 39.95 40.24 41.14 41.15 41.71 42.30 42.15 43.39 41.53 40.44 39.27 38.61 37.82 38.29 38.16 39.33 39.41 40.08 40.26
39.37 41.72 41.39 40.91 41.60 43.22 39.98 43.64 40.53 39.59 34.63 32.81 32.76 29.72 33.91 37.18 37.36 38.10 38.01 38.99 39.48 39.64 40.98 40.48 40.64 41.06 41.14 40.66 41.23 41.61 42.11 43.08 43.12 41.15 40.48 39.43 38.16 37.76 37.89 37.53 37.46 37.70 38.58 39.58
40.57 44.61 42.76 42.29 43.69 43.43 43.78 39.62 37.20 35.63 32.66 27.00 30.67 30.54 32.09 34.54 36.22 37.98 37.51 40.06 40.84 40.03 39.74 40.14 40.81 39.58 40.70 40.84 41.52 41.82 42.35 42.99 41.99 41.50 40.07 38.77 37.34 36.67 35.87 35.79 35.70 36.75 37.25 38.27
38.84 39.71 41.33 43.46 39.96 41.98 39.52 33.53 27.56 26.18 26.72 26.33 32.88 30.29 32.83 35.81 36.40 37.01 38.97 40.30 40.60 40.00 39.07 39.69 40.15 39.56 40.18 40.36 41.02 42.61 42.08 41.71 41.15 39.87 39.16 37.96 36.50 35.13 34.82 35.43 35.49 35.73 36.16 36.89
32.61 32.35 38.46 41.08 38.20 36.34 36.04 33.74 27.69 24.96 25.18 28.30 32.61 28.74 33.82 35.86 37.24 37.49 38.66 39.49 39.86 40.13 39.23 39.36 39.94 39.53 39.57 40.81 41.06 41.35 41.07 40.34 39.55 38.34 37.00 36.11 36.03 35.88 36.08 36.07 36.25 35.60 35.73 36.54
30.76 32.17 38.64 39.82 39.36 38.85 34.55 32.08 34.25 29.01 25.50 24.17 27.62 31.30 35.28 36.60 37.03 37.51 38.03 39.14 38.80 39.65 39.70 39.79 39.50 39.28 38.86 39.23 39.75 40.22 40.32 38.89 37.21 36.23 36.08 35.79 35.88 36.06 36.08 36.04 35.48 35.79 36.51 39.10
32.29 29.05 35.83 38.06 38.76 38.21 35.17 37.24 29.88 27.83 23.41 21.74 25.22 25.75 29.91 32.46 34.37 36.75 37.57 37.97 38.63 39.69 39.16 38.40 38.27 38.90 39.06 38.32 38.56 38.05 37.56 36.21 35.70 36.13 35.78 37.14 35.66 35.79 35.88 35.31 35.44 35.94 36.58 36.62
32.33 30.99 30.13 34.00 32.03 31.97 33.29 31.17 30.54 29.66 27.02 23.51 21.52 25.93 32.12 31.97 34.63 34.14 35.46 36.93 37.68 38.07 38.43 38.60 38.21 38.53 38.69 37.70 37.10 36.02 35.46 35.74 35.78 36.15 36.00 35.58 35.35 35.37 35.27 35.14 35.36 35.57 36.02 37.27
32.16 29.98 27.33 30.59 33.48 35.67 33.44 31.42 30.97 25.72 24.64 23.30 21.11 26.16 34.88 32.55 34.94 36.15 35.29 37.49 37.51 38.35 38.87 38.83 38.89 37.41 36.46 35.84 35.13 34.32 34.79 35.05 35.54 35.79 35.23 34.69 34.78 34.93 34.13 34.18 34.82 35.89 36.38 37.19
33.73 28.18 24.64 27.82 31.72 33.47 29.98 32.45 32.03 29.73 26.49 23.80 21.27 26.30 35.07 34.32 35.77 35.83 35.25 35.51 36.84 37.80 38.89 38.38 36.51 35.05 34.73 34.15 33.66 34.06 34.38 34.65 35.16 34.83 34.32 34.60 34.58 34.10 33.79 34.36 35.32 36.05 36.19 36.37
37.39 28.90 28.36 25.64 28.46 31.12 28.90 31.86 31.55 29.63 20.78 23.58 24.95 27.26 32.24 34.00 33.41 33.84 34.87 35.26 36.10 37.18 37.92 37.12 35.84 34.20 33.90 33.25 33.22 33.75 33.96 34.31 34.43 34.52 34.18 33.50 33.31 33.51 34.13 35.23 35.39 35.80 36.22 35.98
32.99 27.68 28.09 30.34 32.14 31.80 31.62 32.40 32.25 29.52 28.54 26.19 28.53 28.97 31.35 31.79 31.98 32.80 34.50 36.17 36.33 36.71 37.37 36.22 35.87 35.14 33.63 32.86 32.90 33.39 33.53 33.73 33.58 33.77 33.37 33.67 34.14 34.16 34.20 34.44 35.33 35.82 36.13 36.54
32.21 27.50 28.50 27.66 32.38 31.79 31.01 32.72 32.53 31.71 30.78 29.73 29.65 29.13 32.36 33.47 32.69 34.56 34.32 35.00 35.13 35.94 36.94 37.27 37.18 35.98 34.40 33.25 32.76 32.99 33.05 33.32 33.12 32.39 32.57 33.62 34.49 34.67 34.53 34.74 35.23 35.52 36.80 37.65
31.28 29.00 26.17 24.46 28.70 29.76 26.62 30.47 31.61 31.51 31.66 30.82 27.56 30.38 33.28 33.27 35.36 34.87 34.95 35.43 35.85 36.04 36.51 36.59 36.43 35.11 33.66 33.30 33.62 32.48 32.38 32.32 31.61 31.45 32.25 33.09 33.78 33.55 34.25 34.87 35.09 36.64 36.93 37.21
30.53 28.67 26.52 21.28 25.02 19.67 28.60 33.46 34.13 33.11 33.23 33.51 33.59 34.01 34.69 34.59 36.06 36.48 36.19 35.07 35.85 36.39 36.38 36.24 34.98 33.78 33.67 33.51 33.10 32.55 32.55 31.30 31.25 31.17 31.33 32.40 33.04 33.45 34.18 34.40 34.98 36.66 37.06 36.60
31.68 28.63 23.61 19.68 18.57 25.67 29.22 32.05 32.00 30.96 31.11 35.37 33.15 34.30 35.13 36.41 34.45 33.73 36.76 36.58 36.64 36.68 36.72 35.36 34.02 33.73 32.80 32.69 32.80 31.93 31.17 31.14 31.05 31.23 31.35 32.46 33.49 33.27 33.67 33.99 35.82 36.75 36.95 37.09
31.19 29.12 25.74 21.73 15.25 15.66 28.09 33.22 35.63 33.92 24.38 34.92 35.09 33.70 33.46 33.59 26.89 29.80 36.35 37.73 37.99 38.13 37.06 35.17 33.94 33.33 32.00 32.30 31.61 30.55 30.46 29.94 29.66 31.35 32.34 33.36 33.78 33.41 33.61 34.97 36.23 37.20 37.38 38.01
24.93 23.39 21.39 20.68 16.90 24.52 31.96 34.96 35.35 24.40 25.59 34.54 34.62 33.37 33.17 31.16 32.79 35.31 37.55 37.65 38.00 37.18 36.04 34.16 32.22 31.77 31.63 31.55 30.76 30.02 29.43 28.86 31.10 32.41 33.12 33.47 33.90 34.01 35.82 36.75 37.05 37.69 38.41 38.45
26.75 21.32 20.33 20.66 18.35 19.81 35.24 33.43 30.28 32.15 33.71 34.27 33.56 33.61 33.68 34.74 35.86 36.56 36.87 36.54 36.41 35.89 34.24 33.10 31.99 31.57 31.55 30.92 30.03 29.11 28.07 30.82 31.32 32.49 32.76 33.11 33.67 35.88 36.92 36.76 37.87 38.31 37.94 37.36
25.98 29.92 25.71 26.40 26.35 33.64 33.87 33.78 35.23 35.59 34.36 33.08 32.79 34.74 34.85 34.79 34.73 35.47 35.14 35.10 35.13 34.29 33.26 33.17 31.55 31.01 30.77 30.65 30.22 28.54 29.85 30.69 31.99 31.83 31.93 32.64 35.80 36.29 37.37 36.86 37.50 37.18 37.62 37.19
31.86 32.94 28.85 29.46 31.34 33.06 33.98 34.66 35.76 35.43 34.59 35.57 35.03 35.30 35.07 33.92 34.68 34.33 34.56 34.43 33.93 33.32 32.54 32.60 31.51 30.29 29.81 30.69 30.79 29.93 30.06 31.34 31.54 30.75 31.49 34.27 35.20 36.62 36.51 37.53 38.27 37.36 36.94 37.33
32.92 32.20 30.03 29.12 30.54 32.22 32.98 34.05 35.02 35.69 35.66 35.17 35.67 35.33 34.97 34.37 34.16 34.17 33.93 34.09 33.60 32.49 32.52 31.95 30.67 30.12 30.22 30.72 30.26 30.27 30.69 31.54 30.69 31.18 32.20 34.77 35.88 35.85 36.05 37.45 37.81 37.97 38.97 40.91
32.73 31.83 29.10 28.63 33.08 31.89 31.44 34.45 36.23 35.26 34.45 34.67 34.78 34.98 35.31 34.09 34.29 34.36 33.86 33.82 32.82 32.08 31.83 31.12 30.88 30.49 30.62 30.31 29.79 30.23 31.56 31.37 30.71 31.52 33.93 34.43 35.23 35.48 36.46 36.77 36.67 40.61 41.93 42.29

GFSCGP_sfc_wetblb_060.txt.gz
Wetbulb
44.67 39.94 39.37 45.11 42.51 40.50 39.00 37.35 36.54 38.03 41.90 40.75 39.26 39.91 41.99 41.84 40.38 40.10 39.44 39.07 38.70 38.83 40.51 40.82 41.63 41.63 40.93 40.48 39.89 40.42 41.80 40.89 40.70 40.37 39.97 39.32 39.67 39.39 40.10 40.92 41.82 41.98 41.90 42.23
41.38 37.46 41.09 43.48 43.54 42.69 40.60 37.54 36.79 39.80 43.34 41.22 39.47 39.94 42.36 40.96 40.67 41.94 41.76 40.13 39.87 38.61 39.07 39.83 40.56 40.14 40.38 40.74 40.25 39.68 40.75 41.17 40.86 40.62 39.96 39.49 38.78 39.07 39.42 40.72 40.73 41.75 41.21 41.27
38.41 41.35 45.05 44.20 42.05 40.93 39.07 36.83 36.31 37.67 40.68 39.93 38.50 37.41 39.03 39.88 40.06 41.19 41.37 40.66 40.47 40.32 39.17 38.55 38.52 39.16 39.25 39.53 39.70 40.28 40.52 41.22 41.29 41.27 40.41 39.51 38.62 38.52 38.95 39.09 39.44 40.46 40.32 40.40
39.85 43.85 43.59 41.67 40.52 40.72 35.38 41.45 41.43 40.11 36.68 32.30 37.94 29.46 35.55 36.92 38.70 39.16 39.31 38.96 39.94 39.56 39.69 39.76 38.95 38.96 38.88 39.53 39.71 40.24 40.86 41.00 41.91 40.88 39.75 38.63 38.15 37.49 37.52 37.37 38.19 38.42 38.68 38.86
37.57 40.35 40.55 39.87 40.49 42.04 38.66 42.38 39.48 38.36 34.09 31.73 32.54 29.70 33.60 36.73 37.42 38.09 39.02 38.69 38.92 39.45 39.99 39.67 39.67 40.82 39.44 39.30 39.83 40.17 40.39 41.06 41.90 39.99 39.43 38.40 37.29 36.97 37.01 36.25 36.15 36.42 37.46 38.41
39.64 43.30 41.96 40.82 42.23 42.60 42.52 38.12 36.25 34.71 32.42 27.06 30.14 29.85 31.25 33.61 35.97 36.64 37.69 39.40 39.72 39.44 39.21 39.54 39.12 38.70 39.33 39.79 40.23 40.33 40.36 41.23 41.22 40.16 39.21 37.94 36.69 36.02 35.08 34.82 34.78 35.83 36.39 37.36
37.44 38.40 40.22 42.59 39.05 40.74 38.34 33.83 27.96 25.86 26.65 25.76 32.15 30.00 32.81 35.38 36.12 36.00 36.48 37.49 39.55 39.26 38.93 39.38 39.18 38.83 39.26 39.97 39.71 41.02 40.82 40.79 39.92 38.80 37.78 36.63 35.66 34.49 34.12 34.62 34.67 34.84 35.21 35.61
31.83 31.06 37.03 39.93 37.01 35.45 34.23 33.21 27.33 24.68 24.51 26.99 31.49 27.77 32.99 35.57 36.79 36.55 37.54 37.98 38.75 38.46 38.82 38.33 38.62 38.36 38.03 38.27 39.20 40.35 40.32 39.51 38.28 36.34 35.80 35.25 35.43 35.30 35.32 35.20 35.24 34.61 34.54 35.31
30.69 30.83 37.38 38.76 38.27 37.86 33.52 31.33 32.81 27.62 24.38 23.59 27.21 30.14 34.98 35.79 36.25 36.83 37.66 38.61 39.00 39.32 38.45 37.91 37.53 37.91 37.76 38.13 39.05 39.39 39.32 37.01 35.74 35.39 35.22 35.05 35.10 35.01 34.75 34.62 34.37 34.89 35.47 37.81
31.58 28.89 34.11 37.02 38.01 37.47 34.02 36.38 29.56 27.13 22.88 20.98 24.06 24.65 28.76 31.54 33.36 35.77 34.84 34.51 35.98 37.19 37.37 37.66 37.91 38.33 38.18 37.41 36.84 35.97 35.85 35.22 35.06 35.43 35.05 36.41 34.68 34.54 34.74 34.63 34.65 35.00 35.76 35.79
31.33 30.67 29.04 32.87 31.19 31.68 32.55 30.23 29.21 28.56 25.75 23.29 21.24 25.24 30.67 30.46 33.17 33.02 33.28 35.13 35.95 36.54 36.95 37.01 36.87 36.36 36.16 35.55 34.97 34.39 34.74 35.10 35.13 35.33 35.00 34.40 34.24 34.58 34.37 34.00 34.33 34.89 35.26 35.33
31.00 29.41 26.81 29.04 31.94 34.36 32.20 30.62 30.19 26.06 23.64 21.99 20.16 25.14 33.56 31.13 33.07 34.24 33.77 35.35 35.64 36.56 36.96 36.50 35.52 34.73 34.55 34.09 33.53 33.49 34.02 34.22 34.63 34.70 34.24 33.98 34.13 34.16 33.07 32.83 33.43 34.60 34.92 36.10
32.56 27.69 24.19 26.45 30.16 31.84 28.83 30.96 30.29 28.14 26.01 22.78 21.17 26.00 33.69 32.25 33.27 33.36 33.22 34.29 35.81 36.72 37.32 36.44 35.24 34.17 34.04 33.38 33.03 33.44 33.63 33.73 34.08 33.81 33.29 33.47 33.33 32.70 32.55 33.33 34.55 34.98 35.15 35.10
36.85 27.66 27.35 25.00 27.28 29.90 27.43 30.21 30.18 28.33 20.36 23.17 24.59 25.89 30.14 32.04 31.78 32.93 33.78 33.67 34.18 35.83 36.94 36.72 36.35 34.73 33.85 32.82 32.56 32.93 33.09 33.24 33.40 33.31 33.00 32.48 32.19 32.58 33.35 34.10 34.49 34.63 34.75 34.62
31.81 27.09 26.28 28.77 30.44 30.41 30.14 31.28 30.20 28.44 27.49 26.06 26.86 27.79 29.17 29.97 31.18 31.63 33.01 34.63 35.08 36.37 37.22 36.94 36.34 35.75 33.79 32.36 32.23 32.68 32.81 32.85 32.58 32.46 32.11 31.95 32.49 32.69 32.79 33.55 34.20 34.51 34.75 35.35
31.04 26.85 27.62 25.99 30.84 30.46 29.83 31.97 31.18 30.22 29.63 28.55 27.84 27.97 32.48 32.44 32.94 33.21 33.12 34.51 35.18 35.33 36.02 36.60 36.46 35.96 34.94 32.92 32.22 32.38 32.14 32.37 31.79 30.94 31.22 32.61 32.92 33.00 33.28 33.51 33.84 34.22 34.54 35.01
30.15 28.27 26.07 24.78 27.38 28.45 26.44 29.08 30.91 30.42 30.28 30.31 26.83 29.77 32.70 32.02 33.88 33.76 34.18 34.80 34.68 34.85 35.54 36.00 36.08 35.52 34.17 32.84 32.87 31.69 31.48 31.24 30.50 30.60 31.30 31.88 32.37 32.43 32.84 33.53 33.64 33.72 33.85 36.19
29.70 27.90 26.29 21.38 24.19 19.75 28.05 31.57 32.28 31.52 32.18 31.69 32.06 32.77 33.58 33.38 34.93 35.66 34.84 33.22 34.38 35.39 35.82 35.81 35.53 33.99 32.85 32.72 32.25 31.60 31.49 30.36 30.27 29.95 30.11 31.01 31.71 31.99 32.90 33.04 33.04 33.82 35.37 36.52
30.73 27.85 23.39 19.48 18.02 25.05 27.64 30.22 31.09 29.22 29.85 34.19 32.93 33.58 33.93 34.75 32.69 32.37 35.31 35.20 35.87 35.48 35.90 35.60 34.62 32.99 32.02 31.68 31.71 30.93 30.50 30.05 29.63 29.57 29.54 31.05 32.00 31.87 32.38 32.34 34.19 35.55 36.38 36.75
30.11 28.31 25.30 21.47 14.94 15.87 26.62 31.51 34.12 33.35 25.11 34.62 34.82 32.97 31.88 32.29 25.94 28.76 34.87 36.35 36.62 36.98 36.67 35.47 33.30 32.29 31.15 31.41 30.63 29.85 29.52 28.61 28.23 29.48 31.23 32.00 32.23 32.16 32.41 34.37 35.01 36.59 37.19 38.01
24.16 22.71 21.23 20.99 16.54 23.81 30.36 33.34 34.53 24.35 26.48 34.46 34.20 32.21 31.61 30.10 31.91 34.40 36.13 36.16 36.36 35.84 35.66 33.77 31.23 30.92 30.69 30.63 29.85 29.17 28.47 27.98 30.06 31.06 31.96 32.08 32.57 32.52 34.64 35.77 36.51 37.31 37.45 38.47
25.73 20.66 19.60 20.42 18.00 19.82 33.98 32.78 29.74 31.76 32.51 33.96 32.68 32.43 32.40 33.84 34.59 35.04 35.32 35.02 35.21 34.47 34.59 32.40 31.28 30.88 30.82 30.23 29.24 28.52 27.69 29.89 30.20 31.00 31.46 31.62 32.10 34.12 36.49 36.04 36.81 36.82 37.77 37.59
25.20 29.02 24.98 25.29 25.67 32.11 33.91 32.02 33.62 34.15 33.48 32.40 32.21 33.10 33.10 33.41 33.23 34.15 33.75 33.88 34.02 33.62 32.62 32.35 30.92 30.62 30.48 30.08 29.43 27.90 29.09 29.81 30.57 30.53 30.53 31.25 32.43 35.04 36.81 36.18 36.18 36.86 37.73 37.08
29.77 31.17 27.84 28.46 30.24 31.39 32.80 33.71 34.44 34.50 34.02 34.45 33.92 33.47 33.36 32.38 33.35 33.04 33.19 33.27 33.25 33.19 32.19 31.90 31.12 30.02 29.35 30.19 30.13 29.19 29.42 30.05 30.12 29.35 30.10 32.17 34.09 35.52 35.79 36.57 37.29 37.13 36.85 36.57
30.83 31.03 29.02 28.09 29.16 30.89 31.91 33.23 34.66 34.96 35.28 34.55 34.26 33.85 33.83 33.11 33.17 32.86 32.76 32.87 33.33 32.68 31.91 31.47 30.26 29.67 29.75 30.29 29.84 30.04 30.04 30.38 29.57 29.75 31.48 33.88 34.03 34.56 35.05 36.60 37.17 37.59 38.29 39.93
31.37 30.90 28.30 27.95 32.09 31.41 31.08 33.96 35.40 34.49 34.01 34.11 33.43 33.49 34.03 33.70 33.43 33.20 32.76 33.03 32.84 32.14 31.69 30.82 30.42 29.82 30.07 30.05 29.96 29.79 30.81 30.56 29.59 29.40 32.97 33.49 33.61 34.82 35.41 35.93 36.22 39.98 41.18 41.87

GFSCGP_sfc_wetblb_063.txt.gz
Wetbulb
47.88 45.16 42.98 45.49 46.26 44.31 43.40 41.66 41.17 42.37 44.62 44.79 43.51 43.23 45.85 46.38 44.74 45.18 45.46 44.84 44.40 44.69 46.61 46.49 46.76 47.26 46.98 46.96 47.41 47.91 47.80 47.80 48.14 48.55 48.70 48.74 49.43 48.97 49.21 49.69 48.50 48.94 48.91 48.73
45.04 42.14 45.73 47.43 46.16 45.43 43.51 41.37 41.12 42.96 45.06 44.59 42.65 42.93 45.85 44.94 44.80 45.14 45.85 44.97 44.50 44.17 44.72 45.36 45.77 46.27 46.25 46.78 47.00 47.02 48.01 47.91 48.22 48.70 48.84 49.09 48.94 48.67 48.51 49.00 48.48 48.53 47.94 47.89
41.39 44.69 45.69 45.45 43.57 42.56 42.70 40.95 40.65 41.22 42.96 43.00 41.29 41.04 42.35 43.51 44.38 45.14 45.71 46.13 46.04 45.07 44.84 44.71 45.01 45.74 46.54 46.38 46.60 46.94 47.36 47.69 48.02 48.23 47.80 47.62 47.41 47.48 47.64 47.73 47.99 47.93 46.57 46.66
43.91 46.17 44.74 43.86 42.74 43.26 40.08 44.14 43.53 42.15 40.48 37.07 40.94 34.71 39.56 40.29 43.21 43.05 43.67 43.53 44.52 44.88 45.20 45.15 45.01 44.86 45.34 46.25 46.56 46.64 46.71 46.88 47.19 47.85 47.67 47.65 47.74 46.89 47.16 46.53 46.54 46.01 45.28 45.63
41.99 43.42 43.35 43.14 42.98 44.55 41.75 43.99 42.00 40.43 37.99 37.70 36.97 35.78 38.58 40.47 41.10 41.97 42.17 43.29 43.20 43.96 45.39 44.69 44.75 45.76 45.50 45.26 45.82 46.26 46.01 46.45 47.41 47.39 47.27 47.18 46.05 46.05 45.98 44.80 44.06 44.81 45.34 45.54
43.33 46.13 44.66 44.04 43.33 43.96 43.26 40.13 38.51 37.79 36.39 32.21 34.61 34.63 36.38 37.78 38.96 40.28 41.64 42.19 43.71 43.49 43.83 44.43 44.02 44.33 45.06 45.72 46.05 45.87 45.62 46.41 47.34 47.22 46.44 46.06 45.35 44.46 43.58 43.67 43.45 44.18 44.19 44.51
40.52 41.47 43.38 44.73 41.71 43.63 41.21 38.87 33.67 31.58 31.46 30.92 35.20 33.50 37.39 39.42 39.95 39.20 39.68 41.53 43.78 43.94 43.67 43.87 44.05 43.85 44.48 45.31 45.48 45.58 46.07 46.46 46.66 45.96 44.74 43.94 43.14 42.31 42.52 43.01 42.74 42.26 42.48 43.02
34.89 34.52 40.61 41.85 41.56 39.97 38.65 39.07 33.57 28.96 29.16 31.42 34.38 32.46 36.99 39.67 40.00 40.52 41.14 42.44 43.56 43.34 43.15 43.16 43.37 44.12 44.24 45.15 45.54 45.59 46.07 45.92 44.54 43.15 42.24 42.47 42.42 43.56 42.95 42.40 42.05 41.89 41.95 42.51
34.96 35.69 40.11 39.99 41.30 41.59 38.07 36.36 37.62 31.69 29.50 29.53 32.26 34.82 39.48 39.28 39.19 39.05 39.12 40.55 40.38 41.45 42.25 42.72 43.20 43.16 43.36 43.95 44.55 45.32 45.19 43.33 41.85 41.75 42.43 42.57 42.59 41.86 41.68 41.87 41.94 41.96 42.10 41.83
36.51 33.15 37.01 39.34 41.12 39.84 40.14 39.13 34.41 32.84 28.89 26.89 30.30 31.08 35.18 36.99 37.67 37.59 38.19 38.61 39.69 41.03 41.62 41.74 41.93 42.36 42.41 42.36 41.83 41.86 42.11 41.43 41.33 41.53 42.20 42.28 41.57 41.36 41.52 41.62 41.27 41.14 41.33 41.49
36.03 35.59 34.46 37.75 36.91 36.11 36.33 34.92 32.74 33.64 31.36 30.13 28.57 32.19 36.12 36.92 36.94 36.82 37.45 38.59 39.47 40.34 40.78 41.21 41.25 41.03 40.86 40.62 40.56 40.13 40.76 40.97 41.34 41.33 41.28 41.13 41.13 41.23 41.19 40.49 40.41 40.50 40.53 40.12
35.70 33.56 31.23 33.85 36.02 37.94 37.47 35.43 34.64 32.60 29.38 27.73 28.77 32.34 38.06 37.14 37.08 37.90 37.52 38.53 39.82 40.69 40.89 40.81 40.69 40.60 40.76 40.30 39.78 40.07 40.28 40.58 40.53 40.37 40.32 40.24 40.34 40.39 39.56 39.54 39.66 39.58 38.97 39.63
35.94 31.74 29.14 31.88 34.97 36.75 34.71 34.62 32.70 31.57 31.13 28.12 29.95 32.90 36.22 36.87 36.80 37.26 38.38 39.09 39.95 40.74 41.48 41.20 41.05 40.72 40.46 40.01 39.17 39.36 39.60 39.70 39.59 39.35 39.27 39.39 39.25 38.92 38.95 38.72 38.87 39.03 38.71 38.81
38.35 30.79 31.16 30.05 33.02 34.63 33.01 32.84 33.31 33.10 29.99 29.83 31.02 32.84 35.12 35.90 36.11 37.74 38.45 39.20 40.04 40.69 41.03 41.77 42.35 42.29 41.05 39.90 38.79 38.79 39.09 38.86 38.71 38.53 38.47 38.14 38.45 38.44 38.10 38.29 38.25 38.01 38.30 38.00
34.56 30.69 31.45 32.24 33.11 33.74 33.55 33.68 31.88 31.32 31.85 31.89 33.01 31.01 34.78 35.71 36.47 38.06 38.54 39.10 39.89 40.64 40.83 40.94 41.29 41.91 41.86 40.69 39.00 38.26 38.31 38.25 37.92 37.47 37.38 37.62 37.92 37.78 37.50 37.26 37.44 37.78 37.84 38.16
33.69 30.75 32.37 31.33 33.12 32.69 31.87 33.56 32.97 32.07 32.31 31.36 31.32 32.16 35.92 37.27 38.16 38.16 38.64 38.66 38.65 38.84 39.42 40.06 40.57 40.98 40.80 40.14 38.51 37.73 37.74 37.61 37.15 36.60 36.34 36.81 36.69 36.70 36.38 36.65 36.79 37.10 37.48 38.06
32.84 31.21 30.79 30.72 29.62 30.90 30.41 32.49 32.55 33.71 33.64 33.85 31.56 35.36 36.62 36.36 37.32 38.31 38.51 38.13 38.01 38.33 39.09 39.48 39.89 39.87 39.54 38.03 37.49 37.40 36.99 36.66 36.24 35.86 35.82 35.64 35.88 35.31 35.65 36.19 36.37 36.47 37.05 37.69
31.76 30.70 29.79 28.91 29.12 25.08 33.43 35.62 35.79 34.25 34.85 34.75 34.73 35.32 36.96 37.59 38.58 38.60 38.87 38.56 38.89 38.78 38.97 39.31 39.75 39.81 38.14 37.32 36.98 36.57 36.33 35.94 35.27 34.82 34.80 35.15 35.13 34.69 35.56 35.81 35.87 36.60 37.50 37.74
32.79 30.63 26.50 27.11 25.05 28.59 30.66 32.88 33.57 33.29 33.48 36.40 35.47 36.39 37.43 37.33 36.93 36.97 39.31 39.51 38.63 38.86 39.25 39.31 39.64 37.91 36.85 36.31 36.02 35.37 35.47 35.05 34.38 34.17 34.18 34.74 34.94 34.50 35.04 35.08 35.77 36.81 36.67 37.55
31.45 30.41 29.69 25.15 21.85 21.08 30.66 34.41 37.09 37.06 30.23 36.00 36.59 36.29 35.95 35.91 32.83 35.05 38.17 38.75 38.97 39.36 39.32 38.79 38.32 36.63 35.97 36.03 35.34 34.52 34.49 33.66 33.37 33.88 34.16 34.83 34.93 34.81 34.74 35.35 35.94 36.74 37.16 37.60
27.18 26.14 25.94 25.75 24.10 27.64 32.72 35.75 37.32 29.91 32.19 36.85 36.90 36.31 36.04 34.96 36.64 37.72 38.22 38.34 38.67 38.40 38.29 38.54 36.33 35.70 35.51 35.26 34.19 33.79 33.64 33.30 34.32 34.30 34.55 34.64 35.09 35.00 35.68 36.52 37.18 37.42 37.41 37.53
28.24 25.31 24.41 24.32 23.57 23.39 35.36 35.06 33.16 35.92 36.63 36.73 36.57 36.99 36.62 36.88 36.96 37.07 37.29 37.29 37.42 37.14 37.16 36.72 35.69 35.51 35.64 34.85 33.84 33.66 32.95 34.59 34.15 34.09 33.99 34.08 34.82 35.33 35.89 36.10 37.01 37.16 36.83 37.08
28.21 30.86 28.98 28.80 29.49 34.34 35.85 36.47 37.27 36.94 36.37 36.54 36.64 37.08 36.81 35.90 35.76 35.93 35.97 36.21 36.52 36.53 36.62 36.03 35.22 34.96 35.41 34.75 34.08 32.94 34.23 33.87 33.55 33.64 33.38 33.72 34.70 35.91 36.42 35.58 35.94 36.33 37.15 36.50
31.43 32.64 31.44 31.47 32.40 32.70 35.82 36.90 37.30 37.43 37.00 37.45 37.70 37.25 37.02 35.73 35.67 35.52 35.62 35.97 35.79 36.42 36.36 35.64 34.95 34.58 34.32 34.89 34.35 34.20 33.84 33.61 33.56 32.94 32.75 33.70 34.70 35.52 35.40 36.03 36.59 36.58 36.43 36.05
32.17 32.56 30.62 30.34 32.29 34.05 34.80 35.80 36.75 36.84 37.25 37.03 37.46 37.57 37.18 36.22 35.97 35.44 35.43 35.47 35.85 36.04 36.16 35.38 34.59 33.88 33.92 34.26 34.20 34.61 33.76 33.73 33.20 32.74 32.77 34.00 34.60 34.49 34.48 35.74 36.86 37.28 38.10 39.36
32.31 32.38 31.18 31.34 33.96 34.55 34.73 35.80 36.79 36.04 36.06 36.78 36.72 36.80 37.28 36.58 35.91 35.78 35.67 35.92 35.51 35.77 35.99 35.19 34.98 33.94 34.13 34.02 33.96 34.04 33.95 33.90 33.15 32.20 32.88 33.87 35.46 35.02 35.21 36.12 36.04 40.09 40.82 41.44

GFSCGP_sfc_wetblb_066.txt.gz
Wetbulb
51.94 53.16 51.61 53.15 52.98 52.35 50.38 47.63 46.90 45.92 47.68 47.70 48.24 48.26 49.99 52.21 51.19 51.34 52.58 52.59 52.38 52.83 54.38 53.43 52.99 53.03 52.84 53.02 53.14 53.27 52.60 52.55 52.87 52.56 52.42 52.81 52.76 53.09 53.27 53.88 52.94 53.03 53.16 52.50
49.36 48.60 54.68 53.33 49.03 48.05 46.72 45.47 45.95 45.99 47.50 47.72 48.03 47.74 50.36 50.01 50.07 50.67 51.49 52.40 52.52 52.59 52.38 51.97 51.81 52.20 52.23 52.35 52.83 52.80 52.64 52.79 53.14 53.93 54.07 54.24 53.90 53.97 54.58 54.24 53.17 52.86 51.88 51.44
51.11 50.74 48.59 48.84 48.18 48.73 47.68 46.28 45.82 44.09 46.39 47.06 46.13 45.55 46.75 47.88 49.22 49.50 50.38 51.53 52.87 52.53 50.98 51.27 50.95 51.45 52.30 52.17 52.61 52.63 52.73 53.12 53.42 53.68 53.96 53.40 53.32 53.22 52.28 52.45 52.58 52.25 50.76 50.44
47.40 48.58 47.47 47.11 46.36 47.31 44.25 46.55 45.84 44.71 44.12 40.96 45.49 38.63 45.36 45.96 47.68 47.65 48.31 49.68 50.72 52.09 52.50 52.03 51.29 51.30 51.78 52.47 53.30 52.85 52.71 52.31 52.73 53.21 52.81 52.76 52.72 52.03 53.46 52.92 52.87 51.37 50.05 49.96
45.53 46.84 46.72 45.98 45.95 47.29 45.63 47.62 46.27 44.50 44.11 42.60 42.38 40.57 44.11 46.22 45.64 46.36 47.94 48.44 49.31 50.54 52.04 51.34 51.27 51.87 52.07 52.89 52.58 52.51 52.05 51.65 52.30 52.45 53.09 53.07 52.30 52.52 52.68 51.41 49.57 49.90 50.51 50.37
47.04 48.72 48.28 47.06 47.10 47.76 47.65 45.90 44.97 44.60 43.34 38.05 40.63 39.98 41.66 44.01 43.18 45.07 47.65 48.43 48.77 48.92 50.42 51.79 51.58 51.36 51.34 51.82 52.10 52.21 51.39 51.45 52.43 52.71 52.48 52.21 52.03 51.36 50.06 49.52 48.77 49.24 49.44 49.26
45.82 45.20 46.94 48.25 46.11 46.91 45.96 44.67 39.56 37.68 37.46 37.07 40.23 38.87 42.71 43.56 43.73 44.54 45.25 47.58 48.53 49.35 49.67 50.04 49.89 49.76 50.44 50.75 51.25 51.13 51.25 51.24 52.10 52.17 51.97 51.10 50.22 48.80 48.09 48.24 48.08 47.53 47.40 47.65
42.30 39.50 44.56 45.21 45.53 44.75 44.90 44.50 40.00 33.42 35.70 38.74 39.16 37.46 41.81 43.19 44.74 45.67 46.83 48.09 49.14 49.09 49.62 49.31 49.50 50.40 50.62 50.77 51.27 51.15 50.87 51.28 51.18 50.57 49.44 48.45 47.99 49.36 48.50 47.98 47.39 46.81 46.70 46.69
40.93 39.45 43.17 43.61 45.27 45.20 43.10 41.54 43.23 38.57 37.76 37.08 40.90 40.64 43.20 43.78 43.55 44.86 45.62 46.76 46.43 47.22 48.00 48.07 48.51 48.89 49.19 49.66 49.02 49.43 49.81 49.71 48.54 47.77 48.30 48.16 48.27 47.43 47.24 47.22 47.11 46.70 46.50 45.76
42.70 38.83 41.29 42.21 44.51 44.49 44.30 44.32 39.73 41.18 34.02 32.69 36.98 37.51 41.15 41.10 41.87 43.34 44.16 44.95 45.59 46.78 47.18 47.61 47.88 48.15 48.41 48.32 48.18 47.72 48.16 47.57 46.90 46.94 48.35 47.51 47.30 46.99 46.86 46.62 45.76 45.43 45.29 45.28
42.85 42.36 38.38 41.66 41.72 42.21 41.40 41.57 40.42 40.71 38.96 35.49 34.58 38.05 42.94 43.10 42.60 42.72 43.50 44.64 45.60 46.26 46.80 47.26 47.68 47.87 47.67 47.38 47.22 46.87 46.96 45.96 46.88 47.19 46.95 46.69 46.78 46.40 46.02 45.19 44.90 44.69 44.39 43.84
40.79 42.62 39.24 38.51 39.96 41.51 41.94 41.61 42.29 38.40 35.90 38.08 37.20 38.05 42.56 43.13 43.11 43.34 43.21 44.13 45.41 46.14 46.47 46.91 47.11 47.44 47.49 47.13 46.81 46.66 46.67 46.40 46.45 45.88 45.72 45.86 45.65 45.46 44.71 44.34 44.04 43.84 43.09 43.37
41.77 39.59 36.53 36.26 39.00 40.32 39.25 40.26 40.09 39.56 40.14 37.11 35.62 38.74 42.41 42.46 42.30 42.91 43.65 44.57 45.12 45.60 46.09 46.58 47.23 47.33 47.37 47.28 46.82 45.92 45.71 45.45 45.29 45.03 45.06 44.92 44.70 44.35 43.67 43.10 42.99 42.82 42.27 42.03
42.80 39.11 37.92 37.46 38.42 40.62 37.54 37.81 39.47 40.58 37.66 38.58 38.18 39.80 39.51 41.18 41.57 42.72 43.71 44.55 45.10 45.61 44.91 46.34 47.06 47.00 47.20 47.34 46.93 46.18 45.45 45.00 44.46 44.18 44.04 43.65 43.60 43.02 42.50 42.30 41.96 41.54 41.75 41.38
41.61 37.48 37.52 37.47 37.76 38.10 38.72 38.66 38.01 37.71 40.21 36.74 38.93 37.64 40.23 42.23 42.85 43.54 44.30 44.14 44.16 44.48 44.88 45.51 45.42 45.78 46.10 46.51 46.84 46.44 44.64 44.16 43.89 43.27 42.97 42.80 42.48 42.22 41.69 41.20 41.05 41.23 41.33 41.50
39.87 38.31 38.26 36.80 37.27 37.34 36.38 39.17 39.01 38.44 38.27 37.49 38.34 38.23 44.03 43.35 44.02 43.06 43.71 43.40 43.47 43.93 44.09 44.26 44.43 44.60 44.82 45.36 45.21 43.99 43.67 43.20 43.13 42.73 42.04 41.81 41.19 40.84 40.59 40.40 40.28 40.70 40.97 41.56
39.11 39.38 38.61 37.61 36.40 37.05 36.33 39.58 39.29 39.25 39.83 40.22 37.24 41.62 42.07 40.86 41.54 42.70 43.17 43.24 43.03 43.00 42.93 43.17 43.58 44.16 44.60 44.32 42.96 42.79 42.78 43.21 42.59 41.76 41.12 40.55 40.17 39.67 39.61 39.75 39.92 40.11 40.45 40.89
39.72 39.76 39.69 38.52 36.60 30.45 37.05 40.18 40.40 39.88 40.47 41.43 40.12 40.21 41.61 42.11 43.08 43.98 44.38 43.58 42.63 42.37 42.42 43.06 43.81 44.12 44.53 42.95 42.50 42.55 42.74 42.13 41.30 40.49 40.21 40.02 39.51 38.97 39.18 39.24 39.36 39.99 40.56 38.94
40.69 40.44 36.47 35.93 34.79 37.28 37.03 36.69 37.89 37.65 38.50 42.32 41.00 41.10 41.81 42.39 42.37 43.00 43.70 42.81 42.32 42.66 43.01 43.57 44.44 43.97 42.93 41.94 41.89 41.52 41.61 41.32 40.22 39.61 39.20 39.12 38.97 38.36 38.41 38.34 38.82 39.95 39.05 39.06
38.90 40.33 39.27 34.90 33.92 31.53 36.00 39.16 41.26 41.64 35.99 41.81 42.62 41.94 41.58 41.33 38.37 42.14 42.49 42.75 42.64 43.07 43.44 43.28 43.54 42.19 41.57 42.01 41.64 40.43 40.34 39.78 39.14 39.07 38.48 38.99 39.00 38.33 37.89 38.46 38.65 38.13 38.30 38.76
36.10 36.69 35.49 35.15 34.06 37.09 40.00 40.64 41.51 34.13 37.43 42.28 43.15 43.06 41.80 40.26 41.75 41.58 42.34 42.09 42.83 42.81 42.81 43.28 42.76 41.69 41.97 42.15 41.25 39.63 39.80 39.03 39.56 38.93 38.81 38.87 38.92 38.23 38.57 38.62 37.60 37.57 37.70 38.19
36.59 35.14 34.51 34.29 32.38 30.89 40.70 39.26 37.91 41.96 41.95 42.83 42.57 42.31 41.43 41.19 40.71 40.52 40.77 41.08 41.79 41.75 42.22 42.64 41.34 41.90 42.74 41.98 40.36 39.39 39.08 40.31 39.37 38.60 38.39 38.55 38.32 38.27 38.84 37.33 37.01 37.17 37.73 37.31
35.32 39.00 38.88 38.36 38.94 40.02 42.54 41.73 42.28 43.50 43.09 42.38 42.74 42.00 41.11 39.76 39.45 39.84 40.21 40.85 41.26 41.46 41.83 42.63 41.77 41.52 42.33 42.05 40.59 38.75 39.76 39.57 38.31 38.08 38.30 37.83 38.05 38.70 38.22 36.39 36.61 37.73 37.36 36.73
38.90 39.50 38.49 37.60 41.07 40.07 41.91 43.10 42.66 42.66 42.92 43.06 42.76 41.78 41.07 39.43 39.78 39.74 40.54 41.15 41.20 41.78 41.55 41.98 41.36 41.00 41.18 41.66 40.60 40.06 39.98 39.22 37.96 37.71 37.60 37.46 37.31 37.83 37.30 37.22 37.85 37.50 36.73 36.26
41.04 39.25 39.36 39.16 41.29 39.79 41.14 42.46 43.08 42.01 42.44 41.67 41.88 41.55 40.75 40.26 40.00 40.32 40.66 41.09 41.47 41.54 41.98 42.10 41.15 40.76 40.57 41.13 40.32 40.46 39.71 38.66 37.30 37.23 37.14 36.84 37.39 35.74 35.35 37.18 37.60 37.71 38.42 39.10
40.34 40.87 38.85 39.01 42.13 42.52 41.75 43.08 43.00 41.45 40.87 41.39 40.88 40.34 41.22 41.31 40.84 41.37 41.18 42.08 41.78 41.78 42.40 41.62 41.61 41.18 41.00 40.71 39.94 39.82 39.63 38.26 37.18 36.48 36.18 36.53 35.51 34.90 35.84 36.48 36.67 39.58 40.55 41.09

GFSCGP_sfc_wetblb_069.txt.gz
Wetbulb
55.05 53.22 51.25 54.49 55.20 54.87 53.55 52.59 51.07 51.68 48.68 47.92 49.52 51.26 52.34 53.38 53.33 52.62 53.28 53.76 54.43 55.13 57.29 57.34 56.55 56.16 54.87 54.60 54.24 54.27 53.58 53.36 53.47 53.35 53.04 53.24 53.13 53.73 53.91 54.36 53.39 53.20 53.29 52.76
51.43 50.21 55.72 57.31 56.31 54.26 52.37 51.16 50.89 51.22 48.43 47.73 50.32 50.00 51.52 52.15 52.15 52.36 52.58 53.47 54.19 54.72 55.51 55.52 55.09 54.74 53.96 53.76 54.13 54.12 53.69 53.56 53.65 54.31 54.52 54.64 54.29 54.61 54.63 55.36 54.07 53.73 53.02 52.44
50.73 52.78 54.33 55.60 51.11 49.89 50.93 50.00 49.19 47.77 48.41 48.78 46.77 45.32 48.55 50.12 51.04 51.08 51.79 53.04 53.80 54.70 54.16 54.45 53.92 53.86 54.23 53.64 53.87 53.86 53.77 53.75 53.97 54.75 55.04 54.90 54.54 54.69 53.52 53.36 53.45 53.72 52.97 51.96
53.23 51.71 50.65 51.03 51.79 51.92 49.43 51.76 48.82 47.51 44.51 40.83 47.22 39.57 46.49 48.30 48.95 49.25 50.50 51.59 52.55 53.87 55.06 54.47 53.75 53.46 53.55 53.98 54.61 54.20 54.09 53.76 54.13 54.81 54.09 53.70 52.91 52.41 54.21 54.34 54.25 53.38 52.71 51.49
47.86 47.62 48.74 49.14 49.46 52.14 49.50 49.54 48.05 47.40 45.56 44.53 44.22 41.34 44.37 47.55 46.95 47.41 49.44 50.68 51.59 52.89 54.53 53.91 53.47 53.73 53.92 54.46 54.20 54.27 53.92 53.59 54.00 53.55 54.34 54.31 53.56 54.00 54.35 53.68 52.52 52.08 51.95 51.93
48.97 51.89 50.39 49.51 49.08 49.61 50.21 48.14 47.59 47.09 45.37 39.10 43.17 42.39 43.03 45.01 44.89 46.16 49.05 50.01 50.73 51.13 53.11 54.12 53.82 54.02 53.65 54.56 54.62 54.44 53.57 53.14 53.74 53.91 53.70 53.76 53.45 53.21 52.85 52.33 51.07 50.97 51.38 51.17
46.99 47.20 48.56 50.27 46.96 48.79 48.17 46.05 40.48 39.37 39.04 38.24 43.27 41.24 44.02 45.39 45.79 46.95 48.04 49.05 50.14 51.20 51.77 52.20 51.59 51.70 52.18 52.63 53.25 53.50 53.47 52.75 53.21 53.20 53.33 53.44 53.35 52.76 51.40 50.49 49.99 49.57 49.18 49.33
43.15 40.00 46.70 48.07 47.58 46.12 45.99 45.96 40.80 34.70 36.81 40.32 42.88 39.25 43.18 45.69 47.45 48.72 49.56 49.91 50.44 50.47 51.19 51.65 52.08 52.46 52.61 52.62 53.07 53.13 52.47 52.01 52.90 53.09 52.72 52.72 51.43 50.67 50.21 49.92 49.38 48.69 48.49 48.54
44.70 41.23 45.68 46.37 47.83 47.49 45.37 41.85 46.12 41.91 42.34 38.70 41.36 43.35 44.51 45.70 45.99 47.59 48.09 48.52 48.37 49.26 49.82 49.99 50.43 50.93 51.30 51.54 51.69 51.69 51.74 51.96 52.03 51.39 50.91 50.13 49.73 49.43 49.09 49.02 49.04 48.63 48.48 47.81
45.42 40.33 44.40 44.47 47.05 46.88 46.17 46.94 41.02 42.19 35.18 34.91 39.83 39.98 41.34 42.44 43.63 45.48 46.02 46.56 47.38 48.48 48.76 49.11 49.35 49.61 49.93 50.09 50.22 50.21 50.09 49.65 49.37 49.09 49.29 49.01 49.09 49.01 48.82 48.61 47.75 47.49 47.07 46.81
45.97 44.47 40.85 44.06 43.93 44.34 43.56 43.13 43.26 43.14 41.62 36.62 35.79 39.42 45.78 45.00 45.17 44.99 45.87 46.87 47.38 47.74 47.92 48.34 48.79 49.40 49.58 49.51 49.05 48.67 48.73 48.00 48.26 48.48 48.75 48.46 48.33 48.28 48.06 47.46 47.16 46.76 46.30 45.26
45.00 45.23 40.42 41.48 42.77 44.02 44.87 44.55 44.79 39.92 38.49 40.00 39.10 38.95 45.44 46.40 45.80 46.24 45.87 46.58 47.42 47.84 47.97 48.20 48.41 48.79 48.88 48.97 49.07 48.36 48.27 47.88 48.09 48.04 47.36 47.27 47.64 47.61 46.98 46.65 46.36 45.66 44.31 44.41
45.05 42.78 37.91 37.85 40.69 42.19 41.11 43.38 43.73 43.05 42.31 38.42 36.84 39.04 44.98 45.07 45.01 45.88 45.89 46.58 47.02 47.37 47.51 47.92 48.62 48.63 48.48 48.46 48.41 48.07 47.93 47.56 47.59 47.27 46.81 46.74 46.68 46.51 46.00 45.32 44.62 44.08 43.41 42.87
45.44 42.77 41.18 38.70 40.26 43.01 39.53 41.06 42.04 41.72 38.91 39.97 40.42 41.20 41.91 43.39 43.93 44.94 45.94 46.69 46.90 46.77 46.44 47.60 47.87 47.78 47.68 47.47 47.54 47.73 47.80 47.82 47.19 46.36 45.87 45.58 45.70 45.59 44.64 43.79 43.27 42.84 42.61 41.92
44.43 40.28 40.18 40.07 40.20 40.52 40.65 40.70 40.71 39.83 41.49 38.90 41.27 39.84 43.30 44.15 45.01 45.83 46.51 46.45 45.96 46.00 46.22 46.30 46.17 46.16 46.11 46.13 46.69 46.99 47.06 46.82 46.35 45.20 45.11 45.11 45.14 44.15 43.19 42.54 42.34 42.12 41.76 41.86
43.01 40.33 40.35 39.07 40.16 40.05 38.90 41.17 41.15 41.10 41.10 40.94 41.23 40.47 46.11 46.97 46.08 45.26 45.26 45.46 45.11 45.73 45.42 45.16 45.07 44.90 44.97 45.33 45.68 45.91 45.80 45.52 45.62 44.88 44.49 44.44 43.01 42.27 41.71 41.57 41.18 41.08 41.11 41.39
41.59 41.71 40.13 38.62 40.19 40.41 38.36 41.89 42.49 42.47 42.86 41.97 38.68 42.46 44.69 43.01 43.74 44.56 45.35 45.28 44.81 44.47 44.09 43.77 43.92 44.36 44.77 45.22 45.05 44.55 44.88 45.46 44.70 43.88 43.07 42.24 42.02 41.10 40.87 40.84 40.43 40.55 40.46 40.97
41.79 42.05 42.17 40.06 39.75 32.62 39.54 42.85 43.12 42.45 42.38 43.87 42.95 42.88 43.83 44.29 45.32 46.09 46.58 45.28 44.47 43.58 43.27 43.44 43.92 44.39 45.09 45.37 44.87 44.81 44.61 44.23 43.60 42.25 41.74 42.03 41.17 40.24 40.20 39.94 39.54 39.75 40.16 40.28
44.22 43.53 40.41 37.62 37.11 40.02 38.86 39.29 39.97 39.28 39.77 44.27 43.42 43.54 44.12 44.75 44.91 44.73 45.80 44.62 43.36 43.19 43.45 43.82 44.67 44.74 44.72 44.46 44.47 43.72 43.29 43.22 42.03 41.29 41.41 40.95 40.28 39.47 39.38 38.83 38.91 39.39 39.46 37.99
41.73 43.29 41.22 37.88 36.11 32.15 38.64 41.44 43.48 43.28 36.70 43.99 44.66 44.18 43.86 43.98 39.41 41.19 44.18 43.53 43.16 43.57 43.86 43.82 44.43 44.43 44.17 44.43 44.34 42.89 42.03 41.59 40.84 41.37 40.53 40.44 40.19 39.53 38.76 38.92 38.90 39.73 38.45 37.29
38.51 39.38 37.27 37.62 35.58 38.65 42.16 42.76 44.41 35.09 38.58 44.77 45.21 45.16 44.79 42.29 43.32 43.58 42.97 42.50 43.28 43.55 43.57 44.24 44.30 43.48 43.89 44.43 43.66 41.58 41.39 40.67 41.74 41.48 40.66 40.12 40.26 39.55 39.21 39.03 39.74 38.99 37.30 37.24
38.91 37.71 36.38 38.04 35.11 33.08 43.84 42.06 38.89 43.66 44.73 45.31 44.97 45.24 44.23 44.15 42.35 41.71 41.72 42.01 42.50 42.43 42.95 43.67 43.26 43.29 44.13 44.34 43.28 41.46 40.85 42.05 41.81 40.80 39.84 39.85 40.07 39.37 39.15 39.13 39.07 37.60 37.01 37.88
37.30 41.17 40.85 40.48 40.81 43.60 45.01 44.81 45.57 45.66 44.68 45.02 45.21 44.80 44.31 42.10 40.78 40.93 41.17 41.62 42.23 42.60 42.85 43.61 43.10 42.89 43.65 44.22 43.73 41.45 41.82 41.72 40.82 39.87 39.43 39.55 39.31 38.95 39.25 38.16 37.06 37.15 37.98 36.97
41.77 43.19 40.22 40.38 43.23 43.42 44.12 46.06 45.52 45.31 45.09 45.75 45.80 44.40 43.01 41.36 40.94 40.78 41.34 41.80 42.02 42.67 42.59 43.32 42.92 42.27 42.25 43.54 43.45 42.84 42.31 41.57 40.21 39.09 39.03 38.89 38.11 38.19 38.40 37.39 37.17 37.84 36.89 36.28
42.76 42.23 40.78 41.30 43.68 43.81 44.34 45.25 46.38 45.00 45.10 44.45 44.26 43.28 42.24 41.49 40.94 41.21 41.37 41.86 42.47 42.83 43.27 43.57 42.72 42.40 42.43 43.29 43.02 43.25 42.10 41.13 39.19 38.79 38.61 38.12 37.89 37.17 36.08 36.00 37.03 37.68 38.24 38.67
43.87 42.22 40.08 39.58 44.51 44.71 44.39 45.97 46.45 44.41 43.38 43.58 42.34 41.49 42.36 42.11 41.23 42.03 41.93 42.86 43.02 42.86 43.46 43.02 43.07 42.84 42.71 42.76 42.48 42.49 42.04 40.82 38.84 37.66 38.04 37.42 37.03 35.50 35.11 36.00 36.84 39.14 39.88 40.78

GFSCGP_sfc_wetblb_072.txt.gz
Wetbulb
53.52 50.35 48.67 50.48 52.95 53.64 52.73 50.76 49.46 49.44 51.47 51.69 50.49 49.96 52.19 54.35 51.05 50.47 49.23 49.68 50.06 53.04 55.34 55.82 54.91 53.69 51.66 50.75 50.14 49.84 49.45 48.24 48.48 47.49 47.56 47.31 47.30 48.15 48.41 49.36 49.25 48.93 48.76 48.99
50.20 47.89 53.51 55.17 54.10 52.96 52.60 50.62 49.63 50.15 48.82 48.13 48.84 49.07 52.51 53.61 50.98 49.81 49.34 48.75 49.87 50.05 52.67 52.71 52.79 51.61 50.23 49.66 49.67 49.51 49.31 48.75 49.20 48.98 48.92 49.00 48.49 49.19 49.39 50.32 49.26 49.28 48.80 48.54
48.28 51.09 54.90 53.88 53.36 51.77 51.42 48.93 49.30 47.94 47.79 49.93 47.90 43.70 46.73 48.98 49.71 50.27 49.43 49.67 50.20 50.27 50.67 51.42 50.59 50.12 49.85 48.99 49.25 49.34 49.04 49.16 49.46 49.85 49.71 49.38 49.47 48.96 48.28 48.22 48.59 49.53 49.32 48.27
50.42 52.86 52.38 53.57 51.25 51.64 47.25 52.18 51.46 49.65 45.06 40.94 45.29 35.53 43.20 45.89 46.78 47.48 47.81 48.44 49.12 50.06 51.24 51.90 50.72 49.56 49.32 49.60 50.06 50.07 49.88 49.31 49.91 50.24 49.08 48.21 47.59 46.42 48.34 48.76 49.33 49.09 48.63 47.64
49.27 48.79 50.08 49.63 50.81 52.93 48.40 50.75 49.34 49.16 44.30 41.67 41.64 36.86 40.11 44.96 44.43 44.44 46.33 47.67 47.72 49.63 50.81 50.52 49.97 50.25 50.33 50.40 49.88 49.91 49.50 49.20 49.35 49.16 49.38 48.69 48.04 48.66 49.25 48.32 47.35 47.05 47.23 47.39
48.93 52.00 51.71 51.30 49.50 49.71 49.99 47.65 46.80 45.76 42.09 34.40 40.62 39.09 37.86 40.15 41.13 43.56 45.70 46.37 47.33 47.66 49.01 50.22 50.43 50.59 50.08 50.72 50.72 50.11 49.28 49.01 49.18 48.97 48.58 48.41 47.65 47.70 47.22 47.43 45.97 45.92 45.86 45.92
46.00 46.73 49.37 50.95 46.73 49.50 47.93 43.27 36.44 34.44 33.42 33.54 41.37 38.50 37.93 41.59 43.65 44.82 44.78 44.90 46.26 47.00 48.27 48.12 48.16 48.13 48.85 49.00 49.32 50.09 49.52 48.84 48.78 48.07 48.30 48.07 48.23 47.53 46.05 45.35 44.24 43.77 43.44 43.52
40.90 37.89 45.82 49.65 47.29 44.47 44.33 43.07 36.77 30.96 32.48 35.41 41.66 34.92 36.30 43.50 45.59 46.31 46.67 46.10 46.50 46.74 47.54 47.73 47.81 47.53 47.32 48.54 48.77 49.20 48.53 47.97 48.52 48.01 47.63 47.58 46.94 45.54 44.84 44.03 43.60 42.91 42.68 43.02
41.60 39.65 45.72 46.86 47.97 46.19 44.01 39.41 44.45 38.46 38.21 33.52 37.55 38.06 40.50 43.52 43.99 44.99 44.63 45.11 44.98 45.66 45.85 46.16 46.67 46.74 46.70 46.46 46.56 46.94 47.32 47.51 47.28 46.80 46.39 45.09 44.23 44.13 43.60 43.34 42.90 42.92 43.27 44.82
43.84 37.45 44.85 44.90 47.08 47.02 44.86 45.57 38.23 38.17 30.85 29.12 35.99 35.79 35.47 38.85 40.76 43.16 42.59 42.36 43.77 44.97 44.79 44.90 45.03 45.28 45.18 45.30 45.30 45.42 45.58 45.03 45.11 44.71 44.14 44.22 43.62 43.83 43.38 42.71 42.20 42.23 42.21 42.32
44.75 42.48 39.93 43.85 42.36 42.30 41.54 40.51 40.84 39.62 37.91 30.97 29.43 32.13 40.67 40.68 41.75 41.51 41.95 43.28 43.83 44.01 43.93 43.88 44.03 44.78 45.24 45.08 44.44 44.13 44.09 43.98 43.74 44.03 43.60 42.79 42.71 42.87 42.47 41.95 42.09 41.90 41.46 40.80
44.75 41.95 37.55 39.48 42.19 43.84 43.15 42.13 41.93 34.98 33.68 35.35 32.50 31.56 42.47 42.45 43.06 43.46 42.81 44.39 44.18 44.67 44.53 44.32 44.42 44.25 44.18 44.20 44.25 43.61 43.37 42.90 43.24 43.47 42.42 42.10 42.41 42.28 41.25 41.06 40.96 40.87 39.31 39.51
42.75 40.19 34.18 35.03 38.28 40.52 39.20 42.08 42.62 40.72 38.30 33.52 29.13 31.89 42.29 41.83 41.70 42.78 42.29 42.98 43.75 44.37 44.41 44.38 44.01 43.34 43.02 42.75 42.79 42.93 43.16 42.83 43.13 42.73 41.44 41.39 41.21 41.00 40.40 39.80 39.51 39.01 38.40 38.00
43.42 41.29 38.21 33.88 37.34 40.37 37.15 39.83 40.55 38.59 32.22 33.78 34.47 35.71 38.40 40.12 40.84 41.44 42.10 43.15 43.06 43.94 44.48 43.88 42.75 41.79 41.55 41.63 41.70 42.05 42.23 42.76 42.58 42.09 40.76 40.12 40.32 40.07 39.11 38.84 38.42 38.38 38.47 37.91
42.09 38.31 38.74 38.74 39.68 39.68 39.33 39.82 39.31 37.14 37.49 33.01 36.73 37.38 39.66 40.71 40.95 41.71 42.99 43.63 43.24 43.54 44.20 42.90 41.57 40.48 40.31 40.44 40.84 41.40 41.55 41.85 41.53 40.72 40.23 39.96 39.88 39.08 38.30 37.87 38.00 37.97 37.67 37.88
41.96 37.79 38.38 36.99 39.76 39.47 37.99 39.78 39.49 39.57 39.32 38.27 38.43 36.85 41.76 42.15 41.75 41.37 41.63 42.81 42.04 41.88 42.54 42.34 41.79 41.02 40.72 40.04 40.03 40.62 40.64 40.73 40.75 39.72 39.49 39.85 38.72 38.20 37.67 37.48 37.14 36.48 36.26 36.33
39.60 38.41 36.65 34.00 39.68 39.29 35.23 39.28 40.20 40.29 40.54 38.79 34.28 37.98 41.13 39.60 41.29 40.36 40.44 42.53 42.20 41.39 41.02 40.45 40.06 40.15 40.23 40.27 40.91 39.24 39.53 40.18 39.39 39.10 38.73 38.11 38.07 37.53 37.12 36.79 36.28 35.32 35.04 35.19
39.95 39.34 38.21 34.26 36.71 27.41 36.87 40.93 41.49 41.46 41.54 41.12 40.94 41.27 41.35 40.90 41.08 41.58 43.04 41.76 40.47 40.71 40.30 39.78 39.46 39.67 40.13 40.53 40.45 39.94 39.93 39.08 39.02 37.76 37.26 37.65 37.08 36.27 36.20 35.62 35.02 34.48 34.87 34.91
41.53 40.55 35.36 32.60 31.64 36.82 36.30 38.53 38.28 36.43 37.09 41.95 40.15 41.67 41.73 42.62 41.05 38.63 42.04 41.47 40.07 39.30 39.14 39.08 39.57 39.91 39.42 39.60 40.08 39.32 38.74 38.61 38.02 37.02 36.53 36.69 36.40 35.51 35.47 34.94 33.95 34.07 34.87 33.78
41.36 40.34 36.56 33.22 29.95 26.47 36.11 39.50 42.31 40.96 30.11 41.19 41.78 41.26 40.71 40.68 32.28 34.74 40.50 40.97 40.11 40.14 40.41 39.73 39.96 40.17 39.13 39.43 39.47 38.35 37.73 37.09 36.46 36.89 37.03 36.89 36.41 35.72 35.38 34.31 33.50 34.52 34.12 35.41
35.32 34.94 31.77 32.63 30.86 34.92 39.27 40.69 42.17 28.80 33.34 41.46 41.69 41.39 41.09 37.73 37.46 39.01 40.52 39.94 40.12 39.75 39.71 39.94 39.36 38.60 38.96 39.60 39.29 37.63 37.03 36.05 37.60 38.08 37.63 36.89 36.38 35.79 35.19 33.81 34.44 33.79 34.71 36.32
35.18 33.68 31.37 32.48 29.28 26.97 41.44 39.64 34.86 39.70 40.77 42.38 40.69 41.60 41.59 39.97 40.09 39.80 39.82 39.15 39.42 38.71 39.50 39.82 38.37 38.37 39.18 39.62 38.67 37.38 36.13 38.28 38.02 37.56 36.92 36.10 35.71 36.41 37.32 33.12 33.17 33.78 35.27 35.89
33.17 38.29 35.81 36.89 36.09 41.26 41.87 40.99 42.47 43.44 42.35 40.61 41.32 41.45 42.13 40.13 39.02 39.17 38.47 37.59 38.44 38.08 39.13 39.81 38.43 38.41 38.86 39.07 38.67 36.86 37.68 38.61 37.57 36.21 35.15 35.06 35.54 35.54 34.36 32.64 32.80 33.71 35.21 35.90
38.63 40.86 36.06 36.28 39.38 40.02 41.93 42.56 43.42 42.66 41.79 43.16 43.24 41.69 41.16 38.56 38.69 37.91 38.32 38.22 38.25 38.96 38.86 39.68 38.94 38.14 37.77 39.02 39.52 38.62 38.80 38.43 36.72 34.88 34.30 34.60 34.22 34.73 32.73 33.83 34.45 34.24 35.52 35.98
38.56 39.21 37.26 36.65 39.25 40.05 41.23 42.42 43.28 43.07 42.92 42.51 42.54 41.35 39.87 39.30 38.56 37.98 38.05 38.49 38.86 39.06 39.55 39.57 38.55 38.25 38.44 39.08 38.81 38.93 39.07 37.72 35.64 34.51 34.28 34.64 34.34 32.52 31.41 33.38 34.38 36.41 37.68 37.66
40.42 38.60 35.20 34.87 40.44 40.56 40.01 43.28 44.19 41.94 41.51 41.42 40.08 38.99 39.85 39.11 38.53 38.72 38.27 39.00 39.08 38.67 39.37 38.86 38.84 38.65 38.60 38.87 38.55 38.77 39.05 37.49 35.40 34.07 34.50 34.37 33.21 31.57 32.76 33.53 35.11 38.97 39.19 39.73

GFSCGP_sfc_wetblb_075.txt.gz
Wetbulb
49.61 45.38 43.51 47.86 49.71 50.03 48.26 45.71 45.43 47.72 53.48 51.15 50.09 49.89 51.00 51.97 50.71 49.75 49.13 47.85 46.19 50.58 53.63 55.39 52.73 51.13 49.58 48.86 48.13 48.17 47.02 45.41 45.74 44.79 44.81 44.67 45.31 45.58 45.88 46.82 47.22 47.31 47.25 47.47
45.55 42.85 49.21 52.24 52.38 50.81 49.55 46.70 45.44 46.71 48.53 46.10 47.15 46.73 49.85 51.83 51.32 49.16 48.84 48.30 47.88 45.74 49.89 51.48 50.85 48.84 48.39 47.01 47.59 47.42 47.03 46.01 46.41 46.52 46.01 45.90 45.16 45.96 46.29 47.25 46.95 47.67 47.14 47.06
42.65 47.19 52.24 51.30 50.16 48.88 48.66 45.73 44.81 45.39 46.82 46.85 46.02 42.87 45.03 48.26 47.58 48.41 48.14 49.04 48.76 48.70 48.27 47.82 47.69 47.52 46.95 45.91 46.23 47.27 46.94 46.16 47.23 47.68 47.08 46.68 46.83 46.46 46.22 46.13 46.44 47.23 47.54 47.15
45.58 50.51 50.30 49.34 48.77 50.52 45.06 50.01 49.21 44.66 41.84 37.13 44.33 33.03 38.44 42.87 43.34 44.40 44.94 45.18 46.33 47.77 47.86 48.86 47.66 46.84 46.56 46.61 47.01 47.11 47.08 46.72 48.00 47.66 47.20 46.22 45.52 44.43 45.31 45.67 46.79 47.17 47.51 46.26
45.79 47.58 47.21 47.86 49.65 50.11 46.62 49.49 47.63 45.61 41.26 37.36 37.87 33.56 35.79 40.97 39.45 40.75 42.49 44.78 45.69 46.63 47.45 48.08 47.67 47.53 47.38 47.26 47.12 47.28 46.78 46.51 47.02 46.86 47.07 46.34 45.42 45.78 46.52 46.20 45.73 45.07 45.56 45.94
48.19 51.46 49.25 46.41 48.39 49.67 48.70 45.19 43.68 40.87 37.55 30.60 36.56 35.56 33.13 36.65 38.43 39.89 41.41 43.34 45.24 46.19 46.34 46.61 47.15 47.37 47.03 46.93 47.09 46.99 47.05 46.74 46.29 45.98 46.54 46.22 45.36 45.08 44.92 44.80 43.76 43.70 43.39 43.59
44.67 44.43 47.28 49.82 44.14 46.92 44.82 39.16 31.54 30.36 28.76 28.67 37.36 34.73 34.30 38.29 40.63 41.47 41.51 42.05 43.92 44.09 43.96 44.78 45.08 45.57 46.48 46.59 47.00 47.95 47.29 46.83 46.77 45.60 45.21 45.23 45.46 44.68 44.49 43.34 41.79 41.23 41.21 41.28
36.88 35.12 43.40 48.29 45.29 40.84 41.18 38.37 32.48 28.31 27.77 31.62 38.11 30.97 34.40 40.71 42.46 42.92 43.26 43.09 43.57 43.62 43.65 44.08 44.58 44.27 44.73 45.79 45.62 46.59 46.39 46.13 46.08 45.12 45.08 45.04 44.81 43.93 43.25 42.38 41.37 40.58 40.62 40.86
38.42 36.13 44.12 45.33 46.21 44.68 40.72 36.53 41.25 34.44 34.02 29.52 32.84 33.34 37.63 40.82 41.74 41.49 41.44 42.28 42.23 42.67 42.45 42.60 42.96 42.89 42.79 43.08 43.23 44.00 44.59 44.47 43.74 42.53 42.00 41.21 41.29 41.79 41.47 41.29 40.64 40.74 40.84 43.26
41.04 33.59 41.77 43.70 44.35 43.39 40.74 42.59 34.54 33.37 26.80 25.14 31.26 29.64 31.46 36.05 38.51 40.22 39.69 39.65 40.98 41.88 41.68 41.73 41.92 42.33 42.41 42.43 42.23 42.76 42.82 42.25 42.09 42.00 41.47 41.53 40.84 40.82 40.32 39.91 39.75 40.01 40.01 40.25
40.88 39.26 36.79 40.39 38.42 38.31 37.84 36.93 37.09 36.18 33.90 28.03 25.62 29.02 36.75 37.54 39.86 39.20 39.20 40.48 41.12 41.07 40.98 41.05 41.53 42.03 42.42 42.15 41.86 41.74 41.92 42.08 41.70 42.01 41.01 40.42 40.26 40.42 39.98 39.50 39.35 39.04 38.55 37.95
41.70 37.47 32.57 35.28 38.40 40.57 39.08 38.07 37.44 30.96 30.67 31.50 28.27 28.98 38.88 39.89 40.76 41.28 39.73 41.50 41.05 41.56 41.36 41.34 41.03 40.58 40.77 40.75 41.02 40.90 41.08 40.87 41.42 41.44 40.51 39.80 39.64 39.42 38.67 38.33 37.97 37.80 36.93 37.21
40.16 36.22 29.50 31.16 34.76 36.75 35.10 38.59 39.32 37.07 33.37 30.31 26.44 29.84 39.12 38.85 39.07 40.19 39.59 40.22 41.24 41.76 41.99 41.11 40.27 39.05 38.91 39.11 39.32 39.71 39.86 40.03 40.47 40.14 39.33 38.99 38.94 38.51 37.57 36.88 36.83 36.78 36.30 36.17
42.05 36.15 33.33 30.32 32.55 35.28 32.36 36.43 37.97 34.86 28.06 28.53 29.99 31.85 35.15 37.61 38.49 39.00 39.42 40.14 40.54 41.68 41.98 40.37 38.81 37.86 38.20 38.39 38.67 39.07 39.42 39.71 39.98 39.40 38.26 37.85 37.56 37.26 36.51 36.33 36.18 36.09 36.02 35.27
38.40 33.61 34.36 35.22 36.62 36.73 36.36 37.36 36.82 34.23 33.71 30.28 33.03 34.00 36.25 37.62 38.43 39.23 40.35 40.32 40.17 41.06 41.03 39.80 38.46 37.56 37.30 37.42 37.80 38.50 38.70 39.04 38.88 38.41 37.79 37.40 37.37 36.50 36.03 35.71 35.58 35.49 35.25 35.54
38.11 33.82 34.37 33.36 37.31 36.84 35.75 37.56 37.09 36.48 36.27 34.82 34.95 33.73 37.81 38.05 38.61 38.08 39.20 40.18 39.90 39.38 39.62 39.49 39.40 38.71 38.24 37.53 37.27 37.83 37.67 37.89 37.58 37.04 37.30 37.52 36.79 36.09 35.32 35.04 34.90 34.39 34.03 33.80
35.71 34.10 32.60 29.77 36.68 36.08 32.07 35.99 36.94 37.25 37.60 37.30 32.50 35.87 37.90 37.40 39.02 37.76 38.45 39.98 38.83 38.15 38.20 38.11 37.82 37.72 37.95 37.97 38.63 37.06 36.73 37.29 37.19 36.96 36.52 36.28 35.73 35.29 34.89 34.78 34.28 33.72 32.93 32.50
36.20 35.30 34.12 28.55 32.81 25.06 34.93 38.03 38.87 38.67 40.00 38.91 38.59 38.98 39.74 39.09 38.75 38.59 38.76 37.73 37.25 37.83 37.41 37.09 36.94 37.29 37.70 38.04 38.44 37.66 37.55 36.67 36.84 36.06 35.43 35.11 34.99 34.59 34.46 33.83 33.37 32.56 32.18 31.91
37.85 36.28 31.61 28.50 27.42 33.36 34.30 36.56 35.67 34.27 34.44 39.67 38.57 39.36 39.57 40.31 38.23 35.87 38.33 38.10 37.16 36.82 37.18 36.96 37.35 37.83 36.95 37.00 37.57 37.46 36.81 36.62 36.12 35.59 34.26 34.96 34.83 33.99 33.81 33.15 32.67 32.26 31.08 30.90
38.49 36.61 33.57 29.02 24.54 22.79 33.06 36.79 39.58 37.46 26.76 38.60 39.91 38.65 38.29 37.72 30.29 32.33 37.09 38.18 37.58 38.05 38.33 37.68 37.89 37.90 36.69 37.33 36.90 36.37 36.24 35.44 34.97 35.31 35.44 35.36 34.95 34.27 33.48 33.00 32.14 30.99 31.75 32.75
31.53 30.27 27.40 27.50 23.34 30.47 37.22 37.95 39.53 25.85 28.04 38.39 39.76 39.01 38.05 35.44 35.10 36.60 37.89 37.67 38.16 37.91 38.44 37.95 36.47 36.02 36.46 37.20 37.01 36.06 35.51 34.67 36.15 36.38 36.19 35.72 35.04 34.09 33.67 32.41 30.45 31.56 31.52 32.29
30.78 26.79 26.06 27.63 24.14 24.50 38.35 37.02 31.65 34.58 37.70 39.42 38.80 38.25 37.60 36.91 37.34 37.37 37.76 37.53 38.00 37.71 37.75 37.50 36.48 36.49 37.13 37.23 35.99 35.29 34.40 36.68 36.92 36.09 35.49 34.62 34.03 34.83 36.02 30.46 30.93 30.98 30.76 31.61
29.72 34.76 31.57 31.16 30.72 37.65 38.06 37.18 39.33 40.42 39.16 37.95 38.85 38.76 38.48 37.21 36.75 37.41 36.36 36.61 37.21 37.29 37.32 38.06 36.80 36.49 36.90 37.05 36.68 35.31 36.24 37.02 36.44 34.57 33.67 33.31 33.51 33.79 31.95 30.80 30.26 30.99 32.00 32.73
34.16 36.95 32.77 32.92 34.80 37.47 39.01 39.30 40.80 40.52 40.05 40.48 40.00 39.68 38.44 36.18 36.89 36.42 36.21 36.25 36.45 37.07 37.16 37.75 36.89 36.37 36.06 36.92 37.37 36.64 36.89 37.06 35.20 33.38 32.80 32.60 32.51 33.91 30.86 31.58 32.12 32.10 33.27 35.47
34.79 35.08 33.22 31.91 34.64 35.93 38.29 38.96 40.18 40.49 40.82 40.46 39.71 39.17 37.76 37.10 36.43 36.33 36.20 36.67 36.92 37.02 37.52 37.69 36.85 36.25 36.32 37.12 37.15 37.25 37.50 36.31 34.31 32.98 32.75 32.63 33.16 31.03 29.91 31.15 31.99 34.57 37.07 37.91
35.87 34.87 31.23 30.89 36.13 36.41 36.61 39.44 40.87 39.52 39.12 39.15 38.08 36.95 37.80 37.41 36.82 36.97 36.35 36.90 37.08 36.89 37.61 37.00 36.56 36.51 36.73 37.03 37.13 37.48 37.63 35.99 34.05 33.06 32.72 32.47 32.60 30.30 30.59 31.44 32.80 38.03 38.91 39.09

GFSCGP_sfc_wetblb_078.txt.gz
Wetbulb
47.20 42.98 41.45 45.93 49.47 47.64 46.29 44.77 44.09 46.24 51.24 48.72 46.10 48.22 51.05 53.26 52.41 51.86 50.86 47.29 47.09 50.85 52.92 55.17 56.14 51.50 49.35 48.23 48.23 47.13 46.32 45.10 45.60 44.01 43.64 43.23 43.80 43.97 44.38 45.48 47.02 46.38 46.20 46.39
44.87 40.88 47.31 51.31 51.66 49.38 47.56 44.24 42.99 44.47 51.74 48.36 48.35 48.55 51.79 52.28 51.04 51.17 48.65 47.29 45.73 46.01 51.13 50.24 51.82 47.91 49.42 47.77 47.76 45.89 46.42 44.96 44.89 45.17 44.24 44.29 43.61 43.90 44.57 45.47 45.22 46.10 45.91 45.90
41.39 45.36 50.67 49.75 49.38 47.82 46.93 44.60 43.30 43.03 45.98 45.27 43.96 41.97 44.30 48.00 47.44 47.38 47.76 46.87 46.76 45.98 49.07 47.26 47.64 47.91 45.96 45.92 46.02 45.73 45.17 45.06 45.12 45.43 45.35 45.30 45.46 45.08 44.85 44.93 44.78 45.38 45.80 45.65
44.02 48.41 48.80 47.12 47.18 48.60 44.39 49.07 48.18 45.91 42.52 38.92 43.81 34.80 36.74 41.01 42.06 44.11 43.68 43.47 44.35 44.57 47.76 47.42 46.21 45.08 46.03 46.09 46.76 46.64 45.87 45.54 46.11 45.74 45.81 45.23 44.62 43.61 44.04 44.42 45.13 45.83 45.85 45.39
42.82 45.72 45.74 45.70 47.36 49.34 46.32 48.87 47.71 46.22 41.04 36.96 37.02 33.51 35.53 38.65 38.04 40.17 40.47 41.77 42.30 43.56 46.12 46.76 45.29 45.58 45.42 45.14 45.10 45.31 44.93 44.79 45.54 45.01 45.96 45.12 43.83 44.22 44.81 45.17 44.80 44.18 44.30 44.01
45.03 49.69 48.31 45.99 47.98 48.91 48.54 43.88 42.64 40.98 37.16 31.46 36.29 35.30 33.34 35.89 37.74 38.48 39.50 41.29 42.57 43.55 43.94 45.85 45.24 45.20 44.92 44.51 44.60 44.65 44.56 44.76 45.10 45.00 44.69 44.70 44.28 44.39 44.17 43.29 43.19 42.57 42.35 42.30
43.24 44.71 47.16 49.33 43.71 46.34 44.62 40.95 32.38 30.25 28.65 29.11 35.40 33.60 36.16 36.44 38.96 40.48 40.81 40.03 41.45 40.75 42.03 43.41 43.89 43.85 44.49 44.73 44.93 45.59 45.41 45.14 44.41 44.05 44.19 44.02 43.52 42.33 42.59 42.56 41.02 40.32 40.29 40.37
37.66 34.67 42.97 47.77 44.22 41.91 41.86 41.81 32.55 27.20 26.33 30.17 35.67 30.69 34.21 38.09 40.45 41.41 41.84 41.50 41.37 41.36 41.24 41.92 42.51 42.60 43.21 44.09 44.35 45.06 44.73 43.98 43.88 43.62 42.80 42.94 43.68 42.90 41.86 40.76 40.05 39.69 39.75 39.73
38.99 37.11 43.94 45.73 46.92 44.23 39.72 37.18 39.72 33.21 30.83 28.61 31.23 31.98 36.44 38.86 39.03 39.54 39.86 40.60 40.29 40.19 40.33 40.88 41.32 41.43 41.34 41.61 42.04 43.45 43.28 42.01 41.45 40.83 40.56 39.78 40.12 40.52 40.25 39.61 38.97 39.12 39.17 41.84
38.42 33.31 40.74 43.12 44.61 45.42 40.99 43.27 34.72 32.70 26.41 23.87 27.99 28.01 30.97 35.08 36.69 38.38 38.47 38.61 39.28 39.60 39.60 39.93 40.62 41.07 40.81 40.86 40.65 41.10 41.52 41.29 40.56 40.51 40.15 39.90 38.99 39.22 39.13 38.77 38.32 38.30 38.20 38.14
38.98 36.97 35.88 39.69 38.50 39.56 39.36 38.13 37.78 36.41 31.67 26.61 24.22 28.75 34.80 37.09 38.65 37.92 38.18 39.14 39.62 39.71 39.67 39.78 40.08 40.40 40.57 40.36 40.43 40.55 40.78 40.93 40.79 40.67 39.59 38.91 38.47 38.63 38.03 37.62 37.27 37.03 36.61 36.28
39.53 37.00 31.64 34.96 38.29 39.90 39.01 37.14 35.92 30.84 29.56 28.40 25.91 28.15 36.60 38.10 40.39 40.46 38.74 40.05 40.03 40.57 40.71 40.53 39.67 39.35 39.31 39.08 39.28 39.03 39.41 39.28 39.44 39.57 38.56 38.48 38.70 38.21 37.00 36.92 36.54 36.25 35.72 35.93
38.94 35.31 29.42 31.92 34.49 36.09 34.66 37.22 36.95 34.38 31.49 28.26 24.82 28.92 37.35 36.56 37.97 39.21 38.38 38.81 39.65 40.19 39.85 39.01 38.12 37.31 37.01 37.03 37.67 38.03 38.60 38.71 39.00 38.85 38.15 37.77 37.27 36.74 36.13 35.58 35.55 35.42 34.87 34.66
42.62 36.85 32.69 29.14 31.61 33.57 30.84 34.72 36.09 33.59 28.01 28.31 29.22 30.66 33.77 35.70 37.26 37.83 38.28 38.99 39.58 40.35 39.76 38.18 36.50 36.01 36.19 36.59 37.18 37.52 37.71 38.18 38.52 38.16 37.07 36.32 36.08 35.89 35.15 34.84 34.52 34.49 34.48 33.85
38.39 33.59 32.95 34.45 35.71 35.32 34.45 35.27 35.51 33.01 32.01 29.97 31.39 32.61 35.61 36.42 37.42 39.02 39.75 38.92 38.67 39.23 39.25 38.04 36.47 35.42 35.32 35.96 36.41 37.00 37.15 37.14 36.89 36.65 36.32 36.19 36.09 35.20 34.35 34.14 34.30 34.12 33.78 34.03
36.40 33.40 33.21 31.92 35.96 35.61 34.02 35.81 35.75 35.10 34.93 33.11 33.78 33.55 36.39 37.04 36.46 36.97 37.77 38.80 38.18 37.97 38.26 37.90 37.45 36.91 36.74 36.27 36.15 36.71 36.38 36.81 36.44 36.01 36.22 36.31 35.31 34.64 34.03 33.91 33.76 33.19 33.22 32.92
33.97 33.30 31.90 28.23 35.08 35.32 32.03 35.27 35.74 35.64 35.95 35.92 31.54 34.82 36.28 35.58 37.48 37.13 37.31 38.21 37.62 36.97 36.56 36.37 36.37 36.52 36.75 36.80 37.48 36.42 36.21 36.10 35.57 35.65 35.77 35.12 34.31 34.31 34.06 33.73 33.17 32.86 32.15 31.60
34.05 34.42 33.05 28.09 31.31 24.51 34.07 36.79 37.60 37.12 38.19 37.20 37.07 37.06 37.71 37.29 35.75 35.65 36.19 36.62 35.95 36.15 35.73 35.68 35.85 36.14 36.31 36.50 36.84 36.36 36.13 35.57 35.84 35.29 34.69 34.16 33.97 33.75 33.57 32.88 32.49 31.62 31.16 30.42
37.06 35.03 30.12 26.53 26.41 32.18 33.91 35.35 34.68 34.93 34.36 38.86 37.44 37.86 37.53 37.00 35.58 34.32 36.80 36.47 35.45 35.30 35.54 35.66 36.05 36.59 35.58 36.02 36.35 36.04 35.61 35.63 35.23 35.07 34.15 33.94 33.97 33.21 32.95 32.32 31.84 31.34 29.73 29.87
36.70 35.92 32.79 27.93 24.67 23.17 31.94 35.89 38.33 34.52 26.79 37.73 39.11 37.36 36.72 36.24 30.21 31.94 35.37 36.29 36.02 36.66 36.93 36.45 36.48 36.41 35.73 36.20 35.56 34.99 35.03 34.30 34.17 34.87 34.76 34.47 34.07 33.29 32.64 32.25 31.17 29.84 30.53 31.47
30.58 29.14 27.98 27.60 24.10 30.19 35.82 36.71 37.68 26.29 28.34 36.83 38.44 37.08 36.58 34.61 33.93 34.75 36.21 35.90 36.51 36.63 37.20 36.76 35.53 35.48 35.69 36.05 35.45 34.83 34.18 34.00 35.70 35.69 35.07 34.62 34.04 33.10 32.87 31.30 29.44 30.40 30.23 30.37
30.95 26.76 25.57 26.56 24.15 25.29 37.41 36.08 31.16 32.84 35.54 37.37 37.05 37.07 36.63 34.69 35.46 35.81 36.17 36.17 36.79 36.86 37.20 36.57 35.51 35.60 36.12 36.05 34.87 34.61 33.89 36.15 35.87 35.23 34.39 33.58 32.98 33.78 34.46 29.65 29.94 29.92 29.19 29.59
29.84 33.67 30.30 31.09 31.03 36.93 36.95 34.54 36.46 38.63 37.80 36.16 37.58 36.37 36.60 35.48 35.21 35.84 35.10 35.57 36.16 36.25 36.21 36.56 35.18 35.16 35.82 35.71 35.01 34.27 35.41 35.96 35.78 33.66 32.75 32.33 32.54 32.68 31.19 29.86 29.34 29.22 30.55 31.24
33.41 35.32 32.72 32.32 34.00 36.17 37.69 37.45 38.83 39.45 38.79 38.86 38.70 37.26 36.69 35.03 35.52 34.92 34.95 35.03 35.12 35.72 35.77 36.30 35.90 35.25 34.86 35.63 36.19 35.57 35.84 36.21 34.37 32.58 31.89 31.88 31.62 33.68 30.43 30.62 30.55 30.20 31.25 34.13
34.12 34.13 32.66 31.15 33.78 34.32 37.43 37.59 39.38 39.15 39.72 38.55 38.27 37.34 36.18 35.72 34.93 34.97 34.86 34.95 35.46 35.78 36.37 36.38 35.17 34.91 35.38 36.00 36.12 36.33 36.47 35.64 33.70 32.20 32.01 31.72 32.24 30.54 29.37 30.25 30.55 32.94 34.17 37.31
34.54 34.27 31.59 32.06 35.31 35.05 34.58 37.32 39.74 38.64 38.38 37.59 36.47 35.44 36.15 36.01 35.59 35.67 34.79 35.47 35.84 35.58 35.84 35.43 35.52 35.30 35.52 35.72 35.68 36.42 36.67 35.23 33.22 32.31 31.88 31.73 31.31 29.91 30.20 30.40 31.44 36.84 38.20 39.16

GFSCGP_sfc_wetblb_081.txt.gz
Wetbulb
44.44 41.10 39.17 41.93 45.45 45.98 44.63 43.77 42.37 44.50 48.95 46.82 46.17 46.89 48.77 52.89 52.88 52.39 52.21 49.88 47.74 49.56 53.79 57.91 57.85 53.13 49.19 48.20 47.25 47.09 45.86 44.11 44.62 42.49 42.33 41.88 42.64 42.44 42.93 43.81 45.34 44.99 45.41 45.80
41.67 37.82 44.18 47.69 50.19 47.90 45.85 45.20 42.47 43.89 50.24 46.32 45.33 45.55 49.60 51.45 51.10 50.43 51.17 48.63 46.06 48.19 51.96 54.09 51.95 48.09 50.05 47.68 47.45 45.57 46.27 44.20 44.07 43.62 42.51 42.77 42.39 42.46 43.31 44.44 44.92 45.06 44.81 44.94
39.03 43.69 48.94 49.39 49.24 47.26 45.07 42.95 41.92 43.41 45.92 44.45 44.99 42.72 45.15 47.67 49.36 47.16 46.02 45.64 45.45 46.44 50.19 49.72 47.84 46.70 45.41 45.15 46.16 46.35 44.61 44.44 44.12 44.31 44.55 44.21 45.38 44.09 43.94 43.75 44.02 44.28 44.89 44.56
42.89 47.05 47.22 46.01 46.01 47.86 42.36 48.03 46.46 44.75 42.28 38.46 43.03 35.90 38.62 40.34 43.12 42.77 42.18 42.45 43.00 44.37 47.60 47.32 46.91 45.35 45.12 45.22 45.29 45.33 44.65 44.09 44.61 44.53 44.79 44.45 43.97 43.01 43.40 43.79 43.93 44.28 44.22 43.77
40.68 44.51 43.76 44.30 45.86 48.40 44.88 48.73 46.94 44.92 40.81 38.09 37.13 35.09 37.45 37.17 38.25 39.94 40.07 41.07 41.74 43.01 45.05 44.62 44.28 46.71 44.37 44.60 44.54 43.90 43.43 43.50 43.74 43.69 44.13 43.73 42.78 42.50 42.70 43.80 44.23 43.98 43.62 43.87
43.49 48.21 46.73 44.97 46.51 48.45 47.59 43.22 41.90 40.49 38.36 32.15 37.31 37.45 36.16 35.81 38.31 38.12 38.59 40.21 41.68 42.59 42.63 43.57 43.15 43.88 43.60 43.22 43.35 43.03 42.95 42.58 43.05 43.01 43.32 43.34 42.60 42.53 43.10 42.64 42.42 41.62 41.43 41.34
42.80 43.37 45.73 48.02 42.85 45.26 43.99 39.77 31.22 30.67 32.74 31.57 35.65 34.75 38.70 37.28 37.92 39.47 40.20 38.18 39.29 39.69 40.58 41.89 42.07 42.28 42.94 42.91 43.37 43.60 43.36 43.00 42.90 42.91 43.04 42.90 42.51 41.37 41.47 41.51 41.12 40.02 39.61 39.54
37.11 35.71 42.04 46.33 43.15 40.42 40.64 40.36 31.79 27.31 25.99 29.98 35.15 30.57 35.36 37.22 39.15 39.87 40.61 39.45 39.28 39.11 39.58 40.93 42.01 42.27 42.49 43.13 43.37 43.62 43.26 42.91 42.58 42.17 41.68 41.86 42.75 42.23 41.14 40.31 39.16 38.71 38.73 38.68
37.73 36.13 44.79 45.35 45.21 45.12 39.97 37.18 42.51 32.65 29.72 28.30 30.40 32.05 35.44 37.49 37.90 38.32 38.74 38.97 38.33 38.68 39.16 39.97 40.40 40.59 40.82 41.41 42.20 42.74 41.44 40.34 40.43 39.80 39.67 39.02 39.43 39.71 39.21 38.34 38.12 38.13 38.09 40.80
40.60 34.74 41.38 43.71 44.92 43.43 41.06 45.19 35.73 33.78 26.94 24.81 27.08 27.55 31.19 33.92 35.83 37.22 37.15 36.75 37.41 38.10 38.48 38.99 39.67 39.79 39.41 39.63 39.85 40.77 40.88 40.21 39.70 39.46 38.79 38.67 37.95 38.18 37.93 37.65 37.41 37.42 36.95 36.69
39.05 37.82 35.91 39.23 38.62 39.33 38.22 35.76 35.45 34.51 30.77 26.26 24.34 28.99 34.45 36.05 37.36 37.09 37.13 37.50 37.89 38.03 38.52 38.74 38.61 38.74 38.89 38.83 39.11 38.98 39.47 39.61 39.05 38.91 37.86 37.23 37.14 37.32 37.11 37.15 36.71 36.24 35.66 35.39
39.74 35.32 31.82 34.73 39.22 40.42 39.64 36.17 36.78 31.66 29.74 26.98 25.77 28.92 34.97 35.65 38.74 38.95 37.69 38.59 38.32 39.20 39.50 38.92 38.22 37.93 38.11 38.01 38.01 37.95 38.19 38.55 38.52 38.64 37.63 37.44 37.43 36.91 36.18 35.98 35.36 35.04 34.46 34.72
39.45 35.47 28.76 30.43 34.01 36.63 36.06 38.02 35.92 34.54 30.87 26.46 24.79 29.41 35.86 34.99 37.37 38.73 37.79 37.83 38.88 39.35 39.00 38.19 37.14 36.61 36.13 36.11 36.61 37.23 37.66 37.61 37.82 37.62 37.06 36.67 36.37 35.99 35.17 34.37 34.04 33.97 33.59 33.50
41.73 36.03 32.52 29.08 31.03 33.06 30.80 34.11 34.81 33.51 27.45 27.49 28.07 30.05 32.66 34.26 36.88 37.07 37.31 38.30 38.18 38.80 38.63 37.07 35.43 34.45 34.69 35.34 35.95 36.51 36.59 37.06 37.36 36.92 35.98 35.66 35.36 34.87 33.88 33.53 33.48 33.50 33.30 32.83
38.24 33.81 32.76 34.19 34.94 33.33 32.94 33.95 34.49 32.66 31.22 30.16 31.11 31.70 34.97 35.86 37.25 38.62 38.69 37.77 37.53 37.65 37.63 36.55 35.11 34.08 34.07 34.85 35.09 35.70 35.99 36.15 36.05 36.16 35.80 35.44 35.15 34.10 33.54 33.34 33.40 33.35 33.01 33.25
35.43 32.46 32.74 32.17 34.72 34.67 33.43 34.94 34.43 33.83 32.72 32.18 32.06 32.11 35.84 35.78 36.54 36.86 37.20 37.73 37.50 37.02 37.53 36.96 36.02 35.30 35.38 35.18 35.06 35.59 35.51 35.94 35.83 35.37 35.66 35.63 34.54 33.78 33.19 33.02 32.96 32.34 32.32 32.06
33.27 31.96 30.40 28.16 34.25 34.67 32.14 34.65 34.83 34.57 34.72 34.83 30.94 34.77 35.69 34.69 36.74 36.38 36.60 37.90 37.41 36.65 36.01 35.17 35.28 35.47 35.52 35.57 36.14 35.13 35.11 35.12 34.64 34.90 35.10 34.76 33.79 33.45 33.38 33.17 32.50 31.98 31.36 30.68
32.25 32.69 31.14 26.08 31.12 24.75 33.13 35.91 36.55 36.02 36.76 35.93 35.74 36.18 36.92 35.83 34.52 34.61 35.34 36.52 35.50 35.35 34.62 34.67 34.99 35.25 35.35 35.45 35.75 35.47 35.21 34.38 34.77 34.61 34.48 34.08 33.18 33.05 33.06 32.30 31.77 30.91 30.37 29.89
35.45 33.32 28.86 25.57 25.58 31.45 32.85 34.31 33.24 33.50 34.38 38.08 36.60 36.44 35.78 36.09 34.96 33.52 34.70 34.86 34.19 34.26 34.62 34.71 35.10 35.48 34.82 35.19 35.44 35.21 34.65 34.37 34.08 34.21 33.76 33.87 33.15 32.62 32.36 31.66 31.09 30.63 29.36 29.15
35.61 35.06 31.38 26.98 24.39 23.09 31.07 34.94 37.22 33.63 27.44 36.14 37.80 36.00 35.11 34.61 29.72 31.12 33.20 34.83 34.81 35.66 35.92 35.38 35.13 35.36 34.94 35.50 34.82 34.30 34.28 33.55 33.66 34.50 34.56 33.99 33.06 32.46 31.86 31.47 30.67 29.47 29.42 30.37
29.60 28.77 27.41 27.14 23.86 29.75 35.14 35.95 36.33 26.26 28.89 34.90 37.48 35.73 34.82 33.58 33.63 33.70 34.76 34.81 35.43 35.50 35.91 35.92 35.29 34.97 35.02 34.97 34.56 34.22 33.55 33.38 34.93 35.19 34.63 33.78 33.20 32.32 31.98 30.89 29.00 29.35 29.35 29.50
30.20 26.83 25.34 26.59 24.84 25.06 36.90 35.19 30.78 33.61 35.25 35.51 34.90 35.72 35.62 34.21 33.90 34.24 34.90 34.95 35.56 35.68 36.29 35.45 34.55 34.28 34.76 34.61 33.82 33.51 32.84 35.17 35.18 34.86 33.84 32.81 32.21 32.94 33.85 29.40 29.14 29.20 28.73 28.77
29.09 33.25 30.28 30.91 30.93 36.87 36.54 34.43 34.79 37.12 37.07 36.36 36.63 35.49 35.42 33.94 33.77 34.61 34.35 34.59 35.01 35.21 35.34 35.43 34.32 34.32 34.86 34.62 33.91 33.20 34.55 35.25 35.13 33.25 32.14 31.65 31.94 31.96 31.45 28.99 28.73 28.65 29.88 30.11
32.83 34.69 33.00 32.93 33.70 35.18 36.91 35.72 37.96 38.41 37.71 37.60 37.15 35.58 35.34 33.78 34.29 33.96 34.11 33.97 34.17 34.64 34.69 35.21 34.88 34.24 33.96 34.77 35.29 34.50 35.04 35.38 33.91 32.15 31.44 31.40 30.93 33.04 30.43 30.09 30.01 29.59 30.28 31.27
33.67 33.55 32.54 30.72 33.81 33.28 35.72 36.50 38.51 38.57 38.56 37.84 36.43 35.72 35.08 35.29 34.09 34.05 33.69 33.70 34.19 34.60 35.18 35.25 34.31 33.99 34.42 34.88 35.22 35.40 35.84 34.98 33.26 31.71 31.45 31.12 31.74 30.15 29.30 29.78 29.88 31.81 32.63 34.84
35.31 34.15 31.55 32.34 36.03 34.90 34.01 36.19 38.65 37.79 37.40 37.10 35.89 34.50 35.03 35.28 34.45 34.34 33.56 34.22 34.52 34.53 34.89 34.39 34.51 34.23 34.42 34.76 34.97 35.71 35.92 34.55 32.67 31.73 31.28 31.13 31.22 29.50 29.37 29.48 30.48 35.97 37.53 38.37

GFSCGP_sfc_wetblb_084.txt.gz
Wetbulb
42.64 38.76 37.45 38.66 42.90 44.01 43.02 42.41 40.95 42.92 47.50 46.70 45.81 46.20 48.53 51.66 52.45 51.66 49.24 48.75 49.11 50.92 53.42 58.01 58.72 60.06 59.69 56.68 52.04 50.27 49.34 47.85 45.62 43.23 42.48 41.67 41.69 41.45 41.88 42.44 44.19 44.45 44.93 44.77
39.15 35.91 41.57 45.22 44.80 44.38 44.98 44.11 42.52 43.50 48.26 45.12 44.59 45.45 48.54 49.99 51.43 51.99 52.31 51.66 50.70 46.87 51.33 55.82 53.23 50.02 54.32 53.25 51.37 49.22 48.04 44.93 44.42 43.85 41.90 42.16 41.38 41.55 42.33 43.20 43.45 43.81 43.88 44.50
36.91 40.93 45.13 45.36 44.71 44.92 45.51 43.68 43.45 42.81 44.80 43.78 44.39 42.17 44.47 48.51 50.00 49.88 47.23 49.31 48.02 46.83 49.55 52.16 48.80 47.65 48.02 49.53 49.03 48.07 46.46 44.65 43.71 43.22 42.94 42.79 43.42 42.59 42.45 42.54 43.08 43.85 44.05 43.90
40.47 45.05 45.02 44.52 44.18 46.03 40.49 46.71 45.46 44.81 42.16 38.16 42.37 35.22 39.92 41.86 44.50 43.41 42.30 42.81 43.89 44.42 47.72 50.11 48.09 45.17 45.72 47.96 47.16 45.01 44.58 43.62 43.85 43.56 43.67 42.96 42.90 42.23 42.45 42.66 43.04 43.28 42.87 42.86
38.75 42.81 42.49 42.88 44.01 47.34 42.82 47.64 45.04 44.07 39.39 37.39 36.46 35.92 38.52 36.69 38.87 40.73 40.73 42.26 42.05 42.26 43.86 46.83 46.65 45.60 43.83 44.07 44.17 43.95 43.17 42.84 42.83 42.47 42.90 42.49 41.65 41.58 41.65 42.12 42.37 42.57 42.75 42.84
42.39 46.97 45.65 43.58 45.56 46.81 46.38 43.20 42.08 39.31 37.28 32.25 37.95 37.58 37.58 36.24 38.03 37.37 38.83 41.18 41.16 41.44 41.98 42.65 42.90 43.25 42.67 43.05 42.92 42.21 42.26 41.65 41.88 42.02 42.15 42.14 41.34 41.30 41.95 41.89 41.98 41.33 40.76 40.47
41.19 42.01 45.08 47.63 41.82 44.39 43.74 39.84 31.66 30.77 30.72 31.58 34.37 35.04 41.38 37.45 37.10 38.61 40.07 39.75 38.08 38.16 40.26 40.25 40.81 41.38 42.00 42.38 42.40 42.39 41.82 41.49 41.55 41.53 41.87 41.98 41.67 41.00 41.42 41.21 40.79 39.80 38.92 38.69
35.95 33.36 40.81 44.39 41.53 39.66 40.36 39.55 32.60 28.24 27.49 31.13 35.01 32.33 37.47 38.64 38.80 39.00 39.70 38.12 37.96 38.42 39.21 39.69 40.58 41.27 41.78 42.13 42.29 42.52 41.85 41.34 41.30 41.39 41.12 41.16 41.59 41.57 40.72 40.21 38.90 38.33 38.28 38.06
35.09 35.52 42.61 44.29 43.94 43.15 38.84 36.92 39.11 30.66 27.53 27.82 30.43 32.65 35.17 37.58 37.73 38.09 37.46 37.96 37.70 38.09 38.88 39.74 40.35 40.85 41.02 41.44 41.65 41.73 40.99 40.25 39.82 39.24 39.23 39.01 39.41 39.54 38.99 37.69 37.60 37.59 37.41 39.98
40.04 33.36 41.08 44.80 43.56 41.30 40.21 42.80 37.90 34.94 25.64 23.12 25.69 27.30 32.35 34.01 35.87 36.58 35.89 36.40 36.67 37.03 37.59 38.06 38.58 38.97 38.90 39.80 39.96 39.75 40.01 39.59 38.88 38.75 38.38 38.21 37.28 37.33 37.14 36.90 36.65 36.62 36.04 35.78
39.58 37.81 35.55 41.97 38.27 37.55 36.77 35.18 35.45 37.85 33.53 28.29 26.34 29.29 34.76 34.78 37.12 36.59 36.70 36.93 37.10 37.16 37.32 37.23 37.22 37.39 37.69 37.83 38.23 38.10 38.49 38.90 38.70 38.46 37.18 36.79 36.59 36.60 36.47 36.40 35.89 35.59 34.92 34.54
39.32 36.34 32.00 34.79 38.82 39.49 39.91 37.23 36.96 31.91 29.02 27.20 28.02 29.89 34.43 34.81 37.16 38.37 37.38 37.70 37.27 38.00 37.96 37.40 36.82 36.67 37.21 37.19 37.49 37.46 37.55 37.81 37.73 37.40 36.40 36.34 36.55 36.06 35.46 35.11 34.57 34.30 33.83 33.94
36.94 33.73 27.86 30.55 35.57 38.00 37.78 37.84 36.23 34.79 31.79 26.06 25.49 30.03 36.03 34.14 35.69 37.82 37.39 37.09 37.50 37.87 37.36 36.62 36.35 36.19 35.98 35.98 36.24 36.71 36.81 36.44 36.69 36.50 36.01 35.58 35.48 35.15 34.27 33.55 33.28 33.20 32.94 32.89
40.94 35.44 31.22 27.88 30.69 32.91 31.80 35.64 35.25 33.29 28.48 27.22 28.17 30.95 32.85 33.93 36.24 36.30 36.49 37.21 36.95 37.45 37.47 36.17 35.02 33.89 34.29 34.83 35.26 35.69 35.85 36.14 36.37 36.05 35.34 35.00 34.58 34.12 33.31 32.87 32.83 32.91 32.59 32.09
35.86 32.45 31.16 32.95 34.30 32.93 32.53 33.19 33.62 31.68 30.71 30.64 31.00 31.20 34.78 35.49 35.77 36.74 37.34 36.98 36.57 36.66 36.74 35.82 34.24 33.03 33.24 33.91 34.27 34.97 35.25 35.42 35.21 35.28 35.28 35.12 34.66 33.65 32.78 32.63 32.72 32.57 32.25 32.57
35.11 30.87 30.65 30.58 34.91 33.37 32.51 34.17 33.42 32.61 31.75 31.52 30.56 31.25 34.94 33.25 35.20 36.18 36.61 36.72 36.37 35.97 36.57 35.82 34.74 34.15 34.25 34.24 34.10 34.78 34.69 35.13 35.15 34.95 35.21 35.26 34.37 33.31 32.70 32.41 32.34 31.91 31.82 31.37
32.42 31.16 29.73 27.99 33.79 34.21 31.58 33.90 33.71 32.87 33.02 33.85 30.25 34.03 34.76 33.16 34.93 34.70 36.03 36.98 36.79 35.94 35.62 34.36 34.40 34.62 34.48 34.77 35.18 34.36 34.43 34.36 34.07 34.08 34.43 34.41 33.75 33.16 32.71 32.56 32.03 31.55 30.85 30.15
31.66 31.49 29.77 25.82 30.55 24.61 32.75 35.11 35.88 35.20 36.23 35.43 35.05 35.33 35.45 34.81 33.72 33.88 34.68 36.33 35.49 35.48 34.25 33.88 34.05 34.05 34.38 34.62 34.85 34.51 34.40 33.57 33.69 33.52 33.60 33.73 33.08 32.54 32.31 31.63 31.24 30.49 29.88 29.64
34.18 32.60 28.52 24.35 25.12 30.78 31.36 33.37 32.30 32.20 33.23 36.68 35.64 35.10 34.92 35.05 34.18 33.91 34.08 34.35 34.26 33.68 33.68 33.63 34.10 34.37 33.95 34.62 34.78 34.82 34.23 33.63 33.31 33.59 33.20 33.31 32.84 31.82 31.67 31.25 30.77 30.35 29.25 28.10
34.67 34.15 30.69 27.07 24.53 23.26 31.20 33.93 36.13 32.63 26.90 33.15 36.42 35.06 34.42 33.81 29.60 30.52 31.26 33.31 33.59 34.26 34.78 34.20 34.34 34.34 34.38 34.61 34.23 33.88 33.60 32.92 33.00 33.84 34.07 33.53 32.49 31.76 31.32 30.96 30.39 29.62 27.89 29.34
27.79 27.73 27.10 27.38 24.49 30.15 34.69 35.07 35.37 25.98 28.52 33.99 36.54 35.21 33.94 32.72 32.84 33.15 33.74 33.76 34.18 34.40 34.85 34.85 34.37 34.09 34.07 33.98 33.80 33.33 32.66 32.63 34.21 34.56 34.29 33.50 32.39 31.55 31.46 30.49 29.15 28.07 28.51 28.86
28.67 24.45 24.33 26.37 24.90 24.76 36.34 34.08 29.84 33.58 33.85 35.10 34.17 34.71 34.55 33.53 32.72 33.20 33.93 33.91 34.51 34.45 35.34 34.51 33.74 33.70 33.50 33.67 32.98 32.74 32.17 34.28 34.42 34.20 33.41 32.08 31.45 32.46 33.23 29.59 28.50 28.50 28.30 27.94
28.25 32.21 29.11 29.83 30.37 36.29 35.57 34.20 34.41 36.24 36.56 35.48 35.38 35.48 35.23 33.11 32.68 33.58 33.17 33.47 33.99 34.51 34.29 34.29 33.70 33.50 33.72 33.55 33.17 32.73 33.89 34.45 34.38 32.97 31.70 31.10 31.43 31.43 31.36 29.15 28.32 28.28 28.55 28.71
32.00 33.22 31.95 32.41 33.67 34.65 36.58 35.77 35.64 37.47 36.64 36.89 36.05 35.24 34.81 33.29 33.32 33.05 33.02 33.02 33.32 33.62 33.72 34.16 34.09 33.43 33.24 33.76 34.36 33.84 34.33 34.78 33.55 31.85 31.08 31.00 30.56 32.62 30.38 29.92 29.35 28.59 29.22 29.84
33.56 32.60 31.90 31.15 34.26 34.18 35.08 35.69 36.70 37.79 37.62 36.61 35.20 34.60 34.50 34.15 33.20 33.12 32.78 32.86 33.24 33.64 34.17 34.41 33.53 33.23 33.50 33.99 34.46 34.63 35.04 34.31 32.76 31.16 31.07 30.76 30.99 29.92 28.67 28.95 29.09 30.74 31.24 34.19
33.07 35.00 31.92 33.77 35.95 34.28 34.52 35.34 36.65 37.22 36.96 36.03 34.98 33.90 34.13 34.33 33.55 33.47 32.70 33.08 33.41 33.63 33.94 33.54 33.47 33.24 33.45 33.98 34.21 34.88 35.16 33.94 32.06 31.28 30.84 30.65 31.34 29.01 28.73 28.14 29.25 35.07 36.80 37.61

GFSCGP_sfc_wetblb_087.txt.gz
Wetbulb
44.60 40.99 38.76 41.18 42.42 42.76 44.54 44.07 44.53 46.28 49.13 48.91 48.41 49.15 50.28 52.96 53.91 53.27 52.87 54.10 55.42 58.25 58.69 59.65 62.96 64.38 65.95 65.37 64.04 62.20 59.05 54.67 51.97 49.10 48.69 49.13 49.67 49.51 49.84 50.63 51.45 51.75 52.02 51.56
41.72 38.14 42.59 45.09 43.84 43.02 40.76 41.25 43.99 47.01 48.40 48.55 47.32 47.80 50.72 51.88 53.10 54.17 53.96 52.30 52.70 52.17 55.48 59.31 60.89 62.90 63.24 62.94 61.70 58.90 58.33 53.16 52.00 50.50 49.67 50.19 49.71 49.81 50.94 50.65 50.52 51.09 51.42 51.42
38.80 41.59 45.43 43.14 43.20 41.05 40.61 40.06 43.47 45.04 46.61 47.45 46.32 45.71 48.05 51.15 52.63 53.82 54.34 55.22 55.24 54.87 52.42 55.56 56.76 58.22 60.01 59.81 57.93 56.95 54.28 52.68 51.25 49.87 48.73 48.64 49.60 49.09 49.15 49.35 50.07 50.20 50.36 50.74
41.10 44.58 43.05 42.42 41.55 43.97 38.98 46.41 46.80 45.00 44.69 41.19 45.32 39.36 44.67 47.61 49.04 50.02 52.02 49.74 51.78 50.53 51.00 54.32 55.72 53.80 55.21 57.01 55.49 54.36 53.31 51.01 49.49 49.44 50.02 49.95 50.50 49.79 50.69 51.19 51.22 50.99 50.34 50.31
40.98 43.36 43.53 42.05 42.83 46.25 42.85 48.21 46.71 45.24 43.09 42.73 40.81 41.57 44.46 41.34 43.11 46.78 47.31 46.68 47.81 48.53 49.38 52.51 53.85 52.36 52.57 52.00 52.33 52.95 50.93 49.40 49.44 49.54 50.98 50.81 49.77 49.80 49.89 50.23 49.74 50.03 50.04 49.25
43.94 47.58 46.25 45.01 46.25 46.88 46.64 44.63 43.47 41.89 41.92 37.52 41.41 41.79 41.97 42.04 43.88 43.10 44.34 46.04 46.82 46.82 46.92 49.36 50.79 48.68 48.52 49.99 50.20 49.10 49.01 48.54 48.61 48.79 48.77 49.53 49.41 49.09 49.68 49.66 49.91 49.65 49.25 48.77
41.39 42.83 45.88 47.02 43.54 46.08 45.40 43.15 35.82 35.10 35.89 34.87 37.87 39.10 43.72 42.74 42.07 43.10 44.15 45.04 45.17 44.82 46.18 45.49 46.25 46.56 46.55 47.50 47.81 47.69 47.99 46.63 47.22 47.72 48.19 48.69 49.10 48.87 49.25 49.27 49.57 48.11 47.58 47.28
34.99 34.24 41.58 45.37 43.34 41.94 42.47 42.61 35.90 29.60 32.40 35.61 37.38 35.86 41.90 41.45 42.10 42.16 43.19 43.75 43.31 43.82 44.25 44.43 45.20 46.27 46.85 46.80 46.59 46.81 46.72 45.79 46.69 47.35 47.56 48.05 48.18 48.56 48.17 47.92 47.31 46.64 46.43 46.31
34.52 35.08 43.11 44.79 45.13 45.01 41.20 39.49 43.05 34.07 32.51 32.83 35.81 37.93 40.56 40.66 40.61 40.62 41.16 42.22 42.27 42.27 42.87 43.50 44.37 45.43 45.70 46.04 46.23 46.54 46.39 46.06 46.68 46.84 46.93 46.92 47.12 46.56 45.80 45.29 45.58 45.64 45.42 44.96
39.85 34.19 41.36 45.02 44.72 43.99 43.55 45.26 38.96 38.95 30.18 28.63 31.73 32.43 38.47 38.27 39.63 40.17 40.29 41.50 41.16 41.24 41.93 42.70 43.43 44.12 44.73 45.15 45.17 45.93 46.26 45.47 44.99 44.87 44.95 44.31 44.17 44.46 44.20 44.62 44.29 44.25 43.60 43.14
41.97 38.47 37.55 43.36 40.59 38.32 40.03 38.53 38.65 40.42 36.46 31.64 30.63 34.98 39.16 39.36 40.52 40.46 41.04 41.07 41.21 41.21 41.23 41.25 41.56 42.46 43.09 43.64 44.35 44.00 44.40 44.16 43.70 43.71 43.58 43.50 42.95 43.07 43.54 43.64 43.16 43.19 42.56 42.20
40.79 37.73 32.51 37.06 43.48 40.73 41.16 39.31 40.52 37.01 32.15 31.75 31.10 36.37 39.58 38.91 39.26 42.11 41.75 41.09 41.18 41.47 40.88 40.78 41.02 41.84 42.39 42.41 42.99 43.04 43.25 43.40 43.14 42.66 42.60 42.57 42.84 42.94 43.25 42.95 42.43 41.93 41.75 41.09
38.79 37.07 31.16 32.12 37.67 40.40 40.06 40.42 37.92 37.01 35.53 30.58 31.48 36.29 38.83 39.97 38.75 41.46 41.82 41.01 40.89 40.73 40.23 40.07 40.56 41.16 41.41 41.45 41.68 41.77 41.89 41.52 41.67 42.18 42.09 42.15 42.16 42.38 42.26 41.72 40.99 40.45 40.27 40.27
41.50 36.42 34.49 31.19 33.90 35.96 35.42 37.40 37.70 36.97 33.22 32.75 33.17 36.35 39.51 39.91 39.77 39.90 40.89 41.27 40.78 40.65 40.10 40.04 39.60 39.63 39.83 40.34 40.60 40.66 40.91 41.65 41.28 41.45 41.54 41.55 41.65 41.40 41.10 40.29 39.87 39.76 39.70 39.30
38.16 33.15 34.64 34.69 35.13 35.67 34.85 35.17 35.59 34.66 35.63 34.80 36.03 34.13 38.55 39.48 39.75 41.04 41.89 40.42 39.60 39.62 39.33 39.63 38.26 38.12 38.62 38.99 39.74 40.29 40.43 40.96 41.26 41.22 41.54 41.34 41.25 40.64 39.71 39.48 39.35 39.16 39.14 39.23
36.15 33.53 33.50 32.52 36.76 35.30 33.63 35.26 34.82 34.69 34.91 34.27 34.42 35.02 39.17 38.48 39.17 39.89 40.48 40.01 39.64 39.79 39.76 38.88 37.83 37.75 38.43 39.21 39.62 40.15 40.28 40.53 41.19 40.79 40.61 40.72 40.37 39.81 39.38 38.96 38.74 38.75 38.81 38.85
34.13 32.79 31.31 29.98 34.19 34.96 32.55 36.42 35.83 35.33 35.83 36.38 34.00 38.71 39.32 38.51 38.53 39.42 39.66 40.25 40.27 39.44 39.10 38.08 37.94 38.38 38.73 39.45 39.79 39.95 40.13 40.11 39.92 39.95 39.96 39.57 39.42 39.24 39.13 38.54 38.09 38.29 38.34 38.20
33.54 33.64 31.94 29.92 31.59 28.11 36.03 38.37 38.50 37.00 37.52 37.77 37.33 38.62 38.21 37.62 36.31 36.87 37.81 40.05 39.90 39.45 38.22 37.65 38.01 38.37 39.00 39.47 39.68 39.60 39.48 39.49 39.36 39.17 39.12 39.23 38.85 38.48 38.38 37.71 37.65 37.78 37.69 37.17
34.95 34.11 30.39 28.65 28.05 32.84 34.12 36.18 35.55 35.43 35.84 35.62 37.94 37.51 36.68 37.06 37.87 37.84 36.61 38.22 38.56 38.37 38.02 38.15 39.00 38.88 38.85 39.35 39.16 39.26 38.89 38.73 38.66 39.12 39.14 39.19 38.50 37.91 37.26 36.95 37.25 37.54 36.60 36.33
35.11 35.08 32.98 29.76 27.77 26.27 34.60 36.77 38.67 36.66 30.56 35.99 39.02 37.15 36.86 37.44 35.87 36.91 35.76 36.42 36.50 37.45 38.01 37.81 38.47 38.52 39.15 38.57 39.12 39.32 38.68 38.28 38.63 38.86 39.00 38.66 37.80 37.01 36.88 37.15 36.92 36.56 35.45 34.58
29.90 29.53 29.55 29.70 29.76 32.79 37.05 38.16 38.34 30.83 32.65 37.44 39.28 37.95 36.97 37.51 37.43 36.24 36.09 36.00 37.46 37.90 37.89 38.26 38.56 38.54 38.56 38.65 38.54 38.42 37.97 38.07 38.66 38.58 38.53 38.22 37.59 36.96 37.06 36.55 36.17 35.18 34.67 34.43
31.19 28.55 28.29 28.68 28.73 27.81 38.50 37.43 34.27 36.94 37.98 38.99 38.97 38.51 37.58 36.45 34.97 35.61 36.11 36.46 36.96 37.17 37.61 37.77 37.80 37.83 37.88 38.02 38.18 37.90 37.59 38.53 38.44 38.27 37.60 37.01 37.01 36.62 36.78 35.81 35.49 34.78 34.26 33.70
30.94 33.84 32.38 32.81 33.70 38.48 38.63 37.99 38.94 38.23 39.26 39.35 39.65 38.58 37.98 35.42 35.04 35.73 35.62 36.17 36.83 37.51 37.31 37.61 37.90 37.66 37.70 37.90 37.75 38.05 38.39 38.32 38.11 37.57 36.87 36.60 36.43 36.45 36.49 35.12 34.45 33.85 33.86 33.22
34.51 35.19 33.95 34.47 36.20 36.83 38.42 38.79 38.20 39.32 39.59 40.65 40.47 38.51 37.53 35.96 35.68 35.40 35.46 35.86 36.30 36.70 37.03 37.39 37.58 37.27 37.35 37.72 37.89 38.09 38.20 38.22 37.64 37.11 36.51 36.39 35.70 37.52 36.01 34.80 34.50 33.61 33.31 33.35
35.39 34.89 33.99 33.35 36.39 37.25 37.68 37.93 38.91 39.39 40.35 39.48 38.06 37.54 37.27 36.32 35.60 36.02 35.32 35.58 36.24 36.68 37.10 37.62 37.27 37.11 37.31 37.62 37.96 38.24 38.37 38.03 37.37 36.26 35.62 35.46 35.91 35.41 34.13 34.07 33.24 33.95 35.29 35.46
34.62 35.64 34.00 35.12 37.81 38.17 37.96 37.92 39.29 38.65 38.96 38.51 37.08 35.94 36.26 36.89 35.98 36.00 35.36 35.90 36.17 36.73 36.95 36.86 36.78 36.87 36.97 37.29 37.59 37.82 37.99 36.87 35.79 35.34 34.99 35.07 35.46 34.08 33.42 32.42 32.36 35.36 36.43 37.14

GFSCGP_sfc_wetblb_090.txt.gz
Wetbulb
47.84 44.28 42.16 44.02 44.87 44.62 42.63 40.91 41.33 46.37 50.31 51.58 51.75 52.65 53.58 55.23 55.49 56.80 59.17 60.21 60.97 61.18 62.24 62.82 63.39 65.92 65.93 68.00 68.12 68.92 67.44 65.80 61.64 59.26 55.01 54.08 54.16 54.33 54.78 55.46 55.14 55.14 55.45 55.38
45.03 42.48 46.97 47.34 45.04 43.61 42.84 40.75 42.06 46.80 50.13 51.21 50.68 51.94 55.36 54.72 55.46 56.64 56.89 58.57 59.89 61.03 62.71 63.20 63.67 65.40 65.58 66.78 68.30 68.24 66.46 64.77 60.98 59.20 57.16 57.27 56.23 55.21 55.32 55.70 55.57 55.82 55.86 55.64
43.71 45.72 48.72 45.71 43.86 42.08 42.67 41.40 41.43 43.75 49.73 51.93 49.92 48.26 52.20 54.94 55.57 56.72 57.57 58.46 58.30 58.80 60.13 62.31 63.72 64.77 66.10 66.76 67.62 67.51 65.66 62.36 61.14 59.28 56.80 55.75 55.14 54.70 54.10 54.37 54.80 55.11 55.29 55.46
45.47 48.25 45.87 44.75 42.87 44.29 39.37 45.31 43.94 45.43 45.34 41.74 50.97 40.34 48.96 53.48 53.79 54.85 56.72 57.56 57.71 57.01 57.89 58.61 61.75 62.64 65.41 66.55 67.03 66.17 65.02 62.77 60.29 58.92 56.20 55.03 54.16 52.93 53.77 54.36 54.93 55.15 54.97 54.76
44.22 45.82 44.94 43.54 43.60 46.13 42.44 46.45 44.25 44.59 45.52 45.92 45.99 43.61 48.19 51.51 51.77 54.16 55.85 57.53 57.48 58.26 57.72 57.20 59.15 60.59 62.00 64.80 64.52 64.49 62.67 61.46 59.19 56.35 55.98 55.62 55.04 55.29 55.35 54.86 54.82 54.95 54.89 54.46
45.73 50.35 47.77 46.86 48.64 48.65 48.82 46.49 45.95 45.91 44.93 38.62 44.41 44.71 45.29 48.49 50.94 53.61 54.57 55.03 55.03 54.65 53.87 55.64 58.33 59.03 59.10 60.90 61.19 61.47 62.00 58.99 55.82 54.47 56.01 55.88 55.27 54.14 53.68 54.04 53.87 54.25 54.69 54.47
42.32 44.52 47.66 47.51 45.26 48.74 47.81 43.84 36.19 34.63 33.35 35.59 45.09 43.71 47.23 50.42 49.52 49.61 49.07 51.71 52.68 52.08 52.02 53.02 54.96 55.88 56.34 57.62 59.36 59.75 57.40 53.69 53.50 54.80 54.24 54.28 54.52 53.99 53.60 53.97 54.22 53.96 53.64 53.37
36.51 35.29 43.90 47.01 44.91 43.97 44.29 43.53 37.51 32.09 34.64 38.11 42.49 40.22 45.38 48.65 47.95 47.76 47.91 50.96 50.55 50.19 51.30 51.61 53.25 55.06 55.60 57.36 57.51 54.45 52.48 50.73 51.86 52.70 52.72 53.29 53.87 53.95 54.13 53.93 54.23 54.07 53.59 52.76
36.29 37.25 45.82 47.19 47.82 46.66 43.26 41.50 42.95 36.63 39.02 40.28 42.06 44.74 47.43 45.57 45.87 46.18 47.28 48.46 48.22 48.57 49.80 50.11 51.43 53.88 54.42 54.64 52.04 50.14 48.99 49.41 50.52 51.89 52.24 52.48 53.13 53.33 52.92 52.37 52.34 52.07 51.41 50.42
41.18 35.95 43.86 45.35 47.82 46.17 45.23 46.46 37.42 38.32 33.27 33.18 38.45 39.55 43.73 44.71 45.47 45.82 46.13 47.54 46.79 47.28 48.15 49.08 50.31 50.95 51.50 51.32 49.96 49.39 49.65 50.44 51.69 52.17 52.37 51.96 51.49 51.19 50.96 50.80 49.96 49.82 49.60 48.87
45.13 39.99 38.78 45.22 43.14 41.09 44.27 41.83 43.88 43.49 40.36 36.77 36.22 38.79 44.23 44.31 44.98 46.30 47.18 47.19 47.07 47.24 47.94 48.87 49.81 50.17 50.02 50.18 49.50 49.39 50.61 50.47 50.37 50.34 49.96 49.68 49.47 49.52 49.50 49.37 48.98 48.89 48.81 48.34
45.06 41.20 34.58 40.07 46.62 46.19 42.11 42.20 45.06 40.77 37.33 38.89 39.25 39.98 44.12 44.69 44.73 47.75 46.90 46.22 46.90 46.91 47.00 47.82 48.21 48.59 49.08 49.53 50.17 50.07 49.95 49.41 49.22 49.05 49.17 48.99 48.74 48.53 48.35 48.20 48.27 48.13 47.53 46.74
43.57 41.18 36.57 36.51 42.02 43.71 42.75 44.36 42.65 42.11 42.98 38.97 37.70 39.72 44.19 46.54 45.10 47.57 46.64 46.20 46.05 45.72 46.03 46.71 47.84 48.18 48.37 48.33 48.29 48.27 48.53 48.12 48.14 48.33 48.26 47.82 47.41 47.59 48.04 47.82 47.19 46.41 45.73 45.43
45.21 41.05 38.23 35.21 36.84 38.26 38.55 41.79 42.27 42.61 39.75 39.37 39.88 42.57 45.21 45.14 44.96 46.12 46.78 46.81 46.61 46.36 46.18 47.06 47.03 47.11 47.34 47.43 47.13 47.18 47.28 47.59 47.33 47.22 47.14 46.82 46.80 47.07 47.27 46.73 45.63 45.09 44.98 44.25
42.90 38.88 38.98 40.31 40.77 39.73 39.09 38.49 40.45 39.05 41.26 38.07 40.27 39.92 44.14 45.22 44.28 47.33 47.98 46.95 46.15 45.63 45.59 45.76 45.61 45.95 45.95 45.99 46.48 46.57 46.33 46.41 46.73 46.32 46.23 45.84 46.28 46.46 45.86 45.13 44.75 44.59 44.23 44.22
42.70 39.52 38.93 37.12 39.72 40.10 37.31 39.77 39.57 39.04 39.57 39.99 41.12 40.68 43.57 43.92 45.40 46.66 47.19 46.22 45.78 45.73 45.48 45.38 45.09 44.97 45.14 45.65 45.68 45.76 45.72 45.80 46.33 45.52 44.98 45.42 45.66 45.50 45.01 44.71 44.49 44.34 44.20 44.23
40.08 39.46 38.55 35.75 38.78 39.48 37.35 39.51 39.77 39.68 40.12 40.47 38.63 42.11 44.03 43.38 43.79 45.69 46.74 46.77 46.57 46.55 45.96 44.92 44.23 44.80 44.99 45.17 45.86 45.50 45.38 45.53 45.26 44.93 44.86 44.94 44.87 44.10 44.49 44.45 44.02 43.55 43.71 44.07
39.76 39.50 39.36 37.16 39.57 32.75 40.01 42.14 41.12 39.94 40.74 41.36 41.93 42.64 42.54 42.60 42.67 43.58 44.34 47.22 47.35 46.70 45.74 45.02 44.60 44.56 45.21 45.56 45.34 45.07 44.93 44.80 44.48 44.48 44.39 44.59 44.27 43.85 44.10 43.88 43.61 43.54 43.62 42.81
41.62 40.23 37.68 35.78 36.59 38.70 38.68 40.30 39.45 38.57 38.93 40.09 40.94 41.65 41.62 42.14 43.69 42.97 42.28 43.93 46.63 46.77 45.73 45.19 45.53 45.36 44.96 44.72 44.70 44.46 43.96 44.05 43.96 43.91 44.27 44.38 43.93 43.32 43.13 42.72 42.71 42.83 42.41 42.09
40.04 41.07 39.03 37.40 34.04 32.03 39.69 40.98 42.58 40.54 36.44 41.53 42.60 42.43 42.45 42.66 42.31 43.13 42.19 43.09 43.51 44.56 44.47 44.22 44.54 44.58 44.34 44.14 44.59 43.97 43.64 43.80 43.47 43.77 43.75 43.97 43.46 42.78 42.37 42.71 42.27 42.30 41.90 40.70
37.66 38.40 36.95 37.26 36.19 38.94 42.81 42.64 42.24 35.82 37.55 42.42 43.96 43.96 43.45 43.59 42.41 41.56 42.19 42.83 43.87 43.81 43.54 44.04 44.10 43.66 43.95 44.31 44.33 43.52 43.64 43.03 43.54 43.68 43.52 43.25 43.10 42.64 42.65 42.23 42.14 41.30 40.36 39.71
38.09 37.27 37.50 36.83 35.28 35.29 43.06 41.63 38.77 41.81 43.89 43.86 44.43 44.37 43.67 42.39 41.08 41.74 41.98 41.77 42.21 42.15 42.46 43.31 43.15 43.20 43.74 43.90 44.07 43.21 42.98 43.61 43.69 43.27 42.74 42.63 42.81 42.24 41.53 41.31 41.11 40.30 39.48 38.24
37.94 40.51 39.58 39.95 40.79 43.66 43.99 43.85 44.20 43.18 44.10 44.88 44.56 44.52 44.84 41.87 41.15 41.53 41.44 41.78 42.03 42.12 42.42 43.40 43.35 42.96 43.26 43.64 43.84 42.79 43.18 43.46 43.20 42.87 42.38 42.23 42.10 41.85 41.72 40.25 39.32 38.76 38.35 36.65
41.69 41.12 40.53 40.78 41.96 43.97 44.57 45.19 44.63 44.98 44.59 45.25 45.41 44.94 44.23 42.81 41.92 41.50 41.60 41.47 41.66 42.12 42.14 42.92 42.71 41.95 42.22 43.35 43.12 43.40 43.52 43.34 42.54 41.92 41.47 41.39 40.64 40.17 40.48 39.76 39.11 37.09 36.21 35.93
43.01 41.39 40.38 41.64 44.71 44.75 44.80 43.99 43.78 44.31 44.69 44.49 43.93 44.24 44.28 43.30 41.95 41.85 41.16 41.42 41.83 42.07 42.42 42.96 42.39 42.40 41.95 42.62 42.79 43.22 42.74 42.42 41.82 41.10 40.64 40.01 39.92 39.09 38.09 37.72 36.85 36.13 37.15 36.12
43.28 42.18 40.66 41.23 43.95 43.86 45.49 46.17 44.86 44.21 44.19 44.95 43.53 42.16 43.04 43.58 42.10 42.16 41.47 42.05 41.98 42.03 42.49 41.96 41.83 41.85 41.81 42.14 42.07 41.96 41.87 41.47 40.31 39.40 38.92 38.66 37.60 36.99 36.66 35.84 35.92 37.26 36.82 36.94

GFSCGP_sfc_wetblb_093.txt.gz
Wetbulb
50.70 45.94 44.01 46.53 47.28 46.21 44.16 42.44 41.41 43.85 46.44 46.52 48.55 50.22 53.02 55.17 58.19 57.97 59.67 60.30 60.43 61.12 65.21 67.33 68.19 68.78 68.79 69.29 67.27 69.01 68.58 66.07 61.86 59.20 56.48 55.69 54.83 55.88 56.20 56.54 55.87 55.51 55.93 55.70
48.15 43.90 48.76 49.03 48.61 46.09 43.75 41.27 41.04 43.91 45.77 46.41 47.34 48.42 52.52 55.00 57.10 57.81 59.28 60.18 60.07 60.94 63.11 65.59 67.05 67.62 67.25 65.00 64.78 68.36 68.21 65.99 64.58 61.62 59.82 58.48 56.80 56.94 56.52 58.09 56.23 56.09 56.00 55.89
44.84 47.48 49.57 47.56 45.96 44.14 43.37 40.79 41.14 41.24 44.31 46.83 48.06 46.05 49.68 53.45 57.48 58.07 59.20 60.74 60.81 60.67 61.55 63.17 64.40 65.53 65.44 64.98 66.89 68.38 66.99 65.51 64.76 63.24 60.24 59.86 59.10 57.40 56.36 55.73 55.63 55.81 56.08 56.08
46.79 49.90 48.25 46.85 44.90 45.27 40.00 45.40 43.78 42.43 41.38 38.78 48.49 39.25 47.14 50.97 54.36 56.47 57.94 58.58 58.73 59.66 60.62 62.77 63.20 63.88 64.78 66.12 67.99 68.31 67.59 65.74 64.57 63.00 60.59 58.51 55.32 54.26 55.29 55.29 55.58 55.51 55.54 55.44
45.03 46.44 46.15 44.83 44.83 47.19 42.73 46.61 44.09 43.76 41.02 42.76 43.15 41.82 45.30 49.88 50.58 54.07 57.17 58.48 58.75 58.62 59.23 60.06 62.43 64.46 65.70 67.12 67.32 67.76 67.07 65.36 64.58 62.21 59.73 58.12 57.30 56.03 55.52 55.02 54.85 55.01 55.43 55.46
47.18 51.00 49.00 47.82 48.56 48.91 48.97 45.08 44.67 44.67 43.16 34.31 39.12 41.45 42.87 46.44 49.30 52.77 56.52 58.77 59.23 58.95 58.40 58.90 59.88 61.99 63.78 66.36 67.48 66.81 66.02 64.85 62.92 61.55 59.50 58.49 57.29 55.27 54.48 54.85 54.51 54.92 55.34 55.49
45.19 45.68 49.29 49.26 45.82 48.72 47.59 42.17 32.87 33.14 34.85 35.50 42.32 39.56 43.32 50.33 53.45 53.46 55.28 57.77 59.33 58.77 57.24 56.32 58.14 59.27 59.92 61.94 63.68 64.60 63.47 61.88 60.46 58.41 57.15 56.74 56.64 55.83 54.64 54.68 54.41 54.76 54.58 54.66
39.01 36.55 45.11 48.74 46.49 43.53 44.84 42.64 35.48 29.34 31.90 35.55 44.89 39.79 44.26 50.32 51.42 51.51 52.24 55.24 55.55 54.32 54.80 55.18 57.04 58.05 58.60 60.18 61.56 62.75 62.11 57.79 56.95 56.12 55.26 54.87 56.39 55.47 54.86 55.13 54.95 54.90 54.85 54.57
39.55 38.15 47.85 48.38 49.23 47.39 44.05 39.27 42.92 34.33 36.85 34.36 39.68 45.15 48.00 49.54 49.13 50.86 51.14 51.57 51.68 52.27 53.22 53.43 55.77 57.22 58.68 60.18 60.30 59.59 56.46 55.13 54.23 53.10 53.06 53.17 53.98 54.63 54.43 54.53 54.47 53.90 53.35 52.37
44.34 37.49 45.51 47.70 49.79 48.17 45.04 46.19 37.48 38.02 34.01 31.62 38.24 39.07 40.19 46.02 47.43 48.53 49.38 50.24 49.81 50.44 50.87 52.25 54.31 55.95 57.83 56.55 55.84 54.96 52.82 51.42 51.80 52.27 52.53 53.46 53.97 53.96 53.46 52.83 51.67 51.37 51.05 50.20
45.82 43.37 42.50 46.76 44.30 42.92 43.90 42.47 42.26 43.57 41.03 34.76 33.94 36.99 44.97 44.95 47.74 48.33 49.20 49.47 49.38 49.91 50.43 51.46 52.33 53.43 53.06 52.92 52.30 51.79 51.58 51.43 51.31 52.18 52.59 52.19 51.66 51.42 51.26 50.93 50.48 50.16 49.73 49.08
45.77 42.28 39.26 41.01 47.28 48.14 45.61 41.92 43.95 37.46 36.80 41.03 37.85 37.91 47.63 47.48 49.10 49.62 48.33 48.70 49.19 49.55 50.37 51.13 51.16 51.27 50.98 50.56 50.61 50.90 50.95 50.31 51.32 51.67 51.27 50.58 50.39 50.27 49.78 49.29 49.13 48.87 48.14 47.92
45.03 41.82 37.36 38.83 43.72 45.34 42.25 46.16 45.47 44.65 43.34 38.57 36.76 38.30 48.10 48.20 48.93 49.37 47.98 48.03 48.07 48.30 49.26 49.87 50.34 50.37 50.55 50.71 50.64 50.66 50.78 50.36 50.37 50.35 49.95 49.43 48.93 48.97 48.65 48.29 47.99 47.39 46.65 46.47
46.94 42.32 39.99 35.91 38.87 41.97 39.71 41.65 45.48 44.42 40.12 39.38 39.57 41.99 45.48 46.49 46.96 48.32 48.06 48.42 47.90 48.10 48.43 49.35 49.53 49.53 49.70 49.91 49.83 49.64 49.31 49.48 49.43 49.17 48.74 48.25 48.17 48.01 47.68 47.34 46.63 46.08 46.04 45.30
45.13 38.72 41.88 41.83 42.17 41.75 40.95 40.35 41.32 40.03 40.84 37.93 41.41 41.15 43.68 44.70 45.94 48.50 48.79 48.56 47.85 47.50 48.02 48.42 48.47 48.74 48.91 48.68 48.74 48.77 48.44 48.37 48.34 47.69 47.61 47.28 47.22 46.96 46.43 45.89 45.75 45.71 45.44 45.02
45.69 39.18 41.86 40.23 41.49 42.02 39.95 42.62 42.56 41.88 41.03 40.74 41.59 41.28 45.40 46.49 47.95 48.74 48.46 48.02 47.49 47.39 47.61 47.97 48.15 48.07 47.75 47.97 47.77 47.67 47.33 47.28 47.87 46.98 46.37 46.40 46.16 45.97 45.71 45.66 45.44 45.36 45.13 45.03
42.20 41.08 39.84 38.17 41.02 41.64 39.10 40.43 41.44 42.04 42.66 41.74 39.73 42.81 46.18 45.27 46.31 47.80 48.71 48.46 48.16 48.08 47.98 47.60 47.33 47.41 47.62 47.52 47.49 46.95 47.05 47.03 46.53 45.87 45.66 45.47 45.32 44.79 45.00 45.27 44.89 44.63 44.45 44.84
41.17 41.13 40.98 38.07 41.42 34.30 41.34 44.43 43.28 41.33 41.24 41.91 41.64 44.58 44.70 44.86 45.48 46.63 48.29 49.29 49.22 49.09 48.40 47.69 47.37 47.16 47.05 47.52 47.41 47.01 46.54 45.93 45.35 44.94 44.78 44.97 44.69 44.48 44.77 44.54 44.17 44.21 44.37 43.82
43.85 41.44 39.20 36.34 37.95 40.16 41.20 41.92 40.56 39.87 38.84 44.03 43.56 44.16 44.63 45.18 46.52 44.20 45.62 47.96 49.77 49.43 48.84 47.72 47.24 47.30 47.02 46.51 46.27 45.71 44.97 44.72 44.32 44.16 44.29 44.63 44.64 43.97 43.84 43.47 43.54 43.70 43.29 42.96
43.30 43.15 39.65 39.65 34.80 33.66 40.35 42.95 43.88 42.27 36.94 44.83 44.91 44.48 44.33 45.06 43.05 42.73 45.23 46.75 47.21 47.48 47.12 46.74 47.02 46.63 46.05 45.46 45.74 44.89 44.11 44.04 43.65 44.03 44.25 44.76 44.51 43.78 43.32 43.46 43.09 43.35 43.00 42.18
40.07 40.65 37.84 39.21 37.68 40.77 43.87 44.35 44.68 36.62 38.44 45.28 46.16 45.82 45.33 44.81 44.38 44.40 45.60 45.52 46.28 46.22 45.87 46.23 46.09 45.28 44.90 45.41 45.12 43.82 43.76 43.14 44.31 44.37 44.42 44.26 44.30 43.75 43.53 43.07 43.10 42.50 41.86 41.28
39.99 39.12 39.01 40.21 37.29 36.50 45.43 44.01 40.41 43.33 46.24 45.98 46.33 46.63 46.06 44.48 43.93 44.49 44.56 44.32 44.54 44.10 44.55 45.20 44.45 44.12 44.81 44.83 44.29 43.38 43.03 44.20 44.24 44.09 43.84 43.70 43.75 43.38 42.89 42.28 41.98 41.64 40.79 39.78
38.77 42.85 41.00 41.44 42.25 46.18 47.12 46.15 47.46 46.88 45.93 46.59 46.69 46.95 47.14 44.73 44.01 44.06 43.61 43.91 43.96 43.85 44.00 44.83 44.16 43.68 44.05 44.25 43.98 42.60 43.69 44.02 43.84 43.55 43.22 43.10 42.79 42.51 42.28 41.32 40.60 39.56 39.52 37.28
44.67 44.70 42.21 43.12 45.35 45.77 46.26 46.72 46.97 47.20 46.69 47.62 47.61 47.34 47.20 45.36 44.72 43.99 43.97 43.68 43.40 43.60 43.44 44.08 43.51 42.68 42.83 43.71 43.71 43.70 43.97 44.02 43.37 42.62 42.28 42.13 41.48 41.14 40.99 40.78 40.00 37.89 36.43 35.83
44.51 43.92 43.47 43.65 46.27 46.91 47.06 47.17 47.31 47.58 47.57 46.78 46.93 47.20 46.97 46.38 44.70 44.29 43.57 43.41 43.43 43.41 43.53 43.84 43.07 42.64 42.47 43.31 43.42 43.87 43.83 43.60 42.43 41.97 41.63 40.90 40.49 39.59 38.85 38.41 37.67 36.67 37.31 36.97
43.07 42.45 40.87 41.23 46.68 45.88 46.66 48.24 48.98 47.59 46.96 47.19 46.34 45.54 46.79 46.49 44.92 44.71 43.65 43.89 43.52 43.02 43.61 43.09 43.04 42.69 42.51 42.83 42.86 43.01 42.98 42.51 41.01 39.80 39.69 39.47 38.80 37.87 37.26 36.45 36.12 39.02 38.31 37.65

GFSCGP_sfc_wetblb_096.txt.gz
Wetbulb
51.09 45.41 41.95 45.24 47.18 46.57 44.80 42.17 40.55 42.58 45.73 43.80 42.49 43.49 46.85 50.83 52.76 52.62 54.95 57.73 57.95 60.90 63.85 64.64 65.42 65.46 65.50 65.84 66.93 67.90 66.56 62.21 59.62 57.12 56.88 56.38 53.59 53.59 52.23 52.92 52.38 51.45 51.67 52.12
47.33 42.83 47.92 48.31 47.94 46.08 44.55 41.91 40.38 42.55 45.01 43.21 41.97 41.60 45.84 50.84 52.62 53.81 56.08 56.75 57.35 57.77 62.37 63.83 63.70 63.19 64.19 65.85 66.41 66.91 64.77 61.03 59.38 58.06 58.31 57.38 53.38 52.58 52.73 52.64 51.98 51.74 51.69 51.73
43.45 46.21 49.57 47.78 46.00 43.41 43.09 41.21 40.76 39.80 42.72 43.90 41.81 39.52 42.53 48.29 52.18 56.13 56.87 57.59 58.61 57.94 58.97 62.49 61.68 63.39 65.49 63.65 62.13 66.64 64.42 61.96 60.61 59.56 58.76 56.70 54.23 53.48 51.77 51.22 50.59 50.91 51.73 51.54
45.95 49.36 47.08 45.93 44.09 45.04 39.52 45.21 43.78 41.70 39.57 33.14 41.72 31.93 40.93 46.66 48.53 53.66 55.10 55.72 56.25 57.09 58.85 62.27 62.78 63.50 63.71 62.97 63.37 67.18 65.66 64.33 62.64 61.48 57.72 55.13 52.17 50.56 50.68 51.22 50.94 50.68 51.19 51.04
44.37 45.20 44.92 43.90 44.62 46.51 42.26 45.24 43.07 43.06 39.12 37.02 37.60 35.02 40.83 46.24 45.94 51.41 53.58 54.82 56.06 56.95 56.85 59.65 62.27 62.41 63.63 62.89 65.14 66.61 65.02 63.98 63.60 61.65 58.27 54.03 51.63 51.71 51.63 52.58 50.47 50.05 50.06 50.35
46.57 51.12 48.77 46.67 47.89 48.17 48.50 44.12 42.59 41.95 39.27 30.87 36.44 37.43 38.00 42.67 45.97 51.15 53.37 55.10 55.37 55.75 56.27 56.75 58.71 62.30 62.51 64.65 65.51 66.16 64.59 63.70 62.79 61.12 56.67 54.38 53.86 50.60 51.14 49.48 50.75 49.13 49.60 49.87
44.28 45.33 48.68 49.37 45.29 48.10 46.08 40.51 30.75 29.57 30.84 29.34 40.20 36.49 38.28 45.01 48.30 49.89 51.61 51.86 55.72 55.59 55.00 55.10 55.61 58.01 60.04 62.78 64.30 64.36 63.69 62.29 61.39 57.83 56.02 54.96 52.10 51.76 51.68 51.06 51.19 50.26 49.25 49.23
36.32 35.91 44.17 48.23 45.42 42.99 43.35 40.25 33.02 25.06 30.35 33.15 39.68 35.12 40.44 48.39 49.44 51.53 53.23 55.88 56.58 54.87 52.86 53.91 55.80 56.28 58.14 59.62 61.01 61.31 61.44 59.12 59.09 54.82 53.99 53.49 52.05 50.42 50.97 52.08 51.56 51.59 49.20 49.05
37.20 38.23 46.68 48.48 48.18 47.18 42.25 38.99 41.66 34.36 35.50 34.00 35.22 40.03 45.20 48.13 48.28 48.89 49.38 49.77 49.87 50.22 50.70 52.53 54.03 54.89 56.30 57.80 59.01 60.09 57.51 55.81 53.39 52.01 51.28 50.12 50.09 51.66 51.44 51.25 51.02 48.73 47.73 48.82
42.46 35.90 45.23 47.55 49.57 48.28 44.80 45.17 36.88 36.36 30.21 27.84 34.22 34.83 35.95 42.38 44.60 46.79 46.15 45.77 46.77 47.96 48.78 50.73 52.72 54.80 56.72 57.40 56.87 54.28 52.24 49.85 49.32 49.46 49.15 49.86 51.70 51.84 50.70 49.47 47.03 45.90 45.07 45.17
43.99 40.56 39.75 44.94 43.56 41.79 42.36 40.43 41.76 40.21 38.33 33.40 29.31 32.94 42.38 42.76 44.92 44.99 45.04 45.60 46.06 46.73 47.71 48.96 50.35 50.47 50.77 50.44 49.60 48.63 48.67 48.19 48.22 50.54 49.17 49.69 49.62 49.24 48.21 45.87 45.31 44.70 44.25 44.16
44.05 39.44 35.19 40.08 46.09 47.51 44.96 41.70 42.76 36.19 34.33 36.70 34.85 32.62 44.07 45.70 46.04 45.72 45.37 48.06 47.24 47.76 48.06 48.04 47.59 47.23 47.67 47.75 48.95 48.78 49.29 49.20 49.32 49.53 47.89 47.70 46.92 45.30 44.31 43.74 43.58 44.07 43.16 43.40
42.85 38.10 33.30 36.48 40.48 43.11 40.43 42.09 44.73 43.39 41.84 36.81 34.18 36.60 44.72 45.44 45.29 45.49 43.79 44.45 45.75 46.72 46.52 46.60 46.58 45.94 45.89 48.17 46.63 48.05 47.48 47.57 47.06 47.70 46.36 44.54 43.89 43.27 42.47 42.25 42.38 42.38 41.55 41.13
46.34 39.96 36.27 32.01 36.13 39.64 37.29 40.22 41.11 41.80 37.37 36.32 36.92 38.12 40.60 43.31 44.76 44.85 44.65 44.40 44.73 45.75 46.57 46.11 45.41 45.04 45.30 45.87 45.47 45.19 44.75 45.24 45.07 44.72 43.68 42.82 42.33 42.23 41.79 41.62 41.42 41.28 40.81 39.74
42.71 36.38 38.94 39.84 41.03 40.76 39.68 39.61 39.82 37.37 36.99 32.99 36.34 37.23 39.79 42.23 43.43 45.42 45.94 45.53 44.72 45.17 45.80 45.49 44.19 43.46 43.49 43.60 43.70 43.70 43.73 43.65 43.57 43.34 42.67 41.71 41.95 41.75 41.38 40.84 40.77 40.73 40.16 39.91
42.59 36.88 38.92 37.45 41.85 40.79 39.21 41.11 40.94 40.67 39.83 38.28 39.26 37.73 42.95 43.97 45.15 44.29 43.91 44.77 44.13 44.02 45.03 45.36 45.11 44.29 43.54 42.63 42.36 42.82 42.37 42.64 42.91 41.94 41.67 42.21 41.99 41.66 40.93 40.70 40.50 39.98 39.74 39.29
39.47 38.48 36.49 33.67 40.87 40.64 36.41 38.70 40.08 40.41 39.69 38.05 35.62 38.83 42.51 42.08 44.16 43.47 44.24 45.29 44.76 44.60 44.71 44.34 43.89 43.40 42.98 42.59 43.10 41.58 41.67 42.07 41.27 41.13 41.43 41.59 41.35 40.81 40.50 40.56 39.97 39.15 38.49 38.54
38.90 37.91 37.63 33.14 37.75 29.06 37.92 42.31 41.91 40.41 40.38 41.18 40.55 42.37 42.75 41.99 41.80 42.16 43.42 44.03 44.97 45.37 44.59 43.70 43.08 42.43 42.42 42.73 42.33 41.87 41.78 40.75 40.73 40.14 40.49 40.82 40.66 40.25 40.05 39.34 38.57 37.97 37.83 37.41
41.60 38.55 34.55 32.01 32.08 37.65 38.97 40.23 38.93 37.17 36.97 41.98 41.88 42.29 42.33 42.77 41.14 39.08 43.41 45.25 45.44 44.73 44.05 42.71 42.55 42.51 42.03 41.45 41.62 41.02 40.22 40.19 40.07 39.89 39.65 40.16 40.16 39.18 39.05 38.43 37.78 37.81 37.22 36.84
42.49 40.72 35.76 34.65 30.74 28.89 37.71 41.07 42.51 40.32 31.75 42.46 42.79 41.80 41.30 42.09 36.41 35.25 41.10 43.98 43.21 43.29 43.10 42.68 42.64 42.01 40.63 40.46 40.91 40.14 39.65 39.27 39.07 39.85 40.10 40.29 40.02 39.14 38.39 37.74 37.35 37.60 37.12 37.48
36.42 36.44 32.67 33.60 32.60 37.80 41.09 42.08 43.00 31.60 33.05 42.40 43.54 42.44 42.03 39.18 38.32 40.15 42.61 42.24 42.75 42.37 42.37 42.49 41.43 39.70 39.68 40.56 40.60 39.24 38.93 38.28 39.99 40.83 40.57 40.32 39.63 38.76 38.28 37.29 36.98 36.31 36.30 36.42
37.00 35.10 34.11 35.42 31.32 30.45 43.44 41.36 37.00 39.43 41.86 42.76 42.66 42.84 41.53 40.51 41.21 41.62 41.82 41.37 41.52 40.81 41.68 41.54 39.61 39.19 39.55 39.97 39.19 38.37 37.96 39.83 40.51 40.52 40.26 39.35 38.41 39.43 39.47 36.10 36.00 36.00 35.03 34.62
34.56 38.78 35.67 37.32 37.39 43.08 43.62 42.18 43.88 44.14 42.60 42.24 41.73 43.16 43.22 41.56 40.93 41.55 40.50 40.44 40.54 40.44 40.42 40.89 39.41 38.88 39.01 39.44 39.02 37.61 38.81 40.51 40.37 39.21 38.13 37.50 37.94 37.76 36.98 35.42 34.39 34.12 33.93 31.53
41.02 43.09 38.55 39.54 42.41 43.20 43.56 43.54 44.27 44.22 42.73 43.61 43.68 43.54 44.13 41.70 41.41 40.72 40.57 40.08 39.57 40.03 39.67 40.22 39.37 38.52 38.00 38.99 39.82 39.40 40.12 40.78 39.45 37.57 36.75 36.72 35.88 36.27 35.14 35.37 34.46 31.86 30.93 30.65
39.71 40.90 39.91 39.33 42.53 43.73 44.30 44.20 44.12 44.28 44.53 43.75 44.27 43.68 44.21 42.90 41.64 40.95 40.23 39.84 39.73 39.55 39.81 39.66 38.87 38.53 38.36 39.30 39.53 40.11 40.44 39.67 37.97 36.42 36.05 35.26 35.45 34.24 32.81 32.85 31.97 32.60 32.02 34.55
40.09 38.30 36.07 36.32 42.67 41.96 43.01 45.25 45.73 43.92 43.56 43.72 43.63 42.47 43.91 43.41 41.81 41.53 39.98 39.97 39.63 39.06 39.50 39.13 38.90 38.74 38.51 39.03 38.93 39.13 39.58 38.04 36.08 35.16 34.76 34.37 33.57 32.57 31.73 31.06 31.11 38.16 38.23 38.18

GFSCGP_sfc_wetblb_099.txt.gz
Wetbulb
46.91 43.30 39.04 42.21 43.23 43.79 42.35 40.47 38.95 42.01 45.51 41.42 40.13 40.22 41.74 44.66 46.41 47.45 49.00 52.35 57.68 58.57 60.81 63.43 63.62 63.81 63.81 65.36 66.74 65.40 64.02 60.78 59.13 57.49 56.66 56.72 58.17 57.10 52.68 51.58 51.35 50.90 49.87 50.12
42.21 38.10 44.90 47.18 46.89 44.54 42.29 39.47 37.95 41.23 44.16 40.98 39.72 39.08 42.17 42.98 45.25 47.94 49.35 50.39 53.57 57.14 60.89 62.40 63.31 63.27 63.71 63.74 66.72 64.76 62.98 60.57 59.41 59.20 58.94 59.72 58.12 53.00 52.07 51.89 50.85 50.80 49.72 49.76
39.08 43.31 48.75 47.16 44.51 42.54 41.40 38.88 39.14 38.97 42.08 41.62 38.44 36.44 38.49 42.97 43.72 48.29 51.66 54.37 55.74 57.37 58.36 60.51 61.97 62.63 62.77 64.23 66.44 64.33 61.91 60.46 60.22 59.80 59.50 58.19 55.57 51.47 50.50 49.96 49.46 49.86 50.16 49.94
42.84 47.47 45.93 44.41 43.30 44.43 38.38 44.61 43.55 41.43 37.54 30.71 37.28 28.48 35.36 39.20 42.10 45.04 50.19 52.96 55.75 57.25 56.91 59.36 61.49 61.41 60.96 63.56 65.25 63.78 61.80 60.51 60.51 59.40 58.36 55.71 53.68 50.52 50.22 49.56 49.57 49.15 49.94 49.45
39.66 43.41 43.56 43.04 43.66 45.49 41.49 46.19 43.04 42.16 37.66 33.73 35.45 29.22 33.14 38.98 41.14 43.54 47.44 51.57 55.18 56.69 56.33 57.62 61.60 61.08 62.17 64.01 65.45 64.09 62.75 61.57 60.68 58.64 58.21 55.78 52.95 52.37 54.10 51.38 48.88 48.74 49.72 49.30
41.65 47.97 47.33 45.07 46.91 47.15 46.97 43.92 42.35 40.72 38.10 28.16 33.37 32.34 31.26 38.08 41.20 44.38 48.12 52.19 54.18 54.58 55.51 57.72 60.47 63.03 62.25 62.68 65.68 64.87 63.62 62.71 62.03 60.06 56.88 54.71 52.84 51.69 52.05 48.51 47.88 49.42 47.76 49.37
39.07 43.06 46.16 47.62 43.07 46.28 45.55 39.32 29.56 26.08 28.52 28.71 38.23 33.91 34.18 43.00 46.72 47.21 47.85 50.08 52.17 53.55 53.53 55.60 57.77 59.44 60.70 63.48 63.88 64.06 63.22 61.91 61.99 60.21 56.07 55.41 53.39 51.93 50.55 47.99 47.95 48.74 47.58 49.25
31.12 32.03 41.45 45.59 43.03 40.87 41.86 39.21 31.69 23.28 27.53 31.27 36.12 31.83 38.73 45.54 48.73 49.54 50.61 52.16 52.15 52.50 52.58 53.73 55.84 57.40 59.54 61.32 63.00 63.21 62.33 61.59 60.38 57.38 56.18 55.51 51.37 50.43 49.33 48.93 50.15 48.54 50.13 49.52
32.30 34.59 44.19 45.01 46.66 44.50 40.41 39.02 40.11 32.53 33.80 32.00 33.82 37.89 44.05 46.65 47.24 47.51 48.67 48.35 48.73 49.61 52.10 52.93 54.10 55.79 56.87 58.04 59.41 58.97 60.04 58.74 55.80 52.70 52.39 48.98 48.48 48.94 48.66 49.82 48.69 48.98 47.67 48.31
37.62 31.73 40.55 44.49 46.09 45.46 41.91 44.53 36.96 35.63 29.96 23.33 32.52 33.22 35.20 42.59 44.02 44.93 44.85 47.99 48.32 50.13 50.54 51.87 53.38 54.86 55.64 54.66 52.82 54.08 53.71 51.54 50.88 50.67 49.56 49.99 49.77 49.24 49.11 47.51 46.49 45.80 46.03 45.44
38.04 34.03 34.46 39.94 39.51 37.86 38.60 37.07 41.05 40.19 36.28 31.84 27.26 31.20 42.16 40.98 42.85 42.35 41.88 44.16 45.98 46.24 46.93 47.47 47.62 47.48 47.01 47.48 48.99 49.23 49.13 48.09 48.36 49.59 49.77 48.93 47.98 47.87 46.63 46.50 45.78 45.13 44.58 42.76
39.76 34.48 29.81 35.02 42.02 44.23 40.14 37.27 41.65 34.77 34.16 36.44 34.48 31.51 41.60 42.29 42.69 43.31 42.72 44.16 44.33 45.06 45.36 45.45 45.19 45.06 44.62 44.64 46.21 45.54 47.34 49.04 48.44 48.18 46.66 46.49 46.51 43.83 45.28 44.30 43.07 42.53 41.37 41.65
39.08 33.11 27.70 30.56 35.30 38.42 35.75 38.49 39.46 41.19 39.07 33.11 28.18 31.74 41.73 41.50 41.25 41.78 41.28 43.92 45.52 44.62 44.05 43.73 43.22 42.91 43.39 43.70 45.67 45.35 47.12 46.79 46.63 46.15 43.22 43.44 43.12 42.48 40.34 39.63 39.83 40.12 39.69 39.58
44.22 35.18 32.11 27.59 31.49 35.11 33.85 37.06 37.89 37.12 29.53 31.40 32.99 33.64 37.39 39.82 40.68 41.20 41.03 41.89 42.52 43.50 43.72 42.60 41.83 41.47 42.47 43.58 44.21 43.70 43.40 44.53 43.48 43.26 42.89 41.27 39.43 39.29 39.02 39.18 39.16 39.37 38.68 38.04
37.41 31.54 33.86 35.88 37.63 37.89 36.97 37.49 38.04 34.34 33.02 29.20 33.08 34.64 37.04 39.39 41.98 41.76 42.61 43.17 43.18 43.26 43.56 42.86 41.67 40.79 40.89 40.83 40.75 41.17 41.10 41.48 41.54 40.56 39.70 39.05 39.27 39.36 39.36 39.11 38.92 38.81 38.57 38.19
37.05 32.36 34.40 33.42 38.87 38.34 35.94 37.91 37.91 37.60 36.58 35.30 36.09 35.41 40.40 42.15 42.47 41.80 41.52 42.57 42.41 42.70 43.28 42.89 42.04 40.96 40.21 39.56 39.56 40.10 40.06 40.32 40.29 39.60 39.33 40.00 40.06 39.97 39.25 38.97 38.65 38.16 37.85 37.63
33.03 32.96 31.44 28.43 35.77 36.48 32.82 35.77 36.41 35.54 36.26 34.63 32.37 36.47 39.19 39.04 40.49 39.53 40.57 42.84 42.44 42.38 42.29 41.66 41.18 40.44 40.15 40.25 40.47 39.01 38.65 38.84 38.97 39.39 39.56 39.60 39.48 39.14 38.83 38.55 37.94 37.09 36.09 35.75
32.88 32.93 32.66 28.38 32.74 25.50 35.06 38.81 39.08 37.28 38.77 39.00 38.95 39.47 39.88 38.72 38.42 38.94 40.54 41.99 42.07 42.66 41.55 40.54 39.66 39.25 39.19 39.08 39.21 38.86 38.76 38.10 38.25 38.07 38.31 38.78 38.76 38.27 37.74 37.43 36.64 36.06 35.71 35.23
36.46 34.17 29.54 26.16 26.99 33.74 35.53 37.23 35.87 34.80 34.80 39.49 39.07 39.81 40.15 39.94 39.21 37.80 41.16 41.97 41.75 41.04 40.26 39.34 39.23 38.97 38.37 38.80 38.88 38.64 37.99 38.07 37.99 37.36 37.49 37.97 37.82 37.40 37.33 36.49 35.73 35.55 35.23 35.06
37.95 36.03 31.59 28.92 25.72 25.54 34.46 38.23 39.86 37.78 28.95 39.34 40.42 39.20 39.38 39.79 34.45 34.63 39.32 40.56 40.29 40.53 41.16 40.20 39.41 38.90 38.22 37.78 38.43 38.10 37.11 37.06 37.10 37.73 38.03 38.09 38.08 37.49 36.63 35.75 35.47 35.67 35.17 35.83
31.94 31.51 28.17 27.66 24.37 33.43 37.97 39.43 40.45 28.61 31.95 39.61 41.14 39.81 39.59 36.62 37.17 38.04 40.24 39.97 40.27 40.80 40.01 39.43 38.40 37.18 37.24 37.90 38.19 36.82 36.78 36.39 37.98 39.01 38.98 38.67 37.54 36.90 36.16 35.01 34.78 34.44 34.18 34.15
32.65 28.37 28.11 29.78 25.45 27.54 40.50 38.89 34.16 37.50 38.64 40.64 40.13 40.23 38.43 37.92 38.72 39.21 39.40 39.06 39.59 38.57 38.94 38.51 36.98 36.42 36.51 37.22 36.93 36.08 35.88 37.62 38.70 38.88 38.65 37.34 35.91 37.58 37.08 33.95 33.47 33.42 32.59 30.51
31.05 35.24 32.92 34.06 33.98 40.47 40.36 39.63 40.90 41.43 40.08 39.78 40.55 40.55 40.00 39.10 38.54 39.17 38.18 38.28 38.43 38.15 38.02 38.07 36.72 36.27 36.68 36.99 37.21 36.07 36.74 38.61 38.45 36.98 35.45 35.18 35.43 35.00 34.24 32.96 31.77 31.11 30.02 29.46
35.47 39.04 35.19 36.04 37.76 39.39 40.53 40.97 41.63 41.76 40.57 41.37 42.29 41.93 40.82 38.94 39.04 38.40 38.12 37.73 37.37 37.74 37.59 37.79 36.84 36.13 35.58 36.82 37.82 37.42 38.14 38.57 36.66 34.31 33.55 33.67 33.31 33.93 32.38 32.16 31.49 29.88 29.08 29.90
34.89 35.45 35.84 35.26 38.24 39.68 40.98 40.84 42.18 42.82 43.02 42.32 42.38 42.63 41.59 40.14 39.11 38.76 37.91 37.41 37.52 37.56 37.33 37.08 36.67 36.35 36.17 37.30 37.43 37.60 37.49 36.43 34.86 33.22 32.98 32.62 32.89 31.30 30.14 30.52 30.55 31.59 30.72 35.04
35.72 34.23 32.78 33.77 39.25 37.67 39.06 41.67 43.04 41.74 41.46 42.60 41.85 41.20 41.71 41.08 39.72 39.07 37.61 37.66 37.38 36.79 37.04 36.78 36.54 36.42 36.34 36.68 36.27 36.20 36.56 35.52 33.72 32.91 32.39 32.69 31.47 29.70 29.83 29.15 29.40 36.17 36.99 37.31

GFSCGP_sfc_wetblb_102.txt.gz
Wetbulb
45.45 40.13 36.93 40.14 42.04 42.09 40.48 38.40 37.16 40.72 44.41 41.42 40.41 39.98 40.56 42.85 41.75 42.02 43.91 46.29 50.44 56.25 61.77 62.61 62.59 62.87 63.67 64.11 64.79 64.10 62.61 61.26 59.56 58.28 56.74 55.75 55.35 56.98 54.07 50.80 49.75 49.72 50.72 49.66
41.18 37.26 43.32 45.92 45.90 43.59 41.43 38.30 37.48 40.35 43.37 41.58 40.14 39.07 40.74 41.83 41.96 42.37 43.24 45.14 49.50 53.43 57.00 60.82 61.76 62.22 62.95 63.56 64.33 64.10 63.42 60.31 59.54 58.85 59.03 58.42 58.21 58.08 53.30 51.41 50.06 49.92 49.56 49.86
37.77 42.06 47.18 45.97 43.51 42.18 40.58 38.46 38.19 38.53 41.73 41.04 38.02 37.19 37.39 40.89 41.82 42.87 43.90 46.00 49.18 51.72 58.84 61.01 61.03 61.47 62.21 64.01 64.55 64.00 61.23 60.71 60.47 60.36 59.60 58.60 56.07 54.58 53.67 50.83 50.58 49.38 49.62 49.89
40.25 45.87 45.18 44.13 42.79 43.28 37.64 43.71 43.06 41.71 38.85 32.68 37.32 28.93 34.04 37.56 38.79 40.86 44.22 45.63 51.51 56.96 60.11 60.81 61.47 61.05 61.99 64.00 65.50 63.46 61.16 60.74 60.58 60.19 60.13 58.52 57.56 54.54 53.49 51.09 50.12 48.49 48.62 48.55
37.33 40.10 42.16 42.23 42.88 44.48 41.03 45.98 43.15 42.15 38.83 36.23 36.30 30.67 31.55 36.73 38.27 42.33 44.40 46.83 49.41 56.87 59.99 60.55 61.22 61.65 63.14 63.92 64.18 62.12 61.26 61.09 60.45 60.62 59.94 58.82 56.48 54.11 52.68 52.97 52.40 49.71 47.72 48.39
39.64 44.82 45.78 43.66 45.77 45.60 46.75 44.03 41.11 39.25 37.24 29.34 34.62 31.21 29.51 37.09 40.47 43.53 46.85 48.26 48.98 55.00 57.58 60.30 61.56 62.36 62.47 64.04 63.16 61.83 61.32 61.43 60.38 60.10 58.38 57.47 54.89 52.72 52.84 51.87 51.20 49.91 47.57 47.52
36.93 39.52 44.61 46.15 41.20 44.60 44.48 38.83 29.92 24.83 28.43 28.59 36.02 32.85 31.58 41.08 44.30 45.55 46.40 47.99 50.31 51.43 54.62 57.95 59.26 59.91 61.30 63.29 62.99 62.25 61.67 61.28 60.56 59.62 57.70 56.57 55.00 53.42 52.93 52.80 51.17 48.35 46.62 46.92
29.81 29.68 39.74 43.58 40.66 39.07 40.44 40.03 32.11 21.81 27.01 29.06 36.98 31.34 37.41 42.94 46.16 48.06 47.75 49.15 51.45 52.38 54.13 56.21 59.79 59.92 60.53 63.14 63.53 63.40 62.72 61.68 61.27 58.23 57.19 56.47 56.22 55.30 54.24 52.42 50.52 48.31 47.98 48.30
30.89 32.01 41.98 42.71 43.44 42.84 38.88 36.97 39.79 32.83 34.16 28.95 33.92 38.18 41.93 46.38 46.38 47.56 47.96 48.32 49.03 51.20 53.14 54.58 56.91 58.76 60.90 62.08 62.09 61.80 61.26 60.80 59.15 56.95 56.60 55.59 53.97 51.67 51.03 50.55 50.39 48.94 48.57 47.83
35.32 29.89 38.32 41.32 43.79 43.85 40.26 42.07 35.62 36.16 28.18 21.06 30.46 32.11 33.78 42.65 43.66 45.75 47.83 48.33 48.95 50.41 51.54 53.14 54.66 54.36 54.48 55.72 57.06 59.18 58.50 57.41 55.06 52.85 49.60 48.75 49.48 49.54 48.76 47.82 46.15 46.26 44.00 45.06
35.86 32.28 33.33 37.83 36.29 36.10 35.55 34.79 39.88 37.36 36.74 30.21 24.27 28.82 39.33 38.99 42.06 41.58 45.39 49.22 47.80 47.20 47.31 45.24 44.89 46.36 47.50 48.30 47.80 48.24 50.66 50.14 50.13 50.38 49.32 48.34 47.57 47.06 46.12 45.68 45.17 43.20 44.43 42.97
37.73 32.94 28.39 33.05 39.45 40.61 37.45 34.79 38.58 32.55 31.75 35.46 32.70 30.64 38.94 39.09 40.68 42.21 42.32 43.70 44.50 45.63 45.49 44.68 44.17 44.42 44.25 45.14 47.97 48.64 49.32 48.50 48.09 47.78 46.97 46.15 45.71 43.72 44.87 43.65 41.89 43.84 41.51 40.67
37.14 31.57 25.95 29.61 33.41 36.80 34.23 36.50 38.12 38.88 36.65 31.99 27.17 31.37 40.19 39.27 39.68 40.90 42.27 43.11 43.39 43.83 43.43 43.36 43.51 41.84 41.92 42.90 44.64 45.30 45.58 44.10 45.17 45.25 44.00 42.64 42.27 42.30 39.99 41.01 40.57 39.40 38.91 38.48
42.95 33.47 30.44 26.10 30.42 33.39 32.23 35.80 36.88 35.67 26.76 27.51 29.64 31.06 37.10 38.82 38.63 40.03 41.05 41.27 41.81 43.20 42.33 41.27 40.45 39.94 40.42 41.72 41.56 41.45 41.95 43.34 42.71 42.52 41.13 39.11 39.14 39.89 38.11 37.61 37.47 37.42 36.90 36.54
35.81 29.76 31.61 33.81 35.75 35.85 34.94 34.83 35.94 32.55 31.40 27.29 30.46 31.77 35.23 38.13 39.65 40.26 41.42 42.22 42.28 41.93 41.91 41.09 39.85 39.46 39.42 39.82 42.09 42.60 42.47 41.96 40.48 39.52 38.62 37.47 37.64 37.86 37.85 37.61 37.48 37.60 37.48 37.13
33.18 29.30 32.00 31.47 36.10 35.74 34.53 35.95 35.37 34.46 33.16 32.70 33.96 33.06 37.94 38.85 40.03 39.79 40.26 40.97 40.55 40.72 40.77 40.51 40.43 39.72 38.81 38.25 38.08 38.55 38.50 38.57 39.01 38.21 37.98 38.59 38.80 38.51 37.73 37.48 37.02 36.75 36.33 35.88
30.51 30.54 29.49 26.77 33.45 34.28 31.15 33.55 34.35 33.12 34.72 33.23 30.85 34.27 37.27 37.21 38.62 37.61 38.53 40.72 40.42 40.03 39.48 39.27 39.20 38.65 38.25 37.96 38.23 37.23 37.58 37.99 37.94 37.98 37.92 38.15 38.19 37.81 37.22 36.93 36.67 35.80 34.87 34.58
30.36 30.69 30.31 26.58 30.58 24.58 34.03 37.06 37.31 36.45 36.99 36.65 36.78 37.44 38.04 37.55 37.44 36.87 38.07 40.17 40.03 40.11 39.08 38.46 38.00 37.48 37.55 37.35 37.11 36.88 37.26 36.95 37.06 36.42 36.74 37.21 37.16 36.64 36.47 36.10 35.33 34.73 34.31 34.29
33.21 31.30 27.73 24.77 26.06 32.12 34.42 36.19 35.13 33.44 33.17 37.88 37.29 37.68 37.46 38.24 36.88 36.32 38.84 40.78 40.23 39.18 38.29 37.39 37.16 36.97 36.45 36.88 36.91 36.62 35.88 36.22 36.61 36.12 36.17 36.50 36.80 36.29 35.96 35.38 34.75 34.73 34.40 34.24
34.24 33.72 30.54 27.17 24.81 24.71 34.01 36.72 38.29 36.52 28.61 38.18 39.09 37.98 37.62 37.11 32.84 34.05 37.36 38.87 38.56 38.45 38.65 37.60 36.89 36.64 36.44 36.02 36.64 36.33 36.01 36.00 35.82 36.42 36.68 36.67 36.56 36.08 35.40 34.62 34.19 34.18 33.81 34.36
31.15 30.32 27.34 26.73 24.19 30.82 37.79 38.11 38.86 26.65 30.42 38.26 39.60 38.49 37.85 36.06 36.35 37.05 38.64 38.30 38.76 38.58 37.91 37.35 36.79 35.86 35.62 36.19 36.87 35.93 35.41 35.28 36.73 37.65 37.62 36.97 36.09 35.48 34.79 33.73 33.27 32.88 32.78 32.27
31.58 27.91 26.83 27.90 25.34 27.08 39.97 37.52 33.96 36.73 36.78 39.16 38.80 38.92 37.53 36.56 37.28 37.78 37.98 37.61 37.82 37.23 37.13 36.86 35.24 34.63 34.57 36.00 36.43 34.77 34.73 36.39 37.17 36.88 36.31 35.41 34.15 36.01 35.52 32.32 31.65 31.32 29.85 28.28
30.88 34.45 31.70 32.88 33.17 39.91 40.29 39.40 39.88 39.82 39.57 38.96 39.15 39.55 38.63 37.62 37.17 37.65 36.78 36.61 36.57 36.52 36.25 36.10 35.25 34.71 35.04 36.04 36.16 35.17 35.40 36.82 35.86 34.32 33.12 32.93 33.67 33.06 32.21 30.49 29.34 28.97 28.36 28.34
33.50 36.38 34.18 34.89 36.81 38.82 40.02 39.47 40.76 41.00 40.30 41.23 41.42 40.50 39.26 37.81 37.65 36.94 36.53 36.10 35.93 36.08 35.82 35.87 35.56 34.71 34.35 35.76 36.56 36.08 36.28 35.76 33.96 32.21 31.90 32.09 31.76 31.95 30.03 30.33 30.10 28.82 28.98 29.75
33.50 33.48 33.55 33.22 36.27 38.84 40.60 40.18 40.53 41.17 41.17 40.89 41.43 41.22 39.81 38.74 37.76 37.67 36.45 36.02 36.21 36.17 35.90 35.85 35.27 34.94 35.07 35.94 35.34 35.18 35.14 34.64 32.84 31.38 31.65 31.56 31.03 28.76 28.50 29.24 29.37 31.05 30.34 32.32
34.76 34.84 34.01 33.58 37.90 37.93 37.97 40.50 41.75 41.67 41.62 41.71 41.09 40.09 40.00 39.69 38.38 37.76 36.56 36.45 36.16 35.44 35.39 35.26 35.04 35.35 35.10 34.86 34.31 34.57 35.01 33.93 32.35 31.59 31.51 31.09 28.36 27.80 28.06 27.42 27.92 34.65 35.88 36.66

GFSCGP_sfc_wetblb_105.txt.gz
Wetbulb
44.19 39.39 36.03 39.58 41.19 40.65 39.57 37.25 36.05 39.52 43.09 40.56 39.33 39.04 40.52 42.69 41.45 40.47 40.70 40.80 44.19 52.69 60.40 62.71 62.52 63.47 62.50 62.73 63.29 64.16 65.14 66.00 63.08 59.01 56.16 54.35 53.62 54.27 52.74 50.38 50.71 49.56 49.04 48.33
39.76 35.89 42.07 44.34 44.91 42.63 40.75 37.89 37.58 40.27 42.69 40.46 39.25 38.91 40.63 41.17 41.27 42.13 41.29 41.04 42.11 45.62 52.13 60.07 61.37 61.74 62.21 62.18 63.37 64.33 65.10 64.29 61.89 60.09 58.40 56.56 55.90 57.60 55.75 51.44 49.16 50.49 50.26 49.47
36.48 40.99 45.94 45.13 43.05 41.33 40.13 37.94 37.64 37.86 42.21 41.33 38.30 35.64 37.62 39.98 40.68 41.59 41.64 43.02 45.62 44.94 49.37 59.15 60.55 61.00 61.89 62.08 63.18 64.04 64.61 63.03 60.17 59.00 58.99 57.31 56.96 56.74 56.08 52.64 49.38 49.27 49.91 50.20
38.22 44.04 42.49 42.36 41.54 42.12 36.57 42.95 42.99 41.67 39.51 35.11 40.03 30.22 36.50 38.98 38.27 39.92 44.17 44.12 46.32 48.27 54.10 59.33 60.29 60.36 61.28 62.13 63.68 63.64 62.97 60.60 59.51 59.40 58.19 56.31 55.87 54.22 56.44 55.20 51.76 50.26 49.29 49.31
36.36 38.34 39.89 40.67 41.41 43.01 39.53 43.93 42.39 40.82 37.42 36.98 35.87 33.00 32.01 36.80 39.34 42.77 45.30 47.05 48.22 48.34 56.63 58.79 59.90 60.77 61.36 64.30 63.42 61.56 61.84 61.41 60.76 59.83 59.47 58.29 58.00 55.18 54.36 53.44 51.90 49.56 48.27 48.45
38.30 42.56 43.76 42.37 44.47 43.86 44.81 42.46 39.62 37.29 34.50 27.86 34.72 34.21 29.13 37.52 41.21 43.36 46.03 47.26 48.48 49.46 56.93 58.36 60.26 61.22 61.78 63.95 63.19 61.50 60.83 61.09 61.43 61.11 60.59 60.01 56.52 54.77 52.54 52.52 52.10 53.11 50.04 47.89
35.39 37.90 41.37 44.55 39.18 42.00 42.31 37.44 29.44 23.31 24.59 28.32 36.05 33.72 31.78 39.14 43.07 45.75 45.32 46.63 50.77 51.98 54.82 59.75 58.97 59.87 60.94 61.47 62.93 62.04 61.38 60.28 60.72 60.59 59.60 58.18 56.54 55.35 53.59 52.27 51.77 52.03 50.88 47.53
28.55 28.54 37.88 42.51 38.30 36.53 38.90 36.90 33.16 22.21 24.78 27.99 36.54 31.65 37.11 44.28 46.64 49.33 49.06 50.30 52.67 53.90 56.67 57.05 58.87 59.39 59.60 62.15 61.70 61.78 61.16 61.11 60.45 58.65 57.78 57.87 56.77 54.29 54.15 53.87 52.87 51.84 50.42 47.78
29.63 30.18 39.65 41.70 41.07 40.95 37.50 34.15 37.75 32.67 33.87 27.87 32.52 38.28 41.84 45.82 46.41 48.47 48.80 47.85 48.86 52.01 54.04 55.59 57.18 59.38 60.39 62.38 61.84 62.16 61.88 60.69 59.33 59.04 59.04 57.36 55.45 55.37 55.35 53.55 51.12 50.54 49.05 47.83
33.57 28.25 36.21 39.46 41.76 41.58 38.98 40.36 33.54 33.60 27.06 24.94 28.30 29.57 33.02 38.59 42.21 44.01 48.30 46.41 46.70 48.22 49.51 50.61 52.64 54.79 55.95 57.86 59.89 60.12 59.53 58.33 57.65 57.32 56.87 55.51 54.25 53.90 50.90 48.96 48.71 47.67 45.54 45.07
34.54 31.22 31.87 35.96 34.38 32.73 33.70 32.34 37.19 35.46 35.59 29.46 25.04 28.34 36.93 37.91 40.77 41.11 44.44 45.10 45.91 44.74 44.56 46.17 46.29 48.12 49.42 50.62 53.78 54.52 55.11 53.18 49.93 49.18 48.24 47.43 46.87 46.72 46.19 45.74 44.82 43.19 43.01 41.98
36.01 31.32 27.38 31.71 37.25 38.07 35.55 32.58 35.82 29.65 26.99 34.04 32.51 29.31 38.09 37.46 40.74 42.64 42.54 45.02 44.48 45.16 44.49 44.06 44.56 45.72 45.56 47.72 49.21 48.84 48.61 47.45 46.83 46.86 46.08 45.18 45.02 44.27 42.28 41.73 43.29 41.58 40.53 40.72
35.51 30.09 24.13 28.20 32.38 35.50 33.12 34.60 34.32 37.35 33.31 29.31 24.67 29.70 40.10 38.76 38.99 40.33 41.79 42.21 43.31 43.63 43.11 42.08 42.00 42.31 43.06 43.48 44.68 43.76 42.69 42.59 44.10 44.85 43.92 43.14 41.69 40.18 40.96 39.35 39.47 39.16 38.56 37.84
40.68 31.77 28.22 24.17 28.56 31.93 31.01 34.35 34.38 32.34 25.30 25.33 27.64 30.41 35.15 38.00 38.42 39.63 39.54 40.59 41.09 41.16 41.03 40.55 39.99 39.23 39.90 40.39 40.17 40.20 40.00 41.68 41.61 41.42 40.01 39.66 37.51 37.12 36.92 36.79 36.99 36.45 36.00 35.75
34.40 28.43 29.12 32.00 33.95 33.91 33.38 33.67 34.01 30.20 29.99 26.39 28.86 30.67 34.75 36.17 36.81 37.74 40.02 40.79 40.23 39.79 39.68 39.10 38.43 38.11 38.81 39.92 40.17 39.61 38.66 38.56 39.44 38.81 37.83 36.23 36.50 36.72 36.81 36.61 36.38 36.32 36.29 35.84
31.65 26.47 29.34 29.62 34.36 34.02 32.53 34.96 34.64 32.24 31.26 31.35 32.07 31.74 36.13 37.71 37.08 38.13 37.70 39.68 39.07 38.84 39.13 39.27 38.86 38.32 37.55 36.92 36.92 37.46 37.30 37.49 38.05 36.97 36.63 37.47 37.57 37.25 36.49 36.11 35.78 35.72 35.35 35.05
29.80 27.57 27.93 25.11 31.49 32.31 29.58 32.65 32.76 32.02 33.22 31.97 30.01 32.96 36.72 36.00 37.78 36.77 37.42 39.21 38.74 38.32 38.32 38.33 38.09 37.45 37.02 37.09 37.47 36.54 36.32 36.65 36.60 36.65 36.68 37.04 37.10 36.59 35.94 35.87 35.78 35.04 34.14 33.85
29.30 29.73 28.62 25.70 29.22 24.30 32.78 36.12 36.09 35.09 36.05 35.60 35.30 36.10 37.46 37.29 36.57 36.74 37.94 38.45 38.67 38.53 37.98 37.30 36.84 36.29 36.16 36.16 36.38 36.24 36.33 35.79 35.78 35.34 35.67 36.11 35.99 35.68 35.56 35.31 34.63 33.91 33.69 33.72
32.20 29.84 26.95 24.12 24.94 30.53 33.95 34.61 34.13 32.52 32.69 37.81 36.38 36.61 36.07 37.03 35.61 35.96 37.78 39.44 39.16 37.94 37.38 36.55 36.45 35.98 35.09 35.41 35.46 35.33 34.92 35.24 35.48 35.10 35.01 35.43 35.75 35.26 35.10 34.43 33.68 33.59 33.44 33.00
32.12 32.28 29.60 26.47 23.81 23.93 33.18 35.45 36.74 35.32 28.45 37.43 38.09 36.79 35.91 36.03 31.44 34.21 35.96 38.69 37.81 37.52 37.30 36.22 35.49 35.15 34.80 34.41 35.24 35.51 34.92 35.02 34.86 35.33 35.55 35.54 35.49 35.04 34.45 33.86 33.27 33.18 32.51 33.26
28.62 28.27 24.77 26.22 23.11 29.41 36.41 37.65 37.08 25.95 30.47 37.43 38.68 37.47 36.70 34.98 35.71 36.44 36.84 36.50 36.72 36.55 36.41 35.95 35.58 34.76 34.27 34.99 35.80 34.75 34.46 34.34 35.49 36.32 36.20 35.74 34.65 34.02 33.34 32.50 32.12 31.74 31.59 30.61
29.95 26.58 25.26 26.47 23.88 25.75 39.22 36.31 32.99 35.64 35.91 38.18 38.14 38.32 37.64 36.69 36.26 36.69 36.76 36.27 36.40 36.12 36.09 35.43 34.17 33.63 33.81 35.48 35.36 34.02 33.93 35.04 35.47 35.04 34.41 33.23 32.58 34.33 33.79 30.86 29.96 29.58 28.07 27.24
28.94 33.54 30.71 31.31 31.38 38.50 39.07 38.28 39.08 38.80 38.56 38.64 38.69 39.13 38.44 36.78 36.40 36.61 35.81 35.56 35.56 35.51 34.93 34.81 34.07 33.68 33.99 34.82 35.22 34.33 34.26 34.98 33.90 32.73 31.66 31.89 32.43 31.12 30.21 28.74 27.97 27.59 27.87 28.24
32.91 35.39 33.53 33.74 37.35 37.88 39.29 39.46 40.01 40.05 39.26 40.28 40.41 40.23 38.59 37.35 36.81 35.99 35.44 34.94 34.75 34.77 34.34 34.64 34.44 33.91 33.59 34.89 35.32 34.70 34.09 33.94 32.66 31.22 30.95 31.05 30.11 29.83 28.45 29.30 29.41 28.33 28.40 28.79
33.16 32.86 32.03 32.48 34.71 37.68 39.23 39.91 40.28 40.30 40.52 40.52 40.55 40.39 39.24 38.18 36.94 36.41 35.35 35.00 35.08 34.87 34.68 34.84 34.26 34.28 34.35 34.37 33.61 33.70 33.88 33.30 31.55 30.45 30.73 30.11 28.53 27.17 27.14 27.91 27.77 30.21 29.73 30.96
33.31 32.65 31.50 32.59 36.40 36.07 37.64 39.05 41.11 40.33 40.89 41.05 40.66 39.39 39.08 39.10 37.97 36.69 35.77 36.01 35.63 34.67 34.31 34.14 34.22 34.78 33.86 33.37 33.13 33.49 33.72 32.71 31.40 30.55 29.89 29.64 27.30 26.63 26.66 26.64 27.25 33.96 35.62 36.26

GFSCGP_sfc_wetblb_108.txt.gz
Wetbulb
42.74 38.85 35.09 38.33 40.19 39.97 38.48 36.85 35.75 39.69 42.87 39.75 38.82 38.87 40.95 43.29 41.63 40.29 40.11 40.47 40.88 42.16 57.33 61.93 62.93 63.04 62.59 62.41 62.32 62.66 63.65 65.38 63.69 59.73 57.64 55.91 55.32 52.48 51.02 51.02 53.53 53.90 50.79 47.59
38.62 34.67 40.47 43.35 44.00 41.83 40.16 37.15 36.59 40.15 42.40 40.56 39.82 38.92 42.43 42.78 42.24 41.55 41.46 40.59 40.17 41.08 43.58 56.26 61.54 62.32 61.69 61.58 62.21 62.92 64.04 65.30 65.29 64.19 61.23 56.86 55.74 56.03 54.89 54.44 50.70 50.11 50.18 48.43
35.66 39.34 44.48 42.76 41.63 39.87 38.53 36.64 36.33 37.25 41.44 41.27 40.61 35.89 37.13 40.86 40.21 40.99 42.73 44.20 45.56 46.12 47.25 47.80 59.56 61.19 61.44 60.96 61.79 62.88 64.02 65.02 65.45 62.13 59.24 58.00 57.42 56.62 54.19 52.51 49.80 50.04 50.11 49.67
37.47 41.43 40.37 40.52 39.87 40.45 35.06 41.10 41.12 40.35 36.78 31.81 40.44 28.49 35.10 38.25 38.23 42.60 44.27 45.12 46.27 47.21 48.54 50.02 58.04 59.94 60.84 61.10 62.24 63.02 63.88 64.02 62.24 59.73 58.79 56.40 56.52 53.14 56.61 54.57 52.86 52.65 51.48 49.59
34.87 36.93 37.52 38.94 39.96 41.29 38.02 42.31 40.89 39.23 36.04 31.43 35.97 31.06 30.86 37.93 38.50 41.89 44.64 46.72 47.67 49.37 48.59 52.03 58.14 60.19 61.35 61.71 62.09 62.98 63.71 62.03 59.71 59.68 58.87 57.09 56.53 56.71 55.65 53.43 52.72 52.28 51.23 49.75
37.64 40.86 40.64 41.21 43.36 42.19 43.94 40.85 37.28 35.14 32.58 27.43 35.53 32.11 29.38 36.84 39.75 42.01 45.47 47.25 49.97 51.74 52.21 55.96 58.00 59.94 60.20 61.54 62.55 62.49 61.84 60.99 60.06 59.94 59.04 57.57 57.15 55.91 54.56 53.36 52.21 50.92 50.56 49.45
33.86 36.18 39.40 43.12 37.51 39.76 41.39 35.65 26.85 24.06 23.47 23.07 36.29 34.45 34.68 41.37 45.01 47.18 47.21 48.99 51.63 52.85 55.73 55.94 56.26 57.91 59.62 60.99 62.12 61.81 60.98 59.94 59.96 60.36 59.69 59.05 57.56 56.62 55.50 53.68 52.94 51.24 50.72 48.25
26.89 27.54 36.09 40.60 36.56 34.31 37.91 35.52 29.22 25.54 25.47 27.85 35.11 30.70 36.24 43.17 46.23 48.80 49.37 49.58 51.52 53.30 54.90 56.74 58.72 58.99 59.27 61.45 61.42 61.10 60.87 60.01 60.57 59.84 58.30 58.32 58.19 58.78 57.72 55.64 53.89 52.75 52.49 52.68
28.49 28.38 37.70 39.52 39.41 39.29 34.90 32.92 36.65 32.33 28.79 28.45 26.95 36.81 42.05 42.67 42.47 45.15 47.98 48.02 47.93 49.00 51.93 53.00 55.98 58.35 61.52 60.34 60.83 61.10 61.01 60.32 58.99 59.09 59.12 58.33 58.04 55.61 54.76 54.66 54.88 54.25 52.33 50.07
32.11 27.08 34.25 38.01 40.14 39.38 38.71 39.47 31.47 30.86 22.43 23.99 27.20 27.88 32.16 37.35 39.63 43.53 46.02 45.34 44.80 44.98 46.27 49.21 50.33 52.78 56.93 59.56 59.92 59.79 59.31 58.35 59.16 59.75 59.54 56.93 55.81 56.18 55.75 54.10 51.57 49.32 48.60 47.65
33.45 30.29 30.65 34.24 33.00 31.22 32.76 30.85 34.44 33.77 32.64 24.11 26.68 27.13 37.72 37.65 40.22 42.52 45.14 45.48 44.73 44.48 44.40 45.80 47.68 49.06 53.45 54.11 55.02 55.63 54.16 53.08 52.12 50.79 52.20 50.19 50.55 48.81 47.95 46.88 45.77 44.56 43.84 42.99
34.48 29.86 26.08 30.63 34.77 36.42 34.14 30.64 33.66 28.46 27.40 30.72 28.93 30.92 37.27 37.40 40.91 42.99 42.67 43.94 43.05 43.57 42.86 44.18 44.22 44.81 46.13 45.93 46.84 45.90 46.04 45.65 45.92 45.89 45.34 44.84 44.55 43.27 42.10 41.48 41.41 42.27 41.80 41.21
34.18 28.90 23.23 26.57 30.75 33.31 31.84 32.95 32.97 34.29 31.18 27.03 22.43 26.99 37.07 38.89 38.51 40.96 41.10 40.35 41.24 41.36 40.97 42.32 42.38 40.72 42.08 42.89 42.72 42.47 42.81 43.13 43.63 44.26 43.06 41.95 40.88 40.92 38.73 37.76 37.81 38.06 37.59 37.37
39.70 30.27 27.06 22.86 26.82 29.99 29.65 32.70 32.46 30.55 24.66 24.32 26.29 28.93 34.07 35.44 37.53 38.43 39.02 39.95 39.94 40.25 40.82 41.33 40.80 40.39 40.64 40.81 39.97 40.24 39.78 40.62 40.90 40.62 39.15 38.03 37.15 36.82 36.00 35.76 35.68 35.74 35.58 35.40
32.48 27.16 27.78 30.13 31.68 31.51 31.44 32.02 32.50 29.68 28.90 25.83 28.38 29.08 34.15 34.37 36.06 37.59 38.71 38.94 38.94 39.53 39.96 39.45 38.72 37.44 37.44 37.81 37.82 37.91 37.89 38.04 38.50 37.90 37.06 35.55 36.08 36.27 36.37 36.11 35.87 35.87 35.71 35.32
30.70 25.81 27.78 27.10 32.12 32.04 31.21 33.26 33.04 32.31 30.35 30.55 30.99 31.28 35.71 36.17 36.90 37.29 37.36 38.05 37.68 38.03 38.30 38.17 37.87 37.64 37.13 36.28 36.26 36.60 36.21 36.44 37.27 36.62 36.07 36.70 36.55 36.12 35.48 35.36 35.10 35.11 34.77 34.45
29.17 26.88 26.94 24.15 29.66 30.81 28.90 31.93 32.32 30.70 32.20 31.31 28.90 32.81 35.28 35.86 37.59 36.82 36.94 38.06 37.76 37.67 37.75 37.34 37.04 36.25 36.07 35.88 36.11 35.03 34.99 35.52 35.45 35.49 35.57 35.88 35.87 35.44 34.97 35.06 34.94 34.15 33.33 33.41
27.58 28.14 27.52 24.76 27.95 23.91 32.07 34.52 35.18 33.24 35.15 35.17 34.21 35.56 36.88 36.48 36.34 36.51 37.52 38.22 37.50 37.69 37.42 36.74 36.08 35.43 35.39 35.63 35.55 35.31 35.23 34.72 34.83 34.61 34.92 35.19 35.29 34.99 34.78 34.66 34.04 33.28 33.19 32.93
30.89 28.85 25.91 23.01 23.98 29.38 32.99 33.49 33.49 31.90 32.05 36.61 35.67 35.65 35.21 36.15 35.51 35.81 38.52 39.05 38.61 37.58 37.08 36.10 35.62 35.02 34.27 35.00 34.81 34.62 34.24 34.66 34.77 34.18 34.09 34.61 34.87 34.47 34.33 33.65 32.86 32.50 32.37 31.92
31.33 30.70 27.88 25.77 23.47 23.33 31.86 34.55 35.56 34.26 28.17 36.01 37.25 36.01 35.24 34.97 31.07 33.53 36.50 38.71 37.73 37.35 36.76 35.72 34.77 33.99 33.58 33.29 34.47 34.64 34.11 34.26 33.95 34.35 34.49 34.49 34.42 34.05 33.43 32.57 31.96 31.86 31.29 32.41
25.86 26.01 23.69 24.37 23.08 28.47 35.04 36.67 35.27 25.74 30.85 35.94 37.69 36.56 35.43 34.51 35.75 35.90 36.44 35.89 36.31 36.10 35.79 35.04 34.51 33.71 33.26 34.26 34.92 33.89 33.65 33.36 34.38 35.18 34.80 33.89 33.15 32.61 31.99 31.19 30.83 30.23 29.84 28.39
28.31 25.16 24.04 25.12 23.53 24.61 37.73 35.46 31.45 34.63 34.48 36.67 37.26 37.18 36.64 36.37 35.98 35.78 36.11 35.46 35.40 35.17 35.27 34.57 33.58 32.98 33.34 34.50 34.58 33.38 33.21 33.93 34.06 33.65 32.88 31.57 30.86 32.67 31.86 28.79 27.96 27.71 27.11 26.77
29.10 32.36 29.45 30.35 30.62 37.21 38.02 36.69 37.37 37.98 37.50 37.31 37.41 38.62 38.80 37.14 36.06 36.12 35.20 34.51 34.55 34.67 34.17 34.00 33.51 32.82 33.11 33.97 34.41 33.53 33.32 33.35 32.55 31.57 30.71 30.95 30.61 29.14 28.45 27.49 27.10 27.50 27.54 27.69
32.38 34.22 32.50 33.32 36.04 37.29 38.91 39.81 39.25 39.60 38.59 38.90 39.24 39.64 38.19 37.00 36.53 35.88 35.03 34.12 33.78 33.68 33.42 33.67 33.77 33.07 32.80 33.95 34.38 33.46 32.74 32.87 31.75 30.43 30.02 29.19 28.82 28.00 27.15 28.04 27.82 28.06 27.65 27.29
33.19 33.39 32.04 31.66 35.01 35.98 38.51 38.94 39.98 39.70 39.74 39.56 39.64 39.89 39.01 37.73 36.41 36.03 35.12 34.23 33.97 33.62 33.70 34.25 34.06 33.91 33.32 33.27 32.74 32.83 32.75 32.20 30.56 29.69 29.42 27.25 27.07 25.90 25.59 26.59 26.89 29.21 28.91 30.58
32.12 31.60 31.10 31.07 38.09 35.91 35.09 38.51 39.30 39.08 39.48 39.79 39.73 38.52 38.43 38.54 37.36 36.42 35.57 35.33 34.65 33.56 33.48 33.37 33.75 33.92 32.48 32.46 32.32 32.34 32.52 31.89 30.56 29.29 27.76 28.74 26.15 25.73 26.08 26.29 26.99 33.78 35.25 35.51

GFSCGP_sfc_wetblb_111.txt.gz
Wetbulb
45.38 41.92 39.58 41.83 42.27 42.53 40.90 38.77 38.66 41.98 45.08 42.35 42.28 42.50 44.40 47.24 46.65 46.30 47.08 47.18 46.87 46.71 48.62 55.16 63.72 65.04 64.43 64.15 64.46 65.21 65.25 66.09 66.79 62.89 60.70 59.83 59.64 58.69 59.77 60.25 59.15 53.55 52.35 50.25
41.50 38.60 43.07 44.16 44.06 43.09 41.81 39.38 38.87 41.91 44.17 42.43 41.95 41.14 44.31 44.87 45.03 44.70 45.10 46.87 48.41 49.70 50.10 51.67 59.55 63.68 63.55 63.30 63.79 64.28 64.55 65.90 65.60 64.74 63.97 62.07 60.10 58.92 58.00 55.97 53.19 53.16 50.72 49.70
39.08 41.37 44.75 42.87 42.42 40.95 40.56 38.37 38.80 38.73 42.56 43.07 41.05 38.81 40.68 44.32 45.38 46.69 48.61 49.02 50.51 50.71 51.34 52.85 53.64 62.79 63.60 62.56 63.17 63.65 64.37 65.76 65.53 64.23 60.72 58.98 58.99 57.31 55.64 52.76 50.32 50.53 50.85 49.94
40.09 42.61 41.12 41.03 40.64 41.75 36.41 42.27 41.38 40.62 38.14 33.84 40.89 30.42 37.78 42.14 43.73 45.34 47.84 48.73 49.90 51.34 52.63 53.50 53.81 58.95 62.89 63.18 63.50 64.13 64.40 65.53 65.52 62.70 60.92 59.25 58.08 55.37 55.88 52.91 52.21 52.12 53.05 52.25
37.64 38.59 38.71 40.28 41.00 42.39 39.61 43.25 41.71 40.11 37.74 36.41 36.29 32.66 36.30 41.63 39.88 40.39 45.71 48.60 50.81 52.85 54.01 54.43 54.20 56.56 63.49 63.69 62.93 63.54 64.35 64.58 63.85 62.35 62.61 60.41 58.10 56.07 53.41 52.64 52.36 52.54 53.07 53.56
39.81 42.00 41.77 43.54 43.89 43.73 44.61 41.74 39.22 37.23 35.54 31.31 34.32 33.58 34.42 37.75 39.02 41.86 46.81 48.14 50.85 53.84 56.31 58.50 58.10 60.51 62.30 63.17 63.17 63.43 63.47 63.16 61.58 60.96 60.07 58.33 55.41 53.71 52.44 52.02 51.76 52.54 52.89 53.40
35.33 38.06 40.87 43.65 39.32 41.66 42.96 38.49 32.18 30.90 29.64 29.46 36.13 34.15 35.54 40.15 42.52 43.80 47.04 48.00 50.63 53.50 56.18 58.56 59.83 60.67 61.56 62.22 62.71 62.62 62.38 59.90 60.44 59.48 58.95 57.59 57.32 57.40 54.73 53.63 53.04 52.41 52.70 52.53
30.78 30.76 37.71 41.26 40.05 37.50 39.74 38.14 31.90 24.96 26.99 29.93 35.51 32.21 36.17 42.03 44.63 47.28 49.13 48.40 48.68 49.84 52.76 54.54 59.03 60.39 61.73 61.40 61.12 60.63 59.94 59.49 60.50 59.81 59.32 58.98 59.24 58.65 58.28 55.96 55.29 53.48 52.75 52.60
31.56 31.30 38.62 40.55 41.41 41.57 38.25 35.84 39.97 32.84 31.55 30.39 32.94 37.13 41.07 42.15 42.29 44.78 47.67 47.45 46.77 46.90 48.72 50.84 54.42 58.69 59.97 60.11 60.45 60.25 60.17 59.61 58.95 58.48 58.54 58.60 59.64 58.77 57.33 57.03 55.80 55.10 54.22 54.12
36.45 30.13 36.44 38.71 42.47 40.58 40.23 41.58 34.73 34.04 26.28 25.60 31.28 31.77 32.08 36.67 38.97 43.78 45.65 45.30 45.63 46.32 47.19 48.54 50.96 55.04 56.95 58.69 59.58 60.09 60.39 59.28 59.24 59.39 59.37 58.40 58.75 57.24 56.48 55.58 54.51 54.45 53.37 51.54
37.26 33.84 33.38 36.58 35.90 34.85 36.00 34.71 36.33 36.96 35.25 29.64 27.37 32.22 39.37 38.27 41.74 42.78 43.88 45.11 44.58 45.06 45.25 47.08 46.99 49.40 51.94 52.17 52.16 53.25 52.72 52.62 52.19 53.40 55.16 54.36 52.82 51.49 50.51 49.66 48.84 48.25 47.66 47.63
37.96 32.80 29.15 33.02 37.09 37.50 38.09 35.23 35.38 31.98 30.25 34.28 33.42 32.78 40.27 40.28 42.59 43.00 42.22 43.40 43.84 43.69 43.40 44.25 46.85 47.50 46.48 46.16 45.26 45.75 46.21 46.56 46.98 46.55 46.48 45.68 44.94 44.04 43.28 43.09 43.84 44.95 43.51 43.97
37.24 31.96 27.52 29.69 34.42 36.18 34.77 35.89 36.01 35.47 34.23 31.20 29.41 32.38 39.22 40.53 41.22 41.67 41.76 42.09 42.64 43.16 42.95 43.04 44.57 44.42 44.11 43.13 43.52 43.59 43.65 44.14 44.36 43.97 43.02 42.53 42.37 42.12 41.71 41.75 42.01 42.83 43.26 43.36
40.82 32.54 30.49 27.28 29.77 32.93 31.62 33.53 35.04 34.03 30.12 30.08 30.99 33.30 37.37 38.80 39.73 40.84 41.12 41.23 42.16 42.27 42.50 43.03 42.65 42.20 41.81 42.06 42.44 41.61 41.40 42.35 42.50 42.24 40.95 40.28 40.48 40.41 40.58 40.87 40.64 40.57 41.27 41.22
34.70 29.97 30.80 31.70 32.76 32.37 31.92 32.10 32.87 32.58 32.84 31.80 32.77 32.68 37.69 39.37 40.14 41.12 41.39 41.09 41.49 41.21 41.23 41.17 40.98 41.21 41.31 40.88 41.09 41.31 40.93 41.07 41.48 40.98 40.46 39.81 40.45 40.95 41.11 41.12 41.14 41.38 41.41 41.09
32.91 29.30 30.23 29.03 33.41 32.67 31.51 33.96 34.16 33.92 34.01 32.89 33.33 34.46 40.22 40.82 41.27 41.19 40.89 40.67 40.19 40.01 40.22 40.56 40.64 40.79 40.17 40.09 39.86 40.25 40.22 40.22 41.63 40.81 39.96 40.61 40.78 40.79 40.48 40.60 40.66 40.86 40.59 40.61
31.84 30.02 29.85 27.51 30.82 31.82 31.23 34.12 34.31 34.54 34.95 34.87 32.58 37.64 39.74 39.47 40.24 41.15 41.11 41.00 40.69 40.31 39.98 39.96 40.09 39.84 39.73 39.65 40.06 39.61 39.79 40.84 41.03 40.55 40.47 40.40 40.61 40.22 40.22 40.51 40.56 40.20 39.95 40.47
29.89 30.33 30.07 27.87 30.26 27.21 35.10 38.28 37.59 35.91 35.97 37.04 37.11 37.88 40.15 41.01 41.27 41.73 42.34 42.01 41.03 40.95 40.20 39.88 39.56 39.12 39.64 39.77 39.58 39.79 40.14 40.04 39.96 39.73 39.69 40.03 40.12 39.62 39.68 39.84 39.64 39.58 40.05 39.68
32.56 30.64 28.89 27.11 26.95 31.42 35.03 36.07 35.84 34.94 35.42 38.48 38.10 38.85 39.35 39.85 40.31 41.30 41.44 42.46 42.55 41.88 41.26 40.60 40.48 39.56 39.16 39.15 39.07 39.07 38.97 39.24 39.39 38.94 39.16 39.48 39.95 39.58 39.61 39.21 39.02 39.04 39.54 39.19
31.93 31.72 30.16 28.24 26.75 26.28 34.08 37.64 38.77 38.43 32.59 38.11 39.44 38.65 38.36 39.22 37.05 39.17 40.82 41.84 41.79 41.52 40.82 39.55 39.03 38.52 38.92 38.07 39.27 39.26 38.72 39.22 38.63 38.81 38.51 38.99 39.29 39.04 38.44 38.20 38.02 37.88 37.72 37.37
27.35 28.46 26.67 27.03 27.53 31.06 36.81 38.41 38.53 32.38 36.03 38.49 39.99 39.43 38.38 39.16 41.21 40.30 40.29 40.33 40.74 40.36 39.68 38.86 38.36 38.42 38.24 38.49 39.40 38.28 38.47 38.12 38.28 38.58 38.13 37.68 37.73 37.14 36.98 36.77 36.63 35.93 35.21 34.50
29.02 27.08 26.05 26.58 26.25 26.30 38.57 37.71 34.50 38.56 39.72 40.30 40.19 39.90 39.01 40.18 39.50 39.40 39.32 38.68 38.54 38.32 38.25 37.76 37.19 37.00 37.51 38.50 39.16 37.83 37.66 37.56 37.77 37.27 36.26 35.69 35.60 35.76 35.02 34.63 34.09 33.73 33.85 33.82
31.46 33.71 31.53 31.97 32.49 38.87 39.57 39.37 39.95 40.60 41.00 41.22 41.28 41.24 40.76 39.75 39.51 39.18 38.32 37.50 37.59 37.76 37.04 37.41 37.02 36.46 37.05 38.08 38.96 37.79 36.47 36.88 36.31 36.11 35.51 35.16 33.99 33.76 33.54 33.60 33.50 34.12 33.73 33.56
34.08 35.29 34.58 34.80 37.73 37.86 39.92 41.14 41.12 41.50 41.43 41.91 41.75 42.02 41.07 40.51 39.67 38.34 37.59 36.84 36.68 36.53 36.42 36.55 36.60 36.28 35.99 37.59 37.93 37.50 36.52 36.36 35.84 34.85 34.13 33.60 34.74 32.50 32.25 32.93 33.14 33.43 33.32 32.94
34.87 35.02 33.89 34.14 36.80 37.74 39.53 40.50 41.49 41.65 41.25 41.06 41.66 42.20 41.43 40.48 38.76 38.72 37.28 36.70 36.87 36.46 36.23 37.16 37.00 36.69 36.32 36.63 36.13 36.21 35.93 35.89 34.70 34.20 32.95 32.35 32.03 31.40 31.59 32.02 32.64 33.86 34.38 34.42
33.70 33.95 34.08 34.57 38.60 39.11 38.38 40.62 41.63 40.69 41.18 41.68 40.81 41.00 41.30 40.82 39.92 38.94 37.88 37.70 36.82 36.20 36.09 36.22 36.73 36.68 35.60 35.86 35.50 35.52 35.84 35.64 34.49 33.16 32.88 33.14 31.77 31.22 31.39 31.64 31.87 33.12 33.74 34.49

GFSCGP_sfc_wetblb_114.txt.gz
Wetbulb
50.15 47.54 43.71 45.23 46.54 46.33 45.11 43.63 42.92 45.85 48.14 46.05 45.61 45.40 46.95 49.59 49.55 48.79 50.59 52.14 52.56 52.23 53.46 53.33 59.94 66.57 67.51 67.78 67.58 67.54 67.40 67.41 67.13 65.95 63.69 63.93 64.62 65.45 65.09 64.64 64.05 58.97 57.58 55.05
46.95 44.42 46.55 47.48 47.06 45.57 44.88 43.11 43.37 45.75 47.11 46.22 44.67 43.60 46.05 49.25 49.46 50.22 51.08 51.88 52.84 54.30 54.66 55.86 56.44 63.82 65.67 66.53 67.08 67.25 67.25 67.34 67.15 66.80 64.80 65.17 63.09 64.14 64.42 64.07 63.59 59.16 56.62 54.34
43.36 44.92 46.71 45.15 45.23 43.51 44.11 42.10 42.19 42.67 45.86 46.32 44.30 42.19 44.19 48.46 50.03 50.44 51.29 53.32 54.13 54.42 54.92 55.99 56.76 60.39 64.90 65.37 66.07 66.81 67.32 67.44 67.50 66.46 62.63 60.98 59.99 59.91 58.89 57.04 56.07 55.92 54.87 54.02
44.23 45.42 43.45 44.61 43.71 44.33 41.23 45.34 44.66 43.65 42.20 37.96 43.91 37.35 42.43 45.40 46.06 47.62 49.88 50.92 53.09 55.03 56.41 56.98 57.89 58.53 63.28 64.50 66.04 66.89 66.78 67.06 67.55 66.13 63.66 62.35 61.59 58.05 57.61 53.16 52.46 52.62 52.99 52.83
42.02 42.67 42.36 43.01 42.99 45.07 42.81 46.60 44.63 43.37 42.46 41.13 40.90 37.04 40.17 44.00 39.93 43.31 46.78 49.22 52.10 54.89 57.00 57.34 58.32 59.14 60.91 65.38 65.10 65.63 64.98 65.43 64.88 63.61 62.01 62.31 59.14 55.93 54.83 52.47 52.13 52.63 53.63 54.86
43.23 45.38 44.53 45.27 45.86 45.41 47.30 45.74 43.47 43.02 42.09 37.77 38.64 36.31 37.84 37.53 39.35 41.63 45.79 48.90 49.72 52.76 57.46 60.05 61.28 60.63 60.76 65.26 64.61 64.82 64.87 65.20 64.46 64.10 62.98 58.56 55.19 52.87 51.79 51.88 51.76 52.19 53.30 54.49
42.16 41.74 44.34 45.51 43.68 46.22 46.19 44.29 39.65 37.63 37.07 34.77 40.60 38.25 37.75 40.96 42.45 43.98 47.58 47.63 49.14 51.46 53.95 58.28 61.27 62.03 62.90 62.51 63.56 64.12 63.59 60.63 60.86 60.41 58.47 56.49 54.47 53.08 52.09 51.70 52.37 52.75 53.22 53.77
37.26 36.57 41.42 44.36 42.92 41.22 42.62 42.72 37.22 30.62 31.82 35.09 40.64 35.31 38.72 42.38 46.49 49.38 49.28 48.63 48.51 49.33 51.89 54.78 59.82 61.25 62.02 62.52 62.70 61.43 60.06 59.17 59.72 58.62 57.96 58.91 58.11 55.49 55.35 54.24 53.73 54.44 54.08 54.75
37.55 37.30 42.93 43.24 45.10 45.17 41.94 39.68 43.55 36.25 36.62 35.00 38.49 40.90 43.26 44.92 47.18 47.75 47.96 47.21 46.48 47.55 49.88 52.19 55.55 59.80 60.17 60.32 60.11 60.17 59.86 59.56 60.12 58.81 58.81 59.10 59.62 59.36 58.26 57.49 56.31 56.25 55.24 54.16
40.67 35.67 40.68 41.79 45.58 44.76 43.72 44.82 38.65 40.95 31.83 30.07 35.70 36.22 36.11 41.54 43.78 46.07 47.21 45.54 45.10 46.42 48.04 49.59 51.36 53.65 56.27 57.82 60.08 60.04 60.93 60.42 59.97 59.75 59.93 60.03 59.37 59.10 58.71 56.93 55.76 54.85 54.68 54.19
42.00 38.72 38.80 40.73 39.66 39.17 41.61 40.72 40.61 41.38 39.44 33.53 32.30 35.36 42.94 42.71 44.16 44.71 46.27 46.68 44.77 44.45 46.96 47.96 48.50 48.99 50.13 50.81 51.37 53.45 54.21 56.04 55.69 55.40 55.07 53.70 52.28 50.68 50.87 50.76 50.74 51.44 52.04 50.89
41.98 39.46 35.69 37.19 41.19 41.82 41.71 39.91 39.34 37.20 33.74 39.64 37.07 37.40 44.99 44.91 45.07 45.88 46.13 46.43 45.12 44.73 46.24 48.20 47.32 47.26 48.51 49.35 48.87 48.02 48.34 47.69 48.31 48.83 47.33 46.13 45.87 45.46 44.83 44.89 46.25 46.95 46.33 48.21
42.39 38.61 34.86 36.06 39.65 40.62 38.49 39.31 39.20 39.53 40.41 35.94 34.71 37.27 44.42 45.42 45.82 45.67 45.52 47.07 44.55 45.72 46.38 47.07 47.55 47.60 45.76 45.08 44.65 45.26 46.40 46.81 47.38 47.17 45.85 45.48 44.87 44.73 44.68 45.45 45.96 46.73 47.36 46.99
44.01 39.79 37.03 34.38 36.13 37.62 35.90 37.24 38.57 37.99 36.84 36.66 37.64 38.15 42.23 43.27 44.53 45.70 44.41 46.62 45.88 46.07 45.52 46.97 47.41 45.57 46.10 46.01 45.25 45.05 45.10 45.97 46.46 46.06 45.97 44.98 44.57 45.11 45.21 44.81 45.22 45.63 46.31 45.96
42.20 36.55 37.06 37.93 37.91 37.36 36.47 35.95 37.27 36.29 39.86 36.30 37.46 37.16 41.48 44.02 45.31 45.92 46.42 45.95 46.52 46.22 44.45 45.62 46.27 46.55 46.30 45.52 45.64 46.19 45.43 45.26 45.27 44.44 44.93 44.61 45.21 45.78 45.74 45.09 45.25 45.51 45.85 45.88
38.57 36.08 35.54 35.82 37.53 37.25 36.03 39.06 39.41 39.24 39.53 39.27 39.42 38.35 44.65 46.09 46.88 46.10 46.52 46.67 46.06 45.28 45.36 45.84 46.06 46.19 45.80 45.99 45.54 45.29 45.34 45.92 46.47 45.78 45.13 45.70 45.85 45.50 45.45 45.38 45.14 45.23 45.12 45.17
37.64 37.52 35.30 34.68 36.77 37.88 36.55 39.66 40.10 40.72 41.30 39.87 37.15 42.13 45.66 44.50 45.14 46.26 46.39 46.91 46.38 45.98 45.74 45.79 45.98 45.84 45.74 45.52 45.83 45.18 45.70 46.42 45.83 45.29 45.41 45.50 45.44 44.94 44.88 45.02 44.65 44.31 44.10 44.62
37.43 36.42 36.49 34.30 37.48 31.80 39.47 42.70 41.82 40.53 41.40 42.32 41.26 43.02 45.54 46.32 47.12 48.09 48.84 47.65 47.02 46.34 46.03 45.90 45.90 45.60 45.74 46.02 45.55 45.76 45.92 45.63 45.04 44.71 44.63 45.09 44.84 44.30 44.49 44.25 43.95 43.88 44.19 43.81
39.59 37.89 35.05 33.86 34.62 38.67 40.34 40.69 40.58 39.30 40.93 44.03 43.12 43.88 44.79 45.60 46.06 46.30 48.42 49.14 48.56 47.78 47.55 47.19 47.18 46.28 45.93 45.56 45.69 45.34 44.83 44.70 44.40 44.05 44.18 44.37 44.34 43.57 43.58 43.45 43.49 43.69 43.63 43.37
37.20 38.70 35.81 35.10 31.72 31.10 39.15 41.71 42.82 42.43 37.76 43.31 44.97 44.63 44.09 44.80 42.00 45.74 48.14 48.62 48.54 48.54 47.45 46.33 46.27 46.02 45.59 44.94 45.51 44.81 44.16 44.19 43.48 43.70 43.39 43.65 43.57 43.34 42.87 43.16 42.91 43.24 43.00 41.68
34.01 34.74 33.10 34.86 34.00 37.97 43.70 42.90 42.43 35.96 40.34 43.54 45.67 45.91 45.29 44.42 46.65 47.34 48.47 48.15 48.80 48.16 46.73 46.53 45.62 45.38 45.26 45.03 45.27 44.04 44.11 43.21 43.37 43.49 43.13 42.90 43.08 42.43 42.45 42.58 41.82 41.18 40.26 39.69
35.81 34.10 33.23 35.10 32.64 31.61 44.69 42.25 39.29 45.21 45.13 44.92 46.21 46.72 45.88 47.50 45.84 45.70 46.50 46.95 46.63 46.22 45.38 45.18 44.92 44.68 44.56 44.96 45.04 43.96 43.27 43.31 43.40 42.79 41.97 41.63 41.44 40.61 40.65 40.25 40.15 39.41 38.73 37.72
36.86 40.78 39.39 39.60 41.01 45.17 45.35 46.38 47.02 46.66 46.48 46.52 47.22 47.94 47.17 46.60 45.74 45.45 44.87 45.57 45.55 45.30 44.75 44.94 44.59 43.49 43.83 44.59 45.14 43.62 42.58 42.76 42.11 41.75 41.01 40.25 39.84 39.88 39.63 38.99 38.27 38.06 37.52 37.02
40.64 41.89 40.10 40.08 45.01 43.68 44.33 46.68 47.04 46.98 47.08 48.40 48.29 48.07 47.84 46.99 47.15 45.83 45.33 44.68 44.38 44.59 43.51 44.06 43.54 42.68 42.32 43.78 44.32 44.17 42.67 42.30 41.58 40.50 40.05 39.76 39.16 38.03 38.00 38.12 38.11 37.60 37.12 36.08
42.48 41.28 41.21 41.54 44.39 44.13 44.80 46.10 48.01 48.39 48.06 47.67 47.84 47.81 47.44 47.50 47.25 46.48 44.79 44.18 43.86 43.38 43.11 43.10 43.16 42.76 42.18 43.16 42.92 42.54 42.05 41.77 40.66 40.02 38.77 38.16 37.54 37.19 37.18 37.27 37.32 36.60 37.14 35.50
40.77 42.05 40.19 41.29 46.48 46.57 46.87 47.27 48.16 47.21 47.04 47.76 47.43 47.00 47.23 47.89 47.53 46.04 44.97 44.72 43.49 42.45 42.26 42.32 43.13 42.78 41.94 42.24 41.63 41.50 41.75 41.48 39.90 38.62 38.08 37.49 36.70 36.64 37.05 36.87 36.39 33.89 33.69 34.36

GFSCGP_sfc_wetblb_117.txt.gz
Wetbulb
51.35 48.46 45.02 46.45 47.54 46.98 45.91 44.88 44.52 47.29 49.11 47.47 46.75 46.55 47.49 50.62 50.84 50.89 51.33 53.27 53.60 54.11 55.57 55.53 55.88 64.96 67.65 67.57 66.22 64.11 66.00 67.71 66.56 66.60 67.82 66.89 65.87 66.96 66.36 64.86 63.30 60.62 58.83 57.31
48.07 45.64 47.53 48.25 47.88 46.63 45.72 44.63 44.52 47.19 48.62 47.67 46.45 45.34 48.02 49.85 49.98 51.03 51.09 51.55 53.81 54.76 55.82 56.42 56.00 59.29 64.66 67.06 66.02 66.43 67.11 67.23 66.63 68.15 67.16 66.17 65.46 66.53 65.47 65.18 63.51 59.71 57.84 56.76
44.63 46.65 47.29 46.22 46.27 44.36 45.31 43.66 43.31 43.67 47.42 48.56 46.22 43.75 45.62 48.38 49.82 49.75 50.77 52.08 53.11 54.75 54.92 56.19 56.95 58.23 62.76 66.18 66.01 66.65 66.89 67.59 67.04 67.78 66.11 63.28 61.13 61.11 62.81 63.12 62.60 58.49 55.81 55.14
45.74 47.34 45.24 45.19 44.57 45.08 42.12 46.59 46.48 45.56 43.86 39.99 46.48 38.08 44.39 46.16 46.65 47.60 49.02 50.08 52.74 54.14 56.18 57.10 57.07 58.31 60.69 64.42 67.76 67.62 66.30 66.64 67.17 66.71 63.47 61.82 60.09 58.62 59.96 58.00 56.57 56.01 55.90 53.83
43.79 44.05 44.18 43.91 43.89 46.22 44.08 47.79 46.42 46.01 44.31 43.69 42.84 38.65 41.69 45.47 41.91 44.35 46.48 49.01 50.22 51.79 55.24 58.00 57.57 58.48 59.67 63.64 65.63 67.62 66.22 65.28 65.16 64.45 63.45 63.52 61.25 59.65 57.06 54.42 53.53 53.08 53.82 53.88
44.54 47.16 46.05 45.92 46.67 47.45 48.20 47.29 47.05 46.34 44.85 37.54 40.91 38.86 39.52 39.96 40.76 43.12 47.80 48.35 48.91 50.59 53.02 58.29 60.08 59.77 60.00 63.86 65.66 66.03 64.06 63.41 63.31 63.20 63.45 60.15 56.60 54.57 53.35 53.53 52.99 53.59 53.08 54.03
44.13 43.91 45.85 46.79 45.01 47.88 47.14 45.29 40.42 37.57 37.53 35.63 42.56 39.70 40.43 44.49 44.79 46.99 47.19 46.84 48.30 50.16 52.07 55.94 59.71 59.94 60.85 64.21 64.94 64.16 62.92 61.49 63.04 61.00 59.19 57.27 55.62 54.66 53.88 53.26 52.58 52.28 53.39 53.79
39.33 38.12 42.51 45.47 44.93 42.49 44.58 44.05 37.72 29.91 32.40 35.56 42.60 36.22 40.81 47.29 48.39 49.44 49.27 47.39 47.93 49.17 50.78 53.65 60.53 61.86 62.03 63.01 62.46 60.42 60.25 59.60 58.95 57.83 57.70 57.03 55.39 54.45 53.46 53.97 54.35 54.39 54.46 54.89
39.53 39.31 44.54 44.50 46.74 46.22 43.49 40.65 44.73 38.29 40.06 37.04 40.31 41.87 46.85 48.82 48.39 48.50 47.71 46.71 46.09 47.83 49.98 51.54 53.90 59.15 59.96 60.05 59.90 59.80 59.44 58.34 58.26 58.66 58.83 58.40 57.94 57.28 56.20 55.21 54.82 56.23 55.33 55.51
42.72 37.28 42.76 42.93 46.24 46.63 44.27 45.76 40.19 42.34 33.34 31.79 37.80 37.48 37.78 43.31 45.21 47.39 47.21 45.20 45.36 48.21 49.14 49.97 51.06 52.22 54.27 57.46 59.46 59.79 59.49 58.34 58.51 59.28 59.92 59.30 59.19 58.40 57.94 57.35 56.27 55.84 54.59 53.85
43.17 40.52 40.93 42.83 41.82 41.24 43.30 42.52 42.70 42.94 40.26 34.78 33.74 36.75 44.35 44.17 46.09 46.35 47.60 44.76 44.89 47.06 47.36 47.77 49.24 50.56 51.46 54.10 56.98 56.79 53.71 56.30 53.74 52.35 53.79 52.16 50.62 50.52 50.57 50.03 51.28 52.75 52.57 52.32
43.83 42.06 38.35 39.42 43.56 44.62 43.77 41.51 41.75 37.59 36.05 40.23 38.91 38.04 46.78 46.89 48.04 48.14 46.51 46.64 46.23 47.02 48.61 48.57 48.33 49.16 48.67 48.70 49.63 52.22 50.89 49.68 49.21 47.60 46.77 46.76 46.81 45.86 45.57 46.10 46.61 47.84 49.53 50.11
44.70 41.44 37.36 37.76 41.25 42.91 40.34 40.99 40.55 40.62 42.33 39.08 35.48 37.97 47.00 47.62 48.19 48.60 48.71 46.27 45.96 46.48 47.43 47.39 49.10 47.49 46.64 46.19 47.83 47.80 47.95 47.42 46.36 46.44 45.45 45.73 45.79 46.38 46.14 46.02 46.68 47.08 47.78 48.14
44.73 42.64 39.85 37.07 39.02 40.94 38.57 40.09 40.36 39.17 37.26 38.59 38.94 38.15 43.71 45.12 46.73 48.42 48.80 47.52 45.33 45.71 47.33 48.90 46.90 47.34 46.86 46.21 46.13 47.79 47.95 48.11 47.42 46.58 45.90 45.59 45.72 45.60 46.35 46.83 47.15 47.07 47.41 46.82
43.86 40.14 40.99 41.19 40.78 40.26 39.39 38.72 39.00 37.67 40.06 37.72 39.71 38.84 41.78 45.51 47.09 49.00 49.55 49.65 49.14 47.24 46.72 48.32 48.30 47.72 46.69 46.20 45.83 46.11 46.55 46.89 47.50 46.21 45.48 45.66 46.06 46.49 46.41 46.26 46.29 46.40 46.37 46.26
42.75 39.25 38.97 38.72 41.73 39.63 38.56 40.64 40.89 40.85 41.76 41.40 41.79 40.62 44.99 48.02 48.94 48.65 49.74 49.35 48.63 48.37 47.66 47.98 48.30 48.44 47.72 46.83 46.46 46.37 46.48 46.37 47.08 46.16 45.55 46.12 45.88 45.98 45.71 45.71 45.41 45.36 45.26 45.09
41.10 39.93 39.08 37.45 40.01 40.20 38.23 41.64 42.06 42.07 43.81 43.17 38.54 43.67 47.07 46.03 46.74 47.81 49.47 49.75 48.64 48.33 48.14 48.09 48.16 48.09 47.78 47.42 47.40 46.54 47.04 47.32 46.64 46.11 46.20 46.03 45.72 45.14 45.04 45.01 44.74 44.46 44.43 44.66
40.62 39.90 39.52 36.73 40.08 34.09 41.31 44.58 44.64 43.41 43.76 44.49 43.25 44.43 46.67 47.41 48.52 49.44 50.62 50.59 49.62 48.83 48.60 48.52 48.30 47.85 47.80 47.95 47.50 47.41 47.30 46.78 46.34 45.83 45.66 45.67 45.02 44.34 44.44 44.49 44.25 44.18 44.48 43.95
42.40 40.79 37.48 35.55 37.19 41.09 41.96 43.05 41.96 41.26 42.31 46.04 44.54 45.16 46.37 48.25 48.45 48.00 50.41 51.16 50.56 49.76 49.47 49.09 48.92 48.27 47.95 47.44 47.42 46.91 46.35 46.20 45.64 45.07 44.70 44.68 44.40 43.79 44.01 43.57 43.62 43.71 43.51 43.24
40.75 40.89 38.39 38.28 33.67 33.11 42.04 44.02 45.21 44.51 38.60 46.63 46.54 46.03 45.93 46.84 42.19 45.99 49.99 50.70 50.55 50.25 49.81 48.84 48.78 48.14 47.55 47.19 47.41 46.47 45.70 45.48 44.48 44.48 43.98 44.00 43.99 43.59 43.15 43.42 42.96 43.05 42.67 41.49
36.22 37.16 35.25 36.92 36.17 40.57 46.01 44.53 45.09 36.96 40.96 45.60 47.16 47.33 46.96 45.11 47.49 50.65 50.82 50.40 51.01 50.25 49.26 49.16 48.24 47.35 47.21 47.27 47.06 45.72 45.53 44.57 44.65 44.48 44.00 43.75 43.91 43.15 43.08 42.68 42.01 41.30 40.32 40.09
38.03 36.87 36.31 38.36 35.91 33.96 47.21 43.76 40.70 46.48 47.48 47.53 47.90 48.32 47.77 48.70 48.16 49.17 50.07 49.97 49.92 49.20 48.38 48.16 47.25 47.13 47.09 47.09 46.67 45.46 44.89 44.86 44.57 43.76 43.03 42.77 42.66 41.54 41.72 40.97 40.37 39.60 38.96 38.24
38.68 43.43 41.54 41.91 42.36 47.86 47.80 47.82 48.62 49.44 49.11 48.48 48.77 49.32 49.06 48.51 48.22 48.15 48.61 49.37 49.47 49.12 47.99 47.89 47.37 46.72 46.44 46.60 46.81 45.35 44.82 44.64 43.56 42.76 42.02 41.74 41.32 40.56 39.94 38.81 38.38 38.36 38.34 37.60
44.04 46.85 42.94 42.43 46.08 46.40 47.30 48.45 48.92 48.83 49.08 50.33 50.83 50.32 49.87 48.53 49.15 48.21 48.17 48.50 48.58 48.60 47.53 47.39 46.91 45.37 44.84 46.00 46.23 46.19 44.73 44.10 42.94 41.92 41.34 40.99 39.91 38.69 38.34 38.70 38.53 37.86 37.38 36.38
45.43 44.54 43.11 43.39 46.37 46.71 47.59 48.41 49.35 49.32 50.21 49.75 50.32 50.53 50.25 50.10 49.40 49.32 48.23 47.92 48.12 48.25 47.88 47.17 46.22 45.30 44.63 45.37 45.35 45.00 44.13 43.42 41.93 41.41 40.55 39.78 39.06 37.62 37.55 37.78 37.48 36.74 37.12 35.42
44.94 43.99 42.44 42.59 47.77 47.56 48.55 50.18 50.57 48.54 49.23 50.07 49.58 49.43 49.88 50.12 49.43 49.89 48.84 48.52 47.99 47.40 47.05 46.15 46.06 45.64 44.80 44.50 44.23 43.52 43.39 42.81 41.66 40.25 39.41 38.88 37.65 37.29 37.31 36.84 36.54 35.22 34.54 34.22